<?xml version="1.0" encoding="UTF-8"?>
<gpx version="1.1" creator="https://www.youtrack.es" xsi:schemaLocation="http://www.topografix.com/GPX/1/1 http://www.topografix.com/GPX/1/1/gpx.xsd http://www.garmin.com/xmlschemas/GpxExtensions/v3 http://www.garmin.com/xmlschemas/GpxExtensionsv3.xsd http://www.garmin.com/xmlschemas/TrackPointExtension/v1 http://www.garmin.com/xmlschemas/TrackPointExtensionv1.xsd" xmlns:gpxtpx="http://www.garmin.com/xmlschemas/TrackPointExtension/v1" xmlns:gpxx="http://www.garmin.com/xmlschemas/GpxExtensions/v3" xmlns:xsi="http://www.w3.org/2001/XMLSchema-instance">
  <metadata>
    <link href="https://www.youtrack.es">
      <text>YouTrack.es</text>
    </link>
    <time>2026-05-08T08:48:54Z</time>
  </metadata>
  <trk>
    <src>https://www.youtrack.es</src>
    <link href="https://www.youtrack.es/ruta/39825-garraf">
      <text>YouTrack.es</text>
    </link>
    <trkseg>
      <trkpt lat="41.489378" lon="2.131803">
        <ele>97.495448</ele>
        <time>2023-01-22T07:10:47.000Z</time>
      </trkpt>
      <trkpt lat="41.489247" lon="2.131882">
        <ele>97.495448</ele>
        <time>2023-01-22T07:10:53.000Z</time>
      </trkpt>
      <trkpt lat="41.489234" lon="2.131891">
        <ele>97.495448</ele>
        <time>2023-01-22T07:11:00.000Z</time>
      </trkpt>
      <trkpt lat="41.489229" lon="2.131898">
        <ele>97.495448</ele>
        <time>2023-01-22T07:11:10.000Z</time>
      </trkpt>
      <trkpt lat="41.489232" lon="2.131900">
        <ele>97.495448</ele>
        <time>2023-01-22T07:11:21.000Z</time>
      </trkpt>
      <trkpt lat="41.489233" lon="2.131904">
        <ele>97.495448</ele>
        <time>2023-01-22T07:11:24.000Z</time>
      </trkpt>
      <trkpt lat="41.489251" lon="2.131904">
        <ele>97.495448</ele>
        <time>2023-01-22T07:11:34.000Z</time>
      </trkpt>
      <trkpt lat="41.489170" lon="2.131931">
        <ele>97.495448</ele>
        <time>2023-01-22T07:11:44.000Z</time>
      </trkpt>
      <trkpt lat="41.489115" lon="2.131950">
        <ele>97.495448</ele>
        <time>2023-01-22T07:11:46.000Z</time>
      </trkpt>
      <trkpt lat="41.489018" lon="2.131978">
        <ele>97.495448</ele>
        <time>2023-01-22T07:11:48.000Z</time>
      </trkpt>
      <trkpt lat="41.488687" lon="2.132044">
        <ele>97.495448</ele>
        <time>2023-01-22T07:11:53.000Z</time>
      </trkpt>
      <trkpt lat="41.488374" lon="2.132062">
        <ele>97.158748</ele>
        <time>2023-01-22T07:11:57.000Z</time>
      </trkpt>
      <trkpt lat="41.488302" lon="2.132067">
        <ele>97.022622</ele>
        <time>2023-01-22T07:11:58.000Z</time>
      </trkpt>
      <trkpt lat="41.488155" lon="2.132085">
        <ele>96.743908</ele>
        <time>2023-01-22T07:12:00.000Z</time>
      </trkpt>
      <trkpt lat="41.488090" lon="2.132100">
        <ele>96.619362</ele>
        <time>2023-01-22T07:12:01.000Z</time>
      </trkpt>
      <trkpt lat="41.487959" lon="2.132118">
        <ele>96.370716</ele>
        <time>2023-01-22T07:12:03.000Z</time>
      </trkpt>
      <trkpt lat="41.487745" lon="2.132153">
        <ele>95.963645</ele>
        <time>2023-01-22T07:12:06.000Z</time>
      </trkpt>
      <trkpt lat="41.487673" lon="2.132160">
        <ele>95.827342</ele>
        <time>2023-01-22T07:12:07.000Z</time>
      </trkpt>
      <trkpt lat="41.487525" lon="2.132173">
        <ele>95.547301</ele>
        <time>2023-01-22T07:12:09.000Z</time>
      </trkpt>
      <trkpt lat="41.487140" lon="2.132212">
        <ele>94.818298</ele>
        <time>2023-01-22T07:12:14.000Z</time>
      </trkpt>
      <trkpt lat="41.486708" lon="2.132268">
        <ele>93.983008</ele>
        <time>2023-01-22T07:12:20.000Z</time>
      </trkpt>
      <trkpt lat="41.486304" lon="2.132321">
        <ele>93.096229</ele>
        <time>2023-01-22T07:12:25.000Z</time>
      </trkpt>
      <trkpt lat="41.486145" lon="2.132341">
        <ele>92.747358</ele>
        <time>2023-01-22T07:12:27.000Z</time>
      </trkpt>
      <trkpt lat="41.486065" lon="2.132348">
        <ele>92.572225</ele>
        <time>2023-01-22T07:12:28.000Z</time>
      </trkpt>
      <trkpt lat="41.485800" lon="2.132369">
        <ele>91.992320</ele>
        <time>2023-01-22T07:12:32.000Z</time>
      </trkpt>
      <trkpt lat="41.485744" lon="2.132372">
        <ele>91.869891</ele>
        <time>2023-01-22T07:12:33.000Z</time>
      </trkpt>
      <trkpt lat="41.485706" lon="2.132333">
        <ele>91.765183</ele>
        <time>2023-01-22T07:12:34.000Z</time>
      </trkpt>
      <trkpt lat="41.485659" lon="2.132289">
        <ele>91.639781</ele>
        <time>2023-01-22T07:12:35.000Z</time>
      </trkpt>
      <trkpt lat="41.485599" lon="2.132231">
        <ele>91.477955</ele>
        <time>2023-01-22T07:12:36.000Z</time>
      </trkpt>
      <trkpt lat="41.485602" lon="2.132144">
        <ele>91.335434</ele>
        <time>2023-01-22T07:12:37.000Z</time>
      </trkpt>
      <trkpt lat="41.485613" lon="2.131946">
        <ele>91.010530</ele>
        <time>2023-01-22T07:12:39.000Z</time>
      </trkpt>
      <trkpt lat="41.485609" lon="2.131773">
        <ele>90.727291</ele>
        <time>2023-01-22T07:12:41.000Z</time>
      </trkpt>
      <trkpt lat="41.485605" lon="2.131680">
        <ele>90.574851</ele>
        <time>2023-01-22T07:12:42.000Z</time>
      </trkpt>
      <trkpt lat="41.485567" lon="2.130954">
        <ele>90.003856</ele>
        <time>2023-01-22T07:12:49.000Z</time>
      </trkpt>
      <trkpt lat="41.485557" lon="2.130766">
        <ele>89.938558</ele>
        <time>2023-01-22T07:12:51.000Z</time>
      </trkpt>
      <trkpt lat="41.485565" lon="2.130235">
        <ele>89.754551</ele>
        <time>2023-01-22T07:12:56.000Z</time>
      </trkpt>
      <trkpt lat="41.485572" lon="2.129833">
        <ele>89.615238</ele>
        <time>2023-01-22T07:13:00.000Z</time>
      </trkpt>
      <trkpt lat="41.485553" lon="2.129559">
        <ele>89.519902</ele>
        <time>2023-01-22T07:13:03.000Z</time>
      </trkpt>
      <trkpt lat="41.485510" lon="2.128878">
        <ele>89.534936</ele>
        <time>2023-01-22T07:13:10.000Z</time>
      </trkpt>
      <trkpt lat="41.485498" lon="2.128669">
        <ele>89.792474</ele>
        <time>2023-01-22T07:13:12.000Z</time>
      </trkpt>
      <trkpt lat="41.485536" lon="2.128497">
        <ele>90.012797</ele>
        <time>2023-01-22T07:13:14.000Z</time>
      </trkpt>
      <trkpt lat="41.485572" lon="2.128415">
        <ele>90.129572</ele>
        <time>2023-01-22T07:13:15.000Z</time>
      </trkpt>
      <trkpt lat="41.485638" lon="2.128247">
        <ele>90.362644</ele>
        <time>2023-01-22T07:13:17.000Z</time>
      </trkpt>
      <trkpt lat="41.485655" lon="2.128161">
        <ele>90.471923</ele>
        <time>2023-01-22T07:13:18.000Z</time>
      </trkpt>
      <trkpt lat="41.485655" lon="2.128076">
        <ele>90.576357</ele>
        <time>2023-01-22T07:13:19.000Z</time>
      </trkpt>
      <trkpt lat="41.485610" lon="2.127910">
        <ele>90.793253</ele>
        <time>2023-01-22T07:13:21.000Z</time>
      </trkpt>
      <trkpt lat="41.485573" lon="2.127838">
        <ele>90.900528</ele>
        <time>2023-01-22T07:13:22.000Z</time>
      </trkpt>
      <trkpt lat="41.485525" lon="2.127779">
        <ele>91.007543</ele>
        <time>2023-01-22T07:13:23.000Z</time>
      </trkpt>
      <trkpt lat="41.485472" lon="2.127728">
        <ele>91.114698</ele>
        <time>2023-01-22T07:13:24.000Z</time>
      </trkpt>
      <trkpt lat="41.485374" lon="2.127613">
        <ele>91.328702</ele>
        <time>2023-01-22T07:13:26.000Z</time>
      </trkpt>
      <trkpt lat="41.485338" lon="2.127543">
        <ele>91.433024</ele>
        <time>2023-01-22T07:13:27.000Z</time>
      </trkpt>
      <trkpt lat="41.485316" lon="2.127464">
        <ele>91.536576</ele>
        <time>2023-01-22T07:13:28.000Z</time>
      </trkpt>
      <trkpt lat="41.485303" lon="2.127376">
        <ele>91.646778</ele>
        <time>2023-01-22T07:13:29.000Z</time>
      </trkpt>
      <trkpt lat="41.485282" lon="2.127051">
        <ele>92.047568</ele>
        <time>2023-01-22T07:13:33.000Z</time>
      </trkpt>
      <trkpt lat="41.485260" lon="2.126612">
        <ele>92.659420</ele>
        <time>2023-01-22T07:13:38.000Z</time>
      </trkpt>
      <trkpt lat="41.485250" lon="2.126523">
        <ele>92.796289</ele>
        <time>2023-01-22T07:13:39.000Z</time>
      </trkpt>
      <trkpt lat="41.485247" lon="2.126349">
        <ele>93.060987</ele>
        <time>2023-01-22T07:13:41.000Z</time>
      </trkpt>
      <trkpt lat="41.485246" lon="2.126088">
        <ele>93.457933</ele>
        <time>2023-01-22T07:13:44.000Z</time>
      </trkpt>
      <trkpt lat="41.485245" lon="2.126006">
        <ele>93.582659</ele>
        <time>2023-01-22T07:13:45.000Z</time>
      </trkpt>
      <trkpt lat="41.485256" lon="2.125827">
        <ele>93.855805</ele>
        <time>2023-01-22T07:13:47.000Z</time>
      </trkpt>
      <trkpt lat="41.485281" lon="2.125467">
        <ele>94.405657</ele>
        <time>2023-01-22T07:13:51.000Z</time>
      </trkpt>
      <trkpt lat="41.485333" lon="2.125024">
        <ele>95.087612</ele>
        <time>2023-01-22T07:13:56.000Z</time>
      </trkpt>
      <trkpt lat="41.485386" lon="2.124689">
        <ele>95.608333</ele>
        <time>2023-01-22T07:14:00.000Z</time>
      </trkpt>
      <trkpt lat="41.485449" lon="2.124444">
        <ele>96.014520</ele>
        <time>2023-01-22T07:14:03.000Z</time>
      </trkpt>
      <trkpt lat="41.485471" lon="2.124363">
        <ele>96.171309</ele>
        <time>2023-01-22T07:14:04.000Z</time>
      </trkpt>
      <trkpt lat="41.485490" lon="2.124284">
        <ele>96.322297</ele>
        <time>2023-01-22T07:14:05.000Z</time>
      </trkpt>
      <trkpt lat="41.485595" lon="2.123904">
        <ele>97.059344</ele>
        <time>2023-01-22T07:14:10.000Z</time>
      </trkpt>
      <trkpt lat="41.485671" lon="2.123598">
        <ele>97.645993</ele>
        <time>2023-01-22T07:14:14.000Z</time>
      </trkpt>
      <trkpt lat="41.485692" lon="2.123521">
        <ele>97.795111</ele>
        <time>2023-01-22T07:14:15.000Z</time>
      </trkpt>
      <trkpt lat="41.485772" lon="2.123213">
        <ele>98.388327</ele>
        <time>2023-01-22T07:14:19.000Z</time>
      </trkpt>
      <trkpt lat="41.485898" lon="2.122730">
        <ele>99.319032</ele>
        <time>2023-01-22T07:14:25.000Z</time>
      </trkpt>
      <trkpt lat="41.485951" lon="2.122556">
        <ele>99.660841</ele>
        <time>2023-01-22T07:14:27.000Z</time>
      </trkpt>
      <trkpt lat="41.485985" lon="2.122484">
        <ele>99.815722</ele>
        <time>2023-01-22T07:14:28.000Z</time>
      </trkpt>
      <trkpt lat="41.486029" lon="2.122424">
        <ele>99.968514</ele>
        <time>2023-01-22T07:14:29.000Z</time>
      </trkpt>
      <trkpt lat="41.486240" lon="2.122255">
        <ele>100.450251</ele>
        <time>2023-01-22T07:14:33.000Z</time>
      </trkpt>
      <trkpt lat="41.486324" lon="2.122138">
        <ele>100.612060</ele>
        <time>2023-01-22T07:14:35.000Z</time>
      </trkpt>
      <trkpt lat="41.486373" lon="2.121987">
        <ele>100.776367</ele>
        <time>2023-01-22T07:14:37.000Z</time>
      </trkpt>
      <trkpt lat="41.486362" lon="2.121807">
        <ele>100.956687</ele>
        <time>2023-01-22T07:14:39.000Z</time>
      </trkpt>
      <trkpt lat="41.486338" lon="2.121721">
        <ele>101.048320</ele>
        <time>2023-01-22T07:14:40.000Z</time>
      </trkpt>
      <trkpt lat="41.486294" lon="2.121542">
        <ele>101.236422</ele>
        <time>2023-01-22T07:14:42.000Z</time>
      </trkpt>
      <trkpt lat="41.486290" lon="2.121449">
        <ele>101.329432</ele>
        <time>2023-01-22T07:14:43.000Z</time>
      </trkpt>
      <trkpt lat="41.486296" lon="2.121356">
        <ele>101.422633</ele>
        <time>2023-01-22T07:14:44.000Z</time>
      </trkpt>
      <trkpt lat="41.486340" lon="2.121001">
        <ele>101.781907</ele>
        <time>2023-01-22T07:14:48.000Z</time>
      </trkpt>
      <trkpt lat="41.486387" lon="2.120451">
        <ele>102.334624</ele>
        <time>2023-01-22T07:14:55.000Z</time>
      </trkpt>
      <trkpt lat="41.486386" lon="2.120379">
        <ele>102.406526</ele>
        <time>2023-01-22T07:14:56.000Z</time>
      </trkpt>
      <trkpt lat="41.486377" lon="2.120018">
        <ele>102.895822</ele>
        <time>2023-01-22T07:15:01.000Z</time>
      </trkpt>
      <trkpt lat="41.486371" lon="2.119877">
        <ele>103.336158</ele>
        <time>2023-01-22T07:15:03.000Z</time>
      </trkpt>
      <trkpt lat="41.486361" lon="2.119732">
        <ele>103.790169</ele>
        <time>2023-01-22T07:15:05.000Z</time>
      </trkpt>
      <trkpt lat="41.486339" lon="2.119524">
        <ele>104.445129</ele>
        <time>2023-01-22T07:15:08.000Z</time>
      </trkpt>
      <trkpt lat="41.486321" lon="2.119384">
        <ele>104.888021</ele>
        <time>2023-01-22T07:15:10.000Z</time>
      </trkpt>
      <trkpt lat="41.486295" lon="2.119243">
        <ele>105.340771</ele>
        <time>2023-01-22T07:15:12.000Z</time>
      </trkpt>
      <trkpt lat="41.486283" lon="2.119172">
        <ele>105.567708</ele>
        <time>2023-01-22T07:15:13.000Z</time>
      </trkpt>
      <trkpt lat="41.486262" lon="2.119046">
        <ele>105.970172</ele>
        <time>2023-01-22T07:15:15.000Z</time>
      </trkpt>
      <trkpt lat="41.486208" lon="2.118763">
        <ele>106.880721</ele>
        <time>2023-01-22T07:15:19.000Z</time>
      </trkpt>
      <trkpt lat="41.486162" lon="2.118586">
        <ele>107.464862</ele>
        <time>2023-01-22T07:15:22.000Z</time>
      </trkpt>
      <trkpt lat="41.486145" lon="2.118525">
        <ele>107.667791</ele>
        <time>2023-01-22T07:15:23.000Z</time>
      </trkpt>
      <trkpt lat="41.486115" lon="2.118397">
        <ele>108.085964</ele>
        <time>2023-01-22T07:15:25.000Z</time>
      </trkpt>
      <trkpt lat="41.486064" lon="2.118206">
        <ele>108.718189</ele>
        <time>2023-01-22T07:15:28.000Z</time>
      </trkpt>
      <trkpt lat="41.486017" lon="2.118009">
        <ele>109.362821</ele>
        <time>2023-01-22T07:15:31.000Z</time>
      </trkpt>
      <trkpt lat="41.485862" lon="2.117381">
        <ele>109.424615</ele>
        <time>2023-01-22T07:15:40.000Z</time>
      </trkpt>
      <trkpt lat="41.485826" lon="2.117238">
        <ele>109.131247</ele>
        <time>2023-01-22T07:15:42.000Z</time>
      </trkpt>
      <trkpt lat="41.485699" lon="2.116705">
        <ele>108.043580</ele>
        <time>2023-01-22T07:15:49.000Z</time>
      </trkpt>
      <trkpt lat="41.485606" lon="2.116381">
        <ele>107.368843</ele>
        <time>2023-01-22T07:15:53.000Z</time>
      </trkpt>
      <trkpt lat="41.485570" lon="2.116281">
        <ele>107.153088</ele>
        <time>2023-01-22T07:15:54.000Z</time>
      </trkpt>
      <trkpt lat="41.485534" lon="2.116199">
        <ele>106.968259</ele>
        <time>2023-01-22T07:15:55.000Z</time>
      </trkpt>
      <trkpt lat="41.485499" lon="2.116119">
        <ele>106.788099</ele>
        <time>2023-01-22T07:15:56.000Z</time>
      </trkpt>
      <trkpt lat="41.485445" lon="2.115947">
        <ele>106.425430</ele>
        <time>2023-01-22T07:15:58.000Z</time>
      </trkpt>
      <trkpt lat="41.485426" lon="2.115847">
        <ele>106.224807</ele>
        <time>2023-01-22T07:15:59.000Z</time>
      </trkpt>
      <trkpt lat="41.485388" lon="2.115539">
        <ele>105.617782</ele>
        <time>2023-01-22T07:16:02.000Z</time>
      </trkpt>
      <trkpt lat="41.485378" lon="2.115326">
        <ele>105.215523</ele>
        <time>2023-01-22T07:16:04.000Z</time>
      </trkpt>
      <trkpt lat="41.485389" lon="2.115220">
        <ele>105.015700</ele>
        <time>2023-01-22T07:16:05.000Z</time>
      </trkpt>
      <trkpt lat="41.485419" lon="2.115122">
        <ele>104.818016</ele>
        <time>2023-01-22T07:16:06.000Z</time>
      </trkpt>
      <trkpt lat="41.485469" lon="2.115044">
        <ele>104.626321</ele>
        <time>2023-01-22T07:16:07.000Z</time>
      </trkpt>
      <trkpt lat="41.485529" lon="2.114980">
        <ele>104.434881</ele>
        <time>2023-01-22T07:16:08.000Z</time>
      </trkpt>
      <trkpt lat="41.485586" lon="2.114910">
        <ele>104.241821</ele>
        <time>2023-01-22T07:16:09.000Z</time>
      </trkpt>
      <trkpt lat="41.485648" lon="2.114727">
        <ele>103.866785</ele>
        <time>2023-01-22T07:16:11.000Z</time>
      </trkpt>
      <trkpt lat="41.485636" lon="2.114528">
        <ele>103.493993</ele>
        <time>2023-01-22T07:16:13.000Z</time>
      </trkpt>
      <trkpt lat="41.485602" lon="2.114440">
        <ele>103.309104</ele>
        <time>2023-01-22T07:16:14.000Z</time>
      </trkpt>
      <trkpt lat="41.485556" lon="2.114366">
        <ele>103.129547</ele>
        <time>2023-01-22T07:16:15.000Z</time>
      </trkpt>
      <trkpt lat="41.485455" lon="2.114232">
        <ele>102.774596</ele>
        <time>2023-01-22T07:16:17.000Z</time>
      </trkpt>
      <trkpt lat="41.485405" lon="2.114055">
        <ele>102.421367</ele>
        <time>2023-01-22T07:16:19.000Z</time>
      </trkpt>
      <trkpt lat="41.485390" lon="2.113963">
        <ele>102.245554</ele>
        <time>2023-01-22T07:16:20.000Z</time>
      </trkpt>
      <trkpt lat="41.485355" lon="2.113777">
        <ele>101.887448</ele>
        <time>2023-01-22T07:16:22.000Z</time>
      </trkpt>
      <trkpt lat="41.485261" lon="2.113416">
        <ele>101.173793</ele>
        <time>2023-01-22T07:16:26.000Z</time>
      </trkpt>
      <trkpt lat="41.485007" lon="2.112737">
        <ele>101.434614</ele>
        <time>2023-01-22T07:16:34.000Z</time>
      </trkpt>
      <trkpt lat="41.484945" lon="2.112576">
        <ele>101.538448</ele>
        <time>2023-01-22T07:16:36.000Z</time>
      </trkpt>
      <trkpt lat="41.484674" lon="2.111875">
        <ele>101.990915</ele>
        <time>2023-01-22T07:16:45.000Z</time>
      </trkpt>
      <trkpt lat="41.484644" lon="2.111798">
        <ele>102.040698</ele>
        <time>2023-01-22T07:16:46.000Z</time>
      </trkpt>
      <trkpt lat="41.484432" lon="2.111249">
        <ele>102.394972</ele>
        <time>2023-01-22T07:16:53.000Z</time>
      </trkpt>
      <trkpt lat="41.484373" lon="2.111109">
        <ele>102.587728</ele>
        <time>2023-01-22T07:16:55.000Z</time>
      </trkpt>
      <trkpt lat="41.484344" lon="2.111038">
        <ele>102.701126</ele>
        <time>2023-01-22T07:16:56.000Z</time>
      </trkpt>
      <trkpt lat="41.484144" lon="2.110528">
        <ele>103.508348</ele>
        <time>2023-01-22T07:17:03.000Z</time>
      </trkpt>
      <trkpt lat="41.484119" lon="2.110458">
        <ele>103.617092</ele>
        <time>2023-01-22T07:17:04.000Z</time>
      </trkpt>
      <trkpt lat="41.484024" lon="2.110210">
        <ele>104.007685</ele>
        <time>2023-01-22T07:17:07.000Z</time>
      </trkpt>
      <trkpt lat="41.483963" lon="2.110062">
        <ele>104.244559</ele>
        <time>2023-01-22T07:17:09.000Z</time>
      </trkpt>
      <trkpt lat="41.483935" lon="2.110009">
        <ele>104.335502</ele>
        <time>2023-01-22T07:17:10.000Z</time>
      </trkpt>
      <trkpt lat="41.483827" lon="2.109743">
        <ele>104.759770</ele>
        <time>2023-01-22T07:17:14.000Z</time>
      </trkpt>
      <trkpt lat="41.483812" lon="2.109672">
        <ele>104.863216</ele>
        <time>2023-01-22T07:17:15.000Z</time>
      </trkpt>
      <trkpt lat="41.483794" lon="2.109609">
        <ele>104.957767</ele>
        <time>2023-01-22T07:17:16.000Z</time>
      </trkpt>
      <trkpt lat="41.483743" lon="2.109508">
        <ele>105.128567</ele>
        <time>2023-01-22T07:17:18.000Z</time>
      </trkpt>
      <trkpt lat="41.483627" lon="2.109343">
        <ele>105.445873</ele>
        <time>2023-01-22T07:17:21.000Z</time>
      </trkpt>
      <trkpt lat="41.483584" lon="2.109279">
        <ele>105.566426</ele>
        <time>2023-01-22T07:17:22.000Z</time>
      </trkpt>
      <trkpt lat="41.483549" lon="2.109204">
        <ele>105.690334</ele>
        <time>2023-01-22T07:17:23.000Z</time>
      </trkpt>
      <trkpt lat="41.483490" lon="2.109045">
        <ele>105.867392</ele>
        <time>2023-01-22T07:17:25.000Z</time>
      </trkpt>
      <trkpt lat="41.483473" lon="2.108963">
        <ele>105.931428</ele>
        <time>2023-01-22T07:17:26.000Z</time>
      </trkpt>
      <trkpt lat="41.483281" lon="2.108223">
        <ele>106.520840</ele>
        <time>2023-01-22T07:17:35.000Z</time>
      </trkpt>
      <trkpt lat="41.483193" lon="2.107892">
        <ele>106.785187</ele>
        <time>2023-01-22T07:17:39.000Z</time>
      </trkpt>
      <trkpt lat="41.483094" lon="2.107560">
        <ele>107.054132</ele>
        <time>2023-01-22T07:17:43.000Z</time>
      </trkpt>
      <trkpt lat="41.483072" lon="2.107476">
        <ele>107.121106</ele>
        <time>2023-01-22T07:17:44.000Z</time>
      </trkpt>
      <trkpt lat="41.482881" lon="2.106767">
        <ele>107.821832</ele>
        <time>2023-01-22T07:17:53.000Z</time>
      </trkpt>
      <trkpt lat="41.482861" lon="2.106692">
        <ele>107.964391</ele>
        <time>2023-01-22T07:17:54.000Z</time>
      </trkpt>
      <trkpt lat="41.482842" lon="2.106618">
        <ele>108.104471</ele>
        <time>2023-01-22T07:17:55.000Z</time>
      </trkpt>
      <trkpt lat="41.482697" lon="2.106088">
        <ele>109.114865</ele>
        <time>2023-01-22T07:18:02.000Z</time>
      </trkpt>
      <trkpt lat="41.482643" lon="2.105859">
        <ele>109.544778</ele>
        <time>2023-01-22T07:18:05.000Z</time>
      </trkpt>
      <trkpt lat="41.482592" lon="2.105625">
        <ele>109.981182</ele>
        <time>2023-01-22T07:18:08.000Z</time>
      </trkpt>
      <trkpt lat="41.482524" lon="2.105303">
        <ele>110.580270</ele>
        <time>2023-01-22T07:18:12.000Z</time>
      </trkpt>
      <trkpt lat="41.482478" lon="2.105062">
        <ele>111.025625</ele>
        <time>2023-01-22T07:18:15.000Z</time>
      </trkpt>
      <trkpt lat="41.482448" lon="2.104889">
        <ele>111.343614</ele>
        <time>2023-01-22T07:18:17.000Z</time>
      </trkpt>
      <trkpt lat="41.482299" lon="2.104267">
        <ele>111.508465</ele>
        <time>2023-01-22T07:18:24.000Z</time>
      </trkpt>
      <trkpt lat="41.482080" lon="2.103715">
        <ele>110.821604</ele>
        <time>2023-01-22T07:18:30.000Z</time>
      </trkpt>
      <trkpt lat="41.481983" lon="2.103541">
        <ele>110.583106</ele>
        <time>2023-01-22T07:18:32.000Z</time>
      </trkpt>
      <trkpt lat="41.481823" lon="2.103293">
        <ele>110.223209</ele>
        <time>2023-01-22T07:18:35.000Z</time>
      </trkpt>
      <trkpt lat="41.481767" lon="2.103214">
        <ele>110.103613</ele>
        <time>2023-01-22T07:18:36.000Z</time>
      </trkpt>
      <trkpt lat="41.481411" lon="2.102818">
        <ele>109.423410</ele>
        <time>2023-01-22T07:18:42.000Z</time>
      </trkpt>
      <trkpt lat="41.481197" lon="2.102607">
        <ele>109.363155</ele>
        <time>2023-01-22T07:18:46.000Z</time>
      </trkpt>
      <trkpt lat="41.481161" lon="2.102562">
        <ele>109.400604</ele>
        <time>2023-01-22T07:18:47.000Z</time>
      </trkpt>
      <trkpt lat="41.481138" lon="2.102516">
        <ele>109.432063</ele>
        <time>2023-01-22T07:18:48.000Z</time>
      </trkpt>
      <trkpt lat="41.481112" lon="2.102364">
        <ele>109.520752</ele>
        <time>2023-01-22T07:18:51.000Z</time>
      </trkpt>
      <trkpt lat="41.481115" lon="2.102303">
        <ele>109.555526</ele>
        <time>2023-01-22T07:18:52.000Z</time>
      </trkpt>
      <trkpt lat="41.481117" lon="2.102236">
        <ele>109.593668</ele>
        <time>2023-01-22T07:18:53.000Z</time>
      </trkpt>
      <trkpt lat="41.481113" lon="2.102167">
        <ele>109.633036</ele>
        <time>2023-01-22T07:18:54.000Z</time>
      </trkpt>
      <trkpt lat="41.481069" lon="2.102032">
        <ele>109.716782</ele>
        <time>2023-01-22T07:18:56.000Z</time>
      </trkpt>
      <trkpt lat="41.480993" lon="2.101924">
        <ele>109.801068</ele>
        <time>2023-01-22T07:18:58.000Z</time>
      </trkpt>
      <trkpt lat="41.480949" lon="2.101889">
        <ele>109.839960</ele>
        <time>2023-01-22T07:18:59.000Z</time>
      </trkpt>
      <trkpt lat="41.480902" lon="2.101858">
        <ele>109.879765</ele>
        <time>2023-01-22T07:19:00.000Z</time>
      </trkpt>
      <trkpt lat="41.480794" lon="2.101815">
        <ele>109.965339</ele>
        <time>2023-01-22T07:19:02.000Z</time>
      </trkpt>
      <trkpt lat="41.480734" lon="2.101816">
        <ele>110.010900</ele>
        <time>2023-01-22T07:19:03.000Z</time>
      </trkpt>
      <trkpt lat="41.480603" lon="2.101833">
        <ele>110.110836</ele>
        <time>2023-01-22T07:19:05.000Z</time>
      </trkpt>
      <trkpt lat="41.480471" lon="2.101793">
        <ele>110.213613</ele>
        <time>2023-01-22T07:19:07.000Z</time>
      </trkpt>
      <trkpt lat="41.480250" lon="2.101583">
        <ele>110.419594</ele>
        <time>2023-01-22T07:19:11.000Z</time>
      </trkpt>
      <trkpt lat="41.479993" lon="2.101297">
        <ele>110.670942</ele>
        <time>2023-01-22T07:19:16.000Z</time>
      </trkpt>
      <trkpt lat="41.479801" lon="2.101049">
        <ele>110.864221</ele>
        <time>2023-01-22T07:19:20.000Z</time>
      </trkpt>
      <trkpt lat="41.479444" lon="2.100521">
        <ele>111.249686</ele>
        <time>2023-01-22T07:19:28.000Z</time>
      </trkpt>
      <trkpt lat="41.479404" lon="2.100451">
        <ele>111.297400</ele>
        <time>2023-01-22T07:19:29.000Z</time>
      </trkpt>
      <trkpt lat="41.479139" lon="2.099936">
        <ele>111.636007</ele>
        <time>2023-01-22T07:19:36.000Z</time>
      </trkpt>
      <trkpt lat="41.478831" lon="2.099248">
        <ele>112.313044</ele>
        <time>2023-01-22T07:19:45.000Z</time>
      </trkpt>
      <trkpt lat="41.478733" lon="2.099022">
        <ele>112.679051</ele>
        <time>2023-01-22T07:19:48.000Z</time>
      </trkpt>
      <trkpt lat="41.478473" lon="2.098443">
        <ele>113.625221</ele>
        <time>2023-01-22T07:19:56.000Z</time>
      </trkpt>
      <trkpt lat="41.478409" lon="2.098307">
        <ele>113.850331</ele>
        <time>2023-01-22T07:19:58.000Z</time>
      </trkpt>
      <trkpt lat="41.478249" lon="2.097946">
        <ele>114.438242</ele>
        <time>2023-01-22T07:20:03.000Z</time>
      </trkpt>
      <trkpt lat="41.478147" lon="2.097721">
        <ele>114.806857</ele>
        <time>2023-01-22T07:20:06.000Z</time>
      </trkpt>
      <trkpt lat="41.477933" lon="2.097285">
        <ele>115.354929</ele>
        <time>2023-01-22T07:20:12.000Z</time>
      </trkpt>
      <trkpt lat="41.477814" lon="2.097086">
        <ele>115.456401</ele>
        <time>2023-01-22T07:20:15.000Z</time>
      </trkpt>
      <trkpt lat="41.477485" lon="2.096609">
        <ele>115.714792</ele>
        <time>2023-01-22T07:20:23.000Z</time>
      </trkpt>
      <trkpt lat="41.477452" lon="2.096468">
        <ele>115.773664</ele>
        <time>2023-01-22T07:20:25.000Z</time>
      </trkpt>
      <trkpt lat="41.477448" lon="2.096390">
        <ele>115.804822</ele>
        <time>2023-01-22T07:20:26.000Z</time>
      </trkpt>
      <trkpt lat="41.477442" lon="2.096311">
        <ele>115.836468</ele>
        <time>2023-01-22T07:20:27.000Z</time>
      </trkpt>
      <trkpt lat="41.477424" lon="2.096237">
        <ele>115.867475</ele>
        <time>2023-01-22T07:20:28.000Z</time>
      </trkpt>
      <trkpt lat="41.477392" lon="2.096167">
        <ele>115.900155</ele>
        <time>2023-01-22T07:20:29.000Z</time>
      </trkpt>
      <trkpt lat="41.477290" lon="2.096064">
        <ele>115.968191</ele>
        <time>2023-01-22T07:20:31.000Z</time>
      </trkpt>
      <trkpt lat="41.477229" lon="2.096036">
        <ele>116.002505</ele>
        <time>2023-01-22T07:20:32.000Z</time>
      </trkpt>
      <trkpt lat="41.477162" lon="2.096031">
        <ele>116.038200</ele>
        <time>2023-01-22T07:20:33.000Z</time>
      </trkpt>
      <trkpt lat="41.477034" lon="2.096076">
        <ele>116.108610</ele>
        <time>2023-01-22T07:20:35.000Z</time>
      </trkpt>
      <trkpt lat="41.476972" lon="2.096103">
        <ele>116.143301</ele>
        <time>2023-01-22T07:20:36.000Z</time>
      </trkpt>
      <trkpt lat="41.476844" lon="2.096107">
        <ele>116.211408</ele>
        <time>2023-01-22T07:20:38.000Z</time>
      </trkpt>
      <trkpt lat="41.476783" lon="2.096080">
        <ele>116.210243</ele>
        <time>2023-01-22T07:20:39.000Z</time>
      </trkpt>
      <trkpt lat="41.476458" lon="2.095867">
        <ele>115.341539</ele>
        <time>2023-01-22T07:20:44.000Z</time>
      </trkpt>
      <trkpt lat="41.476238" lon="2.095721">
        <ele>114.752048</ele>
        <time>2023-01-22T07:20:47.000Z</time>
      </trkpt>
      <trkpt lat="41.476088" lon="2.095623">
        <ele>114.351350</ele>
        <time>2023-01-22T07:20:49.000Z</time>
      </trkpt>
      <trkpt lat="41.475933" lon="2.095517">
        <ele>113.933486</ele>
        <time>2023-01-22T07:20:51.000Z</time>
      </trkpt>
      <trkpt lat="41.475855" lon="2.095464">
        <ele>113.723485</ele>
        <time>2023-01-22T07:20:52.000Z</time>
      </trkpt>
      <trkpt lat="41.475702" lon="2.095357">
        <ele>113.309053</ele>
        <time>2023-01-22T07:20:54.000Z</time>
      </trkpt>
      <trkpt lat="41.475406" lon="2.095146">
        <ele>112.503920</ele>
        <time>2023-01-22T07:20:58.000Z</time>
      </trkpt>
      <trkpt lat="41.475337" lon="2.095089">
        <ele>112.309224</ele>
        <time>2023-01-22T07:20:59.000Z</time>
      </trkpt>
      <trkpt lat="41.475105" lon="2.094847">
        <ele>112.278581</ele>
        <time>2023-01-22T07:21:03.000Z</time>
      </trkpt>
      <trkpt lat="41.475060" lon="2.094779">
        <ele>112.458911</ele>
        <time>2023-01-22T07:21:04.000Z</time>
      </trkpt>
      <trkpt lat="41.474743" lon="2.094315">
        <ele>113.707016</ele>
        <time>2023-01-22T07:21:11.000Z</time>
      </trkpt>
      <trkpt lat="41.474612" lon="2.094120">
        <ele>114.227590</ele>
        <time>2023-01-22T07:21:14.000Z</time>
      </trkpt>
      <trkpt lat="41.474495" lon="2.093945">
        <ele>114.693775</ele>
        <time>2023-01-22T07:21:17.000Z</time>
      </trkpt>
      <trkpt lat="41.474455" lon="2.093890">
        <ele>114.846127</ele>
        <time>2023-01-22T07:21:18.000Z</time>
      </trkpt>
      <trkpt lat="41.474417" lon="2.093835">
        <ele>114.994832</ele>
        <time>2023-01-22T07:21:19.000Z</time>
      </trkpt>
      <trkpt lat="41.474382" lon="2.093785">
        <ele>115.130839</ele>
        <time>2023-01-22T07:21:20.000Z</time>
      </trkpt>
      <trkpt lat="41.474247" lon="2.093593">
        <ele>115.654194</ele>
        <time>2023-01-22T07:21:24.000Z</time>
      </trkpt>
      <trkpt lat="41.474219" lon="2.093542">
        <ele>115.779865</ele>
        <time>2023-01-22T07:21:25.000Z</time>
      </trkpt>
      <trkpt lat="41.474189" lon="2.093494">
        <ele>115.904109</ele>
        <time>2023-01-22T07:21:26.000Z</time>
      </trkpt>
      <trkpt lat="41.474108" lon="2.093418">
        <ele>116.166774</ele>
        <time>2023-01-22T07:21:28.000Z</time>
      </trkpt>
      <trkpt lat="41.474065" lon="2.093397">
        <ele>116.288244</ele>
        <time>2023-01-22T07:21:29.000Z</time>
      </trkpt>
      <trkpt lat="41.474010" lon="2.093370">
        <ele>116.443707</ele>
        <time>2023-01-22T07:21:30.000Z</time>
      </trkpt>
      <trkpt lat="41.473683" lon="2.093220">
        <ele>116.319671</ele>
        <time>2023-01-22T07:21:35.000Z</time>
      </trkpt>
      <trkpt lat="41.473150" lon="2.092961">
        <ele>115.470831</ele>
        <time>2023-01-22T07:21:42.000Z</time>
      </trkpt>
      <trkpt lat="41.472846" lon="2.092819">
        <ele>114.988847</ele>
        <time>2023-01-22T07:21:46.000Z</time>
      </trkpt>
      <trkpt lat="41.472700" lon="2.092750">
        <ele>114.757068</ele>
        <time>2023-01-22T07:21:48.000Z</time>
      </trkpt>
      <trkpt lat="41.472628" lon="2.092715">
        <ele>114.642398</ele>
        <time>2023-01-22T07:21:49.000Z</time>
      </trkpt>
      <trkpt lat="41.472294" lon="2.092545">
        <ele>114.107463</ele>
        <time>2023-01-22T07:21:54.000Z</time>
      </trkpt>
      <trkpt lat="41.472240" lon="2.092507">
        <ele>114.016109</ele>
        <time>2023-01-22T07:21:55.000Z</time>
      </trkpt>
      <trkpt lat="41.472178" lon="2.092394">
        <ele>113.973824</ele>
        <time>2023-01-22T07:21:57.000Z</time>
      </trkpt>
      <trkpt lat="41.472131" lon="2.092303">
        <ele>113.948284</ele>
        <time>2023-01-22T07:21:59.000Z</time>
      </trkpt>
      <trkpt lat="41.472099" lon="2.092291">
        <ele>113.938033</ele>
        <time>2023-01-22T07:22:00.000Z</time>
      </trkpt>
      <trkpt lat="41.472023" lon="2.092281">
        <ele>113.914481</ele>
        <time>2023-01-22T07:22:03.000Z</time>
      </trkpt>
      <trkpt lat="41.472016" lon="2.092256">
        <ele>113.908314</ele>
        <time>2023-01-22T07:22:04.000Z</time>
      </trkpt>
      <trkpt lat="41.472005" lon="2.092028">
        <ele>113.855518</ele>
        <time>2023-01-22T07:22:09.000Z</time>
      </trkpt>
      <trkpt lat="41.471981" lon="2.091550">
        <ele>113.744814</ele>
        <time>2023-01-22T07:22:16.000Z</time>
      </trkpt>
      <trkpt lat="41.471957" lon="2.091063">
        <ele>113.632034</ele>
        <time>2023-01-22T07:22:23.000Z</time>
      </trkpt>
      <trkpt lat="41.471918" lon="2.090347">
        <ele>113.466144</ele>
        <time>2023-01-22T07:22:34.000Z</time>
      </trkpt>
      <trkpt lat="41.471886" lon="2.089923">
        <ele>113.681032</ele>
        <time>2023-01-22T07:22:41.000Z</time>
      </trkpt>
      <trkpt lat="41.471856" lon="2.089421">
        <ele>114.013559</ele>
        <time>2023-01-22T07:22:49.000Z</time>
      </trkpt>
      <trkpt lat="41.471911" lon="2.088943">
        <ele>114.332885</ele>
        <time>2023-01-22T07:22:56.000Z</time>
      </trkpt>
      <trkpt lat="41.471994" lon="2.088357">
        <ele>114.726676</ele>
        <time>2023-01-22T07:23:05.000Z</time>
      </trkpt>
      <trkpt lat="41.472028" lon="2.087901">
        <ele>115.029263</ele>
        <time>2023-01-22T07:23:13.000Z</time>
      </trkpt>
      <trkpt lat="41.472041" lon="2.087737">
        <ele>115.223221</ele>
        <time>2023-01-22T07:23:16.000Z</time>
      </trkpt>
      <trkpt lat="41.472043" lon="2.087515">
        <ele>115.489504</ele>
        <time>2023-01-22T07:23:20.000Z</time>
      </trkpt>
      <trkpt lat="41.471992" lon="2.086939">
        <ele>116.185159</ele>
        <time>2023-01-22T07:23:29.000Z</time>
      </trkpt>
      <trkpt lat="41.471962" lon="2.086783">
        <ele>116.378328</ele>
        <time>2023-01-22T07:23:32.000Z</time>
      </trkpt>
      <trkpt lat="41.471914" lon="2.086571">
        <ele>116.643954</ele>
        <time>2023-01-22T07:23:36.000Z</time>
      </trkpt>
      <trkpt lat="41.471851" lon="2.086365">
        <ele>116.910817</ele>
        <time>2023-01-22T07:23:40.000Z</time>
      </trkpt>
      <trkpt lat="41.471774" lon="2.086159">
        <ele>117.186929</ele>
        <time>2023-01-22T07:23:44.000Z</time>
      </trkpt>
      <trkpt lat="41.471752" lon="2.086110">
        <ele>117.255442</ele>
        <time>2023-01-22T07:23:45.000Z</time>
      </trkpt>
      <trkpt lat="41.471683" lon="2.085912">
        <ele>117.517351</ele>
        <time>2023-01-22T07:23:50.000Z</time>
      </trkpt>
      <trkpt lat="41.471752" lon="2.085793">
        <ele>117.697824</ele>
        <time>2023-01-22T07:23:54.000Z</time>
      </trkpt>
      <trkpt lat="41.471684" lon="2.085619">
        <ele>117.929101</ele>
        <time>2023-01-22T07:23:58.000Z</time>
      </trkpt>
      <trkpt lat="41.471653" lon="2.085574">
        <ele>117.987472</ele>
        <time>2023-01-22T07:23:59.000Z</time>
      </trkpt>
      <trkpt lat="41.471581" lon="2.085498">
        <ele>118.104459</ele>
        <time>2023-01-22T07:24:01.000Z</time>
      </trkpt>
      <trkpt lat="41.471535" lon="2.085472">
        <ele>118.168122</ele>
        <time>2023-01-22T07:24:02.000Z</time>
      </trkpt>
      <trkpt lat="41.471442" lon="2.085422">
        <ele>118.295897</ele>
        <time>2023-01-22T07:24:04.000Z</time>
      </trkpt>
      <trkpt lat="41.471313" lon="2.085326">
        <ele>118.484126</ele>
        <time>2023-01-22T07:24:07.000Z</time>
      </trkpt>
      <trkpt lat="41.471182" lon="2.085065">
        <ele>118.784103</ele>
        <time>2023-01-22T07:24:12.000Z</time>
      </trkpt>
      <trkpt lat="41.471152" lon="2.085008">
        <ele>118.850618</ele>
        <time>2023-01-22T07:24:13.000Z</time>
      </trkpt>
      <trkpt lat="41.471098" lon="2.084891">
        <ele>118.981835</ele>
        <time>2023-01-22T07:24:15.000Z</time>
      </trkpt>
      <trkpt lat="41.471048" lon="2.084777">
        <ele>119.107972</ele>
        <time>2023-01-22T07:24:17.000Z</time>
      </trkpt>
      <trkpt lat="41.471022" lon="2.084724">
        <ele>119.168463</ele>
        <time>2023-01-22T07:24:18.000Z</time>
      </trkpt>
      <trkpt lat="41.470969" lon="2.084616">
        <ele>119.291742</ele>
        <time>2023-01-22T07:24:20.000Z</time>
      </trkpt>
      <trkpt lat="41.470872" lon="2.084380">
        <ele>119.548777</ele>
        <time>2023-01-22T07:24:24.000Z</time>
      </trkpt>
      <trkpt lat="41.470828" lon="2.084270">
        <ele>119.667846</ele>
        <time>2023-01-22T07:24:26.000Z</time>
      </trkpt>
      <trkpt lat="41.470772" lon="2.084106">
        <ele>119.839945</ele>
        <time>2023-01-22T07:24:29.000Z</time>
      </trkpt>
      <trkpt lat="41.470737" lon="2.084014">
        <ele>119.938471</ele>
        <time>2023-01-22T07:24:31.000Z</time>
      </trkpt>
      <trkpt lat="41.470674" lon="2.083862">
        <ele>120.104343</ele>
        <time>2023-01-22T07:24:37.000Z</time>
      </trkpt>
      <trkpt lat="41.470668" lon="2.083860">
        <ele>120.112224</ele>
        <time>2023-01-22T07:24:39.000Z</time>
      </trkpt>
      <trkpt lat="41.470668" lon="2.083860">
        <ele>120.112224</ele>
        <time>2023-01-22T07:24:48.000Z</time>
      </trkpt>
      <trkpt lat="41.470668" lon="2.083860">
        <ele>120.112224</ele>
        <time>2023-01-22T07:25:28.000Z</time>
      </trkpt>
      <trkpt lat="41.470668" lon="2.083860">
        <ele>120.112224</ele>
        <time>2023-01-22T07:26:21.000Z</time>
      </trkpt>
      <trkpt lat="41.470668" lon="2.083860">
        <ele>120.112224</ele>
        <time>2023-01-22T07:26:55.000Z</time>
      </trkpt>
      <trkpt lat="41.470668" lon="2.083860">
        <ele>120.112224</ele>
        <time>2023-01-22T07:27:37.000Z</time>
      </trkpt>
      <trkpt lat="41.470668" lon="2.083860">
        <ele>120.112224</ele>
        <time>2023-01-22T07:28:06.000Z</time>
      </trkpt>
      <trkpt lat="41.470668" lon="2.083860">
        <ele>120.112224</ele>
        <time>2023-01-22T07:29:44.000Z</time>
      </trkpt>
      <trkpt lat="41.470668" lon="2.083860">
        <ele>120.112224</ele>
        <time>2023-01-22T07:29:50.000Z</time>
      </trkpt>
      <trkpt lat="41.470668" lon="2.083860">
        <ele>120.112224</ele>
        <time>2023-01-22T07:30:28.000Z</time>
      </trkpt>
      <trkpt lat="41.470668" lon="2.083860">
        <ele>120.112224</ele>
        <time>2023-01-22T07:32:17.000Z</time>
      </trkpt>
      <trkpt lat="41.471645" lon="2.082282">
        <ele>125.413966</ele>
        <time>2023-01-22T07:36:44.000Z</time>
      </trkpt>
      <trkpt lat="41.471672" lon="2.082276">
        <ele>125.511565</ele>
        <time>2023-01-22T07:36:59.000Z</time>
      </trkpt>
      <trkpt lat="41.471784" lon="2.082201">
        <ele>125.958375</ele>
        <time>2023-01-22T07:37:05.000Z</time>
      </trkpt>
      <trkpt lat="41.471878" lon="2.082045">
        <ele>126.493215</ele>
        <time>2023-01-22T07:37:10.000Z</time>
      </trkpt>
      <trkpt lat="41.471910" lon="2.081952">
        <ele>126.809844</ele>
        <time>2023-01-22T07:37:13.000Z</time>
      </trkpt>
      <trkpt lat="41.471958" lon="2.081817">
        <ele>127.325708</ele>
        <time>2023-01-22T07:37:16.000Z</time>
      </trkpt>
      <trkpt lat="41.471987" lon="2.081696">
        <ele>127.764279</ele>
        <time>2023-01-22T07:37:18.000Z</time>
      </trkpt>
      <trkpt lat="41.472022" lon="2.081573">
        <ele>128.218495</ele>
        <time>2023-01-22T07:37:20.000Z</time>
      </trkpt>
      <trkpt lat="41.472035" lon="2.081507">
        <ele>128.454084</ele>
        <time>2023-01-22T07:37:21.000Z</time>
      </trkpt>
      <trkpt lat="41.472059" lon="2.081387">
        <ele>128.882857</ele>
        <time>2023-01-22T07:37:23.000Z</time>
      </trkpt>
      <trkpt lat="41.472081" lon="2.081288">
        <ele>129.239343</ele>
        <time>2023-01-22T07:37:25.000Z</time>
      </trkpt>
      <trkpt lat="41.472136" lon="2.081100">
        <ele>129.936081</ele>
        <time>2023-01-22T07:37:29.000Z</time>
      </trkpt>
      <trkpt lat="41.472158" lon="2.080994">
        <ele>130.315798</ele>
        <time>2023-01-22T07:37:31.000Z</time>
      </trkpt>
      <trkpt lat="41.472200" lon="2.080856">
        <ele>130.830008</ele>
        <time>2023-01-22T07:37:34.000Z</time>
      </trkpt>
      <trkpt lat="41.472208" lon="2.080769">
        <ele>131.132605</ele>
        <time>2023-01-22T07:37:36.000Z</time>
      </trkpt>
      <trkpt lat="41.472232" lon="2.080676">
        <ele>131.472172</ele>
        <time>2023-01-22T07:37:38.000Z</time>
      </trkpt>
      <trkpt lat="41.472268" lon="2.080591">
        <ele>131.809246</ele>
        <time>2023-01-22T07:37:40.000Z</time>
      </trkpt>
      <trkpt lat="41.472288" lon="2.080511">
        <ele>132.100391</ele>
        <time>2023-01-22T07:37:42.000Z</time>
      </trkpt>
      <trkpt lat="41.472346" lon="2.080349">
        <ele>132.720218</ele>
        <time>2023-01-22T07:37:46.000Z</time>
      </trkpt>
      <trkpt lat="41.472368" lon="2.080274">
        <ele>132.998269</ele>
        <time>2023-01-22T07:37:48.000Z</time>
      </trkpt>
      <trkpt lat="41.472388" lon="2.080205">
        <ele>133.253675</ele>
        <time>2023-01-22T07:37:50.000Z</time>
      </trkpt>
      <trkpt lat="41.472395" lon="2.080173">
        <ele>133.368758</ele>
        <time>2023-01-22T07:37:51.000Z</time>
      </trkpt>
      <trkpt lat="41.472398" lon="2.080143">
        <ele>133.473243</ele>
        <time>2023-01-22T07:37:52.000Z</time>
      </trkpt>
      <trkpt lat="41.472416" lon="2.080099">
        <ele>133.646306</ele>
        <time>2023-01-22T07:37:54.000Z</time>
      </trkpt>
      <trkpt lat="41.472425" lon="2.080085">
        <ele>133.709988</ele>
        <time>2023-01-22T07:37:55.000Z</time>
      </trkpt>
      <trkpt lat="41.472448" lon="2.080046">
        <ele>133.881326</ele>
        <time>2023-01-22T07:37:57.000Z</time>
      </trkpt>
      <trkpt lat="41.472463" lon="2.080019">
        <ele>133.997363</ele>
        <time>2023-01-22T07:37:58.000Z</time>
      </trkpt>
      <trkpt lat="41.472536" lon="2.079813">
        <ele>134.784046</ele>
        <time>2023-01-22T07:38:03.000Z</time>
      </trkpt>
      <trkpt lat="41.472543" lon="2.079781">
        <ele>134.899128</ele>
        <time>2023-01-22T07:38:04.000Z</time>
      </trkpt>
      <trkpt lat="41.472559" lon="2.079755">
        <ele>134.884228</ele>
        <time>2023-01-22T07:38:06.000Z</time>
      </trkpt>
      <trkpt lat="41.472551" lon="2.079744">
        <ele>134.873786</ele>
        <time>2023-01-22T07:38:07.000Z</time>
      </trkpt>
      <trkpt lat="41.472531" lon="2.079719">
        <ele>134.848877</ele>
        <time>2023-01-22T07:38:08.000Z</time>
      </trkpt>
      <trkpt lat="41.472459" lon="2.079683">
        <ele>134.778984</ele>
        <time>2023-01-22T07:38:10.000Z</time>
      </trkpt>
      <trkpt lat="41.472283" lon="2.079582">
        <ele>134.604830</ele>
        <time>2023-01-22T07:38:14.000Z</time>
      </trkpt>
      <trkpt lat="41.472191" lon="2.079509">
        <ele>134.507535</ele>
        <time>2023-01-22T07:38:16.000Z</time>
      </trkpt>
      <trkpt lat="41.472051" lon="2.079422">
        <ele>134.367150</ele>
        <time>2023-01-22T07:38:19.000Z</time>
      </trkpt>
      <trkpt lat="41.471842" lon="2.079313">
        <ele>134.163170</ele>
        <time>2023-01-22T07:38:23.000Z</time>
      </trkpt>
      <trkpt lat="41.471792" lon="2.079286">
        <ele>134.114139</ele>
        <time>2023-01-22T07:38:24.000Z</time>
      </trkpt>
      <trkpt lat="41.471671" lon="2.079221">
        <ele>133.995570</ele>
        <time>2023-01-22T07:38:26.000Z</time>
      </trkpt>
      <trkpt lat="41.471377" lon="2.079108">
        <ele>133.717451</ele>
        <time>2023-01-22T07:38:31.000Z</time>
      </trkpt>
      <trkpt lat="41.471321" lon="2.079085">
        <ele>133.664189</ele>
        <time>2023-01-22T07:38:32.000Z</time>
      </trkpt>
      <trkpt lat="41.471046" lon="2.078929">
        <ele>133.392559</ele>
        <time>2023-01-22T07:38:38.000Z</time>
      </trkpt>
      <trkpt lat="41.470748" lon="2.078804">
        <ele>133.006204</ele>
        <time>2023-01-22T07:38:45.000Z</time>
      </trkpt>
      <trkpt lat="41.470662" lon="2.078765">
        <ele>132.871509</ele>
        <time>2023-01-22T07:38:47.000Z</time>
      </trkpt>
      <trkpt lat="41.470577" lon="2.078720">
        <ele>132.735903</ele>
        <time>2023-01-22T07:38:49.000Z</time>
      </trkpt>
      <trkpt lat="41.470534" lon="2.078692">
        <ele>132.664951</ele>
        <time>2023-01-22T07:38:50.000Z</time>
      </trkpt>
      <trkpt lat="41.470335" lon="2.078575">
        <ele>132.342477</ele>
        <time>2023-01-22T07:38:54.000Z</time>
      </trkpt>
      <trkpt lat="41.470219" lon="2.078515">
        <ele>132.157987</ele>
        <time>2023-01-22T07:38:56.000Z</time>
      </trkpt>
      <trkpt lat="41.470115" lon="2.078439">
        <ele>131.982153</ele>
        <time>2023-01-22T07:38:58.000Z</time>
      </trkpt>
      <trkpt lat="41.470065" lon="2.078400">
        <ele>131.896271</ele>
        <time>2023-01-22T07:38:59.000Z</time>
      </trkpt>
      <trkpt lat="41.469958" lon="2.078340">
        <ele>131.724158</ele>
        <time>2023-01-22T07:39:01.000Z</time>
      </trkpt>
      <trkpt lat="41.469903" lon="2.078314">
        <ele>131.637630</ele>
        <time>2023-01-22T07:39:02.000Z</time>
      </trkpt>
      <trkpt lat="41.469848" lon="2.078278">
        <ele>131.546787</ele>
        <time>2023-01-22T07:39:03.000Z</time>
      </trkpt>
      <trkpt lat="41.469801" lon="2.078242">
        <ele>131.466424</ele>
        <time>2023-01-22T07:39:04.000Z</time>
      </trkpt>
      <trkpt lat="41.469726" lon="2.078167">
        <ele>131.327444</ele>
        <time>2023-01-22T07:39:06.000Z</time>
      </trkpt>
      <trkpt lat="41.469651" lon="2.078076">
        <ele>131.177129</ele>
        <time>2023-01-22T07:39:08.000Z</time>
      </trkpt>
      <trkpt lat="41.469593" lon="2.077972">
        <ele>131.033071</ele>
        <time>2023-01-22T07:39:10.000Z</time>
      </trkpt>
      <trkpt lat="41.469576" lon="2.077897">
        <ele>130.946002</ele>
        <time>2023-01-22T07:39:11.000Z</time>
      </trkpt>
      <trkpt lat="41.469544" lon="2.077639">
        <ele>130.655416</ele>
        <time>2023-01-22T07:39:14.000Z</time>
      </trkpt>
      <trkpt lat="41.469485" lon="2.077488">
        <ele>130.741293</ele>
        <time>2023-01-22T07:39:16.000Z</time>
      </trkpt>
      <trkpt lat="41.469445" lon="2.077213">
        <ele>131.053669</ele>
        <time>2023-01-22T07:39:19.000Z</time>
      </trkpt>
      <trkpt lat="41.469428" lon="2.077131">
        <ele>131.148542</ele>
        <time>2023-01-22T07:39:20.000Z</time>
      </trkpt>
      <trkpt lat="41.469413" lon="2.077067">
        <ele>131.223318</ele>
        <time>2023-01-22T07:39:21.000Z</time>
      </trkpt>
      <trkpt lat="41.469391" lon="2.076910">
        <ele>131.401423</ele>
        <time>2023-01-22T07:39:23.000Z</time>
      </trkpt>
      <trkpt lat="41.469373" lon="2.076773">
        <ele>131.556522</ele>
        <time>2023-01-22T07:39:25.000Z</time>
      </trkpt>
      <trkpt lat="41.469361" lon="2.076623">
        <ele>131.724738</ele>
        <time>2023-01-22T07:39:27.000Z</time>
      </trkpt>
      <trkpt lat="41.469361" lon="2.076558">
        <ele>131.797219</ele>
        <time>2023-01-22T07:39:28.000Z</time>
      </trkpt>
      <trkpt lat="41.469375" lon="2.076116">
        <ele>132.290532</ele>
        <time>2023-01-22T07:39:35.000Z</time>
      </trkpt>
      <trkpt lat="41.469353" lon="2.075990">
        <ele>132.434798</ele>
        <time>2023-01-22T07:39:37.000Z</time>
      </trkpt>
      <trkpt lat="41.469332" lon="2.075846">
        <ele>132.598385</ele>
        <time>2023-01-22T07:39:39.000Z</time>
      </trkpt>
      <trkpt lat="41.469332" lon="2.075782">
        <ele>132.669752</ele>
        <time>2023-01-22T07:39:40.000Z</time>
      </trkpt>
      <trkpt lat="41.469327" lon="2.075716">
        <ele>132.743723</ele>
        <time>2023-01-22T07:39:41.000Z</time>
      </trkpt>
      <trkpt lat="41.469307" lon="2.075562">
        <ele>132.918009</ele>
        <time>2023-01-22T07:39:44.000Z</time>
      </trkpt>
      <trkpt lat="41.469296" lon="2.075450">
        <ele>133.043968</ele>
        <time>2023-01-22T07:39:46.000Z</time>
      </trkpt>
      <trkpt lat="41.469265" lon="2.075152">
        <ele>133.397066</ele>
        <time>2023-01-22T07:39:51.000Z</time>
      </trkpt>
      <trkpt lat="41.469252" lon="2.075090">
        <ele>133.481594</ele>
        <time>2023-01-22T07:39:52.000Z</time>
      </trkpt>
      <trkpt lat="41.469243" lon="2.075029">
        <ele>133.563220</ele>
        <time>2023-01-22T07:39:53.000Z</time>
      </trkpt>
      <trkpt lat="41.469240" lon="2.074971">
        <ele>133.639550</ele>
        <time>2023-01-22T07:39:54.000Z</time>
      </trkpt>
      <trkpt lat="41.469206" lon="2.074673">
        <ele>134.035310</ele>
        <time>2023-01-22T07:39:59.000Z</time>
      </trkpt>
      <trkpt lat="41.469159" lon="2.074260">
        <ele>134.583764</ele>
        <time>2023-01-22T07:40:06.000Z</time>
      </trkpt>
      <trkpt lat="41.469134" lon="2.074091">
        <ele>134.809930</ele>
        <time>2023-01-22T07:40:09.000Z</time>
      </trkpt>
      <trkpt lat="41.469119" lon="2.073936">
        <ele>135.015123</ele>
        <time>2023-01-22T07:40:12.000Z</time>
      </trkpt>
      <trkpt lat="41.469109" lon="2.073826">
        <ele>135.160603</ele>
        <time>2023-01-22T07:40:14.000Z</time>
      </trkpt>
      <trkpt lat="41.469105" lon="2.073770">
        <ele>135.234460</ele>
        <time>2023-01-22T07:40:15.000Z</time>
      </trkpt>
      <trkpt lat="41.469100" lon="2.073659">
        <ele>135.380457</ele>
        <time>2023-01-22T07:40:17.000Z</time>
      </trkpt>
      <trkpt lat="41.469075" lon="2.073483">
        <ele>135.615647</ele>
        <time>2023-01-22T07:40:20.000Z</time>
      </trkpt>
      <trkpt lat="41.469062" lon="2.073363">
        <ele>135.774835</ele>
        <time>2023-01-22T07:40:22.000Z</time>
      </trkpt>
      <trkpt lat="41.469024" lon="2.073063">
        <ele>136.174300</ele>
        <time>2023-01-22T07:40:27.000Z</time>
      </trkpt>
      <trkpt lat="41.468984" lon="2.072670">
        <ele>136.608121</ele>
        <time>2023-01-22T07:40:34.000Z</time>
      </trkpt>
      <trkpt lat="41.468950" lon="2.072388">
        <ele>136.859372</ele>
        <time>2023-01-22T07:40:39.000Z</time>
      </trkpt>
      <trkpt lat="41.468948" lon="2.072337">
        <ele>136.904296</ele>
        <time>2023-01-22T07:40:40.000Z</time>
      </trkpt>
      <trkpt lat="41.468900" lon="2.071979">
        <ele>137.224212</ele>
        <time>2023-01-22T07:40:47.000Z</time>
      </trkpt>
      <trkpt lat="41.468854" lon="2.071586">
        <ele>137.574107</ele>
        <time>2023-01-22T07:40:54.000Z</time>
      </trkpt>
      <trkpt lat="41.468790" lon="2.071187">
        <ele>137.933039</ele>
        <time>2023-01-22T07:41:01.000Z</time>
      </trkpt>
      <trkpt lat="41.468768" lon="2.070959">
        <ele>138.135255</ele>
        <time>2023-01-22T07:41:05.000Z</time>
      </trkpt>
      <trkpt lat="41.468754" lon="2.070793">
        <ele>138.282200</ele>
        <time>2023-01-22T07:41:08.000Z</time>
      </trkpt>
      <trkpt lat="41.468743" lon="2.070736">
        <ele>138.333976</ele>
        <time>2023-01-22T07:41:09.000Z</time>
      </trkpt>
      <trkpt lat="41.468721" lon="2.070496">
        <ele>138.543432</ele>
        <time>2023-01-22T07:41:13.000Z</time>
      </trkpt>
      <trkpt lat="41.468689" lon="2.070095">
        <ele>138.567499</ele>
        <time>2023-01-22T07:41:19.000Z</time>
      </trkpt>
      <trkpt lat="41.468683" lon="2.069969">
        <ele>138.575034</ele>
        <time>2023-01-22T07:41:21.000Z</time>
      </trkpt>
      <trkpt lat="41.468668" lon="2.069733">
        <ele>138.589170</ele>
        <time>2023-01-22T07:41:25.000Z</time>
      </trkpt>
      <trkpt lat="41.468625" lon="2.069146">
        <ele>138.624369</ele>
        <time>2023-01-22T07:41:34.000Z</time>
      </trkpt>
      <trkpt lat="41.468617" lon="2.068961">
        <ele>138.635429</ele>
        <time>2023-01-22T07:41:37.000Z</time>
      </trkpt>
      <trkpt lat="41.468614" lon="2.068789">
        <ele>138.645697</ele>
        <time>2023-01-22T07:41:40.000Z</time>
      </trkpt>
      <trkpt lat="41.468609" lon="2.068595">
        <ele>138.657282</ele>
        <time>2023-01-22T07:41:43.000Z</time>
      </trkpt>
      <trkpt lat="41.468604" lon="2.068034">
        <ele>138.614797</ele>
        <time>2023-01-22T07:41:51.000Z</time>
      </trkpt>
      <trkpt lat="41.468600" lon="2.067607">
        <ele>138.191262</ele>
        <time>2023-01-22T07:41:57.000Z</time>
      </trkpt>
      <trkpt lat="41.468603" lon="2.067464">
        <ele>138.049378</ele>
        <time>2023-01-22T07:41:59.000Z</time>
      </trkpt>
      <trkpt lat="41.468603" lon="2.067183">
        <ele>137.770680</ele>
        <time>2023-01-22T07:42:03.000Z</time>
      </trkpt>
      <trkpt lat="41.468605" lon="2.067112">
        <ele>137.700212</ele>
        <time>2023-01-22T07:42:04.000Z</time>
      </trkpt>
      <trkpt lat="41.468611" lon="2.066762">
        <ele>137.352989</ele>
        <time>2023-01-22T07:42:09.000Z</time>
      </trkpt>
      <trkpt lat="41.468610" lon="2.066556">
        <ele>137.148672</ele>
        <time>2023-01-22T07:42:12.000Z</time>
      </trkpt>
      <trkpt lat="41.468611" lon="2.066500">
        <ele>137.093115</ele>
        <time>2023-01-22T07:42:13.000Z</time>
      </trkpt>
      <trkpt lat="41.468614" lon="2.066340">
        <ele>136.934376</ele>
        <time>2023-01-22T07:42:15.000Z</time>
      </trkpt>
      <trkpt lat="41.468618" lon="2.066115">
        <ele>136.711157</ele>
        <time>2023-01-22T07:42:18.000Z</time>
      </trkpt>
      <trkpt lat="41.468622" lon="2.065961">
        <ele>136.558327</ele>
        <time>2023-01-22T07:42:20.000Z</time>
      </trkpt>
      <trkpt lat="41.468640" lon="2.065713">
        <ele>136.311207</ele>
        <time>2023-01-22T07:42:23.000Z</time>
      </trkpt>
      <trkpt lat="41.468645" lon="2.065561">
        <ele>136.095436</ele>
        <time>2023-01-22T07:42:25.000Z</time>
      </trkpt>
      <trkpt lat="41.468656" lon="2.065220">
        <ele>135.605923</ele>
        <time>2023-01-22T07:42:30.000Z</time>
      </trkpt>
      <trkpt lat="41.468668" lon="2.064737">
        <ele>134.912828</ele>
        <time>2023-01-22T07:42:37.000Z</time>
      </trkpt>
      <trkpt lat="41.468698" lon="2.064252">
        <ele>134.214879</ele>
        <time>2023-01-22T07:42:44.000Z</time>
      </trkpt>
      <trkpt lat="41.468707" lon="2.064184">
        <ele>134.115844</ele>
        <time>2023-01-22T07:42:45.000Z</time>
      </trkpt>
      <trkpt lat="41.468713" lon="2.064115">
        <ele>134.016221</ele>
        <time>2023-01-22T07:42:46.000Z</time>
      </trkpt>
      <trkpt lat="41.468755" lon="2.063582">
        <ele>133.247582</ele>
        <time>2023-01-22T07:42:53.000Z</time>
      </trkpt>
      <trkpt lat="41.468775" lon="2.063422">
        <ele>133.014940</ele>
        <time>2023-01-22T07:42:55.000Z</time>
      </trkpt>
      <trkpt lat="41.468816" lon="2.063167">
        <ele>132.615770</ele>
        <time>2023-01-22T07:42:58.000Z</time>
      </trkpt>
      <trkpt lat="41.468828" lon="2.063085">
        <ele>132.482397</ele>
        <time>2023-01-22T07:42:59.000Z</time>
      </trkpt>
      <trkpt lat="41.468870" lon="2.062886">
        <ele>132.152366</ele>
        <time>2023-01-22T07:43:02.000Z</time>
      </trkpt>
      <trkpt lat="41.468886" lon="2.062834">
        <ele>132.062631</ele>
        <time>2023-01-22T07:43:03.000Z</time>
      </trkpt>
      <trkpt lat="41.468939" lon="2.062697">
        <ele>131.816506</ele>
        <time>2023-01-22T07:43:07.000Z</time>
      </trkpt>
      <trkpt lat="41.468948" lon="2.062679">
        <ele>131.781962</ele>
        <time>2023-01-22T07:43:08.000Z</time>
      </trkpt>
      <trkpt lat="41.468958" lon="2.062646">
        <ele>131.725138</ele>
        <time>2023-01-22T07:43:12.000Z</time>
      </trkpt>
      <trkpt lat="41.468958" lon="2.062646">
        <ele>131.725138</ele>
        <time>2023-01-22T07:43:22.000Z</time>
      </trkpt>
      <trkpt lat="41.468969" lon="2.062579">
        <ele>131.615647</ele>
        <time>2023-01-22T07:43:43.000Z</time>
      </trkpt>
      <trkpt lat="41.469001" lon="2.062376">
        <ele>131.284498</ele>
        <time>2023-01-22T07:43:48.000Z</time>
      </trkpt>
      <trkpt lat="41.469021" lon="2.062260">
        <ele>131.094485</ele>
        <time>2023-01-22T07:43:50.000Z</time>
      </trkpt>
      <trkpt lat="41.469027" lon="2.062131">
        <ele>130.888162</ele>
        <time>2023-01-22T07:43:52.000Z</time>
      </trkpt>
      <trkpt lat="41.469024" lon="2.062067">
        <ele>130.785797</ele>
        <time>2023-01-22T07:43:53.000Z</time>
      </trkpt>
      <trkpt lat="41.468975" lon="2.061543">
        <ele>129.942831</ele>
        <time>2023-01-22T07:44:00.000Z</time>
      </trkpt>
      <trkpt lat="41.468936" lon="2.061169">
        <ele>129.340048</ele>
        <time>2023-01-22T07:44:05.000Z</time>
      </trkpt>
      <trkpt lat="41.468925" lon="2.061043">
        <ele>129.137550</ele>
        <time>2023-01-22T07:44:07.000Z</time>
      </trkpt>
      <trkpt lat="41.468924" lon="2.060983">
        <ele>129.041746</ele>
        <time>2023-01-22T07:44:08.000Z</time>
      </trkpt>
      <trkpt lat="41.468956" lon="2.060874">
        <ele>129.135991</ele>
        <time>2023-01-22T07:44:10.000Z</time>
      </trkpt>
      <trkpt lat="41.468976" lon="2.060823">
        <ele>129.190485</ele>
        <time>2023-01-22T07:44:11.000Z</time>
      </trkpt>
      <trkpt lat="41.468990" lon="2.060771">
        <ele>129.242795</ele>
        <time>2023-01-22T07:44:12.000Z</time>
      </trkpt>
      <trkpt lat="41.469003" lon="2.060658">
        <ele>129.351026</ele>
        <time>2023-01-22T07:44:14.000Z</time>
      </trkpt>
      <trkpt lat="41.469012" lon="2.060602">
        <ele>129.405247</ele>
        <time>2023-01-22T07:44:15.000Z</time>
      </trkpt>
      <trkpt lat="41.469035" lon="2.060560">
        <ele>129.454495</ele>
        <time>2023-01-22T07:44:16.000Z</time>
      </trkpt>
      <trkpt lat="41.469109" lon="2.060507">
        <ele>129.560602</ele>
        <time>2023-01-22T07:44:18.000Z</time>
      </trkpt>
      <trkpt lat="41.469315" lon="2.060408">
        <ele>129.837228</ele>
        <time>2023-01-22T07:44:23.000Z</time>
      </trkpt>
      <trkpt lat="41.469391" lon="2.060344">
        <ele>129.950766</ele>
        <time>2023-01-22T07:44:25.000Z</time>
      </trkpt>
      <trkpt lat="41.469421" lon="2.060295">
        <ele>130.010670</ele>
        <time>2023-01-22T07:44:26.000Z</time>
      </trkpt>
      <trkpt lat="41.469445" lon="2.060239">
        <ele>130.071743</ele>
        <time>2023-01-22T07:44:27.000Z</time>
      </trkpt>
      <trkpt lat="41.469485" lon="2.060043">
        <ele>130.264055</ele>
        <time>2023-01-22T07:44:30.000Z</time>
      </trkpt>
      <trkpt lat="41.469546" lon="2.059774">
        <ele>130.530122</ele>
        <time>2023-01-22T07:44:34.000Z</time>
      </trkpt>
      <trkpt lat="41.469591" lon="2.059573">
        <ele>130.728719</ele>
        <time>2023-01-22T07:44:37.000Z</time>
      </trkpt>
      <trkpt lat="41.469755" lon="2.058839">
        <ele>131.273687</ele>
        <time>2023-01-22T07:44:48.000Z</time>
      </trkpt>
      <trkpt lat="41.469813" lon="2.058586">
        <ele>131.223442</ele>
        <time>2023-01-22T07:44:52.000Z</time>
      </trkpt>
      <trkpt lat="41.469922" lon="2.058072">
        <ele>131.121994</ele>
        <time>2023-01-22T07:45:00.000Z</time>
      </trkpt>
      <trkpt lat="41.470058" lon="2.057431">
        <ele>130.995476</ele>
        <time>2023-01-22T07:45:09.000Z</time>
      </trkpt>
      <trkpt lat="41.470188" lon="2.056802">
        <ele>130.871563</ele>
        <time>2023-01-22T07:45:18.000Z</time>
      </trkpt>
      <trkpt lat="41.470331" lon="2.056135">
        <ele>130.686141</ele>
        <time>2023-01-22T07:45:27.000Z</time>
      </trkpt>
      <trkpt lat="41.470460" lon="2.055558">
        <ele>130.515024</ele>
        <time>2023-01-22T07:45:35.000Z</time>
      </trkpt>
      <trkpt lat="41.470495" lon="2.055421">
        <ele>130.473890</ele>
        <time>2023-01-22T07:45:37.000Z</time>
      </trkpt>
      <trkpt lat="41.470634" lon="2.054965">
        <ele>130.333990</ele>
        <time>2023-01-22T07:45:44.000Z</time>
      </trkpt>
      <trkpt lat="41.470820" lon="2.054470">
        <ele>130.176622</ele>
        <time>2023-01-22T07:45:52.000Z</time>
      </trkpt>
      <trkpt lat="41.471012" lon="2.054069">
        <ele>130.837264</ele>
        <time>2023-01-22T07:45:59.000Z</time>
      </trkpt>
      <trkpt lat="41.471226" lon="2.053666">
        <ele>131.595138</ele>
        <time>2023-01-22T07:46:07.000Z</time>
      </trkpt>
      <trkpt lat="41.471254" lon="2.053616">
        <ele>131.690913</ele>
        <time>2023-01-22T07:46:08.000Z</time>
      </trkpt>
      <trkpt lat="41.471447" lon="2.053306">
        <ele>132.309321</ele>
        <time>2023-01-22T07:46:15.000Z</time>
      </trkpt>
      <trkpt lat="41.471476" lon="2.053263">
        <ele>132.398087</ele>
        <time>2023-01-22T07:46:16.000Z</time>
      </trkpt>
      <trkpt lat="41.471507" lon="2.053208">
        <ele>132.503685</ele>
        <time>2023-01-22T07:46:17.000Z</time>
      </trkpt>
      <trkpt lat="41.471601" lon="2.053050">
        <ele>132.813234</ele>
        <time>2023-01-22T07:46:21.000Z</time>
      </trkpt>
      <trkpt lat="41.471629" lon="2.053013">
        <ele>132.893920</ele>
        <time>2023-01-22T07:46:22.000Z</time>
      </trkpt>
      <trkpt lat="41.471772" lon="2.052829">
        <ele>133.300674</ele>
        <time>2023-01-22T07:46:27.000Z</time>
      </trkpt>
      <trkpt lat="41.471783" lon="2.052774">
        <ele>133.388016</ele>
        <time>2023-01-22T07:46:28.000Z</time>
      </trkpt>
      <trkpt lat="41.471732" lon="2.052569">
        <ele>133.719437</ele>
        <time>2023-01-22T07:46:32.000Z</time>
      </trkpt>
      <trkpt lat="41.471554" lon="2.052104">
        <ele>133.017083</ele>
        <time>2023-01-22T07:46:40.000Z</time>
      </trkpt>
      <trkpt lat="41.471427" lon="2.051760">
        <ele>132.288465</ele>
        <time>2023-01-22T07:46:45.000Z</time>
      </trkpt>
      <trkpt lat="41.471367" lon="2.051618">
        <ele>131.978728</ele>
        <time>2023-01-22T07:46:47.000Z</time>
      </trkpt>
      <trkpt lat="41.471289" lon="2.051398">
        <ele>131.516302</ele>
        <time>2023-01-22T07:46:50.000Z</time>
      </trkpt>
      <trkpt lat="41.471164" lon="2.051066">
        <ele>130.810354</ele>
        <time>2023-01-22T07:46:55.000Z</time>
      </trkpt>
      <trkpt lat="41.471142" lon="2.051004">
        <ele>130.680014</ele>
        <time>2023-01-22T07:46:56.000Z</time>
      </trkpt>
      <trkpt lat="41.470994" lon="2.050608">
        <ele>129.839222</ele>
        <time>2023-01-22T07:47:02.000Z</time>
      </trkpt>
      <trkpt lat="41.470876" lon="2.050299">
        <ele>129.109020</ele>
        <time>2023-01-22T07:47:06.000Z</time>
      </trkpt>
      <trkpt lat="41.470795" lon="2.050078">
        <ele>128.332544</ele>
        <time>2023-01-22T07:47:09.000Z</time>
      </trkpt>
      <trkpt lat="41.470737" lon="2.049926">
        <ele>127.794189</ele>
        <time>2023-01-22T07:47:11.000Z</time>
      </trkpt>
      <trkpt lat="41.470602" lon="2.049574">
        <ele>126.546161</ele>
        <time>2023-01-22T07:47:15.000Z</time>
      </trkpt>
      <trkpt lat="41.470567" lon="2.049488">
        <ele>126.237281</ele>
        <time>2023-01-22T07:47:16.000Z</time>
      </trkpt>
      <trkpt lat="41.470447" lon="2.049163">
        <ele>125.093761</ele>
        <time>2023-01-22T07:47:20.000Z</time>
      </trkpt>
      <trkpt lat="41.470374" lon="2.048981">
        <ele>124.442222</ele>
        <time>2023-01-22T07:47:22.000Z</time>
      </trkpt>
      <trkpt lat="41.470339" lon="2.048911">
        <ele>124.176621</ele>
        <time>2023-01-22T07:47:23.000Z</time>
      </trkpt>
      <trkpt lat="41.470294" lon="2.048860">
        <ele>123.927951</ele>
        <time>2023-01-22T07:47:24.000Z</time>
      </trkpt>
      <trkpt lat="41.470245" lon="2.048825">
        <ele>123.693854</ele>
        <time>2023-01-22T07:47:25.000Z</time>
      </trkpt>
      <trkpt lat="41.470159" lon="2.048741">
        <ele>123.244959</ele>
        <time>2023-01-22T07:47:27.000Z</time>
      </trkpt>
      <trkpt lat="41.470137" lon="2.048687">
        <ele>123.050963</ele>
        <time>2023-01-22T07:47:28.000Z</time>
      </trkpt>
      <trkpt lat="41.469986" lon="2.048261">
        <ele>121.569398</ele>
        <time>2023-01-22T07:47:33.000Z</time>
      </trkpt>
      <trkpt lat="41.469956" lon="2.048177">
        <ele>121.287204</ele>
        <time>2023-01-22T07:47:34.000Z</time>
      </trkpt>
      <trkpt lat="41.469831" lon="2.047831">
        <ele>120.122334</ele>
        <time>2023-01-22T07:47:38.000Z</time>
      </trkpt>
      <trkpt lat="41.469762" lon="2.047647">
        <ele>119.498357</ele>
        <time>2023-01-22T07:47:40.000Z</time>
      </trkpt>
      <trkpt lat="41.469698" lon="2.047487">
        <ele>118.948332</ele>
        <time>2023-01-22T07:47:42.000Z</time>
      </trkpt>
      <trkpt lat="41.469591" lon="2.047197">
        <ele>117.968037</ele>
        <time>2023-01-22T07:47:45.000Z</time>
      </trkpt>
      <trkpt lat="41.469525" lon="2.047029">
        <ele>117.392781</ele>
        <time>2023-01-22T07:47:47.000Z</time>
      </trkpt>
      <trkpt lat="41.469476" lon="2.046890">
        <ele>116.926928</ele>
        <time>2023-01-22T07:47:49.000Z</time>
      </trkpt>
      <trkpt lat="41.469380" lon="2.046630">
        <ele>116.047917</ele>
        <time>2023-01-22T07:47:53.000Z</time>
      </trkpt>
      <trkpt lat="41.469382" lon="2.046492">
        <ele>115.629337</ele>
        <time>2023-01-22T07:47:55.000Z</time>
      </trkpt>
      <trkpt lat="41.469394" lon="2.046425">
        <ele>115.420428</ele>
        <time>2023-01-22T07:47:56.000Z</time>
      </trkpt>
      <trkpt lat="41.469411" lon="2.046359">
        <ele>115.208779</ele>
        <time>2023-01-22T07:47:57.000Z</time>
      </trkpt>
      <trkpt lat="41.469468" lon="2.046273">
        <ele>114.860587</ele>
        <time>2023-01-22T07:47:59.000Z</time>
      </trkpt>
      <trkpt lat="41.469605" lon="2.046178">
        <ele>114.424075</ele>
        <time>2023-01-22T07:48:02.000Z</time>
      </trkpt>
      <trkpt lat="41.469702" lon="2.046115">
        <ele>114.405520</ele>
        <time>2023-01-22T07:48:04.000Z</time>
      </trkpt>
      <trkpt lat="41.469997" lon="2.045933">
        <ele>114.349620</ele>
        <time>2023-01-22T07:48:09.000Z</time>
      </trkpt>
      <trkpt lat="41.470052" lon="2.045904">
        <ele>114.339449</ele>
        <time>2023-01-22T07:48:10.000Z</time>
      </trkpt>
      <trkpt lat="41.470387" lon="2.045700">
        <ele>114.276113</ele>
        <time>2023-01-22T07:48:17.000Z</time>
      </trkpt>
      <trkpt lat="41.470762" lon="2.045482">
        <ele>114.205759</ele>
        <time>2023-01-22T07:48:26.000Z</time>
      </trkpt>
      <trkpt lat="41.470985" lon="2.045340">
        <ele>114.163261</ele>
        <time>2023-01-22T07:48:31.000Z</time>
      </trkpt>
      <trkpt lat="41.471158" lon="2.045237">
        <ele>114.130678</ele>
        <time>2023-01-22T07:48:35.000Z</time>
      </trkpt>
      <trkpt lat="41.471233" lon="2.045190">
        <ele>114.092201</ele>
        <time>2023-01-22T07:48:37.000Z</time>
      </trkpt>
      <trkpt lat="41.471310" lon="2.045147">
        <ele>114.025457</ele>
        <time>2023-01-22T07:48:39.000Z</time>
      </trkpt>
      <trkpt lat="41.471440" lon="2.045063">
        <ele>113.909963</ele>
        <time>2023-01-22T07:48:42.000Z</time>
      </trkpt>
      <trkpt lat="41.471745" lon="2.044917">
        <ele>113.650865</ele>
        <time>2023-01-22T07:48:48.000Z</time>
      </trkpt>
      <trkpt lat="41.471790" lon="2.044908">
        <ele>113.614480</ele>
        <time>2023-01-22T07:48:49.000Z</time>
      </trkpt>
      <trkpt lat="41.471911" lon="2.044937">
        <ele>113.516178</ele>
        <time>2023-01-22T07:48:51.000Z</time>
      </trkpt>
      <trkpt lat="41.472019" lon="2.044990">
        <ele>113.424166</ele>
        <time>2023-01-22T07:48:53.000Z</time>
      </trkpt>
      <trkpt lat="41.472076" lon="2.045001">
        <ele>113.378113</ele>
        <time>2023-01-22T07:48:54.000Z</time>
      </trkpt>
      <trkpt lat="41.472133" lon="2.044992">
        <ele>113.332217</ele>
        <time>2023-01-22T07:48:55.000Z</time>
      </trkpt>
      <trkpt lat="41.472186" lon="2.044962">
        <ele>113.286183</ele>
        <time>2023-01-22T07:48:56.000Z</time>
      </trkpt>
      <trkpt lat="41.472260" lon="2.044846">
        <ele>113.194905</ele>
        <time>2023-01-22T07:48:58.000Z</time>
      </trkpt>
      <trkpt lat="41.472263" lon="2.044701">
        <ele>113.107997</ele>
        <time>2023-01-22T07:49:00.000Z</time>
      </trkpt>
      <trkpt lat="41.472239" lon="2.044637">
        <ele>113.065118</ele>
        <time>2023-01-22T07:49:01.000Z</time>
      </trkpt>
      <trkpt lat="41.472197" lon="2.044590">
        <ele>113.021290</ele>
        <time>2023-01-22T07:49:02.000Z</time>
      </trkpt>
      <trkpt lat="41.472089" lon="2.044541">
        <ele>112.930077</ele>
        <time>2023-01-22T07:49:04.000Z</time>
      </trkpt>
      <trkpt lat="41.471928" lon="2.044502">
        <ele>112.799234</ele>
        <time>2023-01-22T07:49:07.000Z</time>
      </trkpt>
      <trkpt lat="41.471837" lon="2.044441">
        <ele>112.717806</ele>
        <time>2023-01-22T07:49:09.000Z</time>
      </trkpt>
      <trkpt lat="41.471533" lon="2.044151">
        <ele>112.192496</ele>
        <time>2023-01-22T07:49:16.000Z</time>
      </trkpt>
      <trkpt lat="41.471209" lon="2.043835">
        <ele>111.598177</ele>
        <time>2023-01-22T07:49:23.000Z</time>
      </trkpt>
      <trkpt lat="41.471167" lon="2.043792">
        <ele>111.519780</ele>
        <time>2023-01-22T07:49:24.000Z</time>
      </trkpt>
      <trkpt lat="41.470768" lon="2.043406">
        <ele>110.789941</ele>
        <time>2023-01-22T07:49:33.000Z</time>
      </trkpt>
      <trkpt lat="41.470665" lon="2.043310">
        <ele>110.603881</ele>
        <time>2023-01-22T07:49:35.000Z</time>
      </trkpt>
      <trkpt lat="41.470403" lon="2.043060">
        <ele>110.126883</ele>
        <time>2023-01-22T07:49:41.000Z</time>
      </trkpt>
      <trkpt lat="41.470221" lon="2.042878">
        <ele>109.835624</ele>
        <time>2023-01-22T07:49:45.000Z</time>
      </trkpt>
      <trkpt lat="41.470014" lon="2.042629">
        <ele>109.504311</ele>
        <time>2023-01-22T07:49:50.000Z</time>
      </trkpt>
      <trkpt lat="41.469962" lon="2.042526">
        <ele>109.393671</ele>
        <time>2023-01-22T07:49:52.000Z</time>
      </trkpt>
      <trkpt lat="41.469952" lon="2.042393">
        <ele>109.274594</ele>
        <time>2023-01-22T07:49:54.000Z</time>
      </trkpt>
      <trkpt lat="41.469977" lon="2.042169">
        <ele>109.072845</ele>
        <time>2023-01-22T07:49:57.000Z</time>
      </trkpt>
      <trkpt lat="41.469967" lon="2.042092">
        <ele>109.003228</ele>
        <time>2023-01-22T07:49:58.000Z</time>
      </trkpt>
      <trkpt lat="41.469940" lon="2.042027">
        <ele>108.937021</ele>
        <time>2023-01-22T07:49:59.000Z</time>
      </trkpt>
      <trkpt lat="41.469849" lon="2.041946">
        <ele>108.806976</ele>
        <time>2023-01-22T07:50:01.000Z</time>
      </trkpt>
      <trkpt lat="41.469744" lon="2.041931">
        <ele>108.681430</ele>
        <time>2023-01-22T07:50:03.000Z</time>
      </trkpt>
      <trkpt lat="41.469638" lon="2.041930">
        <ele>108.555404</ele>
        <time>2023-01-22T07:50:05.000Z</time>
      </trkpt>
      <trkpt lat="41.469597" lon="2.041922">
        <ele>108.506142</ele>
        <time>2023-01-22T07:50:06.000Z</time>
      </trkpt>
      <trkpt lat="41.469543" lon="2.041896">
        <ele>108.437891</ele>
        <time>2023-01-22T07:50:07.000Z</time>
      </trkpt>
      <trkpt lat="41.469404" lon="2.041810">
        <ele>108.255741</ele>
        <time>2023-01-22T07:50:10.000Z</time>
      </trkpt>
      <trkpt lat="41.468959" lon="2.041498">
        <ele>107.821025</ele>
        <time>2023-01-22T07:50:19.000Z</time>
      </trkpt>
      <trkpt lat="41.468824" lon="2.041403">
        <ele>107.771226</ele>
        <time>2023-01-22T07:50:22.000Z</time>
      </trkpt>
      <trkpt lat="41.468598" lon="2.041252">
        <ele>107.688758</ele>
        <time>2023-01-22T07:50:27.000Z</time>
      </trkpt>
      <trkpt lat="41.468314" lon="2.041054">
        <ele>107.584207</ele>
        <time>2023-01-22T07:50:34.000Z</time>
      </trkpt>
      <trkpt lat="41.468278" lon="2.041017">
        <ele>107.569381</ele>
        <time>2023-01-22T07:50:35.000Z</time>
      </trkpt>
      <trkpt lat="41.468248" lon="2.040969">
        <ele>107.554098</ele>
        <time>2023-01-22T07:50:36.000Z</time>
      </trkpt>
      <trkpt lat="41.468192" lon="2.040813">
        <ele>107.511805</ele>
        <time>2023-01-22T07:50:39.000Z</time>
      </trkpt>
      <trkpt lat="41.468161" lon="2.040756">
        <ele>107.494585</ele>
        <time>2023-01-22T07:50:40.000Z</time>
      </trkpt>
      <trkpt lat="41.468079" lon="2.040685">
        <ele>107.462690</ele>
        <time>2023-01-22T07:50:42.000Z</time>
      </trkpt>
      <trkpt lat="41.468029" lon="2.040644">
        <ele>107.443542</ele>
        <time>2023-01-22T07:50:43.000Z</time>
      </trkpt>
      <trkpt lat="41.467983" lon="2.040592">
        <ele>107.423871</ele>
        <time>2023-01-22T07:50:44.000Z</time>
      </trkpt>
      <trkpt lat="41.467949" lon="2.040517">
        <ele>107.402439</ele>
        <time>2023-01-22T07:50:45.000Z</time>
      </trkpt>
      <trkpt lat="41.467899" lon="2.040215">
        <ele>107.326819</ele>
        <time>2023-01-22T07:50:49.000Z</time>
      </trkpt>
      <trkpt lat="41.467862" lon="2.039856">
        <ele>107.593381</ele>
        <time>2023-01-22T07:50:55.000Z</time>
      </trkpt>
      <trkpt lat="41.467850" lon="2.039742">
        <ele>107.738960</ele>
        <time>2023-01-22T07:50:57.000Z</time>
      </trkpt>
      <trkpt lat="41.467864" lon="2.039577">
        <ele>107.948950</ele>
        <time>2023-01-22T07:51:00.000Z</time>
      </trkpt>
      <trkpt lat="41.467937" lon="2.039386">
        <ele>108.220090</ele>
        <time>2023-01-22T07:51:04.000Z</time>
      </trkpt>
      <trkpt lat="41.467971" lon="2.039286">
        <ele>108.358957</ele>
        <time>2023-01-22T07:51:06.000Z</time>
      </trkpt>
      <trkpt lat="41.468049" lon="2.039099">
        <ele>108.629603</ele>
        <time>2023-01-22T07:51:10.000Z</time>
      </trkpt>
      <trkpt lat="41.468145" lon="2.038848">
        <ele>108.985969</ele>
        <time>2023-01-22T07:51:15.000Z</time>
      </trkpt>
      <trkpt lat="41.468205" lon="2.038688">
        <ele>109.212225</ele>
        <time>2023-01-22T07:51:18.000Z</time>
      </trkpt>
      <trkpt lat="41.468353" lon="2.038321">
        <ele>109.739267</ele>
        <time>2023-01-22T07:51:25.000Z</time>
      </trkpt>
      <trkpt lat="41.468577" lon="2.037768">
        <ele>110.190059</ele>
        <time>2023-01-22T07:51:34.000Z</time>
      </trkpt>
      <trkpt lat="41.468726" lon="2.037375">
        <ele>109.802834</ele>
        <time>2023-01-22T07:51:40.000Z</time>
      </trkpt>
      <trkpt lat="41.468753" lon="2.037309">
        <ele>109.736724</ele>
        <time>2023-01-22T07:51:41.000Z</time>
      </trkpt>
      <trkpt lat="41.468912" lon="2.036922">
        <ele>109.348696</ele>
        <time>2023-01-22T07:51:48.000Z</time>
      </trkpt>
      <trkpt lat="41.468969" lon="2.036753">
        <ele>109.185759</ele>
        <time>2023-01-22T07:51:51.000Z</time>
      </trkpt>
      <trkpt lat="41.468991" lon="2.036626">
        <ele>109.071159</ele>
        <time>2023-01-22T07:51:53.000Z</time>
      </trkpt>
      <trkpt lat="41.468995" lon="2.036567">
        <ele>109.019076</ele>
        <time>2023-01-22T07:51:54.000Z</time>
      </trkpt>
      <trkpt lat="41.468985" lon="2.036505">
        <ele>108.963319</ele>
        <time>2023-01-22T07:51:55.000Z</time>
      </trkpt>
      <trkpt lat="41.468936" lon="2.036408">
        <ele>108.860470</ele>
        <time>2023-01-22T07:51:57.000Z</time>
      </trkpt>
      <trkpt lat="41.468878" lon="2.036326">
        <ele>108.761333</ele>
        <time>2023-01-22T07:51:59.000Z</time>
      </trkpt>
      <trkpt lat="41.468835" lon="2.036216">
        <ele>108.652255</ele>
        <time>2023-01-22T07:52:01.000Z</time>
      </trkpt>
      <trkpt lat="41.468820" lon="2.036152">
        <ele>108.593300</ele>
        <time>2023-01-22T07:52:02.000Z</time>
      </trkpt>
      <trkpt lat="41.468776" lon="2.035953">
        <ele>108.410887</ele>
        <time>2023-01-22T07:52:05.000Z</time>
      </trkpt>
      <trkpt lat="41.468724" lon="2.035668">
        <ele>107.908287</ele>
        <time>2023-01-22T07:52:09.000Z</time>
      </trkpt>
      <trkpt lat="41.468616" lon="2.035336">
        <ele>106.442461</ele>
        <time>2023-01-22T07:52:14.000Z</time>
      </trkpt>
      <trkpt lat="41.468586" lon="2.035271">
        <ele>106.133283</ele>
        <time>2023-01-22T07:52:15.000Z</time>
      </trkpt>
      <trkpt lat="41.468496" lon="2.035072">
        <ele>105.191919</ele>
        <time>2023-01-22T07:52:18.000Z</time>
      </trkpt>
      <trkpt lat="41.468394" lon="2.034857">
        <ele>104.161326</ele>
        <time>2023-01-22T07:52:21.000Z</time>
      </trkpt>
      <trkpt lat="41.468337" lon="2.034689">
        <ele>103.414432</ele>
        <time>2023-01-22T07:52:23.000Z</time>
      </trkpt>
      <trkpt lat="41.468318" lon="2.034590">
        <ele>103.000542</ele>
        <time>2023-01-22T07:52:24.000Z</time>
      </trkpt>
      <trkpt lat="41.468296" lon="2.034370">
        <ele>102.101647</ele>
        <time>2023-01-22T07:52:26.000Z</time>
      </trkpt>
      <trkpt lat="41.468294" lon="2.034244">
        <ele>101.591235</ele>
        <time>2023-01-22T07:52:27.000Z</time>
      </trkpt>
      <trkpt lat="41.468288" lon="2.034111">
        <ele>101.051612</ele>
        <time>2023-01-22T07:52:28.000Z</time>
      </trkpt>
      <trkpt lat="41.468291" lon="2.033987">
        <ele>100.549152</ele>
        <time>2023-01-22T07:52:29.000Z</time>
      </trkpt>
      <trkpt lat="41.468295" lon="2.033848">
        <ele>99.985790</ele>
        <time>2023-01-22T07:52:30.000Z</time>
      </trkpt>
      <trkpt lat="41.468278" lon="2.033557">
        <ele>98.803668</ele>
        <time>2023-01-22T07:52:32.000Z</time>
      </trkpt>
      <trkpt lat="41.468326" lon="2.033233">
        <ele>97.764023</ele>
        <time>2023-01-22T07:52:34.000Z</time>
      </trkpt>
      <trkpt lat="41.468371" lon="2.033117">
        <ele>97.387532</ele>
        <time>2023-01-22T07:52:35.000Z</time>
      </trkpt>
      <trkpt lat="41.468450" lon="2.032874">
        <ele>96.624066</ele>
        <time>2023-01-22T07:52:37.000Z</time>
      </trkpt>
      <trkpt lat="41.468578" lon="2.032429">
        <ele>95.250214</ele>
        <time>2023-01-22T07:52:41.000Z</time>
      </trkpt>
      <trkpt lat="41.468601" lon="2.032327">
        <ele>94.943202</ele>
        <time>2023-01-22T07:52:42.000Z</time>
      </trkpt>
      <trkpt lat="41.468630" lon="2.032130">
        <ele>94.364547</ele>
        <time>2023-01-22T07:52:44.000Z</time>
      </trkpt>
      <trkpt lat="41.468632" lon="2.032026">
        <ele>94.064695</ele>
        <time>2023-01-22T07:52:45.000Z</time>
      </trkpt>
      <trkpt lat="41.468624" lon="2.031918">
        <ele>93.751895</ele>
        <time>2023-01-22T07:52:46.000Z</time>
      </trkpt>
      <trkpt lat="41.468587" lon="2.031715">
        <ele>93.149740</ele>
        <time>2023-01-22T07:52:48.000Z</time>
      </trkpt>
      <trkpt lat="41.468513" lon="2.031536">
        <ele>92.560507</ele>
        <time>2023-01-22T07:52:50.000Z</time>
      </trkpt>
      <trkpt lat="41.468417" lon="2.031390">
        <ele>92.000655</ele>
        <time>2023-01-22T07:52:52.000Z</time>
      </trkpt>
      <trkpt lat="41.468363" lon="2.031327">
        <ele>91.724764</ele>
        <time>2023-01-22T07:52:53.000Z</time>
      </trkpt>
      <trkpt lat="41.468307" lon="2.031273">
        <ele>91.588046</ele>
        <time>2023-01-22T07:52:54.000Z</time>
      </trkpt>
      <trkpt lat="41.468248" lon="2.031228">
        <ele>91.603178</ele>
        <time>2023-01-22T07:52:55.000Z</time>
      </trkpt>
      <trkpt lat="41.468066" lon="2.031145">
        <ele>91.646006</ele>
        <time>2023-01-22T07:52:58.000Z</time>
      </trkpt>
      <trkpt lat="41.467741" lon="2.031105">
        <ele>91.718681</ele>
        <time>2023-01-22T07:53:04.000Z</time>
      </trkpt>
      <trkpt lat="41.467645" lon="2.031080">
        <ele>91.740461</ele>
        <time>2023-01-22T07:53:06.000Z</time>
      </trkpt>
      <trkpt lat="41.467560" lon="2.031022">
        <ele>91.761719</ele>
        <time>2023-01-22T07:53:09.000Z</time>
      </trkpt>
      <trkpt lat="41.467525" lon="2.030899">
        <ele>91.783672</ele>
        <time>2023-01-22T07:53:13.000Z</time>
      </trkpt>
      <trkpt lat="41.467530" lon="2.030779">
        <ele>91.803726</ele>
        <time>2023-01-22T07:53:15.000Z</time>
      </trkpt>
      <trkpt lat="41.467522" lon="2.030633">
        <ele>91.828152</ele>
        <time>2023-01-22T07:53:17.000Z</time>
      </trkpt>
      <trkpt lat="41.467483" lon="2.030491">
        <ele>91.853387</ele>
        <time>2023-01-22T07:53:19.000Z</time>
      </trkpt>
      <trkpt lat="41.467439" lon="2.030428">
        <ele>91.867756</ele>
        <time>2023-01-22T07:53:20.000Z</time>
      </trkpt>
      <trkpt lat="41.467390" lon="2.030379">
        <ele>91.881391</ele>
        <time>2023-01-22T07:53:21.000Z</time>
      </trkpt>
      <trkpt lat="41.467276" lon="2.030324">
        <ele>91.908383</ele>
        <time>2023-01-22T07:53:23.000Z</time>
      </trkpt>
      <trkpt lat="41.467096" lon="2.030328">
        <ele>91.948470</ele>
        <time>2023-01-22T07:53:26.000Z</time>
      </trkpt>
      <trkpt lat="41.467038" lon="2.030325">
        <ele>91.961395</ele>
        <time>2023-01-22T07:53:27.000Z</time>
      </trkpt>
      <trkpt lat="41.466864" lon="2.030272">
        <ele>91.942855</ele>
        <time>2023-01-22T07:53:30.000Z</time>
      </trkpt>
      <trkpt lat="41.466754" lon="2.030200">
        <ele>91.889187</ele>
        <time>2023-01-22T07:53:32.000Z</time>
      </trkpt>
      <trkpt lat="41.466436" lon="2.029844">
        <ele>91.707368</ele>
        <time>2023-01-22T07:53:39.000Z</time>
      </trkpt>
      <trkpt lat="41.466296" lon="2.029590">
        <ele>91.603870</ele>
        <time>2023-01-22T07:53:43.000Z</time>
      </trkpt>
      <trkpt lat="41.466274" lon="2.029520">
        <ele>91.578954</ele>
        <time>2023-01-22T07:53:44.000Z</time>
      </trkpt>
      <trkpt lat="41.466207" lon="2.029175">
        <ele>91.461969</ele>
        <time>2023-01-22T07:53:49.000Z</time>
      </trkpt>
      <trkpt lat="41.466198" lon="2.028620">
        <ele>91.279752</ele>
        <time>2023-01-22T07:53:57.000Z</time>
      </trkpt>
      <trkpt lat="41.466270" lon="2.027969">
        <ele>90.333337</ele>
        <time>2023-01-22T07:54:05.000Z</time>
      </trkpt>
      <trkpt lat="41.466390" lon="2.027539">
        <ele>89.335631</ele>
        <time>2023-01-22T07:54:09.000Z</time>
      </trkpt>
      <trkpt lat="41.466424" lon="2.027424">
        <ele>89.066822</ele>
        <time>2023-01-22T07:54:10.000Z</time>
      </trkpt>
      <trkpt lat="41.466531" lon="2.027106">
        <ele>88.308871</ele>
        <time>2023-01-22T07:54:13.000Z</time>
      </trkpt>
      <trkpt lat="41.466560" lon="2.027004">
        <ele>88.071661</ele>
        <time>2023-01-22T07:54:14.000Z</time>
      </trkpt>
      <trkpt lat="41.466651" lon="2.026697">
        <ele>87.353809</ele>
        <time>2023-01-22T07:54:17.000Z</time>
      </trkpt>
      <trkpt lat="41.466789" lon="2.026219">
        <ele>86.240004</ele>
        <time>2023-01-22T07:54:22.000Z</time>
      </trkpt>
      <trkpt lat="41.466921" lon="2.025776">
        <ele>85.693336</ele>
        <time>2023-01-22T07:54:27.000Z</time>
      </trkpt>
      <trkpt lat="41.466977" lon="2.025590">
        <ele>85.534393</ele>
        <time>2023-01-22T07:54:29.000Z</time>
      </trkpt>
      <trkpt lat="41.467009" lon="2.025498">
        <ele>85.453968</ele>
        <time>2023-01-22T07:54:30.000Z</time>
      </trkpt>
      <trkpt lat="41.467205" lon="2.024880">
        <ele>84.921859</ele>
        <time>2023-01-22T07:54:37.000Z</time>
      </trkpt>
      <trkpt lat="41.467359" lon="2.024388">
        <ele>84.499076</ele>
        <time>2023-01-22T07:54:43.000Z</time>
      </trkpt>
      <trkpt lat="41.467564" lon="2.023701">
        <ele>84.020039</ele>
        <time>2023-01-22T07:54:51.000Z</time>
      </trkpt>
      <trkpt lat="41.467611" lon="2.023526">
        <ele>83.972393</ele>
        <time>2023-01-22T07:54:53.000Z</time>
      </trkpt>
      <trkpt lat="41.467689" lon="2.022985">
        <ele>83.831193</ele>
        <time>2023-01-22T07:54:59.000Z</time>
      </trkpt>
      <trkpt lat="41.467660" lon="2.022347">
        <ele>83.667375</ele>
        <time>2023-01-22T07:55:06.000Z</time>
      </trkpt>
      <trkpt lat="41.467525" lon="2.021577">
        <ele>83.464696</ele>
        <time>2023-01-22T07:55:15.000Z</time>
      </trkpt>
      <trkpt lat="41.467318" lon="2.021011">
        <ele>83.243072</ele>
        <time>2023-01-22T07:55:22.000Z</time>
      </trkpt>
      <trkpt lat="41.467122" lon="2.020642">
        <ele>83.081476</ele>
        <time>2023-01-22T07:55:27.000Z</time>
      </trkpt>
      <trkpt lat="41.467037" lon="2.020523">
        <ele>83.022740</ele>
        <time>2023-01-22T07:55:29.000Z</time>
      </trkpt>
      <trkpt lat="41.466663" lon="2.020106">
        <ele>82.790375</ele>
        <time>2023-01-22T07:55:36.000Z</time>
      </trkpt>
      <trkpt lat="41.466208" lon="2.019588">
        <ele>82.284154</ele>
        <time>2023-01-22T07:55:45.000Z</time>
      </trkpt>
      <trkpt lat="41.466157" lon="2.019529">
        <ele>82.175721</ele>
        <time>2023-01-22T07:55:46.000Z</time>
      </trkpt>
      <trkpt lat="41.466054" lon="2.019416">
        <ele>81.961511</ele>
        <time>2023-01-22T07:55:48.000Z</time>
      </trkpt>
      <trkpt lat="41.465606" lon="2.018907">
        <ele>81.016274</ele>
        <time>2023-01-22T07:55:56.000Z</time>
      </trkpt>
      <trkpt lat="41.465195" lon="2.018444">
        <ele>80.152186</ele>
        <time>2023-01-22T07:56:03.000Z</time>
      </trkpt>
      <trkpt lat="41.465135" lon="2.018377">
        <ele>80.026500</ele>
        <time>2023-01-22T07:56:04.000Z</time>
      </trkpt>
      <trkpt lat="41.464782" lon="2.017964">
        <ele>79.266964</ele>
        <time>2023-01-22T07:56:10.000Z</time>
      </trkpt>
      <trkpt lat="41.464618" lon="2.017741">
        <ele>78.886213</ele>
        <time>2023-01-22T07:56:13.000Z</time>
      </trkpt>
      <trkpt lat="41.464575" lon="2.017667">
        <ele>78.772102</ele>
        <time>2023-01-22T07:56:14.000Z</time>
      </trkpt>
      <trkpt lat="41.464474" lon="2.017427">
        <ele>78.436675</ele>
        <time>2023-01-22T07:56:17.000Z</time>
      </trkpt>
      <trkpt lat="41.464435" lon="2.017346">
        <ele>78.319350</ele>
        <time>2023-01-22T07:56:18.000Z</time>
      </trkpt>
      <trkpt lat="41.464330" lon="2.017224">
        <ele>78.092949</ele>
        <time>2023-01-22T07:56:20.000Z</time>
      </trkpt>
      <trkpt lat="41.464075" lon="2.017048">
        <ele>77.626093</ele>
        <time>2023-01-22T07:56:24.000Z</time>
      </trkpt>
      <trkpt lat="41.463893" lon="2.016894">
        <ele>77.275646</ele>
        <time>2023-01-22T07:56:27.000Z</time>
      </trkpt>
      <trkpt lat="41.463508" lon="2.016505">
        <ele>77.033876</ele>
        <time>2023-01-22T07:56:34.000Z</time>
      </trkpt>
      <trkpt lat="41.463070" lon="2.015999">
        <ele>77.835227</ele>
        <time>2023-01-22T07:56:43.000Z</time>
      </trkpt>
      <trkpt lat="41.462712" lon="2.015588">
        <ele>78.488467</ele>
        <time>2023-01-22T07:56:51.000Z</time>
      </trkpt>
      <trkpt lat="41.462670" lon="2.015539">
        <ele>78.565635</ele>
        <time>2023-01-22T07:56:52.000Z</time>
      </trkpt>
      <trkpt lat="41.462466" lon="2.015246">
        <ele>78.980206</ele>
        <time>2023-01-22T07:56:58.000Z</time>
      </trkpt>
      <trkpt lat="41.462419" lon="2.015169">
        <ele>79.083149</ele>
        <time>2023-01-22T07:57:00.000Z</time>
      </trkpt>
      <trkpt lat="41.462394" lon="2.015124">
        <ele>79.141215</ele>
        <time>2023-01-22T07:57:01.000Z</time>
      </trkpt>
      <trkpt lat="41.462298" lon="2.014913">
        <ele>79.251575</ele>
        <time>2023-01-22T07:57:05.000Z</time>
      </trkpt>
      <trkpt lat="41.462186" lon="2.014626">
        <ele>79.196834</ele>
        <time>2023-01-22T07:57:10.000Z</time>
      </trkpt>
      <trkpt lat="41.462111" lon="2.014385">
        <ele>79.152688</ele>
        <time>2023-01-22T07:57:14.000Z</time>
      </trkpt>
      <trkpt lat="41.461995" lon="2.013885">
        <ele>79.064140</ele>
        <time>2023-01-22T07:57:21.000Z</time>
      </trkpt>
      <trkpt lat="41.461854" lon="2.013277">
        <ele>78.956470</ele>
        <time>2023-01-22T07:57:28.000Z</time>
      </trkpt>
      <trkpt lat="41.461761" lon="2.012928">
        <ele>78.893807</ele>
        <time>2023-01-22T07:57:32.000Z</time>
      </trkpt>
      <trkpt lat="41.461680" lon="2.012637">
        <ele>78.734310</ele>
        <time>2023-01-22T07:57:35.000Z</time>
      </trkpt>
      <trkpt lat="41.461536" lon="2.012182">
        <ele>78.288302</ele>
        <time>2023-01-22T07:57:40.000Z</time>
      </trkpt>
      <trkpt lat="41.461431" lon="2.011825">
        <ele>77.941987</ele>
        <time>2023-01-22T07:57:44.000Z</time>
      </trkpt>
      <trkpt lat="41.461411" lon="2.011680">
        <ele>77.808851</ele>
        <time>2023-01-22T07:57:46.000Z</time>
      </trkpt>
      <trkpt lat="41.461415" lon="2.011601">
        <ele>77.737350</ele>
        <time>2023-01-22T07:57:47.000Z</time>
      </trkpt>
      <trkpt lat="41.461429" lon="2.011521">
        <ele>77.663165</ele>
        <time>2023-01-22T07:57:48.000Z</time>
      </trkpt>
      <trkpt lat="41.461464" lon="2.011355">
        <ele>77.507445</ele>
        <time>2023-01-22T07:57:50.000Z</time>
      </trkpt>
      <trkpt lat="41.461463" lon="2.011272">
        <ele>77.432486</ele>
        <time>2023-01-22T07:57:51.000Z</time>
      </trkpt>
      <trkpt lat="41.461441" lon="2.011197">
        <ele>77.359756</ele>
        <time>2023-01-22T07:57:52.000Z</time>
      </trkpt>
      <trkpt lat="41.461354" lon="2.011089">
        <ele>77.216574</ele>
        <time>2023-01-22T07:57:54.000Z</time>
      </trkpt>
      <trkpt lat="41.461197" lon="2.010956">
        <ele>76.992489</ele>
        <time>2023-01-22T07:57:57.000Z</time>
      </trkpt>
      <trkpt lat="41.461108" lon="2.010835">
        <ele>76.839387</ele>
        <time>2023-01-22T07:57:59.000Z</time>
      </trkpt>
      <trkpt lat="41.461033" lon="2.010691">
        <ele>76.704912</ele>
        <time>2023-01-22T07:58:01.000Z</time>
      </trkpt>
      <trkpt lat="41.460978" lon="2.010529">
        <ele>76.762303</ele>
        <time>2023-01-22T07:58:03.000Z</time>
      </trkpt>
      <trkpt lat="41.460957" lon="2.010444">
        <ele>76.791184</ele>
        <time>2023-01-22T07:58:04.000Z</time>
      </trkpt>
      <trkpt lat="41.460888" lon="2.010099">
        <ele>76.906410</ele>
        <time>2023-01-22T07:58:08.000Z</time>
      </trkpt>
      <trkpt lat="41.460734" lon="2.009336">
        <ele>77.161401</ele>
        <time>2023-01-22T07:58:17.000Z</time>
      </trkpt>
      <trkpt lat="41.460590" lon="2.008601">
        <ele>77.406555</ele>
        <time>2023-01-22T07:58:26.000Z</time>
      </trkpt>
      <trkpt lat="41.460572" lon="2.008517">
        <ele>77.434748</ele>
        <time>2023-01-22T07:58:27.000Z</time>
      </trkpt>
      <trkpt lat="41.460425" lon="2.007809">
        <ele>76.533425</ele>
        <time>2023-01-22T07:58:35.000Z</time>
      </trkpt>
      <trkpt lat="41.460406" lon="2.007717">
        <ele>76.387790</ele>
        <time>2023-01-22T07:58:36.000Z</time>
      </trkpt>
      <trkpt lat="41.460257" lon="2.006985">
        <ele>75.230209</ele>
        <time>2023-01-22T07:58:44.000Z</time>
      </trkpt>
      <trkpt lat="41.460238" lon="2.006893">
        <ele>75.084573</ele>
        <time>2023-01-22T07:58:45.000Z</time>
      </trkpt>
      <trkpt lat="41.460219" lon="2.006799">
        <ele>74.935993</ele>
        <time>2023-01-22T07:58:46.000Z</time>
      </trkpt>
      <trkpt lat="41.460104" lon="2.006224">
        <ele>74.027769</ele>
        <time>2023-01-22T07:58:52.000Z</time>
      </trkpt>
      <trkpt lat="41.460058" lon="2.006016">
        <ele>73.553921</ele>
        <time>2023-01-22T07:58:54.000Z</time>
      </trkpt>
      <trkpt lat="41.460037" lon="2.005906">
        <ele>73.162736</ele>
        <time>2023-01-22T07:58:55.000Z</time>
      </trkpt>
      <trkpt lat="41.459965" lon="2.005566">
        <ele>71.945161</ele>
        <time>2023-01-22T07:58:58.000Z</time>
      </trkpt>
      <trkpt lat="41.459894" lon="2.005209">
        <ele>70.672294</ele>
        <time>2023-01-22T07:59:01.000Z</time>
      </trkpt>
      <trkpt lat="41.459845" lon="2.004965">
        <ele>69.801762</ele>
        <time>2023-01-22T07:59:03.000Z</time>
      </trkpt>
      <trkpt lat="41.459792" lon="2.004713">
        <ele>68.899776</ele>
        <time>2023-01-22T07:59:05.000Z</time>
      </trkpt>
      <trkpt lat="41.459741" lon="2.004453">
        <ele>67.973587</ele>
        <time>2023-01-22T07:59:07.000Z</time>
      </trkpt>
      <trkpt lat="41.459715" lon="2.004320">
        <ele>67.499908</ele>
        <time>2023-01-22T07:59:08.000Z</time>
      </trkpt>
      <trkpt lat="41.459623" lon="2.003920">
        <ele>66.057978</ele>
        <time>2023-01-22T07:59:11.000Z</time>
      </trkpt>
      <trkpt lat="41.459582" lon="2.003790">
        <ele>65.571918</ele>
        <time>2023-01-22T07:59:12.000Z</time>
      </trkpt>
      <trkpt lat="41.459527" lon="2.003668">
        <ele>65.035516</ele>
        <time>2023-01-22T07:59:13.000Z</time>
      </trkpt>
      <trkpt lat="41.459462" lon="2.003556">
        <ele>64.498580</ele>
        <time>2023-01-22T07:59:14.000Z</time>
      </trkpt>
      <trkpt lat="41.459305" lon="2.003359">
        <ele>63.408572</ele>
        <time>2023-01-22T07:59:16.000Z</time>
      </trkpt>
      <trkpt lat="41.459216" lon="2.003272">
        <ele>62.850565</ele>
        <time>2023-01-22T07:59:17.000Z</time>
      </trkpt>
      <trkpt lat="41.459029" lon="2.003109">
        <ele>61.720848</ele>
        <time>2023-01-22T07:59:19.000Z</time>
      </trkpt>
      <trkpt lat="41.458840" lon="2.002955">
        <ele>60.600799</ele>
        <time>2023-01-22T07:59:21.000Z</time>
      </trkpt>
      <trkpt lat="41.458657" lon="2.002803">
        <ele>59.510559</ele>
        <time>2023-01-22T07:59:23.000Z</time>
      </trkpt>
      <trkpt lat="41.458475" lon="2.002655">
        <ele>58.432577</ele>
        <time>2023-01-22T07:59:25.000Z</time>
      </trkpt>
      <trkpt lat="41.458299" lon="2.002511">
        <ele>57.388393</ele>
        <time>2023-01-22T07:59:27.000Z</time>
      </trkpt>
      <trkpt lat="41.458130" lon="2.002376">
        <ele>56.450208</ele>
        <time>2023-01-22T07:59:29.000Z</time>
      </trkpt>
      <trkpt lat="41.457961" lon="2.002261">
        <ele>56.601328</ele>
        <time>2023-01-22T07:59:31.000Z</time>
      </trkpt>
      <trkpt lat="41.457714" lon="2.002150">
        <ele>56.808946</ele>
        <time>2023-01-22T07:59:34.000Z</time>
      </trkpt>
      <trkpt lat="41.457153" lon="2.002030">
        <ele>57.261541</ele>
        <time>2023-01-22T07:59:41.000Z</time>
      </trkpt>
      <trkpt lat="41.456604" lon="2.001920">
        <ele>57.703773</ele>
        <time>2023-01-22T07:59:49.000Z</time>
      </trkpt>
      <trkpt lat="41.456477" lon="2.001894">
        <ele>57.806125</ele>
        <time>2023-01-22T07:59:51.000Z</time>
      </trkpt>
      <trkpt lat="41.456235" lon="2.001852">
        <ele>58.257618</ele>
        <time>2023-01-22T07:59:55.000Z</time>
      </trkpt>
      <trkpt lat="41.456119" lon="2.001830">
        <ele>58.542263</ele>
        <time>2023-01-22T07:59:57.000Z</time>
      </trkpt>
      <trkpt lat="41.456007" lon="2.001806">
        <ele>58.817845</ele>
        <time>2023-01-22T07:59:59.000Z</time>
      </trkpt>
      <trkpt lat="41.455782" lon="2.001749">
        <ele>59.374229</ele>
        <time>2023-01-22T08:00:03.000Z</time>
      </trkpt>
      <trkpt lat="41.455669" lon="2.001721">
        <ele>59.653447</ele>
        <time>2023-01-22T08:00:05.000Z</time>
      </trkpt>
      <trkpt lat="41.455507" lon="2.001667">
        <ele>60.059108</ele>
        <time>2023-01-22T08:00:08.000Z</time>
      </trkpt>
      <trkpt lat="41.455289" lon="2.001550">
        <ele>60.629960</ele>
        <time>2023-01-22T08:00:12.000Z</time>
      </trkpt>
      <trkpt lat="41.455031" lon="2.001327">
        <ele>61.376773</ele>
        <time>2023-01-22T08:00:17.000Z</time>
      </trkpt>
      <trkpt lat="41.454982" lon="2.001272">
        <ele>61.532335</ele>
        <time>2023-01-22T08:00:18.000Z</time>
      </trkpt>
      <trkpt lat="41.454668" lon="2.000882">
        <ele>61.950405</ele>
        <time>2023-01-22T08:00:25.000Z</time>
      </trkpt>
      <trkpt lat="41.454234" lon="2.000465">
        <ele>60.790708</ele>
        <time>2023-01-22T08:00:33.000Z</time>
      </trkpt>
      <trkpt lat="41.453900" lon="2.000243">
        <ele>59.981577</ele>
        <time>2023-01-22T08:00:38.000Z</time>
      </trkpt>
      <trkpt lat="41.453783" lon="2.000154">
        <ele>59.689541</ele>
        <time>2023-01-22T08:00:40.000Z</time>
      </trkpt>
      <trkpt lat="41.453732" lon="2.000099">
        <ele>59.547346</ele>
        <time>2023-01-22T08:00:41.000Z</time>
      </trkpt>
      <trkpt lat="41.453693" lon="2.000031">
        <ele>59.408190</ele>
        <time>2023-01-22T08:00:42.000Z</time>
      </trkpt>
      <trkpt lat="41.453668" lon="1.999954">
        <ele>59.271813</ele>
        <time>2023-01-22T08:00:43.000Z</time>
      </trkpt>
      <trkpt lat="41.453623" lon="1.999778">
        <ele>58.969595</ele>
        <time>2023-01-22T08:00:45.000Z</time>
      </trkpt>
      <trkpt lat="41.453585" lon="1.999694">
        <ele>58.810139</ele>
        <time>2023-01-22T08:00:46.000Z</time>
      </trkpt>
      <trkpt lat="41.453531" lon="1.999621">
        <ele>58.643448</ele>
        <time>2023-01-22T08:00:47.000Z</time>
      </trkpt>
      <trkpt lat="41.453399" lon="1.999531">
        <ele>58.347853</ele>
        <time>2023-01-22T08:00:49.000Z</time>
      </trkpt>
      <trkpt lat="41.453325" lon="1.999516">
        <ele>58.371202</ele>
        <time>2023-01-22T08:00:50.000Z</time>
      </trkpt>
      <trkpt lat="41.453250" lon="1.999522">
        <ele>58.394640</ele>
        <time>2023-01-22T08:00:51.000Z</time>
      </trkpt>
      <trkpt lat="41.453110" lon="1.999575">
        <ele>58.440037</ele>
        <time>2023-01-22T08:00:53.000Z</time>
      </trkpt>
      <trkpt lat="41.453043" lon="1.999597">
        <ele>58.461561</ele>
        <time>2023-01-22T08:00:54.000Z</time>
      </trkpt>
      <trkpt lat="41.452909" lon="1.999609">
        <ele>58.503456</ele>
        <time>2023-01-22T08:00:56.000Z</time>
      </trkpt>
      <trkpt lat="41.452845" lon="1.999600">
        <ele>58.523532</ele>
        <time>2023-01-22T08:00:57.000Z</time>
      </trkpt>
      <trkpt lat="41.452783" lon="1.999580">
        <ele>58.543430</ele>
        <time>2023-01-22T08:00:58.000Z</time>
      </trkpt>
      <trkpt lat="41.452603" lon="1.999492">
        <ele>58.603231</ele>
        <time>2023-01-22T08:01:01.000Z</time>
      </trkpt>
      <trkpt lat="41.452541" lon="1.999463">
        <ele>58.623726</ele>
        <time>2023-01-22T08:01:02.000Z</time>
      </trkpt>
      <trkpt lat="41.452303" lon="1.999322">
        <ele>58.704960</ele>
        <time>2023-01-22T08:01:06.000Z</time>
      </trkpt>
      <trkpt lat="41.452072" lon="1.999157">
        <ele>58.786697</ele>
        <time>2023-01-22T08:01:10.000Z</time>
      </trkpt>
      <trkpt lat="41.451693" lon="1.998808">
        <ele>58.640335</ele>
        <time>2023-01-22T08:01:17.000Z</time>
      </trkpt>
      <trkpt lat="41.451638" lon="1.998743">
        <ele>58.393739</ele>
        <time>2023-01-22T08:01:18.000Z</time>
      </trkpt>
      <trkpt lat="41.451426" lon="1.998431">
        <ele>57.334378</ele>
        <time>2023-01-22T08:01:22.000Z</time>
      </trkpt>
      <trkpt lat="41.451215" lon="1.998082">
        <ele>56.206438</ele>
        <time>2023-01-22T08:01:26.000Z</time>
      </trkpt>
      <trkpt lat="41.451054" lon="1.997830">
        <ele>55.373471</ele>
        <time>2023-01-22T08:01:29.000Z</time>
      </trkpt>
      <trkpt lat="41.450824" lon="1.997509">
        <ele>54.256364</ele>
        <time>2023-01-22T08:01:33.000Z</time>
      </trkpt>
      <trkpt lat="41.450568" lon="1.997201">
        <ele>53.099420</ele>
        <time>2023-01-22T08:01:37.000Z</time>
      </trkpt>
      <trkpt lat="41.450162" lon="1.996847">
        <ele>50.806802</ele>
        <time>2023-01-22T08:01:42.000Z</time>
      </trkpt>
      <trkpt lat="41.449993" lon="1.996731">
        <ele>49.865485</ele>
        <time>2023-01-22T08:01:44.000Z</time>
      </trkpt>
      <trkpt lat="41.449781" lon="1.996598">
        <ele>48.705180</ele>
        <time>2023-01-22T08:01:46.000Z</time>
      </trkpt>
      <trkpt lat="41.449683" lon="1.996542">
        <ele>48.177150</ele>
        <time>2023-01-22T08:01:47.000Z</time>
      </trkpt>
      <trkpt lat="41.449583" lon="1.996490">
        <ele>47.645571</ele>
        <time>2023-01-22T08:01:48.000Z</time>
      </trkpt>
      <trkpt lat="41.449481" lon="1.996446">
        <ele>47.114626</ele>
        <time>2023-01-22T08:01:49.000Z</time>
      </trkpt>
      <trkpt lat="41.449377" lon="1.996411">
        <ele>46.583391</ele>
        <time>2023-01-22T08:01:50.000Z</time>
      </trkpt>
      <trkpt lat="41.449276" lon="1.996387">
        <ele>46.075277</ele>
        <time>2023-01-22T08:01:51.000Z</time>
      </trkpt>
      <trkpt lat="41.449195" lon="1.996373">
        <ele>45.670740</ele>
        <time>2023-01-22T08:01:52.000Z</time>
      </trkpt>
      <trkpt lat="41.448971" lon="1.996346">
        <ele>44.556775</ele>
        <time>2023-01-22T08:01:54.000Z</time>
      </trkpt>
      <trkpt lat="41.448873" lon="1.996350">
        <ele>44.071165</ele>
        <time>2023-01-22T08:01:55.000Z</time>
      </trkpt>
      <trkpt lat="41.448775" lon="1.996365">
        <ele>43.980565</ele>
        <time>2023-01-22T08:01:56.000Z</time>
      </trkpt>
      <trkpt lat="41.448350" lon="1.996499">
        <ele>44.094967</ele>
        <time>2023-01-22T08:02:01.000Z</time>
      </trkpt>
      <trkpt lat="41.448145" lon="1.996609">
        <ele>44.152851</ele>
        <time>2023-01-22T08:02:04.000Z</time>
      </trkpt>
      <trkpt lat="41.448084" lon="1.996646">
        <ele>44.170405</ele>
        <time>2023-01-22T08:02:05.000Z</time>
      </trkpt>
      <trkpt lat="41.448024" lon="1.996676">
        <ele>44.187191</ele>
        <time>2023-01-22T08:02:06.000Z</time>
      </trkpt>
      <trkpt lat="41.447849" lon="1.996758">
        <ele>44.235781</ele>
        <time>2023-01-22T08:02:09.000Z</time>
      </trkpt>
      <trkpt lat="41.447657" lon="1.996813">
        <ele>44.287225</ele>
        <time>2023-01-22T08:02:12.000Z</time>
      </trkpt>
      <trkpt lat="41.447276" lon="1.996848">
        <ele>44.387270</ele>
        <time>2023-01-22T08:02:17.000Z</time>
      </trkpt>
      <trkpt lat="41.446807" lon="1.996824">
        <ele>43.976961</ele>
        <time>2023-01-22T08:02:22.000Z</time>
      </trkpt>
      <trkpt lat="41.446506" lon="1.996752">
        <ele>43.512636</ele>
        <time>2023-01-22T08:02:25.000Z</time>
      </trkpt>
      <trkpt lat="41.446312" lon="1.996694">
        <ele>43.210762</ele>
        <time>2023-01-22T08:02:27.000Z</time>
      </trkpt>
      <trkpt lat="41.446216" lon="1.996669">
        <ele>43.062244</ele>
        <time>2023-01-22T08:02:28.000Z</time>
      </trkpt>
      <trkpt lat="41.445936" lon="1.996632">
        <ele>42.635014</ele>
        <time>2023-01-22T08:02:31.000Z</time>
      </trkpt>
      <trkpt lat="41.445756" lon="1.996636">
        <ele>42.361665</ele>
        <time>2023-01-22T08:02:33.000Z</time>
      </trkpt>
      <trkpt lat="41.445506" lon="1.996660">
        <ele>41.981084</ele>
        <time>2023-01-22T08:02:36.000Z</time>
      </trkpt>
      <trkpt lat="41.445356" lon="1.996679">
        <ele>41.752301</ele>
        <time>2023-01-22T08:02:38.000Z</time>
      </trkpt>
      <trkpt lat="41.445098" lon="1.996716">
        <ele>42.567544</ele>
        <time>2023-01-22T08:02:42.000Z</time>
      </trkpt>
      <trkpt lat="41.445040" lon="1.996726">
        <ele>42.792347</ele>
        <time>2023-01-22T08:02:43.000Z</time>
      </trkpt>
      <trkpt lat="41.444925" lon="1.996756">
        <ele>43.242771</ele>
        <time>2023-01-22T08:02:45.000Z</time>
      </trkpt>
      <trkpt lat="41.444812" lon="1.996790">
        <ele>43.688047</ele>
        <time>2023-01-22T08:02:47.000Z</time>
      </trkpt>
      <trkpt lat="41.444702" lon="1.996827">
        <ele>44.124113</ele>
        <time>2023-01-22T08:02:49.000Z</time>
      </trkpt>
      <trkpt lat="41.444594" lon="1.996875">
        <ele>44.561690</ele>
        <time>2023-01-22T08:02:51.000Z</time>
      </trkpt>
      <trkpt lat="41.444434" lon="1.996951">
        <ele>45.214543</ele>
        <time>2023-01-22T08:02:54.000Z</time>
      </trkpt>
      <trkpt lat="41.444380" lon="1.996978">
        <ele>45.436216</ele>
        <time>2023-01-22T08:02:55.000Z</time>
      </trkpt>
      <trkpt lat="41.444328" lon="1.997013">
        <ele>45.660101</ele>
        <time>2023-01-22T08:02:56.000Z</time>
      </trkpt>
      <trkpt lat="41.444225" lon="1.997086">
        <ele>46.108432</ele>
        <time>2023-01-22T08:02:58.000Z</time>
      </trkpt>
      <trkpt lat="41.443983" lon="1.997281">
        <ele>47.195188</ele>
        <time>2023-01-22T08:03:03.000Z</time>
      </trkpt>
      <trkpt lat="41.443937" lon="1.997328">
        <ele>47.417912</ele>
        <time>2023-01-22T08:03:04.000Z</time>
      </trkpt>
      <trkpt lat="41.443575" lon="1.997770">
        <ele>48.476904</ele>
        <time>2023-01-22T08:03:12.000Z</time>
      </trkpt>
      <trkpt lat="41.443173" lon="1.998266">
        <ele>48.056746</ele>
        <time>2023-01-22T08:03:20.000Z</time>
      </trkpt>
      <trkpt lat="41.442783" lon="1.998528">
        <ele>47.721698</ele>
        <time>2023-01-22T08:03:26.000Z</time>
      </trkpt>
      <trkpt lat="41.442574" lon="1.998593">
        <ele>47.557032</ele>
        <time>2023-01-22T08:03:29.000Z</time>
      </trkpt>
      <trkpt lat="41.442425" lon="1.998613">
        <ele>47.442127</ele>
        <time>2023-01-22T08:03:31.000Z</time>
      </trkpt>
      <trkpt lat="41.442347" lon="1.998618">
        <ele>47.382209</ele>
        <time>2023-01-22T08:03:32.000Z</time>
      </trkpt>
      <trkpt lat="41.442021" lon="1.998591">
        <ele>47.389424</ele>
        <time>2023-01-22T08:03:36.000Z</time>
      </trkpt>
      <trkpt lat="41.441856" lon="1.998564">
        <ele>47.581506</ele>
        <time>2023-01-22T08:03:38.000Z</time>
      </trkpt>
      <trkpt lat="41.441776" lon="1.998552">
        <ele>47.674527</ele>
        <time>2023-01-22T08:03:39.000Z</time>
      </trkpt>
      <trkpt lat="41.441552" lon="1.998536">
        <ele>47.933724</ele>
        <time>2023-01-22T08:03:42.000Z</time>
      </trkpt>
      <trkpt lat="41.441221" lon="1.998562">
        <ele>48.316849</ele>
        <time>2023-01-22T08:03:47.000Z</time>
      </trkpt>
      <trkpt lat="41.440865" lon="1.998657">
        <ele>48.736348</ele>
        <time>2023-01-22T08:03:53.000Z</time>
      </trkpt>
      <trkpt lat="41.440651" lon="1.998718">
        <ele>48.989201</ele>
        <time>2023-01-22T08:03:57.000Z</time>
      </trkpt>
      <trkpt lat="41.440528" lon="1.998747">
        <ele>49.133528</ele>
        <time>2023-01-22T08:03:59.000Z</time>
      </trkpt>
      <trkpt lat="41.440469" lon="1.998748">
        <ele>49.201706</ele>
        <time>2023-01-22T08:04:00.000Z</time>
      </trkpt>
      <trkpt lat="41.440355" lon="1.998738">
        <ele>49.314559</ele>
        <time>2023-01-22T08:04:02.000Z</time>
      </trkpt>
      <trkpt lat="41.440246" lon="1.998703">
        <ele>49.325640</ele>
        <time>2023-01-22T08:04:04.000Z</time>
      </trkpt>
      <trkpt lat="41.440203" lon="1.998682">
        <ele>49.330166</ele>
        <time>2023-01-22T08:04:05.000Z</time>
      </trkpt>
      <trkpt lat="41.440085" lon="1.998626">
        <ele>49.342545</ele>
        <time>2023-01-22T08:04:07.000Z</time>
      </trkpt>
      <trkpt lat="41.440028" lon="1.998614">
        <ele>49.348249</ele>
        <time>2023-01-22T08:04:08.000Z</time>
      </trkpt>
      <trkpt lat="41.439970" lon="1.998616">
        <ele>49.353983</ele>
        <time>2023-01-22T08:04:09.000Z</time>
      </trkpt>
      <trkpt lat="41.439853" lon="1.998666">
        <ele>49.366126</ele>
        <time>2023-01-22T08:04:11.000Z</time>
      </trkpt>
      <trkpt lat="41.439813" lon="1.998706">
        <ele>49.371067</ele>
        <time>2023-01-22T08:04:12.000Z</time>
      </trkpt>
      <trkpt lat="41.439766" lon="1.998765">
        <ele>49.377446</ele>
        <time>2023-01-22T08:04:13.000Z</time>
      </trkpt>
      <trkpt lat="41.439658" lon="1.998896">
        <ele>49.391874</ele>
        <time>2023-01-22T08:04:15.000Z</time>
      </trkpt>
      <trkpt lat="41.439598" lon="1.998936">
        <ele>49.398504</ele>
        <time>2023-01-22T08:04:16.000Z</time>
      </trkpt>
      <trkpt lat="41.439545" lon="1.998953">
        <ele>49.403892</ele>
        <time>2023-01-22T08:04:17.000Z</time>
      </trkpt>
      <trkpt lat="41.439250" lon="1.999018">
        <ele>49.433444</ele>
        <time>2023-01-22T08:04:21.000Z</time>
      </trkpt>
      <trkpt lat="41.438828" lon="1.999112">
        <ele>49.475732</ele>
        <time>2023-01-22T08:04:26.000Z</time>
      </trkpt>
      <trkpt lat="41.438738" lon="1.999135">
        <ele>49.484789</ele>
        <time>2023-01-22T08:04:27.000Z</time>
      </trkpt>
      <trkpt lat="41.438356" lon="1.999249">
        <ele>47.944928</ele>
        <time>2023-01-22T08:04:31.000Z</time>
      </trkpt>
      <trkpt lat="41.438256" lon="1.999284">
        <ele>47.465397</ele>
        <time>2023-01-22T08:04:32.000Z</time>
      </trkpt>
      <trkpt lat="41.438176" lon="1.999314">
        <ele>47.079948</ele>
        <time>2023-01-22T08:04:33.000Z</time>
      </trkpt>
      <trkpt lat="41.437959" lon="1.999411">
        <ele>46.018424</ele>
        <time>2023-01-22T08:04:35.000Z</time>
      </trkpt>
      <trkpt lat="41.437760" lon="1.999529">
        <ele>45.008312</ele>
        <time>2023-01-22T08:04:37.000Z</time>
      </trkpt>
      <trkpt lat="41.437561" lon="1.999667">
        <ele>43.968006</ele>
        <time>2023-01-22T08:04:39.000Z</time>
      </trkpt>
      <trkpt lat="41.437362" lon="1.999818">
        <ele>42.906091</ele>
        <time>2023-01-22T08:04:41.000Z</time>
      </trkpt>
      <trkpt lat="41.437263" lon="1.999896">
        <ele>42.372780</ele>
        <time>2023-01-22T08:04:42.000Z</time>
      </trkpt>
      <trkpt lat="41.437164" lon="1.999974">
        <ele>41.839468</ele>
        <time>2023-01-22T08:04:43.000Z</time>
      </trkpt>
      <trkpt lat="41.437071" lon="2.000051">
        <ele>41.331765</ele>
        <time>2023-01-22T08:04:44.000Z</time>
      </trkpt>
      <trkpt lat="41.436890" lon="2.000198">
        <ele>40.504943</ele>
        <time>2023-01-22T08:04:46.000Z</time>
      </trkpt>
      <trkpt lat="41.436623" lon="2.000416">
        <ele>39.336570</ele>
        <time>2023-01-22T08:04:49.000Z</time>
      </trkpt>
      <trkpt lat="41.436353" lon="2.000633">
        <ele>38.160078</ele>
        <time>2023-01-22T08:04:52.000Z</time>
      </trkpt>
      <trkpt lat="41.436262" lon="2.000706">
        <ele>37.763754</ele>
        <time>2023-01-22T08:04:53.000Z</time>
      </trkpt>
      <trkpt lat="41.435978" lon="2.000930">
        <ele>36.532355</ele>
        <time>2023-01-22T08:04:56.000Z</time>
      </trkpt>
      <trkpt lat="41.435693" lon="2.001165">
        <ele>35.281834</ele>
        <time>2023-01-22T08:04:59.000Z</time>
      </trkpt>
      <trkpt lat="41.435307" lon="2.001477">
        <ele>34.134799</ele>
        <time>2023-01-22T08:05:03.000Z</time>
      </trkpt>
      <trkpt lat="41.434920" lon="2.001787">
        <ele>33.531146</ele>
        <time>2023-01-22T08:05:07.000Z</time>
      </trkpt>
      <trkpt lat="41.434459" lon="2.002152">
        <ele>32.814261</ele>
        <time>2023-01-22T08:05:12.000Z</time>
      </trkpt>
      <trkpt lat="41.434048" lon="2.002442">
        <ele>32.192501</ele>
        <time>2023-01-22T08:05:17.000Z</time>
      </trkpt>
      <trkpt lat="41.433801" lon="2.002600">
        <ele>32.069216</ele>
        <time>2023-01-22T08:05:20.000Z</time>
      </trkpt>
      <trkpt lat="41.433366" lon="2.002863">
        <ele>32.193202</ele>
        <time>2023-01-22T08:05:26.000Z</time>
      </trkpt>
      <trkpt lat="41.432969" lon="2.003077">
        <ele>32.304363</ele>
        <time>2023-01-22T08:05:32.000Z</time>
      </trkpt>
      <trkpt lat="41.432417" lon="2.003342">
        <ele>32.456663</ele>
        <time>2023-01-22T08:05:40.000Z</time>
      </trkpt>
      <trkpt lat="41.432209" lon="2.003437">
        <ele>32.473505</ele>
        <time>2023-01-22T08:05:43.000Z</time>
      </trkpt>
      <trkpt lat="41.431619" lon="2.003655">
        <ele>32.258504</ele>
        <time>2023-01-22T08:05:51.000Z</time>
      </trkpt>
      <trkpt lat="41.431465" lon="2.003700">
        <ele>32.203139</ele>
        <time>2023-01-22T08:05:53.000Z</time>
      </trkpt>
      <trkpt lat="41.430867" lon="2.003831">
        <ele>31.990318</ele>
        <time>2023-01-22T08:06:01.000Z</time>
      </trkpt>
      <trkpt lat="41.430265" lon="2.003949">
        <ele>31.741560</ele>
        <time>2023-01-22T08:06:09.000Z</time>
      </trkpt>
      <trkpt lat="41.430188" lon="2.003965">
        <ele>31.703328</ele>
        <time>2023-01-22T08:06:10.000Z</time>
      </trkpt>
      <trkpt lat="41.429951" lon="2.004005">
        <ele>31.586128</ele>
        <time>2023-01-22T08:06:13.000Z</time>
      </trkpt>
      <trkpt lat="41.429612" lon="2.004068">
        <ele>31.418207</ele>
        <time>2023-01-22T08:06:17.000Z</time>
      </trkpt>
      <trkpt lat="41.429282" lon="2.004138">
        <ele>31.254274</ele>
        <time>2023-01-22T08:06:21.000Z</time>
      </trkpt>
      <trkpt lat="41.428978" lon="2.004199">
        <ele>31.103453</ele>
        <time>2023-01-22T08:06:25.000Z</time>
      </trkpt>
      <trkpt lat="41.428392" lon="2.004319">
        <ele>30.808555</ele>
        <time>2023-01-22T08:06:33.000Z</time>
      </trkpt>
      <trkpt lat="41.428316" lon="2.004336">
        <ele>30.769850</ele>
        <time>2023-01-22T08:06:34.000Z</time>
      </trkpt>
      <trkpt lat="41.427858" lon="2.004458">
        <ele>30.535276</ele>
        <time>2023-01-22T08:06:40.000Z</time>
      </trkpt>
      <trkpt lat="41.427709" lon="2.004518">
        <ele>30.457104</ele>
        <time>2023-01-22T08:06:42.000Z</time>
      </trkpt>
      <trkpt lat="41.427157" lon="2.004863">
        <ele>30.150929</ele>
        <time>2023-01-22T08:06:50.000Z</time>
      </trkpt>
      <trkpt lat="41.426676" lon="2.005208">
        <ele>30.202542</ele>
        <time>2023-01-22T08:06:57.000Z</time>
      </trkpt>
      <trkpt lat="41.426458" lon="2.005312">
        <ele>30.273348</ele>
        <time>2023-01-22T08:07:00.000Z</time>
      </trkpt>
      <trkpt lat="41.425868" lon="2.005525">
        <ele>30.460277</ele>
        <time>2023-01-22T08:07:08.000Z</time>
      </trkpt>
      <trkpt lat="41.425792" lon="2.005552">
        <ele>30.484330</ele>
        <time>2023-01-22T08:07:09.000Z</time>
      </trkpt>
      <trkpt lat="41.425221" lon="2.005782">
        <ele>30.939779</ele>
        <time>2023-01-22T08:07:17.000Z</time>
      </trkpt>
      <trkpt lat="41.425017" lon="2.005872">
        <ele>31.484140</ele>
        <time>2023-01-22T08:07:20.000Z</time>
      </trkpt>
      <trkpt lat="41.424749" lon="2.005997">
        <ele>32.203421</ele>
        <time>2023-01-22T08:07:24.000Z</time>
      </trkpt>
      <trkpt lat="41.424366" lon="2.006192">
        <ele>33.242025</ele>
        <time>2023-01-22T08:07:30.000Z</time>
      </trkpt>
      <trkpt lat="41.424057" lon="2.006345">
        <ele>34.077065</ele>
        <time>2023-01-22T08:07:35.000Z</time>
      </trkpt>
      <trkpt lat="41.423873" lon="2.006422">
        <ele>34.565624</ele>
        <time>2023-01-22T08:07:38.000Z</time>
      </trkpt>
      <trkpt lat="41.423813" lon="2.006444">
        <ele>34.723270</ele>
        <time>2023-01-22T08:07:39.000Z</time>
      </trkpt>
      <trkpt lat="41.423428" lon="2.006530">
        <ele>35.383532</ele>
        <time>2023-01-22T08:07:45.000Z</time>
      </trkpt>
      <trkpt lat="41.423354" lon="2.006538">
        <ele>35.454141</ele>
        <time>2023-01-22T08:07:46.000Z</time>
      </trkpt>
      <trkpt lat="41.422785" lon="2.006618">
        <ele>35.998292</ele>
        <time>2023-01-22T08:07:54.000Z</time>
      </trkpt>
      <trkpt lat="41.422636" lon="2.006657">
        <ele>36.142703</ele>
        <time>2023-01-22T08:07:56.000Z</time>
      </trkpt>
      <trkpt lat="41.422163" lon="2.006823">
        <ele>36.607870</ele>
        <time>2023-01-22T08:08:02.000Z</time>
      </trkpt>
      <trkpt lat="41.421591" lon="2.007077">
        <ele>36.615223</ele>
        <time>2023-01-22T08:08:10.000Z</time>
      </trkpt>
      <trkpt lat="41.421085" lon="2.007360">
        <ele>36.099400</ele>
        <time>2023-01-22T08:08:17.000Z</time>
      </trkpt>
      <trkpt lat="41.421013" lon="2.007404">
        <ele>36.024945</ele>
        <time>2023-01-22T08:08:18.000Z</time>
      </trkpt>
      <trkpt lat="41.420519" lon="2.007690">
        <ele>35.518667</ele>
        <time>2023-01-22T08:08:25.000Z</time>
      </trkpt>
      <trkpt lat="41.420449" lon="2.007726">
        <ele>35.448137</ele>
        <time>2023-01-22T08:08:26.000Z</time>
      </trkpt>
      <trkpt lat="41.419918" lon="2.007960">
        <ele>34.614826</ele>
        <time>2023-01-22T08:08:33.000Z</time>
      </trkpt>
      <trkpt lat="41.419676" lon="2.008052">
        <ele>34.121433</ele>
        <time>2023-01-22T08:08:36.000Z</time>
      </trkpt>
      <trkpt lat="41.419512" lon="2.008116">
        <ele>33.786393</ele>
        <time>2023-01-22T08:08:38.000Z</time>
      </trkpt>
      <trkpt lat="41.419109" lon="2.008318">
        <ele>32.942258</ele>
        <time>2023-01-22T08:08:43.000Z</time>
      </trkpt>
      <trkpt lat="41.418581" lon="2.008679">
        <ele>31.778871</ele>
        <time>2023-01-22T08:08:50.000Z</time>
      </trkpt>
      <trkpt lat="41.418362" lon="2.008830">
        <ele>31.529546</ele>
        <time>2023-01-22T08:08:53.000Z</time>
      </trkpt>
      <trkpt lat="41.417852" lon="2.009149">
        <ele>31.098933</ele>
        <time>2023-01-22T08:09:00.000Z</time>
      </trkpt>
      <trkpt lat="41.417775" lon="2.009190">
        <ele>31.035554</ele>
        <time>2023-01-22T08:09:01.000Z</time>
      </trkpt>
      <trkpt lat="41.417256" lon="2.009484">
        <ele>30.604504</ele>
        <time>2023-01-22T08:09:08.000Z</time>
      </trkpt>
      <trkpt lat="41.417184" lon="2.009525">
        <ele>30.544657</ele>
        <time>2023-01-22T08:09:09.000Z</time>
      </trkpt>
      <trkpt lat="41.417112" lon="2.009565">
        <ele>30.485033</ele>
        <time>2023-01-22T08:09:10.000Z</time>
      </trkpt>
      <trkpt lat="41.416601" lon="2.009867">
        <ele>30.193901</ele>
        <time>2023-01-22T08:09:17.000Z</time>
      </trkpt>
      <trkpt lat="41.416531" lon="2.009912">
        <ele>30.167315</ele>
        <time>2023-01-22T08:09:18.000Z</time>
      </trkpt>
      <trkpt lat="41.416017" lon="2.010222">
        <ele>29.974312</ele>
        <time>2023-01-22T08:09:25.000Z</time>
      </trkpt>
      <trkpt lat="41.415865" lon="2.010303">
        <ele>29.918310</ele>
        <time>2023-01-22T08:09:27.000Z</time>
      </trkpt>
      <trkpt lat="41.415378" lon="2.010533">
        <ele>29.741554</ele>
        <time>2023-01-22T08:09:34.000Z</time>
      </trkpt>
      <trkpt lat="41.415319" lon="2.010557">
        <ele>29.720450</ele>
        <time>2023-01-22T08:09:35.000Z</time>
      </trkpt>
      <trkpt lat="41.415031" lon="2.010654">
        <ele>29.408248</ele>
        <time>2023-01-22T08:09:40.000Z</time>
      </trkpt>
      <trkpt lat="41.414913" lon="2.010685">
        <ele>29.243333</ele>
        <time>2023-01-22T08:09:42.000Z</time>
      </trkpt>
      <trkpt lat="41.414529" lon="2.010748">
        <ele>28.712812</ele>
        <time>2023-01-22T08:09:49.000Z</time>
      </trkpt>
      <trkpt lat="41.414319" lon="2.010782">
        <ele>28.422739</ele>
        <time>2023-01-22T08:09:53.000Z</time>
      </trkpt>
      <trkpt lat="41.414221" lon="2.010825">
        <ele>28.281271</ele>
        <time>2023-01-22T08:09:55.000Z</time>
      </trkpt>
      <trkpt lat="41.414163" lon="2.010930">
        <ele>28.147166</ele>
        <time>2023-01-22T08:09:57.000Z</time>
      </trkpt>
      <trkpt lat="41.414157" lon="2.010997">
        <ele>28.077777</ele>
        <time>2023-01-22T08:09:58.000Z</time>
      </trkpt>
      <trkpt lat="41.414162" lon="2.011071">
        <ele>28.001371</ele>
        <time>2023-01-22T08:09:59.000Z</time>
      </trkpt>
      <trkpt lat="41.414195" lon="2.011339">
        <ele>27.722084</ele>
        <time>2023-01-22T08:10:02.000Z</time>
      </trkpt>
      <trkpt lat="41.414213" lon="2.011517">
        <ele>27.537382</ele>
        <time>2023-01-22T08:10:04.000Z</time>
      </trkpt>
      <trkpt lat="41.414240" lon="2.011676">
        <ele>27.369736</ele>
        <time>2023-01-22T08:10:06.000Z</time>
      </trkpt>
      <trkpt lat="41.414247" lon="2.011749">
        <ele>27.294055</ele>
        <time>2023-01-22T08:10:07.000Z</time>
      </trkpt>
      <trkpt lat="41.414272" lon="2.011908">
        <ele>27.179571</ele>
        <time>2023-01-22T08:10:09.000Z</time>
      </trkpt>
      <trkpt lat="41.414283" lon="2.011966">
        <ele>27.151924</ele>
        <time>2023-01-22T08:10:10.000Z</time>
      </trkpt>
      <trkpt lat="41.414255" lon="2.012050">
        <ele>27.109444</ele>
        <time>2023-01-22T08:10:15.000Z</time>
      </trkpt>
      <trkpt lat="41.414269" lon="2.012165">
        <ele>27.055603</ele>
        <time>2023-01-22T08:10:20.000Z</time>
      </trkpt>
      <trkpt lat="41.414314" lon="2.012373">
        <ele>26.955561</ele>
        <time>2023-01-22T08:10:25.000Z</time>
      </trkpt>
      <trkpt lat="41.414358" lon="2.012572">
        <ele>26.859684</ele>
        <time>2023-01-22T08:10:30.000Z</time>
      </trkpt>
      <trkpt lat="41.414357" lon="2.012600">
        <ele>26.846730</ele>
        <time>2023-01-22T08:10:31.000Z</time>
      </trkpt>
      <trkpt lat="41.414364" lon="2.012729">
        <ele>26.786960</ele>
        <time>2023-01-22T08:10:35.000Z</time>
      </trkpt>
      <trkpt lat="41.414368" lon="2.012917">
        <ele>26.700045</ele>
        <time>2023-01-22T08:10:42.000Z</time>
      </trkpt>
      <trkpt lat="41.414389" lon="2.013142">
        <ele>26.595265</ele>
        <time>2023-01-22T08:10:48.000Z</time>
      </trkpt>
      <trkpt lat="41.414379" lon="2.013195">
        <ele>26.570009</ele>
        <time>2023-01-22T08:10:50.000Z</time>
      </trkpt>
      <trkpt lat="41.414340" lon="2.013242">
        <ele>26.537616</ele>
        <time>2023-01-22T08:10:52.000Z</time>
      </trkpt>
      <trkpt lat="41.414203" lon="2.013317">
        <ele>26.446357</ele>
        <time>2023-01-22T08:10:56.000Z</time>
      </trkpt>
      <trkpt lat="41.414006" lon="2.013436">
        <ele>26.313087</ele>
        <time>2023-01-22T08:11:00.000Z</time>
      </trkpt>
      <trkpt lat="41.413952" lon="2.013473">
        <ele>26.275675</ele>
        <time>2023-01-22T08:11:01.000Z</time>
      </trkpt>
      <trkpt lat="41.413681" lon="2.013670">
        <ele>26.087807</ele>
        <time>2023-01-22T08:11:06.000Z</time>
      </trkpt>
      <trkpt lat="41.413629" lon="2.013709">
        <ele>26.054032</ele>
        <time>2023-01-22T08:11:07.000Z</time>
      </trkpt>
      <trkpt lat="41.413225" lon="2.014050">
        <ele>25.783347</ele>
        <time>2023-01-22T08:11:15.000Z</time>
      </trkpt>
      <trkpt lat="41.412804" lon="2.014430">
        <ele>25.495538</ele>
        <time>2023-01-22T08:11:24.000Z</time>
      </trkpt>
      <trkpt lat="41.412411" lon="2.014787">
        <ele>25.226328</ele>
        <time>2023-01-22T08:11:32.000Z</time>
      </trkpt>
      <trkpt lat="41.412363" lon="2.014823">
        <ele>25.195150</ele>
        <time>2023-01-22T08:11:33.000Z</time>
      </trkpt>
      <trkpt lat="41.412326" lon="2.014857">
        <ele>25.169711</ele>
        <time>2023-01-22T08:11:34.000Z</time>
      </trkpt>
      <trkpt lat="41.412246" lon="2.014933">
        <ele>25.114102</ele>
        <time>2023-01-22T08:11:36.000Z</time>
      </trkpt>
      <trkpt lat="41.412206" lon="2.014994">
        <ele>25.095004</ele>
        <time>2023-01-22T08:11:37.000Z</time>
      </trkpt>
      <trkpt lat="41.412138" lon="2.015071">
        <ele>25.092259</ele>
        <time>2023-01-22T08:11:39.000Z</time>
      </trkpt>
      <trkpt lat="41.411998" lon="2.015164">
        <ele>25.087446</ele>
        <time>2023-01-22T08:11:43.000Z</time>
      </trkpt>
      <trkpt lat="41.411932" lon="2.015227">
        <ele>25.084948</ele>
        <time>2023-01-22T08:11:45.000Z</time>
      </trkpt>
      <trkpt lat="41.411880" lon="2.015266">
        <ele>25.083113</ele>
        <time>2023-01-22T08:11:46.000Z</time>
      </trkpt>
      <trkpt lat="41.411554" lon="2.015551">
        <ele>25.071117</ele>
        <time>2023-01-22T08:11:54.000Z</time>
      </trkpt>
      <trkpt lat="41.411229" lon="2.015847">
        <ele>25.059007</ele>
        <time>2023-01-22T08:12:02.000Z</time>
      </trkpt>
      <trkpt lat="41.411186" lon="2.015881">
        <ele>25.057468</ele>
        <time>2023-01-22T08:12:03.000Z</time>
      </trkpt>
      <trkpt lat="41.411094" lon="2.015938">
        <ele>25.054347</ele>
        <time>2023-01-22T08:12:05.000Z</time>
      </trkpt>
      <trkpt lat="41.411050" lon="2.015970">
        <ele>25.052805</ele>
        <time>2023-01-22T08:12:06.000Z</time>
      </trkpt>
      <trkpt lat="41.411008" lon="2.016013">
        <ele>25.051175</ele>
        <time>2023-01-22T08:12:07.000Z</time>
      </trkpt>
      <trkpt lat="41.410894" lon="2.016145">
        <ele>25.046529</ele>
        <time>2023-01-22T08:12:10.000Z</time>
      </trkpt>
      <trkpt lat="41.410852" lon="2.016193">
        <ele>25.044827</ele>
        <time>2023-01-22T08:12:11.000Z</time>
      </trkpt>
      <trkpt lat="41.410801" lon="2.016251">
        <ele>25.042764</ele>
        <time>2023-01-22T08:12:12.000Z</time>
      </trkpt>
      <trkpt lat="41.410721" lon="2.016344">
        <ele>25.004826</ele>
        <time>2023-01-22T08:12:14.000Z</time>
      </trkpt>
      <trkpt lat="41.410652" lon="2.016444">
        <ele>24.897105</ele>
        <time>2023-01-22T08:12:16.000Z</time>
      </trkpt>
      <trkpt lat="41.410461" lon="2.016597">
        <ele>24.661583</ele>
        <time>2023-01-22T08:12:20.000Z</time>
      </trkpt>
      <trkpt lat="41.410423" lon="2.016633">
        <ele>24.612310</ele>
        <time>2023-01-22T08:12:21.000Z</time>
      </trkpt>
      <trkpt lat="41.410384" lon="2.016677">
        <ele>24.558309</ele>
        <time>2023-01-22T08:12:22.000Z</time>
      </trkpt>
      <trkpt lat="41.410304" lon="2.016765">
        <ele>24.448686</ele>
        <time>2023-01-22T08:12:24.000Z</time>
      </trkpt>
      <trkpt lat="41.410264" lon="2.016796">
        <ele>24.399782</ele>
        <time>2023-01-22T08:12:25.000Z</time>
      </trkpt>
      <trkpt lat="41.410107" lon="2.016928">
        <ele>24.203593</ele>
        <time>2023-01-22T08:12:29.000Z</time>
      </trkpt>
      <trkpt lat="41.410056" lon="2.016952">
        <ele>24.146426</ele>
        <time>2023-01-22T08:12:34.000Z</time>
      </trkpt>
      <trkpt lat="41.410056" lon="2.016952">
        <ele>24.146426</ele>
        <time>2023-01-22T08:12:42.000Z</time>
      </trkpt>
      <trkpt lat="41.410056" lon="2.016952">
        <ele>24.146426</ele>
        <time>2023-01-22T08:12:57.000Z</time>
      </trkpt>
      <trkpt lat="41.410056" lon="2.016952">
        <ele>24.146426</ele>
        <time>2023-01-22T08:13:13.000Z</time>
      </trkpt>
      <trkpt lat="41.410000" lon="2.017020">
        <ele>24.066365</ele>
        <time>2023-01-22T08:13:27.000Z</time>
      </trkpt>
      <trkpt lat="41.409843" lon="2.017105">
        <ele>23.887255</ele>
        <time>2023-01-22T08:13:32.000Z</time>
      </trkpt>
      <trkpt lat="41.409700" lon="2.017210">
        <ele>23.714698</ele>
        <time>2023-01-22T08:13:37.000Z</time>
      </trkpt>
      <trkpt lat="41.409659" lon="2.017234">
        <ele>23.667368</ele>
        <time>2023-01-22T08:13:38.000Z</time>
      </trkpt>
      <trkpt lat="41.409610" lon="2.017251">
        <ele>23.613849</ele>
        <time>2023-01-22T08:13:39.000Z</time>
      </trkpt>
      <trkpt lat="41.409509" lon="2.017314">
        <ele>23.495986</ele>
        <time>2023-01-22T08:13:41.000Z</time>
      </trkpt>
      <trkpt lat="41.409426" lon="2.017395">
        <ele>23.387265</ele>
        <time>2023-01-22T08:13:43.000Z</time>
      </trkpt>
      <trkpt lat="41.409391" lon="2.017434">
        <ele>23.339051</ele>
        <time>2023-01-22T08:13:44.000Z</time>
      </trkpt>
      <trkpt lat="41.409344" lon="2.017481">
        <ele>23.276951</ele>
        <time>2023-01-22T08:13:45.000Z</time>
      </trkpt>
      <trkpt lat="41.409140" lon="2.017684">
        <ele>23.027001</ele>
        <time>2023-01-22T08:13:50.000Z</time>
      </trkpt>
      <trkpt lat="41.409095" lon="2.017721">
        <ele>22.979243</ele>
        <time>2023-01-22T08:13:51.000Z</time>
      </trkpt>
      <trkpt lat="41.409010" lon="2.017794">
        <ele>22.887909</ele>
        <time>2023-01-22T08:13:53.000Z</time>
      </trkpt>
      <trkpt lat="41.408914" lon="2.017871">
        <ele>22.786707</ele>
        <time>2023-01-22T08:13:55.000Z</time>
      </trkpt>
      <trkpt lat="41.408871" lon="2.017902">
        <ele>22.742549</ele>
        <time>2023-01-22T08:13:56.000Z</time>
      </trkpt>
      <trkpt lat="41.408721" lon="2.018009">
        <ele>22.588876</ele>
        <time>2023-01-22T08:13:59.000Z</time>
      </trkpt>
      <trkpt lat="41.408663" lon="2.018045">
        <ele>22.531084</ele>
        <time>2023-01-22T08:14:00.000Z</time>
      </trkpt>
      <trkpt lat="41.408279" lon="2.018357">
        <ele>22.124871</ele>
        <time>2023-01-22T08:14:07.000Z</time>
      </trkpt>
      <trkpt lat="41.408182" lon="2.018426">
        <ele>22.025557</ele>
        <time>2023-01-22T08:14:09.000Z</time>
      </trkpt>
      <trkpt lat="41.408131" lon="2.018442">
        <ele>21.978229</ele>
        <time>2023-01-22T08:14:10.000Z</time>
      </trkpt>
      <trkpt lat="41.408012" lon="2.018509">
        <ele>21.861541</ele>
        <time>2023-01-22T08:14:12.000Z</time>
      </trkpt>
      <trkpt lat="41.407888" lon="2.018584">
        <ele>21.738540</ele>
        <time>2023-01-22T08:14:14.000Z</time>
      </trkpt>
      <trkpt lat="41.407472" lon="2.018763">
        <ele>21.477401</ele>
        <time>2023-01-22T08:14:21.000Z</time>
      </trkpt>
      <trkpt lat="41.407242" lon="2.018857">
        <ele>21.430135</ele>
        <time>2023-01-22T08:14:25.000Z</time>
      </trkpt>
      <trkpt lat="41.407013" lon="2.018967">
        <ele>21.382310</ele>
        <time>2023-01-22T08:14:29.000Z</time>
      </trkpt>
      <trkpt lat="41.406904" lon="2.019038">
        <ele>21.358475</ele>
        <time>2023-01-22T08:14:31.000Z</time>
      </trkpt>
      <trkpt lat="41.406527" lon="2.019263">
        <ele>21.277319</ele>
        <time>2023-01-22T08:14:38.000Z</time>
      </trkpt>
      <trkpt lat="41.406484" lon="2.019280">
        <ele>21.268507</ele>
        <time>2023-01-22T08:14:39.000Z</time>
      </trkpt>
      <trkpt lat="41.405948" lon="2.019484">
        <ele>21.156554</ele>
        <time>2023-01-22T08:14:49.000Z</time>
      </trkpt>
      <trkpt lat="41.405562" lon="2.019579">
        <ele>20.993723</ele>
        <time>2023-01-22T08:14:56.000Z</time>
      </trkpt>
      <trkpt lat="41.405193" lon="2.019698">
        <ele>20.836235</ele>
        <time>2023-01-22T08:15:03.000Z</time>
      </trkpt>
      <trkpt lat="41.404893" lon="2.019805">
        <ele>20.707409</ele>
        <time>2023-01-22T08:15:09.000Z</time>
      </trkpt>
      <trkpt lat="41.404657" lon="2.019865">
        <ele>20.607744</ele>
        <time>2023-01-22T08:15:13.000Z</time>
      </trkpt>
      <trkpt lat="41.404485" lon="2.019923">
        <ele>20.534146</ele>
        <time>2023-01-22T08:15:16.000Z</time>
      </trkpt>
      <trkpt lat="41.404379" lon="2.019990">
        <ele>20.485483</ele>
        <time>2023-01-22T08:15:18.000Z</time>
      </trkpt>
      <trkpt lat="41.404286" lon="2.020084">
        <ele>20.437070</ele>
        <time>2023-01-22T08:15:20.000Z</time>
      </trkpt>
      <trkpt lat="41.403978" lon="2.020427">
        <ele>20.345328</ele>
        <time>2023-01-22T08:15:27.000Z</time>
      </trkpt>
      <trkpt lat="41.403801" lon="2.020635">
        <ele>20.298091</ele>
        <time>2023-01-22T08:15:32.000Z</time>
      </trkpt>
      <trkpt lat="41.403772" lon="2.020661">
        <ele>20.291095</ele>
        <time>2023-01-22T08:15:33.000Z</time>
      </trkpt>
      <trkpt lat="41.403600" lon="2.020830">
        <ele>20.248318</ele>
        <time>2023-01-22T08:15:39.000Z</time>
      </trkpt>
      <trkpt lat="41.403421" lon="2.021014">
        <ele>20.203067</ele>
        <time>2023-01-22T08:15:44.000Z</time>
      </trkpt>
      <trkpt lat="41.403146" lon="2.021340">
        <ele>20.129394</ele>
        <time>2023-01-22T08:15:51.000Z</time>
      </trkpt>
      <trkpt lat="41.402843" lon="2.021698">
        <ele>20.061308</ele>
        <time>2023-01-22T08:15:58.000Z</time>
      </trkpt>
      <trkpt lat="41.402414" lon="2.022140">
        <ele>20.165797</ele>
        <time>2023-01-22T08:16:07.000Z</time>
      </trkpt>
      <trkpt lat="41.401984" lon="2.022611">
        <ele>20.273050</ele>
        <time>2023-01-22T08:16:16.000Z</time>
      </trkpt>
      <trkpt lat="41.401537" lon="2.023084">
        <ele>20.383035</ele>
        <time>2023-01-22T08:16:25.000Z</time>
      </trkpt>
      <trkpt lat="41.401433" lon="2.023202">
        <ele>20.401542</ele>
        <time>2023-01-22T08:16:27.000Z</time>
      </trkpt>
      <trkpt lat="41.401006" lon="2.023679">
        <ele>20.400965</ele>
        <time>2023-01-22T08:16:35.000Z</time>
      </trkpt>
      <trkpt lat="41.400952" lon="2.023739">
        <ele>20.400893</ele>
        <time>2023-01-22T08:16:36.000Z</time>
      </trkpt>
      <trkpt lat="41.400516" lon="2.024230">
        <ele>20.400302</ele>
        <time>2023-01-22T08:16:44.000Z</time>
      </trkpt>
      <trkpt lat="41.400132" lon="2.024660">
        <ele>20.399783</ele>
        <time>2023-01-22T08:16:51.000Z</time>
      </trkpt>
      <trkpt lat="41.400077" lon="2.024717">
        <ele>20.399222</ele>
        <time>2023-01-22T08:16:52.000Z</time>
      </trkpt>
      <trkpt lat="41.399631" lon="2.025195">
        <ele>20.373104</ele>
        <time>2023-01-22T08:17:00.000Z</time>
      </trkpt>
      <trkpt lat="41.399465" lon="2.025369">
        <ele>20.363467</ele>
        <time>2023-01-22T08:17:03.000Z</time>
      </trkpt>
      <trkpt lat="41.399037" lon="2.025848">
        <ele>20.337962</ele>
        <time>2023-01-22T08:17:11.000Z</time>
      </trkpt>
      <trkpt lat="41.398662" lon="2.026259">
        <ele>20.317461</ele>
        <time>2023-01-22T08:17:18.000Z</time>
      </trkpt>
      <trkpt lat="41.398225" lon="2.026741">
        <ele>20.315034</ele>
        <time>2023-01-22T08:17:26.000Z</time>
      </trkpt>
      <trkpt lat="41.398112" lon="2.026858">
        <ele>20.314421</ele>
        <time>2023-01-22T08:17:28.000Z</time>
      </trkpt>
      <trkpt lat="41.397660" lon="2.027336">
        <ele>20.311952</ele>
        <time>2023-01-22T08:17:36.000Z</time>
      </trkpt>
      <trkpt lat="41.397205" lon="2.027842">
        <ele>20.309564</ele>
        <time>2023-01-22T08:17:44.000Z</time>
      </trkpt>
      <trkpt lat="41.397149" lon="2.027906">
        <ele>20.309338</ele>
        <time>2023-01-22T08:17:45.000Z</time>
      </trkpt>
      <trkpt lat="41.396718" lon="2.028388">
        <ele>20.307617</ele>
        <time>2023-01-22T08:17:53.000Z</time>
      </trkpt>
      <trkpt lat="41.396333" lon="2.028784">
        <ele>20.306129</ele>
        <time>2023-01-22T08:18:00.000Z</time>
      </trkpt>
      <trkpt lat="41.395890" lon="2.029253">
        <ele>20.302609</ele>
        <time>2023-01-22T08:18:08.000Z</time>
      </trkpt>
      <trkpt lat="41.395835" lon="2.029314">
        <ele>20.290551</ele>
        <time>2023-01-22T08:18:09.000Z</time>
      </trkpt>
      <trkpt lat="41.395424" lon="2.029684">
        <ele>20.206969</ele>
        <time>2023-01-22T08:18:16.000Z</time>
      </trkpt>
      <trkpt lat="41.395297" lon="2.029703">
        <ele>20.185431</ele>
        <time>2023-01-22T08:18:18.000Z</time>
      </trkpt>
      <trkpt lat="41.395240" lon="2.029677">
        <ele>20.175278</ele>
        <time>2023-01-22T08:18:19.000Z</time>
      </trkpt>
      <trkpt lat="41.395190" lon="2.029630">
        <ele>20.164967</ele>
        <time>2023-01-22T08:18:20.000Z</time>
      </trkpt>
      <trkpt lat="41.395127" lon="2.029482">
        <ele>20.143453</ele>
        <time>2023-01-22T08:18:22.000Z</time>
      </trkpt>
      <trkpt lat="41.395050" lon="2.028934">
        <ele>20.072966</ele>
        <time>2023-01-22T08:18:28.000Z</time>
      </trkpt>
      <trkpt lat="41.394902" lon="2.028270">
        <ele>20.179827</ele>
        <time>2023-01-22T08:18:35.000Z</time>
      </trkpt>
      <trkpt lat="41.394651" lon="2.027580">
        <ele>21.267594</ele>
        <time>2023-01-22T08:18:43.000Z</time>
      </trkpt>
      <trkpt lat="41.394349" lon="2.026985">
        <ele>22.286639</ele>
        <time>2023-01-22T08:18:51.000Z</time>
      </trkpt>
      <trkpt lat="41.394270" lon="2.026848">
        <ele>22.531753</ele>
        <time>2023-01-22T08:18:53.000Z</time>
      </trkpt>
      <trkpt lat="41.394002" lon="2.026396">
        <ele>23.349006</ele>
        <time>2023-01-22T08:19:00.000Z</time>
      </trkpt>
      <trkpt lat="41.393876" lon="2.026133">
        <ele>24.123943</ele>
        <time>2023-01-22T08:19:04.000Z</time>
      </trkpt>
      <trkpt lat="41.393847" lon="2.025990">
        <ele>24.513419</ele>
        <time>2023-01-22T08:19:06.000Z</time>
      </trkpt>
      <trkpt lat="41.393832" lon="2.025697">
        <ele>25.285578</ele>
        <time>2023-01-22T08:19:10.000Z</time>
      </trkpt>
      <trkpt lat="41.393773" lon="2.025566">
        <ele>25.687313</ele>
        <time>2023-01-22T08:19:12.000Z</time>
      </trkpt>
      <trkpt lat="41.393727" lon="2.025516">
        <ele>25.895338</ele>
        <time>2023-01-22T08:19:13.000Z</time>
      </trkpt>
      <trkpt lat="41.393675" lon="2.025480">
        <ele>26.100701</ele>
        <time>2023-01-22T08:19:14.000Z</time>
      </trkpt>
      <trkpt lat="41.393493" lon="2.025421">
        <ele>26.757167</ele>
        <time>2023-01-22T08:19:17.000Z</time>
      </trkpt>
      <trkpt lat="41.393384" lon="2.025349">
        <ele>27.183521</ele>
        <time>2023-01-22T08:19:19.000Z</time>
      </trkpt>
      <trkpt lat="41.393344" lon="2.025294">
        <ele>27.384930</ele>
        <time>2023-01-22T08:19:20.000Z</time>
      </trkpt>
      <trkpt lat="41.393308" lon="2.025234">
        <ele>27.586936</ele>
        <time>2023-01-22T08:19:21.000Z</time>
      </trkpt>
      <trkpt lat="41.393199" lon="2.025052">
        <ele>28.199250</ele>
        <time>2023-01-22T08:19:24.000Z</time>
      </trkpt>
      <trkpt lat="41.393132" lon="2.024937">
        <ele>28.582090</ele>
        <time>2023-01-22T08:19:26.000Z</time>
      </trkpt>
      <trkpt lat="41.393098" lon="2.024880">
        <ele>28.773558</ele>
        <time>2023-01-22T08:19:27.000Z</time>
      </trkpt>
      <trkpt lat="41.392928" lon="2.024593">
        <ele>29.716350</ele>
        <time>2023-01-22T08:19:32.000Z</time>
      </trkpt>
      <trkpt lat="41.392747" lon="2.024296">
        <ele>30.069802</ele>
        <time>2023-01-22T08:19:37.000Z</time>
      </trkpt>
      <trkpt lat="41.392567" lon="2.023988">
        <ele>30.430439</ele>
        <time>2023-01-22T08:19:42.000Z</time>
      </trkpt>
      <trkpt lat="41.392427" lon="2.023725">
        <ele>30.728317</ele>
        <time>2023-01-22T08:19:46.000Z</time>
      </trkpt>
      <trkpt lat="41.392402" lon="2.023656">
        <ele>30.799096</ele>
        <time>2023-01-22T08:19:47.000Z</time>
      </trkpt>
      <trkpt lat="41.392346" lon="2.023437">
        <ele>31.012815</ele>
        <time>2023-01-22T08:19:50.000Z</time>
      </trkpt>
      <trkpt lat="41.392336" lon="2.023354">
        <ele>31.090465</ele>
        <time>2023-01-22T08:19:51.000Z</time>
      </trkpt>
      <trkpt lat="41.392310" lon="2.023185">
        <ele>31.249819</ele>
        <time>2023-01-22T08:19:53.000Z</time>
      </trkpt>
      <trkpt lat="41.392245" lon="2.023039">
        <ele>31.406640</ele>
        <time>2023-01-22T08:19:55.000Z</time>
      </trkpt>
      <trkpt lat="41.392140" lon="2.022944">
        <ele>31.562892</ele>
        <time>2023-01-22T08:19:57.000Z</time>
      </trkpt>
      <trkpt lat="41.392078" lon="2.022914">
        <ele>31.644105</ele>
        <time>2023-01-22T08:19:58.000Z</time>
      </trkpt>
      <trkpt lat="41.391903" lon="2.022838">
        <ele>31.870726</ele>
        <time>2023-01-22T08:20:01.000Z</time>
      </trkpt>
      <trkpt lat="41.391859" lon="2.022788">
        <ele>31.936334</ele>
        <time>2023-01-22T08:20:02.000Z</time>
      </trkpt>
      <trkpt lat="41.391588" lon="2.022343">
        <ele>32.325376</ele>
        <time>2023-01-22T08:20:09.000Z</time>
      </trkpt>
      <trkpt lat="41.391508" lon="2.022215">
        <ele>32.438458</ele>
        <time>2023-01-22T08:20:11.000Z</time>
      </trkpt>
      <trkpt lat="41.391245" lon="2.021774">
        <ele>32.820852</ele>
        <time>2023-01-22T08:20:18.000Z</time>
      </trkpt>
      <trkpt lat="41.391129" lon="2.021578">
        <ele>32.990306</ele>
        <time>2023-01-22T08:20:21.000Z</time>
      </trkpt>
      <trkpt lat="41.390848" lon="2.021110">
        <ele>33.397184</ele>
        <time>2023-01-22T08:20:28.000Z</time>
      </trkpt>
      <trkpt lat="41.390512" lon="2.020541">
        <ele>32.902837</ele>
        <time>2023-01-22T08:20:36.000Z</time>
      </trkpt>
      <trkpt lat="41.390420" lon="2.020392">
        <ele>32.654547</ele>
        <time>2023-01-22T08:20:38.000Z</time>
      </trkpt>
      <trkpt lat="41.390107" lon="2.019853">
        <ele>31.777561</ele>
        <time>2023-01-22T08:20:45.000Z</time>
      </trkpt>
      <trkpt lat="41.390031" lon="2.019720">
        <ele>31.562450</ele>
        <time>2023-01-22T08:20:47.000Z</time>
      </trkpt>
      <trkpt lat="41.390009" lon="2.019658">
        <ele>31.474204</ele>
        <time>2023-01-22T08:20:48.000Z</time>
      </trkpt>
      <trkpt lat="41.390014" lon="2.019529">
        <ele>31.308004</ele>
        <time>2023-01-22T08:20:50.000Z</time>
      </trkpt>
      <trkpt lat="41.390055" lon="2.019389">
        <ele>31.114635</ele>
        <time>2023-01-22T08:20:52.000Z</time>
      </trkpt>
      <trkpt lat="41.390074" lon="2.019312">
        <ele>31.010341</ele>
        <time>2023-01-22T08:20:53.000Z</time>
      </trkpt>
      <trkpt lat="41.390085" lon="2.019230">
        <ele>30.903162</ele>
        <time>2023-01-22T08:20:54.000Z</time>
      </trkpt>
      <trkpt lat="41.390086" lon="2.019139">
        <ele>30.786064</ele>
        <time>2023-01-22T08:20:55.000Z</time>
      </trkpt>
      <trkpt lat="41.390056" lon="2.018960">
        <ele>30.550076</ele>
        <time>2023-01-22T08:20:57.000Z</time>
      </trkpt>
      <trkpt lat="41.389981" lon="2.018798">
        <ele>30.169759</ele>
        <time>2023-01-22T08:20:59.000Z</time>
      </trkpt>
      <trkpt lat="41.389928" lon="2.018731">
        <ele>29.937387</ele>
        <time>2023-01-22T08:21:00.000Z</time>
      </trkpt>
      <trkpt lat="41.389867" lon="2.018678">
        <ele>29.705748</ele>
        <time>2023-01-22T08:21:01.000Z</time>
      </trkpt>
      <trkpt lat="41.389730" lon="2.018622">
        <ele>29.249889</ele>
        <time>2023-01-22T08:21:03.000Z</time>
      </trkpt>
      <trkpt lat="41.389458" lon="2.018632">
        <ele>28.384271</ele>
        <time>2023-01-22T08:21:07.000Z</time>
      </trkpt>
      <trkpt lat="41.389352" lon="2.018583">
        <ele>28.027360</ele>
        <time>2023-01-22T08:21:09.000Z</time>
      </trkpt>
      <trkpt lat="41.389308" lon="2.018518">
        <ele>27.818413</ele>
        <time>2023-01-22T08:21:10.000Z</time>
      </trkpt>
      <trkpt lat="41.389219" lon="2.018366">
        <ele>27.358234</ele>
        <time>2023-01-22T08:21:12.000Z</time>
      </trkpt>
      <trkpt lat="41.389075" lon="2.018119">
        <ele>26.611665</ele>
        <time>2023-01-22T08:21:15.000Z</time>
      </trkpt>
      <trkpt lat="41.388972" lon="2.017949">
        <ele>26.090144</ele>
        <time>2023-01-22T08:21:17.000Z</time>
      </trkpt>
      <trkpt lat="41.388862" lon="2.017770">
        <ele>25.537908</ele>
        <time>2023-01-22T08:21:19.000Z</time>
      </trkpt>
      <trkpt lat="41.388695" lon="2.017495">
        <ele>24.716978</ele>
        <time>2023-01-22T08:21:22.000Z</time>
      </trkpt>
      <trkpt lat="41.388640" lon="2.017402">
        <ele>24.572154</ele>
        <time>2023-01-22T08:21:23.000Z</time>
      </trkpt>
      <trkpt lat="41.388585" lon="2.017309">
        <ele>24.427330</ele>
        <time>2023-01-22T08:21:24.000Z</time>
      </trkpt>
      <trkpt lat="41.388422" lon="2.017035">
        <ele>23.999676</ele>
        <time>2023-01-22T08:21:27.000Z</time>
      </trkpt>
      <trkpt lat="41.388162" lon="2.016611">
        <ele>23.329964</ele>
        <time>2023-01-22T08:21:32.000Z</time>
      </trkpt>
      <trkpt lat="41.387877" lon="2.016255">
        <ele>22.693262</ele>
        <time>2023-01-22T08:21:37.000Z</time>
      </trkpt>
      <trkpt lat="41.387548" lon="2.015993">
        <ele>22.068529</ele>
        <time>2023-01-22T08:21:42.000Z</time>
      </trkpt>
      <trkpt lat="41.387044" lon="2.015779">
        <ele>22.103382</ele>
        <time>2023-01-22T08:21:49.000Z</time>
      </trkpt>
      <trkpt lat="41.386845" lon="2.015696">
        <ele>22.268828</ele>
        <time>2023-01-22T08:21:52.000Z</time>
      </trkpt>
      <trkpt lat="41.386760" lon="2.015609">
        <ele>22.353863</ele>
        <time>2023-01-22T08:21:54.000Z</time>
      </trkpt>
      <trkpt lat="41.386708" lon="2.015421">
        <ele>22.473141</ele>
        <time>2023-01-22T08:21:57.000Z</time>
      </trkpt>
      <trkpt lat="41.386649" lon="2.015286">
        <ele>22.566147</ele>
        <time>2023-01-22T08:21:59.000Z</time>
      </trkpt>
      <trkpt lat="41.386604" lon="2.015236">
        <ele>22.612631</ele>
        <time>2023-01-22T08:22:00.000Z</time>
      </trkpt>
      <trkpt lat="41.386548" lon="2.015207">
        <ele>22.660300</ele>
        <time>2023-01-22T08:22:01.000Z</time>
      </trkpt>
      <trkpt lat="41.386425" lon="2.015226">
        <ele>22.758548</ele>
        <time>2023-01-22T08:22:03.000Z</time>
      </trkpt>
      <trkpt lat="41.386372" lon="2.015279">
        <ele>22.811121</ele>
        <time>2023-01-22T08:22:04.000Z</time>
      </trkpt>
      <trkpt lat="41.386334" lon="2.015350">
        <ele>22.863039</ele>
        <time>2023-01-22T08:22:05.000Z</time>
      </trkpt>
      <trkpt lat="41.386308" lon="2.015425">
        <ele>22.912222</ele>
        <time>2023-01-22T08:22:06.000Z</time>
      </trkpt>
      <trkpt lat="41.386258" lon="2.015571">
        <ele>23.007762</ele>
        <time>2023-01-22T08:22:08.000Z</time>
      </trkpt>
      <trkpt lat="41.386166" lon="2.015678">
        <ele>23.104643</ele>
        <time>2023-01-22T08:22:10.000Z</time>
      </trkpt>
      <trkpt lat="41.385727" lon="2.015956">
        <ele>22.883399</ele>
        <time>2023-01-22T08:22:17.000Z</time>
      </trkpt>
      <trkpt lat="41.385202" lon="2.016234">
        <ele>22.258447</ele>
        <time>2023-01-22T08:22:25.000Z</time>
      </trkpt>
      <trkpt lat="41.384990" lon="2.016318">
        <ele>22.013773</ele>
        <time>2023-01-22T08:22:28.000Z</time>
      </trkpt>
      <trkpt lat="41.384556" lon="2.016426">
        <ele>21.525353</ele>
        <time>2023-01-22T08:22:34.000Z</time>
      </trkpt>
      <trkpt lat="41.384408" lon="2.016451">
        <ele>21.360314</ele>
        <time>2023-01-22T08:22:36.000Z</time>
      </trkpt>
      <trkpt lat="41.384255" lon="2.016470">
        <ele>21.169179</ele>
        <time>2023-01-22T08:22:38.000Z</time>
      </trkpt>
      <trkpt lat="41.383771" lon="2.016527">
        <ele>20.431207</ele>
        <time>2023-01-22T08:22:44.000Z</time>
      </trkpt>
      <trkpt lat="41.383690" lon="2.016551">
        <ele>20.305179</ele>
        <time>2023-01-22T08:22:45.000Z</time>
      </trkpt>
      <trkpt lat="41.383310" lon="2.016713">
        <ele>19.699222</ele>
        <time>2023-01-22T08:22:50.000Z</time>
      </trkpt>
      <trkpt lat="41.382751" lon="2.017022">
        <ele>18.780076</ele>
        <time>2023-01-22T08:22:58.000Z</time>
      </trkpt>
      <trkpt lat="41.382619" lon="2.017095">
        <ele>18.563017</ele>
        <time>2023-01-22T08:23:00.000Z</time>
      </trkpt>
      <trkpt lat="41.382100" lon="2.017304">
        <ele>18.895516</ele>
        <time>2023-01-22T08:23:08.000Z</time>
      </trkpt>
      <trkpt lat="41.381660" lon="2.017470">
        <ele>19.236061</ele>
        <time>2023-01-22T08:23:15.000Z</time>
      </trkpt>
      <trkpt lat="41.381601" lon="2.017502">
        <ele>19.283497</ele>
        <time>2023-01-22T08:23:16.000Z</time>
      </trkpt>
      <trkpt lat="41.381262" lon="2.017745">
        <ele>19.570150</ele>
        <time>2023-01-22T08:23:22.000Z</time>
      </trkpt>
      <trkpt lat="41.381208" lon="2.017797">
        <ele>19.619763</ele>
        <time>2023-01-22T08:23:23.000Z</time>
      </trkpt>
      <trkpt lat="41.381105" lon="2.017921">
        <ele>19.723128</ele>
        <time>2023-01-22T08:23:25.000Z</time>
      </trkpt>
      <trkpt lat="41.381005" lon="2.018058">
        <ele>19.829927</ele>
        <time>2023-01-22T08:23:27.000Z</time>
      </trkpt>
      <trkpt lat="41.380626" lon="2.018544">
        <ele>19.358121</ele>
        <time>2023-01-22T08:23:34.000Z</time>
      </trkpt>
      <trkpt lat="41.380427" lon="2.018698">
        <ele>19.126230</ele>
        <time>2023-01-22T08:23:37.000Z</time>
      </trkpt>
      <trkpt lat="41.380354" lon="2.018730">
        <ele>19.048790</ele>
        <time>2023-01-22T08:23:38.000Z</time>
      </trkpt>
      <trkpt lat="41.379979" lon="2.018806">
        <ele>18.666553</ele>
        <time>2023-01-22T08:23:43.000Z</time>
      </trkpt>
      <trkpt lat="41.379567" lon="2.018864">
        <ele>18.249065</ele>
        <time>2023-01-22T08:23:48.000Z</time>
      </trkpt>
      <trkpt lat="41.379330" lon="2.018919">
        <ele>18.043308</ele>
        <time>2023-01-22T08:23:51.000Z</time>
      </trkpt>
      <trkpt lat="41.379174" lon="2.018975">
        <ele>18.048659</ele>
        <time>2023-01-22T08:23:53.000Z</time>
      </trkpt>
      <trkpt lat="41.378800" lon="2.019149">
        <ele>18.061781</ele>
        <time>2023-01-22T08:23:58.000Z</time>
      </trkpt>
      <trkpt lat="41.378309" lon="2.019459">
        <ele>18.079777</ele>
        <time>2023-01-22T08:24:05.000Z</time>
      </trkpt>
      <trkpt lat="41.378165" lon="2.019550">
        <ele>18.085056</ele>
        <time>2023-01-22T08:24:07.000Z</time>
      </trkpt>
      <trkpt lat="41.377709" lon="2.019914">
        <ele>18.114334</ele>
        <time>2023-01-22T08:24:14.000Z</time>
      </trkpt>
      <trkpt lat="41.377262" lon="2.020471">
        <ele>18.385183</ele>
        <time>2023-01-22T08:24:22.000Z</time>
      </trkpt>
      <trkpt lat="41.377205" lon="2.020539">
        <ele>18.419042</ele>
        <time>2023-01-22T08:24:23.000Z</time>
      </trkpt>
      <trkpt lat="41.376718" lon="2.021021">
        <ele>18.687525</ele>
        <time>2023-01-22T08:24:31.000Z</time>
      </trkpt>
      <trkpt lat="41.376246" lon="2.021376">
        <ele>18.850553</ele>
        <time>2023-01-22T08:24:39.000Z</time>
      </trkpt>
      <trkpt lat="41.376175" lon="2.021428">
        <ele>18.793374</ele>
        <time>2023-01-22T08:24:40.000Z</time>
      </trkpt>
      <trkpt lat="41.376059" lon="2.021514">
        <ele>18.699688</ele>
        <time>2023-01-22T08:24:42.000Z</time>
      </trkpt>
      <trkpt lat="41.375571" lon="2.021876">
        <ele>18.305507</ele>
        <time>2023-01-22T08:24:50.000Z</time>
      </trkpt>
      <trkpt lat="41.375321" lon="2.022065">
        <ele>18.102650</ele>
        <time>2023-01-22T08:24:54.000Z</time>
      </trkpt>
      <trkpt lat="41.374976" lon="2.022254">
        <ele>17.839387</ele>
        <time>2023-01-22T08:24:59.000Z</time>
      </trkpt>
      <trkpt lat="41.374830" lon="2.022291">
        <ele>17.734497</ele>
        <time>2023-01-22T08:25:01.000Z</time>
      </trkpt>
      <trkpt lat="41.374375" lon="2.022383">
        <ele>17.349961</ele>
        <time>2023-01-22T08:25:07.000Z</time>
      </trkpt>
      <trkpt lat="41.374301" lon="2.022397">
        <ele>17.282799</ele>
        <time>2023-01-22T08:25:08.000Z</time>
      </trkpt>
      <trkpt lat="41.373763" lon="2.022508">
        <ele>16.793603</ele>
        <time>2023-01-22T08:25:15.000Z</time>
      </trkpt>
      <trkpt lat="41.373689" lon="2.022524">
        <ele>16.726238</ele>
        <time>2023-01-22T08:25:16.000Z</time>
      </trkpt>
      <trkpt lat="41.373545" lon="2.022560">
        <ele>16.594585</ele>
        <time>2023-01-22T08:25:18.000Z</time>
      </trkpt>
      <trkpt lat="41.373199" lon="2.022729">
        <ele>16.263449</ele>
        <time>2023-01-22T08:25:23.000Z</time>
      </trkpt>
      <trkpt lat="41.372672" lon="2.023056">
        <ele>16.202793</ele>
        <time>2023-01-22T08:25:31.000Z</time>
      </trkpt>
      <trkpt lat="41.372280" lon="2.023287">
        <ele>16.473726</ele>
        <time>2023-01-22T08:25:37.000Z</time>
      </trkpt>
      <trkpt lat="41.372091" lon="2.023409">
        <ele>16.606473</ele>
        <time>2023-01-22T08:25:40.000Z</time>
      </trkpt>
      <trkpt lat="41.371565" lon="2.023733">
        <ele>16.972765</ele>
        <time>2023-01-22T08:25:48.000Z</time>
      </trkpt>
      <trkpt lat="41.371425" lon="2.023805">
        <ele>17.067622</ele>
        <time>2023-01-22T08:25:50.000Z</time>
      </trkpt>
      <trkpt lat="41.371274" lon="2.023815">
        <ele>17.180077</ele>
        <time>2023-01-22T08:25:52.000Z</time>
      </trkpt>
      <trkpt lat="41.371127" lon="2.023755">
        <ele>17.393438</ele>
        <time>2023-01-22T08:25:54.000Z</time>
      </trkpt>
      <trkpt lat="41.371050" lon="2.023738">
        <ele>17.501755</ele>
        <time>2023-01-22T08:25:55.000Z</time>
      </trkpt>
      <trkpt lat="41.370973" lon="2.023744">
        <ele>17.608798</ele>
        <time>2023-01-22T08:25:56.000Z</time>
      </trkpt>
      <trkpt lat="41.370842" lon="2.023843">
        <ele>17.817801</ele>
        <time>2023-01-22T08:25:58.000Z</time>
      </trkpt>
      <trkpt lat="41.370787" lon="2.024032">
        <ele>18.028919</ele>
        <time>2023-01-22T08:26:00.000Z</time>
      </trkpt>
      <trkpt lat="41.370809" lon="2.024195">
        <ele>18.201402</ele>
        <time>2023-01-22T08:26:02.000Z</time>
      </trkpt>
      <trkpt lat="41.370843" lon="2.024277">
        <ele>18.298970</ele>
        <time>2023-01-22T08:26:03.000Z</time>
      </trkpt>
      <trkpt lat="41.370877" lon="2.024328">
        <ele>18.370017</ele>
        <time>2023-01-22T08:26:04.000Z</time>
      </trkpt>
      <trkpt lat="41.370931" lon="2.024384">
        <ele>18.464978</ele>
        <time>2023-01-22T08:26:06.000Z</time>
      </trkpt>
      <trkpt lat="41.370947" lon="2.024394">
        <ele>18.489504</ele>
        <time>2023-01-22T08:26:09.000Z</time>
      </trkpt>
      <trkpt lat="41.370947" lon="2.024394">
        <ele>18.489504</ele>
        <time>2023-01-22T08:26:17.000Z</time>
      </trkpt>
      <trkpt lat="41.370947" lon="2.024394">
        <ele>18.489504</ele>
        <time>2023-01-22T08:26:26.000Z</time>
      </trkpt>
      <trkpt lat="41.370965" lon="2.024392">
        <ele>18.514571</ele>
        <time>2023-01-22T08:26:30.000Z</time>
      </trkpt>
      <trkpt lat="41.370995" lon="2.024388">
        <ele>18.556412</ele>
        <time>2023-01-22T08:26:32.000Z</time>
      </trkpt>
      <trkpt lat="41.371015" lon="2.024396">
        <ele>18.585392</ele>
        <time>2023-01-22T08:26:33.000Z</time>
      </trkpt>
      <trkpt lat="41.371092" lon="2.024529">
        <ele>18.760336</ele>
        <time>2023-01-22T08:26:37.000Z</time>
      </trkpt>
      <trkpt lat="41.371073" lon="2.024734">
        <ele>18.975457</ele>
        <time>2023-01-22T08:26:41.000Z</time>
      </trkpt>
      <trkpt lat="41.370967" lon="2.024905">
        <ele>19.206447</ele>
        <time>2023-01-22T08:26:45.000Z</time>
      </trkpt>
      <trkpt lat="41.370903" lon="2.024965">
        <ele>19.315045</ele>
        <time>2023-01-22T08:26:47.000Z</time>
      </trkpt>
      <trkpt lat="41.370786" lon="2.025049">
        <ele>19.499485</ele>
        <time>2023-01-22T08:26:51.000Z</time>
      </trkpt>
      <trkpt lat="41.370684" lon="2.025101">
        <ele>19.664658</ele>
        <time>2023-01-22T08:26:54.000Z</time>
      </trkpt>
      <trkpt lat="41.370610" lon="2.025124">
        <ele>20.015923</ele>
        <time>2023-01-22T08:26:56.000Z</time>
      </trkpt>
      <trkpt lat="41.370568" lon="2.025128">
        <ele>20.210573</ele>
        <time>2023-01-22T08:26:57.000Z</time>
      </trkpt>
      <trkpt lat="41.370479" lon="2.025114">
        <ele>20.624854</ele>
        <time>2023-01-22T08:26:59.000Z</time>
      </trkpt>
      <trkpt lat="41.370436" lon="2.025091">
        <ele>20.839048</ele>
        <time>2023-01-22T08:27:00.000Z</time>
      </trkpt>
      <trkpt lat="41.370393" lon="2.025055">
        <ele>21.073803</ele>
        <time>2023-01-22T08:27:01.000Z</time>
      </trkpt>
      <trkpt lat="41.370319" lon="2.024960">
        <ele>21.548815</ele>
        <time>2023-01-22T08:27:03.000Z</time>
      </trkpt>
      <trkpt lat="41.370286" lon="2.024905">
        <ele>21.793105</ele>
        <time>2023-01-22T08:27:04.000Z</time>
      </trkpt>
      <trkpt lat="41.370219" lon="2.024789">
        <ele>22.300916</ele>
        <time>2023-01-22T08:27:06.000Z</time>
      </trkpt>
      <trkpt lat="41.370186" lon="2.024727">
        <ele>22.564610</ele>
        <time>2023-01-22T08:27:07.000Z</time>
      </trkpt>
      <trkpt lat="41.370127" lon="2.024597">
        <ele>23.091659</ele>
        <time>2023-01-22T08:27:09.000Z</time>
      </trkpt>
      <trkpt lat="41.370058" lon="2.024457">
        <ele>23.672718</ele>
        <time>2023-01-22T08:27:11.000Z</time>
      </trkpt>
      <trkpt lat="41.369990" lon="2.024309">
        <ele>24.274740</ele>
        <time>2023-01-22T08:27:13.000Z</time>
      </trkpt>
      <trkpt lat="41.369881" lon="2.024077">
        <ele>25.224306</ele>
        <time>2023-01-22T08:27:16.000Z</time>
      </trkpt>
      <trkpt lat="41.369818" lon="2.023914">
        <ele>25.860371</ele>
        <time>2023-01-22T08:27:18.000Z</time>
      </trkpt>
      <trkpt lat="41.369787" lon="2.023838">
        <ele>26.160457</ele>
        <time>2023-01-22T08:27:19.000Z</time>
      </trkpt>
      <trkpt lat="41.369712" lon="2.023708">
        <ele>26.729316</ele>
        <time>2023-01-22T08:27:21.000Z</time>
      </trkpt>
      <trkpt lat="41.369619" lon="2.023592">
        <ele>27.318190</ele>
        <time>2023-01-22T08:27:23.000Z</time>
      </trkpt>
      <trkpt lat="41.369519" lon="2.023475">
        <ele>27.933372</ele>
        <time>2023-01-22T08:27:25.000Z</time>
      </trkpt>
      <trkpt lat="41.369466" lon="2.023424">
        <ele>28.286031</ele>
        <time>2023-01-22T08:27:26.000Z</time>
      </trkpt>
      <trkpt lat="41.369407" lon="2.023384">
        <ele>28.648036</ele>
        <time>2023-01-22T08:27:27.000Z</time>
      </trkpt>
      <trkpt lat="41.369221" lon="2.023313">
        <ele>29.706101</ele>
        <time>2023-01-22T08:27:30.000Z</time>
      </trkpt>
      <trkpt lat="41.369049" lon="2.023287">
        <ele>30.652727</ele>
        <time>2023-01-22T08:27:33.000Z</time>
      </trkpt>
      <trkpt lat="41.368952" lon="2.023267">
        <ele>31.189490</ele>
        <time>2023-01-22T08:27:35.000Z</time>
      </trkpt>
      <trkpt lat="41.368886" lon="2.023191">
        <ele>31.666512</ele>
        <time>2023-01-22T08:27:37.000Z</time>
      </trkpt>
      <trkpt lat="41.368872" lon="2.023137">
        <ele>31.900980</ele>
        <time>2023-01-22T08:27:38.000Z</time>
      </trkpt>
      <trkpt lat="41.368890" lon="2.022950">
        <ele>32.674713</ele>
        <time>2023-01-22T08:27:42.000Z</time>
      </trkpt>
      <trkpt lat="41.368893" lon="2.022718">
        <ele>33.626980</ele>
        <time>2023-01-22T08:27:47.000Z</time>
      </trkpt>
      <trkpt lat="41.368830" lon="2.022612">
        <ele>34.181903</ele>
        <time>2023-01-22T08:27:50.000Z</time>
      </trkpt>
      <trkpt lat="41.368796" lon="2.022587">
        <ele>34.394264</ele>
        <time>2023-01-22T08:27:51.000Z</time>
      </trkpt>
      <trkpt lat="41.368688" lon="2.022557">
        <ele>34.997565</ele>
        <time>2023-01-22T08:27:54.000Z</time>
      </trkpt>
      <trkpt lat="41.368604" lon="2.022569">
        <ele>35.459556</ele>
        <time>2023-01-22T08:27:56.000Z</time>
      </trkpt>
      <trkpt lat="41.368524" lon="2.022598">
        <ele>35.912941</ele>
        <time>2023-01-22T08:27:58.000Z</time>
      </trkpt>
      <trkpt lat="41.368451" lon="2.022636">
        <ele>36.341527</ele>
        <time>2023-01-22T08:28:00.000Z</time>
      </trkpt>
      <trkpt lat="41.368418" lon="2.022664">
        <ele>36.555470</ele>
        <time>2023-01-22T08:28:01.000Z</time>
      </trkpt>
      <trkpt lat="41.368317" lon="2.022771">
        <ele>37.261089</ele>
        <time>2023-01-22T08:28:04.000Z</time>
      </trkpt>
      <trkpt lat="41.368183" lon="2.022901">
        <ele>37.678066</ele>
        <time>2023-01-22T08:28:07.000Z</time>
      </trkpt>
      <trkpt lat="41.368128" lon="2.022945">
        <ele>37.566883</ele>
        <time>2023-01-22T08:28:08.000Z</time>
      </trkpt>
      <trkpt lat="41.367877" lon="2.023096">
        <ele>37.089586</ele>
        <time>2023-01-22T08:28:12.000Z</time>
      </trkpt>
      <trkpt lat="41.367806" lon="2.023121">
        <ele>36.962310</ele>
        <time>2023-01-22T08:28:13.000Z</time>
      </trkpt>
      <trkpt lat="41.367623" lon="2.023156">
        <ele>36.641897</ele>
        <time>2023-01-22T08:28:16.000Z</time>
      </trkpt>
      <trkpt lat="41.367536" lon="2.023135">
        <ele>36.488661</ele>
        <time>2023-01-22T08:28:18.000Z</time>
      </trkpt>
      <trkpt lat="41.367496" lon="2.023115">
        <ele>36.414615</ele>
        <time>2023-01-22T08:28:19.000Z</time>
      </trkpt>
      <trkpt lat="41.367371" lon="2.023119">
        <ele>36.197912</ele>
        <time>2023-01-22T08:28:23.000Z</time>
      </trkpt>
      <trkpt lat="41.367286" lon="2.023256">
        <ele>35.966707</ele>
        <time>2023-01-22T08:28:26.000Z</time>
      </trkpt>
      <trkpt lat="41.367245" lon="2.023300">
        <ele>35.875468</ele>
        <time>2023-01-22T08:28:27.000Z</time>
      </trkpt>
      <trkpt lat="41.367202" lon="2.023336">
        <ele>35.787454</ele>
        <time>2023-01-22T08:28:28.000Z</time>
      </trkpt>
      <trkpt lat="41.367029" lon="2.023439">
        <ele>35.459053</ele>
        <time>2023-01-22T08:28:32.000Z</time>
      </trkpt>
      <trkpt lat="41.366917" lon="2.023491">
        <ele>35.253496</ele>
        <time>2023-01-22T08:28:34.000Z</time>
      </trkpt>
      <trkpt lat="41.366788" lon="2.023537">
        <ele>35.022054</ele>
        <time>2023-01-22T08:28:36.000Z</time>
      </trkpt>
      <trkpt lat="41.366578" lon="2.023598">
        <ele>34.710459</ele>
        <time>2023-01-22T08:28:39.000Z</time>
      </trkpt>
      <trkpt lat="41.366440" lon="2.023632">
        <ele>34.977633</ele>
        <time>2023-01-22T08:28:41.000Z</time>
      </trkpt>
      <trkpt lat="41.366374" lon="2.023643">
        <ele>35.104262</ele>
        <time>2023-01-22T08:28:42.000Z</time>
      </trkpt>
      <trkpt lat="41.366155" lon="2.023683">
        <ele>35.525088</ele>
        <time>2023-01-22T08:28:46.000Z</time>
      </trkpt>
      <trkpt lat="41.365863" lon="2.023730">
        <ele>36.085032</ele>
        <time>2023-01-22T08:28:52.000Z</time>
      </trkpt>
      <trkpt lat="41.365609" lon="2.023769">
        <ele>36.571791</ele>
        <time>2023-01-22T08:28:57.000Z</time>
      </trkpt>
      <trkpt lat="41.365459" lon="2.023786">
        <ele>36.858388</ele>
        <time>2023-01-22T08:29:00.000Z</time>
      </trkpt>
      <trkpt lat="41.365314" lon="2.023805">
        <ele>37.135768</ele>
        <time>2023-01-22T08:29:03.000Z</time>
      </trkpt>
      <trkpt lat="41.365081" lon="2.023837">
        <ele>37.581698</ele>
        <time>2023-01-22T08:29:08.000Z</time>
      </trkpt>
      <trkpt lat="41.365037" lon="2.023843">
        <ele>37.665901</ele>
        <time>2023-01-22T08:29:09.000Z</time>
      </trkpt>
      <trkpt lat="41.364793" lon="2.023909">
        <ele>38.144005</ele>
        <time>2023-01-22T08:29:15.000Z</time>
      </trkpt>
      <trkpt lat="41.364593" lon="2.023929">
        <ele>38.568092</ele>
        <time>2023-01-22T08:29:20.000Z</time>
      </trkpt>
      <trkpt lat="41.364517" lon="2.023923">
        <ele>38.729075</ele>
        <time>2023-01-22T08:29:22.000Z</time>
      </trkpt>
      <trkpt lat="41.364376" lon="2.023896">
        <ele>39.030281</ele>
        <time>2023-01-22T08:29:26.000Z</time>
      </trkpt>
      <trkpt lat="41.364213" lon="2.023891">
        <ele>39.375034</ele>
        <time>2023-01-22T08:29:31.000Z</time>
      </trkpt>
      <trkpt lat="41.364076" lon="2.023879">
        <ele>39.665344</ele>
        <time>2023-01-22T08:29:36.000Z</time>
      </trkpt>
      <trkpt lat="41.364054" lon="2.023877">
        <ele>39.711971</ele>
        <time>2023-01-22T08:29:37.000Z</time>
      </trkpt>
      <trkpt lat="41.363948" lon="2.023896">
        <ele>39.938126</ele>
        <time>2023-01-22T08:29:42.000Z</time>
      </trkpt>
      <trkpt lat="41.363736" lon="2.023899">
        <ele>40.386422</ele>
        <time>2023-01-22T08:29:50.000Z</time>
      </trkpt>
      <trkpt lat="41.363644" lon="2.023897">
        <ele>40.580981</ele>
        <time>2023-01-22T08:29:53.000Z</time>
      </trkpt>
      <trkpt lat="41.363613" lon="2.023896">
        <ele>40.646549</ele>
        <time>2023-01-22T08:29:54.000Z</time>
      </trkpt>
      <trkpt lat="41.363523" lon="2.023900">
        <ele>40.836959</ele>
        <time>2023-01-22T08:29:57.000Z</time>
      </trkpt>
      <trkpt lat="41.363291" lon="2.023889">
        <ele>41.327831</ele>
        <time>2023-01-22T08:30:03.000Z</time>
      </trkpt>
      <trkpt lat="41.363016" lon="2.023888">
        <ele>41.900943</ele>
        <time>2023-01-22T08:30:09.000Z</time>
      </trkpt>
      <trkpt lat="41.362702" lon="2.023889">
        <ele>40.889877</ele>
        <time>2023-01-22T08:30:14.000Z</time>
      </trkpt>
      <trkpt lat="41.362463" lon="2.023887">
        <ele>40.120294</ele>
        <time>2023-01-22T08:30:17.000Z</time>
      </trkpt>
      <trkpt lat="41.362286" lon="2.023883">
        <ele>39.550282</ele>
        <time>2023-01-22T08:30:19.000Z</time>
      </trkpt>
      <trkpt lat="41.362194" lon="2.023884">
        <ele>39.254037</ele>
        <time>2023-01-22T08:30:20.000Z</time>
      </trkpt>
      <trkpt lat="41.361923" lon="2.023900">
        <ele>38.380575</ele>
        <time>2023-01-22T08:30:23.000Z</time>
      </trkpt>
      <trkpt lat="41.361749" lon="2.023905">
        <ele>37.820173</ele>
        <time>2023-01-22T08:30:25.000Z</time>
      </trkpt>
      <trkpt lat="41.361664" lon="2.023906">
        <ele>37.546467</ele>
        <time>2023-01-22T08:30:26.000Z</time>
      </trkpt>
      <trkpt lat="41.361365" lon="2.023930">
        <ele>36.581957</ele>
        <time>2023-01-22T08:30:30.000Z</time>
      </trkpt>
      <trkpt lat="41.361298" lon="2.023950">
        <ele>36.360873</ele>
        <time>2023-01-22T08:30:31.000Z</time>
      </trkpt>
      <trkpt lat="41.361233" lon="2.023982">
        <ele>36.137745</ele>
        <time>2023-01-22T08:30:32.000Z</time>
      </trkpt>
      <trkpt lat="41.361115" lon="2.024089">
        <ele>36.119785</ele>
        <time>2023-01-22T08:30:34.000Z</time>
      </trkpt>
      <trkpt lat="41.361026" lon="2.024235">
        <ele>36.125332</ele>
        <time>2023-01-22T08:30:36.000Z</time>
      </trkpt>
      <trkpt lat="41.360851" lon="2.024547">
        <ele>36.136819</ele>
        <time>2023-01-22T08:30:40.000Z</time>
      </trkpt>
      <trkpt lat="41.360798" lon="2.024619">
        <ele>36.139793</ele>
        <time>2023-01-22T08:30:41.000Z</time>
      </trkpt>
      <trkpt lat="41.360680" lon="2.024752">
        <ele>36.145866</ele>
        <time>2023-01-22T08:30:43.000Z</time>
      </trkpt>
      <trkpt lat="41.360539" lon="2.024864">
        <ele>36.152316</ele>
        <time>2023-01-22T08:30:45.000Z</time>
      </trkpt>
      <trkpt lat="41.360461" lon="2.024907">
        <ele>36.155632</ele>
        <time>2023-01-22T08:30:46.000Z</time>
      </trkpt>
      <trkpt lat="41.360215" lon="2.024994">
        <ele>36.165633</ele>
        <time>2023-01-22T08:30:49.000Z</time>
      </trkpt>
      <trkpt lat="41.359964" lon="2.025104">
        <ele>36.176015</ele>
        <time>2023-01-22T08:30:53.000Z</time>
      </trkpt>
      <trkpt lat="41.359769" lon="2.025205">
        <ele>36.184235</ele>
        <time>2023-01-22T08:30:58.000Z</time>
      </trkpt>
      <trkpt lat="41.359716" lon="2.025230">
        <ele>36.423876</ele>
        <time>2023-01-22T08:31:00.000Z</time>
      </trkpt>
      <trkpt lat="41.359631" lon="2.025208">
        <ele>37.043037</ele>
        <time>2023-01-22T08:31:03.000Z</time>
      </trkpt>
      <trkpt lat="41.359556" lon="2.025050">
        <ele>38.046382</ele>
        <time>2023-01-22T08:31:07.000Z</time>
      </trkpt>
      <trkpt lat="41.359540" lon="2.025002">
        <ele>38.328263</ele>
        <time>2023-01-22T08:31:08.000Z</time>
      </trkpt>
      <trkpt lat="41.359501" lon="2.024853">
        <ele>39.175184</ele>
        <time>2023-01-22T08:31:11.000Z</time>
      </trkpt>
      <trkpt lat="41.359446" lon="2.024608">
        <ele>40.547668</ele>
        <time>2023-01-22T08:31:16.000Z</time>
      </trkpt>
      <trkpt lat="41.359397" lon="2.024366">
        <ele>41.892927</ele>
        <time>2023-01-22T08:31:21.000Z</time>
      </trkpt>
      <trkpt lat="41.359353" lon="2.024178">
        <ele>42.949850</ele>
        <time>2023-01-22T08:31:25.000Z</time>
      </trkpt>
      <trkpt lat="41.359342" lon="2.024133">
        <ele>43.203854</ele>
        <time>2023-01-22T08:31:26.000Z</time>
      </trkpt>
      <trkpt lat="41.359298" lon="2.023951">
        <ele>44.230081</ele>
        <time>2023-01-22T08:31:30.000Z</time>
      </trkpt>
      <trkpt lat="41.359263" lon="2.023813">
        <ele>45.011878</ele>
        <time>2023-01-22T08:31:33.000Z</time>
      </trkpt>
      <trkpt lat="41.359238" lon="2.023729">
        <ele>45.496861</ele>
        <time>2023-01-22T08:31:35.000Z</time>
      </trkpt>
      <trkpt lat="41.359186" lon="2.023538">
        <ele>46.587325</ele>
        <time>2023-01-22T08:31:40.000Z</time>
      </trkpt>
      <trkpt lat="41.359158" lon="2.023466">
        <ele>47.022543</ele>
        <time>2023-01-22T08:31:42.000Z</time>
      </trkpt>
      <trkpt lat="41.359118" lon="2.023403">
        <ele>47.465418</ele>
        <time>2023-01-22T08:31:44.000Z</time>
      </trkpt>
      <trkpt lat="41.359020" lon="2.023299">
        <ele>48.361309</ele>
        <time>2023-01-22T08:31:48.000Z</time>
      </trkpt>
      <trkpt lat="41.358988" lon="2.023280">
        <ele>48.611821</ele>
        <time>2023-01-22T08:31:49.000Z</time>
      </trkpt>
      <trkpt lat="41.358882" lon="2.023241">
        <ele>49.034165</ele>
        <time>2023-01-22T08:31:52.000Z</time>
      </trkpt>
      <trkpt lat="41.358717" lon="2.023224">
        <ele>48.992855</ele>
        <time>2023-01-22T08:31:56.000Z</time>
      </trkpt>
      <trkpt lat="41.358539" lon="2.023204">
        <ele>48.948265</ele>
        <time>2023-01-22T08:32:00.000Z</time>
      </trkpt>
      <trkpt lat="41.358456" lon="2.023191">
        <ele>48.927404</ele>
        <time>2023-01-22T08:32:02.000Z</time>
      </trkpt>
      <trkpt lat="41.358375" lon="2.023178">
        <ele>48.907039</ele>
        <time>2023-01-22T08:32:04.000Z</time>
      </trkpt>
      <trkpt lat="41.358144" lon="2.023145">
        <ele>48.849046</ele>
        <time>2023-01-22T08:32:10.000Z</time>
      </trkpt>
      <trkpt lat="41.357794" lon="2.023069">
        <ele>48.760526</ele>
        <time>2023-01-22T08:32:17.000Z</time>
      </trkpt>
      <trkpt lat="41.357494" lon="2.023003">
        <ele>48.684626</ele>
        <time>2023-01-22T08:32:21.000Z</time>
      </trkpt>
      <trkpt lat="41.357410" lon="2.022988">
        <ele>48.663471</ele>
        <time>2023-01-22T08:32:22.000Z</time>
      </trkpt>
      <trkpt lat="41.357245" lon="2.022949">
        <ele>48.621640</ele>
        <time>2023-01-22T08:32:24.000Z</time>
      </trkpt>
      <trkpt lat="41.357160" lon="2.022918">
        <ele>48.599642</ele>
        <time>2023-01-22T08:32:25.000Z</time>
      </trkpt>
      <trkpt lat="41.357074" lon="2.022874">
        <ele>48.777788</ele>
        <time>2023-01-22T08:32:26.000Z</time>
      </trkpt>
      <trkpt lat="41.356984" lon="2.022821">
        <ele>48.990519</ele>
        <time>2023-01-22T08:32:27.000Z</time>
      </trkpt>
      <trkpt lat="41.356889" lon="2.022766">
        <ele>49.214453</ele>
        <time>2023-01-22T08:32:28.000Z</time>
      </trkpt>
      <trkpt lat="41.356684" lon="2.022669">
        <ele>49.684765</ele>
        <time>2023-01-22T08:32:30.000Z</time>
      </trkpt>
      <trkpt lat="41.356592" lon="2.022642">
        <ele>49.888428</ele>
        <time>2023-01-22T08:32:31.000Z</time>
      </trkpt>
      <trkpt lat="41.356512" lon="2.022628">
        <ele>50.062865</ele>
        <time>2023-01-22T08:32:32.000Z</time>
      </trkpt>
      <trkpt lat="41.356440" lon="2.022625">
        <ele>50.218598</ele>
        <time>2023-01-22T08:32:33.000Z</time>
      </trkpt>
      <trkpt lat="41.356225" lon="2.022674">
        <ele>50.690158</ele>
        <time>2023-01-22T08:32:37.000Z</time>
      </trkpt>
      <trkpt lat="41.356082" lon="2.022742">
        <ele>51.018412</ele>
        <time>2023-01-22T08:32:40.000Z</time>
      </trkpt>
      <trkpt lat="41.355978" lon="2.022792">
        <ele>51.257442</ele>
        <time>2023-01-22T08:32:42.000Z</time>
      </trkpt>
      <trkpt lat="41.355932" lon="2.022817">
        <ele>51.364846</ele>
        <time>2023-01-22T08:32:43.000Z</time>
      </trkpt>
      <trkpt lat="41.355889" lon="2.022843">
        <ele>51.466934</ele>
        <time>2023-01-22T08:32:44.000Z</time>
      </trkpt>
      <trkpt lat="41.355845" lon="2.022872">
        <ele>51.573062</ele>
        <time>2023-01-22T08:32:45.000Z</time>
      </trkpt>
      <trkpt lat="41.355760" lon="2.022919">
        <ele>51.772022</ele>
        <time>2023-01-22T08:32:47.000Z</time>
      </trkpt>
      <trkpt lat="41.355688" lon="2.022956">
        <ele>51.938857</ele>
        <time>2023-01-22T08:32:49.000Z</time>
      </trkpt>
      <trkpt lat="41.355657" lon="2.022966">
        <ele>52.007813</ele>
        <time>2023-01-22T08:32:50.000Z</time>
      </trkpt>
      <trkpt lat="41.355631" lon="2.022964">
        <ele>52.064116</ele>
        <time>2023-01-22T08:32:51.000Z</time>
      </trkpt>
      <trkpt lat="41.355608" lon="2.022955">
        <ele>52.115940</ele>
        <time>2023-01-22T08:32:52.000Z</time>
      </trkpt>
      <trkpt lat="41.355570" lon="2.022933">
        <ele>52.205514</ele>
        <time>2023-01-22T08:32:54.000Z</time>
      </trkpt>
      <trkpt lat="41.355543" lon="2.022977">
        <ele>52.297739</ele>
        <time>2023-01-22T08:32:56.000Z</time>
      </trkpt>
      <trkpt lat="41.355538" lon="2.023005">
        <ele>52.344444</ele>
        <time>2023-01-22T08:32:57.000Z</time>
      </trkpt>
      <trkpt lat="41.355503" lon="2.023200">
        <ele>52.484014</ele>
        <time>2023-01-22T08:33:04.000Z</time>
      </trkpt>
      <trkpt lat="41.355472" lon="2.023438">
        <ele>52.479894</ele>
        <time>2023-01-22T08:33:10.000Z</time>
      </trkpt>
      <trkpt lat="41.355405" lon="2.023799">
        <ele>52.473553</ele>
        <time>2023-01-22T08:33:16.000Z</time>
      </trkpt>
      <trkpt lat="41.355382" lon="2.023914">
        <ele>52.471523</ele>
        <time>2023-01-22T08:33:18.000Z</time>
      </trkpt>
      <trkpt lat="41.355352" lon="2.024028">
        <ele>52.469463</ele>
        <time>2023-01-22T08:33:20.000Z</time>
      </trkpt>
      <trkpt lat="41.355322" lon="2.024136">
        <ele>52.467500</ele>
        <time>2023-01-22T08:33:23.000Z</time>
      </trkpt>
      <trkpt lat="41.355305" lon="2.024185">
        <ele>52.466579</ele>
        <time>2023-01-22T08:33:24.000Z</time>
      </trkpt>
      <trkpt lat="41.355141" lon="2.024566">
        <ele>52.459089</ele>
        <time>2023-01-22T08:33:30.000Z</time>
      </trkpt>
      <trkpt lat="41.354944" lon="2.024937">
        <ele>52.451340</ele>
        <time>2023-01-22T08:33:35.000Z</time>
      </trkpt>
      <trkpt lat="41.354902" lon="2.025021">
        <ele>52.449619</ele>
        <time>2023-01-22T08:33:37.000Z</time>
      </trkpt>
      <trkpt lat="41.354768" lon="2.025286">
        <ele>52.242254</ele>
        <time>2023-01-22T08:33:39.000Z</time>
      </trkpt>
      <trkpt lat="41.354690" lon="2.025441">
        <ele>51.535942</ele>
        <time>2023-01-22T08:33:41.000Z</time>
      </trkpt>
      <trkpt lat="41.354611" lon="2.025587">
        <ele>50.854723</ele>
        <time>2023-01-22T08:33:43.000Z</time>
      </trkpt>
      <trkpt lat="41.354419" lon="2.025953">
        <ele>49.164638</ele>
        <time>2023-01-22T08:33:48.000Z</time>
      </trkpt>
      <trkpt lat="41.354377" lon="2.026039">
        <ele>48.776298</ele>
        <time>2023-01-22T08:33:49.000Z</time>
      </trkpt>
      <trkpt lat="41.354177" lon="2.026421">
        <ele>47.013461</ele>
        <time>2023-01-22T08:33:53.000Z</time>
      </trkpt>
      <trkpt lat="41.354132" lon="2.026503">
        <ele>46.628990</ele>
        <time>2023-01-22T08:33:54.000Z</time>
      </trkpt>
      <trkpt lat="41.354048" lon="2.026641">
        <ele>45.956504</ele>
        <time>2023-01-22T08:33:56.000Z</time>
      </trkpt>
      <trkpt lat="41.353993" lon="2.026705">
        <ele>45.588272</ele>
        <time>2023-01-22T08:33:58.000Z</time>
      </trkpt>
      <trkpt lat="41.353976" lon="2.026726">
        <ele>45.471371</ele>
        <time>2023-01-22T08:33:59.000Z</time>
      </trkpt>
      <trkpt lat="41.353941" lon="2.026754">
        <ele>45.265510</ele>
        <time>2023-01-22T08:34:01.000Z</time>
      </trkpt>
      <trkpt lat="41.353914" lon="2.026760">
        <ele>45.127484</ele>
        <time>2023-01-22T08:34:02.000Z</time>
      </trkpt>
      <trkpt lat="41.353761" lon="2.026800">
        <ele>44.341281</ele>
        <time>2023-01-22T08:34:06.000Z</time>
      </trkpt>
      <trkpt lat="41.353729" lon="2.026825">
        <ele>44.154225</ele>
        <time>2023-01-22T08:34:07.000Z</time>
      </trkpt>
      <trkpt lat="41.353683" lon="2.026876">
        <ele>43.852456</ele>
        <time>2023-01-22T08:34:08.000Z</time>
      </trkpt>
      <trkpt lat="41.353618" lon="2.026979">
        <ele>43.344318</ele>
        <time>2023-01-22T08:34:10.000Z</time>
      </trkpt>
      <trkpt lat="41.353586" lon="2.027019">
        <ele>43.131166</ele>
        <time>2023-01-22T08:34:11.000Z</time>
      </trkpt>
      <trkpt lat="41.353493" lon="2.027030">
        <ele>42.677641</ele>
        <time>2023-01-22T08:34:13.000Z</time>
      </trkpt>
      <trkpt lat="41.353247" lon="2.026967">
        <ele>41.460816</ele>
        <time>2023-01-22T08:34:18.000Z</time>
      </trkpt>
      <trkpt lat="41.353022" lon="2.026933">
        <ele>40.360869</ele>
        <time>2023-01-22T08:34:22.000Z</time>
      </trkpt>
      <trkpt lat="41.352893" lon="2.026915">
        <ele>39.730824</ele>
        <time>2023-01-22T08:34:24.000Z</time>
      </trkpt>
      <trkpt lat="41.352671" lon="2.026899">
        <ele>38.650881</ele>
        <time>2023-01-22T08:34:27.000Z</time>
      </trkpt>
      <trkpt lat="41.352590" lon="2.026895">
        <ele>38.257153</ele>
        <time>2023-01-22T08:34:28.000Z</time>
      </trkpt>
      <trkpt lat="41.352424" lon="2.026896">
        <ele>37.450800</ele>
        <time>2023-01-22T08:34:30.000Z</time>
      </trkpt>
      <trkpt lat="41.352176" lon="2.026902">
        <ele>36.245941</ele>
        <time>2023-01-22T08:34:33.000Z</time>
      </trkpt>
      <trkpt lat="41.352028" lon="2.026917">
        <ele>35.524953</ele>
        <time>2023-01-22T08:34:35.000Z</time>
      </trkpt>
      <trkpt lat="41.351878" lon="2.026936">
        <ele>34.793042</ele>
        <time>2023-01-22T08:34:38.000Z</time>
      </trkpt>
      <trkpt lat="41.351740" lon="2.026962">
        <ele>34.351062</ele>
        <time>2023-01-22T08:34:39.000Z</time>
      </trkpt>
      <trkpt lat="41.351584" lon="2.026993">
        <ele>33.929428</ele>
        <time>2023-01-22T08:34:41.000Z</time>
      </trkpt>
      <trkpt lat="41.351233" lon="2.027056">
        <ele>32.982654</ele>
        <time>2023-01-22T08:34:45.000Z</time>
      </trkpt>
      <trkpt lat="41.350842" lon="2.027152">
        <ele>31.919825</ele>
        <time>2023-01-22T08:34:50.000Z</time>
      </trkpt>
      <trkpt lat="41.350782" lon="2.027167">
        <ele>31.756633</ele>
        <time>2023-01-22T08:34:51.000Z</time>
      </trkpt>
      <trkpt lat="41.350622" lon="2.027194">
        <ele>31.325502</ele>
        <time>2023-01-22T08:34:54.000Z</time>
      </trkpt>
      <trkpt lat="41.350575" lon="2.027169">
        <ele>31.190215</ele>
        <time>2023-01-22T08:34:55.000Z</time>
      </trkpt>
      <trkpt lat="41.350537" lon="2.027120">
        <ele>31.048838</ele>
        <time>2023-01-22T08:34:56.000Z</time>
      </trkpt>
      <trkpt lat="41.350458" lon="2.027031">
        <ele>30.772259</ele>
        <time>2023-01-22T08:34:58.000Z</time>
      </trkpt>
      <trkpt lat="41.350407" lon="2.026998">
        <ele>30.620693</ele>
        <time>2023-01-22T08:34:59.000Z</time>
      </trkpt>
      <trkpt lat="41.350317" lon="2.026956">
        <ele>30.365769</ele>
        <time>2023-01-22T08:35:01.000Z</time>
      </trkpt>
      <trkpt lat="41.350256" lon="2.026945">
        <ele>30.201216</ele>
        <time>2023-01-22T08:35:03.000Z</time>
      </trkpt>
      <trkpt lat="41.350177" lon="2.026861">
        <ele>29.931007</ele>
        <time>2023-01-22T08:35:07.000Z</time>
      </trkpt>
      <trkpt lat="41.350124" lon="2.026650">
        <ele>30.103481</ele>
        <time>2023-01-22T08:35:13.000Z</time>
      </trkpt>
      <trkpt lat="41.350065" lon="2.026369">
        <ele>30.565308</ele>
        <time>2023-01-22T08:35:20.000Z</time>
      </trkpt>
      <trkpt lat="41.350062" lon="2.026348">
        <ele>30.599142</ele>
        <time>2023-01-22T08:35:24.000Z</time>
      </trkpt>
      <trkpt lat="41.350062" lon="2.026348">
        <ele>30.599142</ele>
        <time>2023-01-22T08:35:32.000Z</time>
      </trkpt>
      <trkpt lat="41.350056" lon="2.026325">
        <ele>30.637681</ele>
        <time>2023-01-22T08:35:53.000Z</time>
      </trkpt>
      <trkpt lat="41.350038" lon="2.026232">
        <ele>30.789692</ele>
        <time>2023-01-22T08:35:57.000Z</time>
      </trkpt>
      <trkpt lat="41.350026" lon="2.026163">
        <ele>30.901796</ele>
        <time>2023-01-22T08:35:59.000Z</time>
      </trkpt>
      <trkpt lat="41.349960" lon="2.025926">
        <ele>31.301891</ele>
        <time>2023-01-22T08:36:04.000Z</time>
      </trkpt>
      <trkpt lat="41.349814" lon="2.025515">
        <ele>32.021568</ele>
        <time>2023-01-22T08:36:12.000Z</time>
      </trkpt>
      <trkpt lat="41.349772" lon="2.025416">
        <ele>32.201554</ele>
        <time>2023-01-22T08:36:14.000Z</time>
      </trkpt>
      <trkpt lat="41.349629" lon="2.025119">
        <ele>32.760020</ele>
        <time>2023-01-22T08:36:20.000Z</time>
      </trkpt>
      <trkpt lat="41.349606" lon="2.025071">
        <ele>32.850151</ele>
        <time>2023-01-22T08:36:21.000Z</time>
      </trkpt>
      <trkpt lat="41.349429" lon="2.024735">
        <ele>33.499841</ele>
        <time>2023-01-22T08:36:28.000Z</time>
      </trkpt>
      <trkpt lat="41.349375" lon="2.024650">
        <ele>33.705059</ele>
        <time>2023-01-22T08:36:30.000Z</time>
      </trkpt>
      <trkpt lat="41.349296" lon="2.024512">
        <ele>34.129232</ele>
        <time>2023-01-22T08:36:33.000Z</time>
      </trkpt>
      <trkpt lat="41.349169" lon="2.024294">
        <ele>34.803677</ele>
        <time>2023-01-22T08:36:38.000Z</time>
      </trkpt>
      <trkpt lat="41.349115" lon="2.024208">
        <ele>35.077709</ele>
        <time>2023-01-22T08:36:40.000Z</time>
      </trkpt>
      <trkpt lat="41.349004" lon="2.024036">
        <ele>35.632091</ele>
        <time>2023-01-22T08:36:44.000Z</time>
      </trkpt>
      <trkpt lat="41.348976" lon="2.023999">
        <ele>35.760500</ele>
        <time>2023-01-22T08:36:45.000Z</time>
      </trkpt>
      <trkpt lat="41.348951" lon="2.023959">
        <ele>35.887715</ele>
        <time>2023-01-22T08:36:46.000Z</time>
      </trkpt>
      <trkpt lat="41.348764" lon="2.023654">
        <ele>36.850217</ele>
        <time>2023-01-22T08:36:53.000Z</time>
      </trkpt>
      <trkpt lat="41.348621" lon="2.023500">
        <ele>37.448921</ele>
        <time>2023-01-22T08:36:58.000Z</time>
      </trkpt>
      <trkpt lat="41.348553" lon="2.023489">
        <ele>37.671944</ele>
        <time>2023-01-22T08:37:00.000Z</time>
      </trkpt>
      <trkpt lat="41.348483" lon="2.023500">
        <ele>37.901433</ele>
        <time>2023-01-22T08:37:02.000Z</time>
      </trkpt>
      <trkpt lat="41.348182" lon="2.023554">
        <ele>38.890287</ele>
        <time>2023-01-22T08:37:09.000Z</time>
      </trkpt>
      <trkpt lat="41.347838" lon="2.023644">
        <ele>40.209806</ele>
        <time>2023-01-22T08:37:16.000Z</time>
      </trkpt>
      <trkpt lat="41.347634" lon="2.023719">
        <ele>41.120853</ele>
        <time>2023-01-22T08:37:21.000Z</time>
      </trkpt>
      <trkpt lat="41.347602" lon="2.023735">
        <ele>41.267997</ele>
        <time>2023-01-22T08:37:22.000Z</time>
      </trkpt>
      <trkpt lat="41.347558" lon="2.023758">
        <ele>41.471478</ele>
        <time>2023-01-22T08:37:23.000Z</time>
      </trkpt>
      <trkpt lat="41.347521" lon="2.023781">
        <ele>41.647252</ele>
        <time>2023-01-22T08:37:24.000Z</time>
      </trkpt>
      <trkpt lat="41.347382" lon="2.023884">
        <ele>42.331998</ele>
        <time>2023-01-22T08:37:28.000Z</time>
      </trkpt>
      <trkpt lat="41.347349" lon="2.023909">
        <ele>42.495430</ele>
        <time>2023-01-22T08:37:29.000Z</time>
      </trkpt>
      <trkpt lat="41.347279" lon="2.023958">
        <ele>42.835853</ele>
        <time>2023-01-22T08:37:31.000Z</time>
      </trkpt>
      <trkpt lat="41.347143" lon="2.024044">
        <ele>43.483950</ele>
        <time>2023-01-22T08:37:35.000Z</time>
      </trkpt>
      <trkpt lat="41.346994" lon="2.024155">
        <ele>44.218888</ele>
        <time>2023-01-22T08:37:39.000Z</time>
      </trkpt>
      <trkpt lat="41.346959" lon="2.024183">
        <ele>44.394647</ele>
        <time>2023-01-22T08:37:40.000Z</time>
      </trkpt>
      <trkpt lat="41.346849" lon="2.024281">
        <ele>44.964346</ele>
        <time>2023-01-22T08:37:44.000Z</time>
      </trkpt>
      <trkpt lat="41.346765" lon="2.024349">
        <ele>45.387505</ele>
        <time>2023-01-22T08:37:47.000Z</time>
      </trkpt>
      <trkpt lat="41.346680" lon="2.024414">
        <ele>45.809439</ele>
        <time>2023-01-22T08:37:51.000Z</time>
      </trkpt>
      <trkpt lat="41.346661" lon="2.024421">
        <ele>45.894304</ele>
        <time>2023-01-22T08:37:52.000Z</time>
      </trkpt>
      <trkpt lat="41.346625" lon="2.024453">
        <ele>46.080621</ele>
        <time>2023-01-22T08:37:56.000Z</time>
      </trkpt>
      <trkpt lat="41.346620" lon="2.024454">
        <ele>46.102387</ele>
        <time>2023-01-22T08:37:57.000Z</time>
      </trkpt>
      <trkpt lat="41.346617" lon="2.024463">
        <ele>46.134212</ele>
        <time>2023-01-22T08:38:18.000Z</time>
      </trkpt>
      <trkpt lat="41.346617" lon="2.024463">
        <ele>46.134212</ele>
        <time>2023-01-22T08:38:33.000Z</time>
      </trkpt>
      <trkpt lat="41.346582" lon="2.024481">
        <ele>46.295725</ele>
        <time>2023-01-22T08:38:41.000Z</time>
      </trkpt>
      <trkpt lat="41.346550" lon="2.024504">
        <ele>46.452259</ele>
        <time>2023-01-22T08:38:43.000Z</time>
      </trkpt>
      <trkpt lat="41.346480" lon="2.024528">
        <ele>46.763429</ele>
        <time>2023-01-22T08:38:47.000Z</time>
      </trkpt>
      <trkpt lat="41.346447" lon="2.024490">
        <ele>46.951217</ele>
        <time>2023-01-22T08:38:49.000Z</time>
      </trkpt>
      <trkpt lat="41.346417" lon="2.024315">
        <ele>47.593269</ele>
        <time>2023-01-22T08:38:53.000Z</time>
      </trkpt>
      <trkpt lat="41.346404" lon="2.023928">
        <ele>49.095863</ele>
        <time>2023-01-22T08:38:59.000Z</time>
      </trkpt>
      <trkpt lat="41.346386" lon="2.023734">
        <ele>49.854074</ele>
        <time>2023-01-22T08:39:02.000Z</time>
      </trkpt>
      <trkpt lat="41.346348" lon="2.023429">
        <ele>51.053287</ele>
        <time>2023-01-22T08:39:07.000Z</time>
      </trkpt>
      <trkpt lat="41.346343" lon="2.023388">
        <ele>51.214402</ele>
        <time>2023-01-22T08:39:08.000Z</time>
      </trkpt>
      <trkpt lat="41.346342" lon="2.023297">
        <ele>51.567411</ele>
        <time>2023-01-22T08:39:11.000Z</time>
      </trkpt>
      <trkpt lat="41.346340" lon="2.023229">
        <ele>51.831371</ele>
        <time>2023-01-22T08:39:13.000Z</time>
      </trkpt>
      <trkpt lat="41.346354" lon="2.023020">
        <ele>52.645260</ele>
        <time>2023-01-22T08:39:18.000Z</time>
      </trkpt>
      <trkpt lat="41.346359" lon="2.022971">
        <ele>52.837068</ele>
        <time>2023-01-22T08:39:19.000Z</time>
      </trkpt>
      <trkpt lat="41.346385" lon="2.022718">
        <ele>53.827555</ele>
        <time>2023-01-22T08:39:24.000Z</time>
      </trkpt>
      <trkpt lat="41.346386" lon="2.022585">
        <ele>54.343460</ele>
        <time>2023-01-22T08:39:27.000Z</time>
      </trkpt>
      <trkpt lat="41.346387" lon="2.022544">
        <ele>54.502575</ele>
        <time>2023-01-22T08:39:28.000Z</time>
      </trkpt>
      <trkpt lat="41.346389" lon="2.022418">
        <ele>54.991412</ele>
        <time>2023-01-22T08:39:31.000Z</time>
      </trkpt>
      <trkpt lat="41.346390" lon="2.022265">
        <ele>55.584889</ele>
        <time>2023-01-22T08:39:34.000Z</time>
      </trkpt>
      <trkpt lat="41.346391" lon="2.022214">
        <ele>55.782775</ele>
        <time>2023-01-22T08:39:35.000Z</time>
      </trkpt>
      <trkpt lat="41.346398" lon="2.021962">
        <ele>56.806183</ele>
        <time>2023-01-22T08:39:40.000Z</time>
      </trkpt>
      <trkpt lat="41.346399" lon="2.021802">
        <ele>57.541138</ele>
        <time>2023-01-22T08:39:43.000Z</time>
      </trkpt>
      <trkpt lat="41.346403" lon="2.021544">
        <ele>58.726463</ele>
        <time>2023-01-22T08:39:47.000Z</time>
      </trkpt>
      <trkpt lat="41.346400" lon="2.021373">
        <ele>59.512132</ele>
        <time>2023-01-22T08:39:50.000Z</time>
      </trkpt>
      <trkpt lat="41.346396" lon="2.021316">
        <ele>59.775092</ele>
        <time>2023-01-22T08:39:51.000Z</time>
      </trkpt>
      <trkpt lat="41.346351" lon="2.020989">
        <ele>61.302130</ele>
        <time>2023-01-22T08:39:57.000Z</time>
      </trkpt>
      <trkpt lat="41.346341" lon="2.020935">
        <ele>61.557604</ele>
        <time>2023-01-22T08:39:58.000Z</time>
      </trkpt>
      <trkpt lat="41.346272" lon="2.020667">
        <ele>62.858991</ele>
        <time>2023-01-22T08:40:04.000Z</time>
      </trkpt>
      <trkpt lat="41.346257" lon="2.020628">
        <ele>63.060272</ele>
        <time>2023-01-22T08:40:05.000Z</time>
      </trkpt>
      <trkpt lat="41.346212" lon="2.020515">
        <ele>63.647821</ele>
        <time>2023-01-22T08:40:08.000Z</time>
      </trkpt>
      <trkpt lat="41.346149" lon="2.020357">
        <ele>64.469580</ele>
        <time>2023-01-22T08:40:12.000Z</time>
      </trkpt>
      <trkpt lat="41.346135" lon="2.020317">
        <ele>64.672299</ele>
        <time>2023-01-22T08:40:13.000Z</time>
      </trkpt>
      <trkpt lat="41.346093" lon="2.020162">
        <ele>65.429221</ele>
        <time>2023-01-22T08:40:17.000Z</time>
      </trkpt>
      <trkpt lat="41.346062" lon="2.020043">
        <ele>66.007800</ele>
        <time>2023-01-22T08:40:20.000Z</time>
      </trkpt>
      <trkpt lat="41.346053" lon="2.020004">
        <ele>66.195212</ele>
        <time>2023-01-22T08:40:21.000Z</time>
      </trkpt>
      <trkpt lat="41.346011" lon="2.019791">
        <ele>67.206777</ele>
        <time>2023-01-22T08:40:26.000Z</time>
      </trkpt>
      <trkpt lat="41.345986" lon="2.019652">
        <ele>67.936814</ele>
        <time>2023-01-22T08:40:29.000Z</time>
      </trkpt>
      <trkpt lat="41.345968" lon="2.019564">
        <ele>68.445448</ele>
        <time>2023-01-22T08:40:31.000Z</time>
      </trkpt>
      <trkpt lat="41.345927" lon="2.019347">
        <ele>69.693317</ele>
        <time>2023-01-22T08:40:36.000Z</time>
      </trkpt>
      <trkpt lat="41.345903" lon="2.019218">
        <ele>70.434467</ele>
        <time>2023-01-22T08:40:39.000Z</time>
      </trkpt>
      <trkpt lat="41.345887" lon="2.019133">
        <ele>70.923156</ele>
        <time>2023-01-22T08:40:41.000Z</time>
      </trkpt>
      <trkpt lat="41.345854" lon="2.018961">
        <ele>71.913169</ele>
        <time>2023-01-22T08:40:45.000Z</time>
      </trkpt>
      <trkpt lat="41.345837" lon="2.018880">
        <ele>72.382198</ele>
        <time>2023-01-22T08:40:47.000Z</time>
      </trkpt>
      <trkpt lat="41.345814" lon="2.018765">
        <ele>73.045881</ele>
        <time>2023-01-22T08:40:50.000Z</time>
      </trkpt>
      <trkpt lat="41.345786" lon="2.018570">
        <ele>74.153042</ele>
        <time>2023-01-22T08:40:55.000Z</time>
      </trkpt>
      <trkpt lat="41.345759" lon="2.018378">
        <ele>75.242385</ele>
        <time>2023-01-22T08:41:00.000Z</time>
      </trkpt>
      <trkpt lat="41.345754" lon="2.018259">
        <ele>75.907047</ele>
        <time>2023-01-22T08:41:03.000Z</time>
      </trkpt>
      <trkpt lat="41.345751" lon="2.018221">
        <ele>76.120128</ele>
        <time>2023-01-22T08:41:04.000Z</time>
      </trkpt>
      <trkpt lat="41.345746" lon="2.018071">
        <ele>76.957453</ele>
        <time>2023-01-22T08:41:08.000Z</time>
      </trkpt>
      <trkpt lat="41.345762" lon="2.017863">
        <ele>78.123472</ele>
        <time>2023-01-22T08:41:13.000Z</time>
      </trkpt>
      <trkpt lat="41.345780" lon="2.017692">
        <ele>79.086410</ele>
        <time>2023-01-22T08:41:17.000Z</time>
      </trkpt>
      <trkpt lat="41.345798" lon="2.017493">
        <ele>80.204193</ele>
        <time>2023-01-22T08:41:22.000Z</time>
      </trkpt>
      <trkpt lat="41.345783" lon="2.017286">
        <ele>81.341930</ele>
        <time>2023-01-22T08:41:27.000Z</time>
      </trkpt>
      <trkpt lat="41.345777" lon="2.017250">
        <ele>81.538215</ele>
        <time>2023-01-22T08:41:28.000Z</time>
      </trkpt>
      <trkpt lat="41.345709" lon="2.016967">
        <ele>83.119834</ele>
        <time>2023-01-22T08:41:35.000Z</time>
      </trkpt>
      <trkpt lat="41.345634" lon="2.016684">
        <ele>84.717283</ele>
        <time>2023-01-22T08:41:41.000Z</time>
      </trkpt>
      <trkpt lat="41.345625" lon="2.016635">
        <ele>84.985792</ele>
        <time>2023-01-22T08:41:42.000Z</time>
      </trkpt>
      <trkpt lat="41.345591" lon="2.016446">
        <ele>86.020277</ele>
        <time>2023-01-22T08:41:46.000Z</time>
      </trkpt>
      <trkpt lat="41.345549" lon="2.016217">
        <ele>87.275043</ele>
        <time>2023-01-22T08:41:51.000Z</time>
      </trkpt>
      <trkpt lat="41.345504" lon="2.015988">
        <ele>88.535027</ele>
        <time>2023-01-22T08:41:56.000Z</time>
      </trkpt>
      <trkpt lat="41.345486" lon="2.015898">
        <ele>89.030786</ele>
        <time>2023-01-22T08:41:58.000Z</time>
      </trkpt>
      <trkpt lat="41.345459" lon="2.015810">
        <ele>89.536800</ele>
        <time>2023-01-22T08:42:00.000Z</time>
      </trkpt>
      <trkpt lat="41.345388" lon="2.015643">
        <ele>90.558350</ele>
        <time>2023-01-22T08:42:04.000Z</time>
      </trkpt>
      <trkpt lat="41.345306" lon="2.015484">
        <ele>91.585129</ele>
        <time>2023-01-22T08:42:08.000Z</time>
      </trkpt>
      <trkpt lat="41.345233" lon="2.015327">
        <ele>92.568108</ele>
        <time>2023-01-22T08:42:12.000Z</time>
      </trkpt>
      <trkpt lat="41.345215" lon="2.015288">
        <ele>92.811790</ele>
        <time>2023-01-22T08:42:13.000Z</time>
      </trkpt>
      <trkpt lat="41.345159" lon="2.015173">
        <ele>93.541406</ele>
        <time>2023-01-22T08:42:16.000Z</time>
      </trkpt>
      <trkpt lat="41.345084" lon="2.015010">
        <ele>94.587573</ele>
        <time>2023-01-22T08:42:20.000Z</time>
      </trkpt>
      <trkpt lat="41.345045" lon="2.014928">
        <ele>95.120201</ele>
        <time>2023-01-22T08:42:22.000Z</time>
      </trkpt>
      <trkpt lat="41.344988" lon="2.014812">
        <ele>95.880913</ele>
        <time>2023-01-22T08:42:25.000Z</time>
      </trkpt>
      <trkpt lat="41.344933" lon="2.014693">
        <ele>96.647689</ele>
        <time>2023-01-22T08:42:28.000Z</time>
      </trkpt>
      <trkpt lat="41.344917" lon="2.014652">
        <ele>96.901236</ele>
        <time>2023-01-22T08:42:29.000Z</time>
      </trkpt>
      <trkpt lat="41.344864" lon="2.014541">
        <ele>97.623045</ele>
        <time>2023-01-22T08:42:32.000Z</time>
      </trkpt>
      <trkpt lat="41.344784" lon="2.014394">
        <ele>98.619276</ele>
        <time>2023-01-22T08:42:36.000Z</time>
      </trkpt>
      <trkpt lat="41.344720" lon="2.014284">
        <ele>99.382890</ele>
        <time>2023-01-22T08:42:39.000Z</time>
      </trkpt>
      <trkpt lat="41.344628" lon="2.014148">
        <ele>100.387384</ele>
        <time>2023-01-22T08:42:43.000Z</time>
      </trkpt>
      <trkpt lat="41.344554" lon="2.014045">
        <ele>101.169646</ele>
        <time>2023-01-22T08:42:46.000Z</time>
      </trkpt>
      <trkpt lat="41.344531" lon="2.014008">
        <ele>101.433230</ele>
        <time>2023-01-22T08:42:47.000Z</time>
      </trkpt>
      <trkpt lat="41.344487" lon="2.013936">
        <ele>101.942639</ele>
        <time>2023-01-22T08:42:49.000Z</time>
      </trkpt>
      <trkpt lat="41.344424" lon="2.013824">
        <ele>102.710554</ele>
        <time>2023-01-22T08:42:52.000Z</time>
      </trkpt>
      <trkpt lat="41.344370" lon="2.013700">
        <ele>103.497136</ele>
        <time>2023-01-22T08:42:55.000Z</time>
      </trkpt>
      <trkpt lat="41.344341" lon="2.013612">
        <ele>104.024471</ele>
        <time>2023-01-22T08:42:57.000Z</time>
      </trkpt>
      <trkpt lat="41.344291" lon="2.013430">
        <ele>105.087886</ele>
        <time>2023-01-22T08:43:01.000Z</time>
      </trkpt>
      <trkpt lat="41.344212" lon="2.013038">
        <ele>107.333687</ele>
        <time>2023-01-22T08:43:09.000Z</time>
      </trkpt>
      <trkpt lat="41.344170" lon="2.012796">
        <ele>108.744174</ele>
        <time>2023-01-22T08:43:14.000Z</time>
      </trkpt>
      <trkpt lat="41.344151" lon="2.012656">
        <ele>109.552077</ele>
        <time>2023-01-22T08:43:17.000Z</time>
      </trkpt>
      <trkpt lat="41.344137" lon="2.012566">
        <ele>110.074016</ele>
        <time>2023-01-22T08:43:19.000Z</time>
      </trkpt>
      <trkpt lat="41.344088" lon="2.012297">
        <ele>111.645908</ele>
        <time>2023-01-22T08:43:25.000Z</time>
      </trkpt>
      <trkpt lat="41.344077" lon="2.012250">
        <ele>111.925475</ele>
        <time>2023-01-22T08:43:26.000Z</time>
      </trkpt>
      <trkpt lat="41.344051" lon="2.012155">
        <ele>112.499681</ele>
        <time>2023-01-22T08:43:28.000Z</time>
      </trkpt>
      <trkpt lat="41.344004" lon="2.011968">
        <ele>113.619528</ele>
        <time>2023-01-22T08:43:32.000Z</time>
      </trkpt>
      <trkpt lat="41.343990" lon="2.011920">
        <ele>113.911954</ele>
        <time>2023-01-22T08:43:33.000Z</time>
      </trkpt>
      <trkpt lat="41.343939" lon="2.011728">
        <ele>115.068499</ele>
        <time>2023-01-22T08:43:37.000Z</time>
      </trkpt>
      <trkpt lat="41.343894" lon="2.011539">
        <ele>116.194458</ele>
        <time>2023-01-22T08:43:41.000Z</time>
      </trkpt>
      <trkpt lat="41.343851" lon="2.011355">
        <ele>117.288796</ele>
        <time>2023-01-22T08:43:45.000Z</time>
      </trkpt>
      <trkpt lat="41.343812" lon="2.011174">
        <ele>118.358140</ele>
        <time>2023-01-22T08:43:49.000Z</time>
      </trkpt>
      <trkpt lat="41.343799" lon="2.011086">
        <ele>118.867451</ele>
        <time>2023-01-22T08:43:51.000Z</time>
      </trkpt>
      <trkpt lat="41.343795" lon="2.011042">
        <ele>119.119140</ele>
        <time>2023-01-22T08:43:52.000Z</time>
      </trkpt>
      <trkpt lat="41.343795" lon="2.010914">
        <ele>119.846018</ele>
        <time>2023-01-22T08:43:55.000Z</time>
      </trkpt>
      <trkpt lat="41.343798" lon="2.010786">
        <ele>120.581398</ele>
        <time>2023-01-22T08:43:58.000Z</time>
      </trkpt>
      <trkpt lat="41.343799" lon="2.010744">
        <ele>120.830303</ele>
        <time>2023-01-22T08:43:59.000Z</time>
      </trkpt>
      <trkpt lat="41.343795" lon="2.010576">
        <ele>121.825924</ele>
        <time>2023-01-22T08:44:03.000Z</time>
      </trkpt>
      <trkpt lat="41.343767" lon="2.010453">
        <ele>122.587251</ele>
        <time>2023-01-22T08:44:06.000Z</time>
      </trkpt>
      <trkpt lat="41.343721" lon="2.010341">
        <ele>123.343450</ele>
        <time>2023-01-22T08:44:09.000Z</time>
      </trkpt>
      <trkpt lat="41.343669" lon="2.010235">
        <ele>124.093481</ele>
        <time>2023-01-22T08:44:12.000Z</time>
      </trkpt>
      <trkpt lat="41.343627" lon="2.010167">
        <ele>124.615061</ele>
        <time>2023-01-22T08:44:14.000Z</time>
      </trkpt>
      <trkpt lat="41.343552" lon="2.010024">
        <ele>125.648321</ele>
        <time>2023-01-22T08:44:18.000Z</time>
      </trkpt>
      <trkpt lat="41.343491" lon="2.009926">
        <ele>126.402374</ele>
        <time>2023-01-22T08:44:21.000Z</time>
      </trkpt>
      <trkpt lat="41.343457" lon="2.009854">
        <ele>126.906206</ele>
        <time>2023-01-22T08:44:23.000Z</time>
      </trkpt>
      <trkpt lat="41.343377" lon="2.009673">
        <ele>128.150335</ele>
        <time>2023-01-22T08:44:28.000Z</time>
      </trkpt>
      <trkpt lat="41.343365" lon="2.009635">
        <ele>128.394524</ele>
        <time>2023-01-22T08:44:29.000Z</time>
      </trkpt>
      <trkpt lat="41.343347" lon="2.009385">
        <ele>129.882163</ele>
        <time>2023-01-22T08:44:35.000Z</time>
      </trkpt>
      <trkpt lat="41.343350" lon="2.009343">
        <ele>130.132068</ele>
        <time>2023-01-22T08:44:36.000Z</time>
      </trkpt>
      <trkpt lat="41.343362" lon="2.009075">
        <ele>131.722354</ele>
        <time>2023-01-22T08:44:42.000Z</time>
      </trkpt>
      <trkpt lat="41.343368" lon="2.008939">
        <ele>132.529323</ele>
        <time>2023-01-22T08:44:45.000Z</time>
      </trkpt>
      <trkpt lat="41.343370" lon="2.008893">
        <ele>132.802254</ele>
        <time>2023-01-22T08:44:46.000Z</time>
      </trkpt>
      <trkpt lat="41.343385" lon="2.008720">
        <ele>133.833810</ele>
        <time>2023-01-22T08:44:50.000Z</time>
      </trkpt>
      <trkpt lat="41.343391" lon="2.008548">
        <ele>134.854662</ele>
        <time>2023-01-22T08:44:54.000Z</time>
      </trkpt>
      <trkpt lat="41.343392" lon="2.008411">
        <ele>135.668919</ele>
        <time>2023-01-22T08:44:57.000Z</time>
      </trkpt>
      <trkpt lat="41.343380" lon="2.008179">
        <ele>137.051010</ele>
        <time>2023-01-22T08:45:02.000Z</time>
      </trkpt>
      <trkpt lat="41.343372" lon="2.008042">
        <ele>137.867688</ele>
        <time>2023-01-22T08:45:05.000Z</time>
      </trkpt>
      <trkpt lat="41.343363" lon="2.007952">
        <ele>138.407301</ele>
        <time>2023-01-22T08:45:07.000Z</time>
      </trkpt>
      <trkpt lat="41.343351" lon="2.007771">
        <ele>139.487207</ele>
        <time>2023-01-22T08:45:11.000Z</time>
      </trkpt>
      <trkpt lat="41.343341" lon="2.007679">
        <ele>140.039683</ele>
        <time>2023-01-22T08:45:13.000Z</time>
      </trkpt>
      <trkpt lat="41.343333" lon="2.007584">
        <ele>140.607828</ele>
        <time>2023-01-22T08:45:15.000Z</time>
      </trkpt>
      <trkpt lat="41.343318" lon="2.007406">
        <ele>141.672362</ele>
        <time>2023-01-22T08:45:19.000Z</time>
      </trkpt>
      <trkpt lat="41.343303" lon="2.007227">
        <ele>142.742803</ele>
        <time>2023-01-22T08:45:23.000Z</time>
      </trkpt>
      <trkpt lat="41.343277" lon="2.007049">
        <ele>143.820530</ele>
        <time>2023-01-22T08:45:27.000Z</time>
      </trkpt>
      <trkpt lat="41.343270" lon="2.006963">
        <ele>144.334642</ele>
        <time>2023-01-22T08:45:29.000Z</time>
      </trkpt>
      <trkpt lat="41.343265" lon="2.006920">
        <ele>144.593247</ele>
        <time>2023-01-22T08:45:30.000Z</time>
      </trkpt>
      <trkpt lat="41.343244" lon="2.006703">
        <ele>145.893594</ele>
        <time>2023-01-22T08:45:35.000Z</time>
      </trkpt>
      <trkpt lat="41.343230" lon="2.006568">
        <ele>146.703546</ele>
        <time>2023-01-22T08:45:38.000Z</time>
      </trkpt>
      <trkpt lat="41.343217" lon="2.006487">
        <ele>147.195824</ele>
        <time>2023-01-22T08:45:40.000Z</time>
      </trkpt>
      <trkpt lat="41.343186" lon="2.006363">
        <ele>147.972568</ele>
        <time>2023-01-22T08:45:43.000Z</time>
      </trkpt>
      <trkpt lat="41.343152" lon="2.006290">
        <ele>148.483129</ele>
        <time>2023-01-22T08:45:45.000Z</time>
      </trkpt>
      <trkpt lat="41.343104" lon="2.006234">
        <ele>148.816081</ele>
        <time>2023-01-22T08:45:47.000Z</time>
      </trkpt>
      <trkpt lat="41.342979" lon="2.006157">
        <ele>148.832618</ele>
        <time>2023-01-22T08:45:51.000Z</time>
      </trkpt>
      <trkpt lat="41.342862" lon="2.006107">
        <ele>148.847373</ele>
        <time>2023-01-22T08:45:55.000Z</time>
      </trkpt>
      <trkpt lat="41.342802" lon="2.006082">
        <ele>148.854922</ele>
        <time>2023-01-22T08:45:57.000Z</time>
      </trkpt>
      <trkpt lat="41.342723" lon="2.006048">
        <ele>148.864891</ele>
        <time>2023-01-22T08:46:00.000Z</time>
      </trkpt>
      <trkpt lat="41.342630" lon="2.006001">
        <ele>148.876836</ele>
        <time>2023-01-22T08:46:05.000Z</time>
      </trkpt>
      <trkpt lat="41.342612" lon="2.005992">
        <ele>148.879144</ele>
        <time>2023-01-22T08:46:10.000Z</time>
      </trkpt>
      <trkpt lat="41.342612" lon="2.005992">
        <ele>148.879144</ele>
        <time>2023-01-22T08:46:22.000Z</time>
      </trkpt>
      <trkpt lat="41.342612" lon="2.005992">
        <ele>148.879144</ele>
        <time>2023-01-22T08:46:46.000Z</time>
      </trkpt>
      <trkpt lat="41.342612" lon="2.005992">
        <ele>148.879144</ele>
        <time>2023-01-22T08:47:25.000Z</time>
      </trkpt>
      <trkpt lat="41.342612" lon="2.005992">
        <ele>148.879144</ele>
        <time>2023-01-22T08:47:42.000Z</time>
      </trkpt>
      <trkpt lat="41.342612" lon="2.005992">
        <ele>148.879144</ele>
        <time>2023-01-22T08:47:53.000Z</time>
      </trkpt>
      <trkpt lat="41.342612" lon="2.005992">
        <ele>148.879144</ele>
        <time>2023-01-22T08:48:09.000Z</time>
      </trkpt>
      <trkpt lat="41.342612" lon="2.005992">
        <ele>148.879144</ele>
        <time>2023-01-22T08:48:35.000Z</time>
      </trkpt>
      <trkpt lat="41.342612" lon="2.005992">
        <ele>148.879144</ele>
        <time>2023-01-22T08:49:11.000Z</time>
      </trkpt>
      <trkpt lat="41.342557" lon="2.005983">
        <ele>148.885798</ele>
        <time>2023-01-22T08:49:31.000Z</time>
      </trkpt>
      <trkpt lat="41.342409" lon="2.005912">
        <ele>148.904688</ele>
        <time>2023-01-22T08:49:35.000Z</time>
      </trkpt>
      <trkpt lat="41.342309" lon="2.005858">
        <ele>148.917645</ele>
        <time>2023-01-22T08:49:37.000Z</time>
      </trkpt>
      <trkpt lat="41.342204" lon="2.005762">
        <ele>148.932938</ele>
        <time>2023-01-22T08:49:39.000Z</time>
      </trkpt>
      <trkpt lat="41.342108" lon="2.005621">
        <ele>148.950099</ele>
        <time>2023-01-22T08:49:41.000Z</time>
      </trkpt>
      <trkpt lat="41.342036" lon="2.005440">
        <ele>148.968565</ele>
        <time>2023-01-22T08:49:43.000Z</time>
      </trkpt>
      <trkpt lat="41.341997" lon="2.005343">
        <ele>148.978485</ele>
        <time>2023-01-22T08:49:44.000Z</time>
      </trkpt>
      <trkpt lat="41.341900" lon="2.005154">
        <ele>148.999125</ele>
        <time>2023-01-22T08:49:46.000Z</time>
      </trkpt>
      <trkpt lat="41.341842" lon="2.005071">
        <ele>149.009348</ele>
        <time>2023-01-22T08:49:47.000Z</time>
      </trkpt>
      <trkpt lat="41.341649" lon="2.004880">
        <ele>148.540274</ele>
        <time>2023-01-22T08:49:50.000Z</time>
      </trkpt>
      <trkpt lat="41.341505" lon="2.004740">
        <ele>147.351623</ele>
        <time>2023-01-22T08:49:52.000Z</time>
      </trkpt>
      <trkpt lat="41.341336" lon="2.004582">
        <ele>145.974981</ele>
        <time>2023-01-22T08:49:54.000Z</time>
      </trkpt>
      <trkpt lat="41.341183" lon="2.004428">
        <ele>144.696367</ele>
        <time>2023-01-22T08:49:56.000Z</time>
      </trkpt>
      <trkpt lat="41.341034" lon="2.004266">
        <ele>143.413986</ele>
        <time>2023-01-22T08:49:58.000Z</time>
      </trkpt>
      <trkpt lat="41.340964" lon="2.004174">
        <ele>142.758314</ele>
        <time>2023-01-22T08:49:59.000Z</time>
      </trkpt>
      <trkpt lat="41.340915" lon="2.004091">
        <ele>142.229776</ele>
        <time>2023-01-22T08:50:00.000Z</time>
      </trkpt>
      <trkpt lat="41.340857" lon="2.003977">
        <ele>141.540438</ele>
        <time>2023-01-22T08:50:01.000Z</time>
      </trkpt>
      <trkpt lat="41.340791" lon="2.003843">
        <ele>140.738209</ele>
        <time>2023-01-22T08:50:02.000Z</time>
      </trkpt>
      <trkpt lat="41.340699" lon="2.003626">
        <ele>139.490735</ele>
        <time>2023-01-22T08:50:04.000Z</time>
      </trkpt>
      <trkpt lat="41.340664" lon="2.003526">
        <ele>138.938438</ele>
        <time>2023-01-22T08:50:05.000Z</time>
      </trkpt>
      <trkpt lat="41.340644" lon="2.003427">
        <ele>138.425240</ele>
        <time>2023-01-22T08:50:06.000Z</time>
      </trkpt>
      <trkpt lat="41.340648" lon="2.003333">
        <ele>137.953942</ele>
        <time>2023-01-22T08:50:07.000Z</time>
      </trkpt>
      <trkpt lat="41.340670" lon="2.003247">
        <ele>137.499143</ele>
        <time>2023-01-22T08:50:08.000Z</time>
      </trkpt>
      <trkpt lat="41.340709" lon="2.003159">
        <ele>136.988361</ele>
        <time>2023-01-22T08:50:09.000Z</time>
      </trkpt>
      <trkpt lat="41.340749" lon="2.003068">
        <ele>136.468415</ele>
        <time>2023-01-22T08:50:10.000Z</time>
      </trkpt>
      <trkpt lat="41.340773" lon="2.002964">
        <ele>135.931936</ele>
        <time>2023-01-22T08:50:11.000Z</time>
      </trkpt>
      <trkpt lat="41.340769" lon="2.002866">
        <ele>135.448004</ele>
        <time>2023-01-22T08:50:12.000Z</time>
      </trkpt>
      <trkpt lat="41.340734" lon="2.002772">
        <ele>134.930643</ele>
        <time>2023-01-22T08:50:13.000Z</time>
      </trkpt>
      <trkpt lat="41.340679" lon="2.002684">
        <ele>134.366063</ele>
        <time>2023-01-22T08:50:14.000Z</time>
      </trkpt>
      <trkpt lat="41.340613" lon="2.002603">
        <ele>133.776660</ele>
        <time>2023-01-22T08:50:15.000Z</time>
      </trkpt>
      <trkpt lat="41.340457" lon="2.002467">
        <ele>132.552188</ele>
        <time>2023-01-22T08:50:17.000Z</time>
      </trkpt>
      <trkpt lat="41.340290" lon="2.002343">
        <ele>131.296511</ele>
        <time>2023-01-22T08:50:19.000Z</time>
      </trkpt>
      <trkpt lat="41.340127" lon="2.002195">
        <ele>130.000938</ele>
        <time>2023-01-22T08:50:21.000Z</time>
      </trkpt>
      <trkpt lat="41.340055" lon="2.002104">
        <ele>129.349072</ele>
        <time>2023-01-22T08:50:22.000Z</time>
      </trkpt>
      <trkpt lat="41.339993" lon="2.001996">
        <ele>128.678709</ele>
        <time>2023-01-22T08:50:23.000Z</time>
      </trkpt>
      <trkpt lat="41.339875" lon="2.001763">
        <ele>127.292885</ele>
        <time>2023-01-22T08:50:25.000Z</time>
      </trkpt>
      <trkpt lat="41.339813" lon="2.001649">
        <ele>126.598786</ele>
        <time>2023-01-22T08:50:26.000Z</time>
      </trkpt>
      <trkpt lat="41.339752" lon="2.001532">
        <ele>125.896420</ele>
        <time>2023-01-22T08:50:27.000Z</time>
      </trkpt>
      <trkpt lat="41.339621" lon="2.001293">
        <ele>124.418437</ele>
        <time>2023-01-22T08:50:29.000Z</time>
      </trkpt>
      <trkpt lat="41.339485" lon="2.001050">
        <ele>122.888140</ele>
        <time>2023-01-22T08:50:31.000Z</time>
      </trkpt>
      <trkpt lat="41.339417" lon="2.000931">
        <ele>122.133073</ele>
        <time>2023-01-22T08:50:32.000Z</time>
      </trkpt>
      <trkpt lat="41.339349" lon="2.000815">
        <ele>121.390003</ele>
        <time>2023-01-22T08:50:33.000Z</time>
      </trkpt>
      <trkpt lat="41.339207" lon="2.000601">
        <ele>119.947994</ele>
        <time>2023-01-22T08:50:35.000Z</time>
      </trkpt>
      <trkpt lat="41.339132" lon="2.000498">
        <ele>119.223532</ele>
        <time>2023-01-22T08:50:36.000Z</time>
      </trkpt>
      <trkpt lat="41.339055" lon="2.000397">
        <ele>118.496764</ele>
        <time>2023-01-22T08:50:37.000Z</time>
      </trkpt>
      <trkpt lat="41.338977" lon="2.000298">
        <ele>117.772192</ele>
        <time>2023-01-22T08:50:38.000Z</time>
      </trkpt>
      <trkpt lat="41.338815" lon="2.000107">
        <ele>116.317238</ele>
        <time>2023-01-22T08:50:40.000Z</time>
      </trkpt>
      <trkpt lat="41.338659" lon="1.999938">
        <ele>114.964945</ele>
        <time>2023-01-22T08:50:42.000Z</time>
      </trkpt>
      <trkpt lat="41.338588" lon="1.999857">
        <ele>114.336265</ele>
        <time>2023-01-22T08:50:43.000Z</time>
      </trkpt>
      <trkpt lat="41.338520" lon="1.999778">
        <ele>113.729451</ele>
        <time>2023-01-22T08:50:44.000Z</time>
      </trkpt>
      <trkpt lat="41.338462" lon="1.999692">
        <ele>113.145768</ele>
        <time>2023-01-22T08:50:45.000Z</time>
      </trkpt>
      <trkpt lat="41.338424" lon="1.999599">
        <ele>112.718580</ele>
        <time>2023-01-22T08:50:46.000Z</time>
      </trkpt>
      <trkpt lat="41.338414" lon="1.999499">
        <ele>112.314818</ele>
        <time>2023-01-22T08:50:47.000Z</time>
      </trkpt>
      <trkpt lat="41.338430" lon="1.999396">
        <ele>111.893854</ele>
        <time>2023-01-22T08:50:48.000Z</time>
      </trkpt>
      <trkpt lat="41.338468" lon="1.999296">
        <ele>111.445287</ele>
        <time>2023-01-22T08:50:49.000Z</time>
      </trkpt>
      <trkpt lat="41.338516" lon="1.999204">
        <ele>110.996906</ele>
        <time>2023-01-22T08:50:50.000Z</time>
      </trkpt>
      <trkpt lat="41.338568" lon="1.999120">
        <ele>110.561181</ele>
        <time>2023-01-22T08:50:51.000Z</time>
      </trkpt>
      <trkpt lat="41.338622" lon="1.999050">
        <ele>110.159502</ele>
        <time>2023-01-22T08:50:52.000Z</time>
      </trkpt>
      <trkpt lat="41.338758" lon="1.998999">
        <ele>109.406364</ele>
        <time>2023-01-22T08:50:54.000Z</time>
      </trkpt>
      <trkpt lat="41.338925" lon="1.999028">
        <ele>108.508631</ele>
        <time>2023-01-22T08:50:56.000Z</time>
      </trkpt>
      <trkpt lat="41.339105" lon="1.999076">
        <ele>107.530093</ele>
        <time>2023-01-22T08:50:58.000Z</time>
      </trkpt>
      <trkpt lat="41.339283" lon="1.999142">
        <ele>106.545178</ele>
        <time>2023-01-22T08:51:00.000Z</time>
      </trkpt>
      <trkpt lat="41.339440" lon="1.999250">
        <ele>105.603254</ele>
        <time>2023-01-22T08:51:02.000Z</time>
      </trkpt>
      <trkpt lat="41.339507" lon="1.999317">
        <ele>105.156649</ele>
        <time>2023-01-22T08:51:03.000Z</time>
      </trkpt>
      <trkpt lat="41.339757" lon="1.999604">
        <ele>103.469449</ele>
        <time>2023-01-22T08:51:07.000Z</time>
      </trkpt>
      <trkpt lat="41.340041" lon="1.999943">
        <ele>102.453511</ele>
        <time>2023-01-22T08:51:12.000Z</time>
      </trkpt>
      <trkpt lat="41.340101" lon="2.000001">
        <ele>102.256012</ele>
        <time>2023-01-22T08:51:13.000Z</time>
      </trkpt>
      <trkpt lat="41.340239" lon="2.000035">
        <ele>101.882148</ele>
        <time>2023-01-22T08:51:15.000Z</time>
      </trkpt>
      <trkpt lat="41.340364" lon="1.999931">
        <ele>101.489523</ele>
        <time>2023-01-22T08:51:17.000Z</time>
      </trkpt>
      <trkpt lat="41.340390" lon="1.999753">
        <ele>101.126830</ele>
        <time>2023-01-22T08:51:19.000Z</time>
      </trkpt>
      <trkpt lat="41.340317" lon="1.999415">
        <ele>100.423380</ele>
        <time>2023-01-22T08:51:22.000Z</time>
      </trkpt>
      <trkpt lat="41.340285" lon="1.999324">
        <ele>100.222396</ele>
        <time>2023-01-22T08:51:23.000Z</time>
      </trkpt>
      <trkpt lat="41.340238" lon="1.999213">
        <ele>99.967512</ele>
        <time>2023-01-22T08:51:24.000Z</time>
      </trkpt>
      <trkpt lat="41.340119" lon="1.998970">
        <ele>99.387238</ele>
        <time>2023-01-22T08:51:26.000Z</time>
      </trkpt>
      <trkpt lat="41.340057" lon="1.998860">
        <ele>99.112129</ele>
        <time>2023-01-22T08:51:27.000Z</time>
      </trkpt>
      <trkpt lat="41.339999" lon="1.998752">
        <ele>98.846545</ele>
        <time>2023-01-22T08:51:28.000Z</time>
      </trkpt>
      <trkpt lat="41.339904" lon="1.998541">
        <ele>97.607892</ele>
        <time>2023-01-22T08:51:30.000Z</time>
      </trkpt>
      <trkpt lat="41.339880" lon="1.998423">
        <ele>96.901846</ele>
        <time>2023-01-22T08:51:31.000Z</time>
      </trkpt>
      <trkpt lat="41.339875" lon="1.998303">
        <ele>96.207745</ele>
        <time>2023-01-22T08:51:32.000Z</time>
      </trkpt>
      <trkpt lat="41.339886" lon="1.998102">
        <ele>95.043832</ele>
        <time>2023-01-22T08:51:34.000Z</time>
      </trkpt>
      <trkpt lat="41.339891" lon="1.998013">
        <ele>94.528395</ele>
        <time>2023-01-22T08:51:35.000Z</time>
      </trkpt>
      <trkpt lat="41.339885" lon="1.997921">
        <ele>93.995068</ele>
        <time>2023-01-22T08:51:36.000Z</time>
      </trkpt>
      <trkpt lat="41.339858" lon="1.997828">
        <ele>93.419210</ele>
        <time>2023-01-22T08:51:37.000Z</time>
      </trkpt>
      <trkpt lat="41.339811" lon="1.997746">
        <ele>92.823411</ele>
        <time>2023-01-22T08:51:38.000Z</time>
      </trkpt>
      <trkpt lat="41.339744" lon="1.997710">
        <ele>92.267680</ele>
        <time>2023-01-22T08:51:39.000Z</time>
      </trkpt>
      <trkpt lat="41.339607" lon="1.997745">
        <ele>91.194647</ele>
        <time>2023-01-22T08:51:41.000Z</time>
      </trkpt>
      <trkpt lat="41.339539" lon="1.997914">
        <ele>90.087295</ele>
        <time>2023-01-22T08:51:43.000Z</time>
      </trkpt>
      <trkpt lat="41.339512" lon="1.998197">
        <ele>88.439737</ele>
        <time>2023-01-22T08:51:46.000Z</time>
      </trkpt>
      <trkpt lat="41.339419" lon="1.998328">
        <ele>87.398514</ele>
        <time>2023-01-22T08:51:48.000Z</time>
      </trkpt>
      <trkpt lat="41.339357" lon="1.998328">
        <ele>86.921601</ele>
        <time>2023-01-22T08:51:49.000Z</time>
      </trkpt>
      <trkpt lat="41.339300" lon="1.998312">
        <ele>86.473518</ele>
        <time>2023-01-22T08:51:50.000Z</time>
      </trkpt>
      <trkpt lat="41.339251" lon="1.998281">
        <ele>86.056244</ele>
        <time>2023-01-22T08:51:51.000Z</time>
      </trkpt>
      <trkpt lat="41.339214" lon="1.998232">
        <ele>85.654887</ele>
        <time>2023-01-22T08:51:52.000Z</time>
      </trkpt>
      <trkpt lat="41.339130" lon="1.998025">
        <ele>84.343481</ele>
        <time>2023-01-22T08:51:54.000Z</time>
      </trkpt>
      <trkpt lat="41.339105" lon="1.997917">
        <ele>83.740919</ele>
        <time>2023-01-22T08:51:55.000Z</time>
      </trkpt>
      <trkpt lat="41.339115" lon="1.997695">
        <ele>82.555169</ele>
        <time>2023-01-22T08:51:57.000Z</time>
      </trkpt>
      <trkpt lat="41.339207" lon="1.997535">
        <ele>81.480684</ele>
        <time>2023-01-22T08:51:59.000Z</time>
      </trkpt>
      <trkpt lat="41.339393" lon="1.997289">
        <ele>79.619293</ele>
        <time>2023-01-22T08:52:02.000Z</time>
      </trkpt>
      <trkpt lat="41.339498" lon="1.997127">
        <ele>78.478259</ele>
        <time>2023-01-22T08:52:04.000Z</time>
      </trkpt>
      <trkpt lat="41.339525" lon="1.997052">
        <ele>78.034799</ele>
        <time>2023-01-22T08:52:05.000Z</time>
      </trkpt>
      <trkpt lat="41.339548" lon="1.996946">
        <ele>77.446523</ele>
        <time>2023-01-22T08:52:06.000Z</time>
      </trkpt>
      <trkpt lat="41.339516" lon="1.996741">
        <ele>76.330174</ele>
        <time>2023-01-22T08:52:08.000Z</time>
      </trkpt>
      <trkpt lat="41.339411" lon="1.996597">
        <ele>75.259945</ele>
        <time>2023-01-22T08:52:10.000Z</time>
      </trkpt>
      <trkpt lat="41.339276" lon="1.996574">
        <ele>74.293481</ele>
        <time>2023-01-22T08:52:12.000Z</time>
      </trkpt>
      <trkpt lat="41.339205" lon="1.996610">
        <ele>73.754001</ele>
        <time>2023-01-22T08:52:13.000Z</time>
      </trkpt>
      <trkpt lat="41.339128" lon="1.996691">
        <ele>73.057236</ele>
        <time>2023-01-22T08:52:14.000Z</time>
      </trkpt>
      <trkpt lat="41.339031" lon="1.996874">
        <ele>71.978680</ele>
        <time>2023-01-22T08:52:16.000Z</time>
      </trkpt>
      <trkpt lat="41.338851" lon="1.997133">
        <ele>70.877084</ele>
        <time>2023-01-22T08:52:19.000Z</time>
      </trkpt>
      <trkpt lat="41.338727" lon="1.997282">
        <ele>70.182794</ele>
        <time>2023-01-22T08:52:21.000Z</time>
      </trkpt>
      <trkpt lat="41.338651" lon="1.997341">
        <ele>69.817089</ele>
        <time>2023-01-22T08:52:22.000Z</time>
      </trkpt>
      <trkpt lat="41.338491" lon="1.997448">
        <ele>69.072787</ele>
        <time>2023-01-22T08:52:24.000Z</time>
      </trkpt>
      <trkpt lat="41.338321" lon="1.997535">
        <ele>68.315676</ele>
        <time>2023-01-22T08:52:26.000Z</time>
      </trkpt>
      <trkpt lat="41.338235" lon="1.997567">
        <ele>67.944462</ele>
        <time>2023-01-22T08:52:27.000Z</time>
      </trkpt>
      <trkpt lat="41.337825" lon="1.997711">
        <ele>66.181717</ele>
        <time>2023-01-22T08:52:32.000Z</time>
      </trkpt>
      <trkpt lat="41.337752" lon="1.997757">
        <ele>65.845984</ele>
        <time>2023-01-22T08:52:33.000Z</time>
      </trkpt>
      <trkpt lat="41.337503" lon="1.998020">
        <ele>64.555583</ele>
        <time>2023-01-22T08:52:37.000Z</time>
      </trkpt>
      <trkpt lat="41.337439" lon="1.998093">
        <ele>64.282291</ele>
        <time>2023-01-22T08:52:38.000Z</time>
      </trkpt>
      <trkpt lat="41.337378" lon="1.998171">
        <ele>64.008025</ele>
        <time>2023-01-22T08:52:39.000Z</time>
      </trkpt>
      <trkpt lat="41.337254" lon="1.998323">
        <ele>63.461440</ele>
        <time>2023-01-22T08:52:41.000Z</time>
      </trkpt>
      <trkpt lat="41.337191" lon="1.998392">
        <ele>63.196894</ele>
        <time>2023-01-22T08:52:42.000Z</time>
      </trkpt>
      <trkpt lat="41.337128" lon="1.998460">
        <ele>62.933888</ele>
        <time>2023-01-22T08:52:43.000Z</time>
      </trkpt>
      <trkpt lat="41.337066" lon="1.998526">
        <ele>62.676462</ele>
        <time>2023-01-22T08:52:44.000Z</time>
      </trkpt>
      <trkpt lat="41.336883" lon="1.998738">
        <ele>61.889817</ele>
        <time>2023-01-22T08:52:47.000Z</time>
      </trkpt>
      <trkpt lat="41.336832" lon="1.998819">
        <ele>61.632389</ele>
        <time>2023-01-22T08:52:48.000Z</time>
      </trkpt>
      <trkpt lat="41.336779" lon="1.999008">
        <ele>61.141079</ele>
        <time>2023-01-22T08:52:50.000Z</time>
      </trkpt>
      <trkpt lat="41.336784" lon="1.999219">
        <ele>60.626990</ele>
        <time>2023-01-22T08:52:52.000Z</time>
      </trkpt>
      <trkpt lat="41.336809" lon="1.999328">
        <ele>60.349443</ele>
        <time>2023-01-22T08:52:53.000Z</time>
      </trkpt>
      <trkpt lat="41.336994" lon="1.999850">
        <ele>58.943763</ele>
        <time>2023-01-22T08:52:58.000Z</time>
      </trkpt>
      <trkpt lat="41.337029" lon="1.999956">
        <ele>58.729028</ele>
        <time>2023-01-22T08:52:59.000Z</time>
      </trkpt>
      <trkpt lat="41.337059" lon="2.000058">
        <ele>58.568185</ele>
        <time>2023-01-22T08:53:00.000Z</time>
      </trkpt>
      <trkpt lat="41.337084" lon="2.000272">
        <ele>58.250198</ele>
        <time>2023-01-22T08:53:02.000Z</time>
      </trkpt>
      <trkpt lat="41.337028" lon="2.000464">
        <ele>57.947770</ele>
        <time>2023-01-22T08:53:04.000Z</time>
      </trkpt>
      <trkpt lat="41.336975" lon="2.000543">
        <ele>57.792220</ele>
        <time>2023-01-22T08:53:05.000Z</time>
      </trkpt>
      <trkpt lat="41.336790" lon="2.000749">
        <ele>57.320671</ele>
        <time>2023-01-22T08:53:08.000Z</time>
      </trkpt>
      <trkpt lat="41.336731" lon="2.000818">
        <ele>57.167129</ele>
        <time>2023-01-22T08:53:09.000Z</time>
      </trkpt>
      <trkpt lat="41.336623" lon="2.000935">
        <ele>56.894892</ele>
        <time>2023-01-22T08:53:11.000Z</time>
      </trkpt>
      <trkpt lat="41.336556" lon="2.000993">
        <ele>56.738629</ele>
        <time>2023-01-22T08:53:12.000Z</time>
      </trkpt>
      <trkpt lat="41.336105" lon="2.001330">
        <ele>55.727376</ele>
        <time>2023-01-22T08:53:18.000Z</time>
      </trkpt>
      <trkpt lat="41.336024" lon="2.001367">
        <ele>55.559924</ele>
        <time>2023-01-22T08:53:19.000Z</time>
      </trkpt>
      <trkpt lat="41.335858" lon="2.001428">
        <ele>55.245504</ele>
        <time>2023-01-22T08:53:21.000Z</time>
      </trkpt>
      <trkpt lat="41.335770" lon="2.001445">
        <ele>55.114399</ele>
        <time>2023-01-22T08:53:22.000Z</time>
      </trkpt>
      <trkpt lat="41.335682" lon="2.001450">
        <ele>54.984534</ele>
        <time>2023-01-22T08:53:23.000Z</time>
      </trkpt>
      <trkpt lat="41.335444" lon="2.001435">
        <ele>54.633235</ele>
        <time>2023-01-22T08:53:26.000Z</time>
      </trkpt>
      <trkpt lat="41.335341" lon="2.001428">
        <ele>54.481174</ele>
        <time>2023-01-22T08:53:27.000Z</time>
      </trkpt>
      <trkpt lat="41.334917" lon="2.001429">
        <ele>53.856029</ele>
        <time>2023-01-22T08:53:32.000Z</time>
      </trkpt>
      <trkpt lat="41.334755" lon="2.001437">
        <ele>53.617012</ele>
        <time>2023-01-22T08:53:34.000Z</time>
      </trkpt>
      <trkpt lat="41.334427" lon="2.001473">
        <ele>53.131770</ele>
        <time>2023-01-22T08:53:38.000Z</time>
      </trkpt>
      <trkpt lat="41.334353" lon="2.001499">
        <ele>53.018932</ele>
        <time>2023-01-22T08:53:39.000Z</time>
      </trkpt>
      <trkpt lat="41.334210" lon="2.001601">
        <ele>52.779757</ele>
        <time>2023-01-22T08:53:41.000Z</time>
      </trkpt>
      <trkpt lat="41.334148" lon="2.001658">
        <ele>52.668679</ele>
        <time>2023-01-22T08:53:42.000Z</time>
      </trkpt>
      <trkpt lat="41.333861" lon="2.001979">
        <ele>52.302412</ele>
        <time>2023-01-22T08:53:47.000Z</time>
      </trkpt>
      <trkpt lat="41.333430" lon="2.002487">
        <ele>51.743443</ele>
        <time>2023-01-22T08:53:55.000Z</time>
      </trkpt>
      <trkpt lat="41.333106" lon="2.002845">
        <ele>51.334578</ele>
        <time>2023-01-22T08:54:01.000Z</time>
      </trkpt>
      <trkpt lat="41.333053" lon="2.002883">
        <ele>51.276119</ele>
        <time>2023-01-22T08:54:02.000Z</time>
      </trkpt>
      <trkpt lat="41.332995" lon="2.002906">
        <ele>51.217347</ele>
        <time>2023-01-22T08:54:03.000Z</time>
      </trkpt>
      <trkpt lat="41.332884" lon="2.002894">
        <ele>51.109190</ele>
        <time>2023-01-22T08:54:05.000Z</time>
      </trkpt>
      <trkpt lat="41.332715" lon="2.002819">
        <ele>50.936187</ele>
        <time>2023-01-22T08:54:08.000Z</time>
      </trkpt>
      <trkpt lat="41.332613" lon="2.002754">
        <ele>50.750751</ele>
        <time>2023-01-22T08:54:10.000Z</time>
      </trkpt>
      <trkpt lat="41.332272" lon="2.002490">
        <ele>50.041520</ele>
        <time>2023-01-22T08:54:17.000Z</time>
      </trkpt>
      <trkpt lat="41.332008" lon="2.002299">
        <ele>49.501295</ele>
        <time>2023-01-22T08:54:22.000Z</time>
      </trkpt>
      <trkpt lat="41.331861" lon="2.002195">
        <ele>49.201991</ele>
        <time>2023-01-22T08:54:25.000Z</time>
      </trkpt>
      <trkpt lat="41.331759" lon="2.002144">
        <ele>49.006084</ele>
        <time>2023-01-22T08:54:27.000Z</time>
      </trkpt>
      <trkpt lat="41.331644" lon="2.002120">
        <ele>48.796779</ele>
        <time>2023-01-22T08:54:29.000Z</time>
      </trkpt>
      <trkpt lat="41.331583" lon="2.002128">
        <ele>48.686565</ele>
        <time>2023-01-22T08:54:30.000Z</time>
      </trkpt>
      <trkpt lat="41.331520" lon="2.002154">
        <ele>48.567970</ele>
        <time>2023-01-22T08:54:31.000Z</time>
      </trkpt>
      <trkpt lat="41.331405" lon="2.002246">
        <ele>48.326746</ele>
        <time>2023-01-22T08:54:33.000Z</time>
      </trkpt>
      <trkpt lat="41.331351" lon="2.002299">
        <ele>48.206128</ele>
        <time>2023-01-22T08:54:34.000Z</time>
      </trkpt>
      <trkpt lat="41.331073" lon="2.002582">
        <ele>47.583192</ele>
        <time>2023-01-22T08:54:39.000Z</time>
      </trkpt>
      <trkpt lat="41.330980" lon="2.002717">
        <ele>47.350682</ele>
        <time>2023-01-22T08:54:41.000Z</time>
      </trkpt>
      <trkpt lat="41.330922" lon="2.002883">
        <ele>47.118318</ele>
        <time>2023-01-22T08:54:43.000Z</time>
      </trkpt>
      <trkpt lat="41.330893" lon="2.003333">
        <ele>46.545112</ele>
        <time>2023-01-22T08:54:48.000Z</time>
      </trkpt>
      <trkpt lat="41.330879" lon="2.004104">
        <ele>45.566329</ele>
        <time>2023-01-22T08:54:56.000Z</time>
      </trkpt>
      <trkpt lat="41.330863" lon="2.004379">
        <ele>45.216273</ele>
        <time>2023-01-22T08:54:59.000Z</time>
      </trkpt>
      <trkpt lat="41.330853" lon="2.004565">
        <ele>44.979610</ele>
        <time>2023-01-22T08:55:01.000Z</time>
      </trkpt>
      <trkpt lat="41.330826" lon="2.005123">
        <ele>44.242881</ele>
        <time>2023-01-22T08:55:07.000Z</time>
      </trkpt>
      <trkpt lat="41.330819" lon="2.005349">
        <ele>43.934863</ele>
        <time>2023-01-22T08:55:09.000Z</time>
      </trkpt>
      <trkpt lat="41.330777" lon="2.006059">
        <ele>42.965023</ele>
        <time>2023-01-22T08:55:16.000Z</time>
      </trkpt>
      <trkpt lat="41.330755" lon="2.006268">
        <ele>42.677634</ele>
        <time>2023-01-22T08:55:18.000Z</time>
      </trkpt>
      <trkpt lat="41.330658" lon="2.006768">
        <ele>41.974400</ele>
        <time>2023-01-22T08:55:23.000Z</time>
      </trkpt>
      <trkpt lat="41.330633" lon="2.006869">
        <ele>41.829583</ele>
        <time>2023-01-22T08:55:24.000Z</time>
      </trkpt>
      <trkpt lat="41.330555" lon="2.007169">
        <ele>41.397261</ele>
        <time>2023-01-22T08:55:27.000Z</time>
      </trkpt>
      <trkpt lat="41.330473" lon="2.007349">
        <ele>41.073392</ele>
        <time>2023-01-22T08:55:29.000Z</time>
      </trkpt>
      <trkpt lat="41.330371" lon="2.007509">
        <ele>40.748051</ele>
        <time>2023-01-22T08:55:31.000Z</time>
      </trkpt>
      <trkpt lat="41.330207" lon="2.007748">
        <ele>40.246192</ele>
        <time>2023-01-22T08:55:34.000Z</time>
      </trkpt>
      <trkpt lat="41.330154" lon="2.007830">
        <ele>40.078482</ele>
        <time>2023-01-22T08:55:35.000Z</time>
      </trkpt>
      <trkpt lat="41.329992" lon="2.008076">
        <ele>39.571290</ele>
        <time>2023-01-22T08:55:38.000Z</time>
      </trkpt>
      <trkpt lat="41.329712" lon="2.008469">
        <ele>38.731526</ele>
        <time>2023-01-22T08:55:43.000Z</time>
      </trkpt>
      <trkpt lat="41.329641" lon="2.008562">
        <ele>38.525945</ele>
        <time>2023-01-22T08:55:44.000Z</time>
      </trkpt>
      <trkpt lat="41.329450" lon="2.008798">
        <ele>37.988091</ele>
        <time>2023-01-22T08:55:47.000Z</time>
      </trkpt>
      <trkpt lat="41.329300" lon="2.008936">
        <ele>37.640053</ele>
        <time>2023-01-22T08:55:49.000Z</time>
      </trkpt>
      <trkpt lat="41.329219" lon="2.008996">
        <ele>37.547810</ele>
        <time>2023-01-22T08:55:50.000Z</time>
      </trkpt>
      <trkpt lat="41.328898" lon="2.009185">
        <ele>37.198518</ele>
        <time>2023-01-22T08:55:54.000Z</time>
      </trkpt>
      <trkpt lat="41.328817" lon="2.009225">
        <ele>37.112542</ele>
        <time>2023-01-22T08:55:55.000Z</time>
      </trkpt>
      <trkpt lat="41.328529" lon="2.009405">
        <ele>36.795926</ele>
        <time>2023-01-22T08:55:59.000Z</time>
      </trkpt>
      <trkpt lat="41.328093" lon="2.009817">
        <ele>36.263873</ele>
        <time>2023-01-22T08:56:06.000Z</time>
      </trkpt>
      <trkpt lat="41.327669" lon="2.010267">
        <ele>35.596740</ele>
        <time>2023-01-22T08:56:13.000Z</time>
      </trkpt>
      <trkpt lat="41.327537" lon="2.010404">
        <ele>35.290528</ele>
        <time>2023-01-22T08:56:15.000Z</time>
      </trkpt>
      <trkpt lat="41.327268" lon="2.010678">
        <ele>34.670863</ele>
        <time>2023-01-22T08:56:19.000Z</time>
      </trkpt>
      <trkpt lat="41.326934" lon="2.011023">
        <ele>33.897446</ele>
        <time>2023-01-22T08:56:24.000Z</time>
      </trkpt>
      <trkpt lat="41.326600" lon="2.011370">
        <ele>33.122339</ele>
        <time>2023-01-22T08:56:29.000Z</time>
      </trkpt>
      <trkpt lat="41.326216" lon="2.011771">
        <ele>32.280750</ele>
        <time>2023-01-22T08:56:35.000Z</time>
      </trkpt>
      <trkpt lat="41.325734" lon="2.012278">
        <ele>31.318826</ele>
        <time>2023-01-22T08:56:43.000Z</time>
      </trkpt>
      <trkpt lat="41.325673" lon="2.012342">
        <ele>31.197208</ele>
        <time>2023-01-22T08:56:44.000Z</time>
      </trkpt>
      <trkpt lat="41.325284" lon="2.012758">
        <ele>30.415882</ele>
        <time>2023-01-22T08:56:51.000Z</time>
      </trkpt>
      <trkpt lat="41.325139" lon="2.012881">
        <ele>30.146643</ele>
        <time>2023-01-22T08:56:54.000Z</time>
      </trkpt>
      <trkpt lat="41.325040" lon="2.012935">
        <ele>29.979102</ele>
        <time>2023-01-22T08:56:56.000Z</time>
      </trkpt>
      <trkpt lat="41.324974" lon="2.013019">
        <ele>29.836124</ele>
        <time>2023-01-22T08:56:58.000Z</time>
      </trkpt>
      <trkpt lat="41.324949" lon="2.013082">
        <ele>29.752614</ele>
        <time>2023-01-22T08:56:59.000Z</time>
      </trkpt>
      <trkpt lat="41.324921" lon="2.013141">
        <ele>29.671989</ele>
        <time>2023-01-22T08:57:00.000Z</time>
      </trkpt>
      <trkpt lat="41.324785" lon="2.013305">
        <ele>29.389752</ele>
        <time>2023-01-22T08:57:03.000Z</time>
      </trkpt>
      <trkpt lat="41.324405" lon="2.013714">
        <ele>28.638143</ele>
        <time>2023-01-22T08:57:10.000Z</time>
      </trkpt>
      <trkpt lat="41.324343" lon="2.013773">
        <ele>28.520921</ele>
        <time>2023-01-22T08:57:11.000Z</time>
      </trkpt>
      <trkpt lat="41.324025" lon="2.014093">
        <ele>27.907786</ele>
        <time>2023-01-22T08:57:17.000Z</time>
      </trkpt>
      <trkpt lat="41.323865" lon="2.014254">
        <ele>27.599294</ele>
        <time>2023-01-22T08:57:20.000Z</time>
      </trkpt>
      <trkpt lat="41.323757" lon="2.014370">
        <ele>27.385853</ele>
        <time>2023-01-22T08:57:22.000Z</time>
      </trkpt>
      <trkpt lat="41.323611" lon="2.014523">
        <ele>27.100059</ele>
        <time>2023-01-22T08:57:25.000Z</time>
      </trkpt>
      <trkpt lat="41.323493" lon="2.014635">
        <ele>26.868254</ele>
        <time>2023-01-22T08:57:27.000Z</time>
      </trkpt>
      <trkpt lat="41.323306" lon="2.014822">
        <ele>26.482854</ele>
        <time>2023-01-22T08:57:30.000Z</time>
      </trkpt>
      <trkpt lat="41.323185" lon="2.014935">
        <ele>26.239294</ele>
        <time>2023-01-22T08:57:32.000Z</time>
      </trkpt>
      <trkpt lat="41.322908" lon="2.015220">
        <ele>25.662407</ele>
        <time>2023-01-22T08:57:37.000Z</time>
      </trkpt>
      <trkpt lat="41.322849" lon="2.015277">
        <ele>25.542280</ele>
        <time>2023-01-22T08:57:38.000Z</time>
      </trkpt>
      <trkpt lat="41.322658" lon="2.015493">
        <ele>25.129312</ele>
        <time>2023-01-22T08:57:43.000Z</time>
      </trkpt>
      <trkpt lat="41.322495" lon="2.015645">
        <ele>24.801368</ele>
        <time>2023-01-22T08:57:49.000Z</time>
      </trkpt>
      <trkpt lat="41.322491" lon="2.015648">
        <ele>24.793803</ele>
        <time>2023-01-22T08:57:52.000Z</time>
      </trkpt>
      <trkpt lat="41.322491" lon="2.015648">
        <ele>24.793803</ele>
        <time>2023-01-22T08:58:03.000Z</time>
      </trkpt>
      <trkpt lat="41.322491" lon="2.015648">
        <ele>24.793803</ele>
        <time>2023-01-22T08:58:13.000Z</time>
      </trkpt>
      <trkpt lat="41.322431" lon="2.015711">
        <ele>24.667880</ele>
        <time>2023-01-22T08:58:17.000Z</time>
      </trkpt>
      <trkpt lat="41.322302" lon="2.015840">
        <ele>24.402014</ele>
        <time>2023-01-22T08:58:23.000Z</time>
      </trkpt>
      <trkpt lat="41.322228" lon="2.015926">
        <ele>24.240147</ele>
        <time>2023-01-22T08:58:27.000Z</time>
      </trkpt>
      <trkpt lat="41.322206" lon="2.015954">
        <ele>24.189993</ele>
        <time>2023-01-22T08:58:28.000Z</time>
      </trkpt>
      <trkpt lat="41.322179" lon="2.015986">
        <ele>24.130425</ele>
        <time>2023-01-22T08:58:29.000Z</time>
      </trkpt>
      <trkpt lat="41.321971" lon="2.016215">
        <ele>23.726754</ele>
        <time>2023-01-22T08:58:35.000Z</time>
      </trkpt>
      <trkpt lat="41.321832" lon="2.016361">
        <ele>23.469054</ele>
        <time>2023-01-22T08:58:39.000Z</time>
      </trkpt>
      <trkpt lat="41.321731" lon="2.016465">
        <ele>23.283208</ele>
        <time>2023-01-22T08:58:42.000Z</time>
      </trkpt>
      <trkpt lat="41.321701" lon="2.016501">
        <ele>23.224424</ele>
        <time>2023-01-22T08:58:43.000Z</time>
      </trkpt>
      <trkpt lat="41.321547" lon="2.016639">
        <ele>22.954227</ele>
        <time>2023-01-22T08:58:47.000Z</time>
      </trkpt>
      <trkpt lat="41.321519" lon="2.016666">
        <ele>22.903905</ele>
        <time>2023-01-22T08:58:48.000Z</time>
      </trkpt>
      <trkpt lat="41.321442" lon="2.016732">
        <ele>22.770610</ele>
        <time>2023-01-22T08:58:51.000Z</time>
      </trkpt>
      <trkpt lat="41.321419" lon="2.016749">
        <ele>22.732319</ele>
        <time>2023-01-22T08:58:52.000Z</time>
      </trkpt>
      <trkpt lat="41.321356" lon="2.016823">
        <ele>22.610035</ele>
        <time>2023-01-22T08:58:57.000Z</time>
      </trkpt>
      <trkpt lat="41.321294" lon="2.016895">
        <ele>22.490287</ele>
        <time>2023-01-22T08:59:04.000Z</time>
      </trkpt>
      <trkpt lat="41.321203" lon="2.016973">
        <ele>22.332756</ele>
        <time>2023-01-22T08:59:09.000Z</time>
      </trkpt>
      <trkpt lat="41.321141" lon="2.016994">
        <ele>22.239635</ele>
        <time>2023-01-22T08:59:12.000Z</time>
      </trkpt>
      <trkpt lat="41.321129" lon="2.017002">
        <ele>22.220101</ele>
        <time>2023-01-22T08:59:13.000Z</time>
      </trkpt>
      <trkpt lat="41.321112" lon="2.017013">
        <ele>22.192589</ele>
        <time>2023-01-22T08:59:14.000Z</time>
      </trkpt>
      <trkpt lat="41.321059" lon="2.017157">
        <ele>22.017284</ele>
        <time>2023-01-22T08:59:17.000Z</time>
      </trkpt>
      <trkpt lat="41.321028" lon="2.017206">
        <ele>21.947245</ele>
        <time>2023-01-22T08:59:18.000Z</time>
      </trkpt>
      <trkpt lat="41.320951" lon="2.017321">
        <ele>21.778821</ele>
        <time>2023-01-22T08:59:20.000Z</time>
      </trkpt>
      <trkpt lat="41.320700" lon="2.017633">
        <ele>21.236790</ele>
        <time>2023-01-22T08:59:25.000Z</time>
      </trkpt>
      <trkpt lat="41.320594" lon="2.017762">
        <ele>20.965024</ele>
        <time>2023-01-22T08:59:27.000Z</time>
      </trkpt>
      <trkpt lat="41.320469" lon="2.017940">
        <ele>20.618667</ele>
        <time>2023-01-22T08:59:30.000Z</time>
      </trkpt>
      <trkpt lat="41.320374" lon="2.018071">
        <ele>20.359845</ele>
        <time>2023-01-22T08:59:32.000Z</time>
      </trkpt>
      <trkpt lat="41.320281" lon="2.018214">
        <ele>20.090987</ele>
        <time>2023-01-22T08:59:34.000Z</time>
      </trkpt>
      <trkpt lat="41.320196" lon="2.018362">
        <ele>19.826178</ele>
        <time>2023-01-22T08:59:36.000Z</time>
      </trkpt>
      <trkpt lat="41.320132" lon="2.018500">
        <ele>19.595657</ele>
        <time>2023-01-22T08:59:38.000Z</time>
      </trkpt>
      <trkpt lat="41.320059" lon="2.018667">
        <ele>19.321023</ele>
        <time>2023-01-22T08:59:40.000Z</time>
      </trkpt>
      <trkpt lat="41.319870" lon="2.019100">
        <ele>18.609209</ele>
        <time>2023-01-22T08:59:46.000Z</time>
      </trkpt>
      <trkpt lat="41.319637" lon="2.019630">
        <ele>17.798455</ele>
        <time>2023-01-22T08:59:54.000Z</time>
      </trkpt>
      <trkpt lat="41.319614" lon="2.019684">
        <ele>17.729831</ele>
        <time>2023-01-22T08:59:55.000Z</time>
      </trkpt>
      <trkpt lat="41.319544" lon="2.019828">
        <ele>17.540213</ele>
        <time>2023-01-22T08:59:59.000Z</time>
      </trkpt>
      <trkpt lat="41.319531" lon="2.019851">
        <ele>17.508393</ele>
        <time>2023-01-22T09:00:03.000Z</time>
      </trkpt>
      <trkpt lat="41.319479" lon="2.019954">
        <ele>17.371199</ele>
        <time>2023-01-22T09:00:07.000Z</time>
      </trkpt>
      <trkpt lat="41.319352" lon="2.020173">
        <ele>17.065339</ele>
        <time>2023-01-22T09:00:12.000Z</time>
      </trkpt>
      <trkpt lat="41.319281" lon="2.020274">
        <ele>16.912412</ele>
        <time>2023-01-22T09:00:14.000Z</time>
      </trkpt>
      <trkpt lat="41.319137" lon="2.020484">
        <ele>16.598066</ele>
        <time>2023-01-22T09:00:18.000Z</time>
      </trkpt>
      <trkpt lat="41.318780" lon="2.020943">
        <ele>15.867612</ele>
        <time>2023-01-22T09:00:26.000Z</time>
      </trkpt>
      <trkpt lat="41.318735" lon="2.020996">
        <ele>15.779183</ele>
        <time>2023-01-22T09:00:27.000Z</time>
      </trkpt>
      <trkpt lat="41.318346" lon="2.021383">
        <ele>15.151259</ele>
        <time>2023-01-22T09:00:35.000Z</time>
      </trkpt>
      <trkpt lat="41.318042" lon="2.021631">
        <ele>14.776368</ele>
        <time>2023-01-22T09:00:40.000Z</time>
      </trkpt>
      <trkpt lat="41.317916" lon="2.021732">
        <ele>14.621719</ele>
        <time>2023-01-22T09:00:42.000Z</time>
      </trkpt>
      <trkpt lat="41.317601" lon="2.021908">
        <ele>14.262508</ele>
        <time>2023-01-22T09:00:47.000Z</time>
      </trkpt>
      <trkpt lat="41.317231" lon="2.022029">
        <ele>13.861883</ele>
        <time>2023-01-22T09:00:53.000Z</time>
      </trkpt>
      <trkpt lat="41.317179" lon="2.022026">
        <ele>13.807152</ele>
        <time>2023-01-22T09:00:54.000Z</time>
      </trkpt>
      <trkpt lat="41.317091" lon="2.021990">
        <ele>13.710349</ele>
        <time>2023-01-22T09:00:56.000Z</time>
      </trkpt>
      <trkpt lat="41.316937" lon="2.021923">
        <ele>13.539990</ele>
        <time>2023-01-22T09:00:59.000Z</time>
      </trkpt>
      <trkpt lat="41.316834" lon="2.021836">
        <ele>13.418875</ele>
        <time>2023-01-22T09:01:01.000Z</time>
      </trkpt>
      <trkpt lat="41.316611" lon="2.021629">
        <ele>13.164271</ele>
        <time>2023-01-22T09:01:07.000Z</time>
      </trkpt>
      <trkpt lat="41.316553" lon="2.021573">
        <ele>13.097170</ele>
        <time>2023-01-22T09:01:11.000Z</time>
      </trkpt>
      <trkpt lat="41.316549" lon="2.021568">
        <ele>13.092031</ele>
        <time>2023-01-22T09:01:15.000Z</time>
      </trkpt>
      <trkpt lat="41.316497" lon="2.021521">
        <ele>13.033168</ele>
        <time>2023-01-22T09:01:48.000Z</time>
      </trkpt>
      <trkpt lat="41.316369" lon="2.021400">
        <ele>12.886143</ele>
        <time>2023-01-22T09:01:53.000Z</time>
      </trkpt>
      <trkpt lat="41.316130" lon="2.021145">
        <ele>12.599297</ele>
        <time>2023-01-22T09:01:59.000Z</time>
      </trkpt>
      <trkpt lat="41.315816" lon="2.020823">
        <ele>12.228094</ele>
        <time>2023-01-22T09:02:05.000Z</time>
      </trkpt>
      <trkpt lat="41.315718" lon="2.020728">
        <ele>12.114560</ele>
        <time>2023-01-22T09:02:07.000Z</time>
      </trkpt>
      <trkpt lat="41.315445" lon="2.020444">
        <ele>11.788228</ele>
        <time>2023-01-22T09:02:12.000Z</time>
      </trkpt>
      <trkpt lat="41.315206" lon="2.020200">
        <ele>11.294513</ele>
        <time>2023-01-22T09:02:16.000Z</time>
      </trkpt>
      <trkpt lat="41.315143" lon="2.020139">
        <ele>11.166815</ele>
        <time>2023-01-22T09:02:17.000Z</time>
      </trkpt>
      <trkpt lat="41.314792" lon="2.019777">
        <ele>10.438985</ele>
        <time>2023-01-22T09:02:23.000Z</time>
      </trkpt>
      <trkpt lat="41.314327" lon="2.019313">
        <ele>9.486386</ele>
        <time>2023-01-22T09:02:31.000Z</time>
      </trkpt>
      <trkpt lat="41.314270" lon="2.019255">
        <ele>9.368781</ele>
        <time>2023-01-22T09:02:32.000Z</time>
      </trkpt>
      <trkpt lat="41.313787" lon="2.018761">
        <ele>8.577136</ele>
        <time>2023-01-22T09:02:40.000Z</time>
      </trkpt>
      <trkpt lat="41.313726" lon="2.018692">
        <ele>8.503201</ele>
        <time>2023-01-22T09:02:41.000Z</time>
      </trkpt>
      <trkpt lat="41.313255" lon="2.018201">
        <ele>7.950652</ele>
        <time>2023-01-22T09:02:49.000Z</time>
      </trkpt>
      <trkpt lat="41.312988" lon="2.017903">
        <ele>7.628833</ele>
        <time>2023-01-22T09:02:55.000Z</time>
      </trkpt>
      <trkpt lat="41.312765" lon="2.017685">
        <ele>7.373288</ele>
        <time>2023-01-22T09:03:00.000Z</time>
      </trkpt>
      <trkpt lat="41.312712" lon="2.017642">
        <ele>7.315959</ele>
        <time>2023-01-22T09:03:01.000Z</time>
      </trkpt>
      <trkpt lat="41.312661" lon="2.017595">
        <ele>7.258667</ele>
        <time>2023-01-22T09:03:02.000Z</time>
      </trkpt>
      <trkpt lat="41.312411" lon="2.017342">
        <ele>7.146209</ele>
        <time>2023-01-22T09:03:07.000Z</time>
      </trkpt>
      <trkpt lat="41.312105" lon="2.017020">
        <ele>7.084821</ele>
        <time>2023-01-22T09:03:14.000Z</time>
      </trkpt>
      <trkpt lat="41.311965" lon="2.016888">
        <ele>7.057820</ele>
        <time>2023-01-22T09:03:19.000Z</time>
      </trkpt>
      <trkpt lat="41.311948" lon="2.016870">
        <ele>7.054401</ele>
        <time>2023-01-22T09:03:23.000Z</time>
      </trkpt>
      <trkpt lat="41.311948" lon="2.016870">
        <ele>7.054401</ele>
        <time>2023-01-22T09:03:38.000Z</time>
      </trkpt>
      <trkpt lat="41.311912" lon="2.016841">
        <ele>7.047779</ele>
        <time>2023-01-22T09:03:51.000Z</time>
      </trkpt>
      <trkpt lat="41.311809" lon="2.016721">
        <ele>7.026237</ele>
        <time>2023-01-22T09:03:56.000Z</time>
      </trkpt>
      <trkpt lat="41.311667" lon="2.016574">
        <ele>6.997926</ele>
        <time>2023-01-22T09:04:00.000Z</time>
      </trkpt>
      <trkpt lat="41.311361" lon="2.016275">
        <ele>6.938186</ele>
        <time>2023-01-22T09:04:07.000Z</time>
      </trkpt>
      <trkpt lat="41.311025" lon="2.015945">
        <ele>6.918558</ele>
        <time>2023-01-22T09:04:14.000Z</time>
      </trkpt>
      <trkpt lat="41.310602" lon="2.015509">
        <ele>6.977394</ele>
        <time>2023-01-22T09:04:22.000Z</time>
      </trkpt>
      <trkpt lat="41.310128" lon="2.015034">
        <ele>7.042643</ele>
        <time>2023-01-22T09:04:31.000Z</time>
      </trkpt>
      <trkpt lat="41.310072" lon="2.014981">
        <ele>7.050200</ele>
        <time>2023-01-22T09:04:32.000Z</time>
      </trkpt>
      <trkpt lat="41.309592" lon="2.014505">
        <ele>7.197260</ele>
        <time>2023-01-22T09:04:41.000Z</time>
      </trkpt>
      <trkpt lat="41.309488" lon="2.014400">
        <ele>7.274276</ele>
        <time>2023-01-22T09:04:43.000Z</time>
      </trkpt>
      <trkpt lat="41.309029" lon="2.013921">
        <ele>7.618402</ele>
        <time>2023-01-22T09:04:52.000Z</time>
      </trkpt>
      <trkpt lat="41.308987" lon="2.013881">
        <ele>7.648873</ele>
        <time>2023-01-22T09:04:53.000Z</time>
      </trkpt>
      <trkpt lat="41.308501" lon="2.013403">
        <ele>8.005410</ele>
        <time>2023-01-22T09:05:02.000Z</time>
      </trkpt>
      <trkpt lat="41.308452" lon="2.013352">
        <ele>8.042110</ele>
        <time>2023-01-22T09:05:03.000Z</time>
      </trkpt>
      <trkpt lat="41.308405" lon="2.013305">
        <ele>8.076794</ele>
        <time>2023-01-22T09:05:04.000Z</time>
      </trkpt>
      <trkpt lat="41.308287" lon="2.013176">
        <ele>8.183358</ele>
        <time>2023-01-22T09:05:07.000Z</time>
      </trkpt>
      <trkpt lat="41.308247" lon="2.013102">
        <ele>8.305092</ele>
        <time>2023-01-22T09:05:08.000Z</time>
      </trkpt>
      <trkpt lat="41.308230" lon="2.013040">
        <ele>8.393222</ele>
        <time>2023-01-22T09:05:09.000Z</time>
      </trkpt>
      <trkpt lat="41.308185" lon="2.012873">
        <ele>8.630127</ele>
        <time>2023-01-22T09:05:11.000Z</time>
      </trkpt>
      <trkpt lat="41.308148" lon="2.012806">
        <ele>8.741166</ele>
        <time>2023-01-22T09:05:12.000Z</time>
      </trkpt>
      <trkpt lat="41.308110" lon="2.012760">
        <ele>8.832465</ele>
        <time>2023-01-22T09:05:13.000Z</time>
      </trkpt>
      <trkpt lat="41.307985" lon="2.012667">
        <ele>9.087011</ele>
        <time>2023-01-22T09:05:15.000Z</time>
      </trkpt>
      <trkpt lat="41.307922" lon="2.012653">
        <ele>9.200549</ele>
        <time>2023-01-22T09:05:16.000Z</time>
      </trkpt>
      <trkpt lat="41.307794" lon="2.012631">
        <ele>9.429970</ele>
        <time>2023-01-22T09:05:18.000Z</time>
      </trkpt>
      <trkpt lat="41.307673" lon="2.012556">
        <ele>9.667231</ele>
        <time>2023-01-22T09:05:20.000Z</time>
      </trkpt>
      <trkpt lat="41.307413" lon="2.012297">
        <ele>10.244476</ele>
        <time>2023-01-22T09:05:25.000Z</time>
      </trkpt>
      <trkpt lat="41.307248" lon="2.012129">
        <ele>10.613733</ele>
        <time>2023-01-22T09:05:28.000Z</time>
      </trkpt>
      <trkpt lat="41.306960" lon="2.011850">
        <ele>11.246886</ele>
        <time>2023-01-22T09:05:34.000Z</time>
      </trkpt>
      <trkpt lat="41.306878" lon="2.011765">
        <ele>11.347855</ele>
        <time>2023-01-22T09:05:36.000Z</time>
      </trkpt>
      <trkpt lat="41.306771" lon="2.011660">
        <ele>11.322516</ele>
        <time>2023-01-22T09:05:39.000Z</time>
      </trkpt>
      <trkpt lat="41.306722" lon="2.011564">
        <ele>11.305897</ele>
        <time>2023-01-22T09:05:41.000Z</time>
      </trkpt>
      <trkpt lat="41.306687" lon="2.011375">
        <ele>11.278024</ele>
        <time>2023-01-22T09:05:44.000Z</time>
      </trkpt>
      <trkpt lat="41.306669" lon="2.011327">
        <ele>11.270342</ele>
        <time>2023-01-22T09:05:45.000Z</time>
      </trkpt>
      <trkpt lat="41.306637" lon="2.011275">
        <ele>11.260717</ele>
        <time>2023-01-22T09:05:46.000Z</time>
      </trkpt>
      <trkpt lat="41.306542" lon="2.011225">
        <ele>11.241244</ele>
        <time>2023-01-22T09:05:48.000Z</time>
      </trkpt>
      <trkpt lat="41.306363" lon="2.011271">
        <ele>11.206494</ele>
        <time>2023-01-22T09:05:51.000Z</time>
      </trkpt>
      <trkpt lat="41.306261" lon="2.011238">
        <ele>11.186485</ele>
        <time>2023-01-22T09:05:53.000Z</time>
      </trkpt>
      <trkpt lat="41.306206" lon="2.011194">
        <ele>11.174253</ele>
        <time>2023-01-22T09:05:54.000Z</time>
      </trkpt>
      <trkpt lat="41.305818" lon="2.010785">
        <ele>11.079914</ele>
        <time>2023-01-22T09:06:01.000Z</time>
      </trkpt>
      <trkpt lat="41.305379" lon="2.010342">
        <ele>10.733918</ele>
        <time>2023-01-22T09:06:08.000Z</time>
      </trkpt>
      <trkpt lat="41.304994" lon="2.009949">
        <ele>10.058135</ele>
        <time>2023-01-22T09:06:14.000Z</time>
      </trkpt>
      <trkpt lat="41.304758" lon="2.009714">
        <ele>9.647618</ele>
        <time>2023-01-22T09:06:18.000Z</time>
      </trkpt>
      <trkpt lat="41.304472" lon="2.009428">
        <ele>9.149365</ele>
        <time>2023-01-22T09:06:24.000Z</time>
      </trkpt>
      <trkpt lat="41.304437" lon="2.009401">
        <ele>9.093019</ele>
        <time>2023-01-22T09:06:27.000Z</time>
      </trkpt>
      <trkpt lat="41.304437" lon="2.009401">
        <ele>9.093019</ele>
        <time>2023-01-22T09:06:54.000Z</time>
      </trkpt>
      <trkpt lat="41.304367" lon="2.009341">
        <ele>8.977051</ele>
        <time>2023-01-22T09:07:02.000Z</time>
      </trkpt>
      <trkpt lat="41.304282" lon="2.009235">
        <ele>8.814817</ele>
        <time>2023-01-22T09:07:06.000Z</time>
      </trkpt>
      <trkpt lat="41.304266" lon="2.009187">
        <ele>8.759868</ele>
        <time>2023-01-22T09:07:07.000Z</time>
      </trkpt>
      <trkpt lat="41.304237" lon="2.009135">
        <ele>8.692102</ele>
        <time>2023-01-22T09:07:08.000Z</time>
      </trkpt>
      <trkpt lat="41.304137" lon="2.009033">
        <ele>8.516623</ele>
        <time>2023-01-22T09:07:11.000Z</time>
      </trkpt>
      <trkpt lat="41.304105" lon="2.008995">
        <ele>8.477418</ele>
        <time>2023-01-22T09:07:12.000Z</time>
      </trkpt>
      <trkpt lat="41.304009" lon="2.008874">
        <ele>8.367550</ele>
        <time>2023-01-22T09:07:15.000Z</time>
      </trkpt>
      <trkpt lat="41.303965" lon="2.008827">
        <ele>8.320667</ele>
        <time>2023-01-22T09:07:16.000Z</time>
      </trkpt>
      <trkpt lat="41.303756" lon="2.008618">
        <ele>8.103431</ele>
        <time>2023-01-22T09:07:21.000Z</time>
      </trkpt>
      <trkpt lat="41.303395" lon="2.008244">
        <ele>7.723274</ele>
        <time>2023-01-22T09:07:29.000Z</time>
      </trkpt>
      <trkpt lat="41.303039" lon="2.007903">
        <ele>7.358790</ele>
        <time>2023-01-22T09:07:37.000Z</time>
      </trkpt>
      <trkpt lat="41.302999" lon="2.007858">
        <ele>7.315267</ele>
        <time>2023-01-22T09:07:38.000Z</time>
      </trkpt>
      <trkpt lat="41.302562" lon="2.007414">
        <ele>6.875545</ele>
        <time>2023-01-22T09:07:48.000Z</time>
      </trkpt>
      <trkpt lat="41.302529" lon="2.007384">
        <ele>6.846017</ele>
        <time>2023-01-22T09:07:49.000Z</time>
      </trkpt>
      <trkpt lat="41.302397" lon="2.007242">
        <ele>6.720611</ele>
        <time>2023-01-22T09:07:55.000Z</time>
      </trkpt>
      <trkpt lat="41.302316" lon="2.007183">
        <ele>6.652383</ele>
        <time>2023-01-22T09:08:00.000Z</time>
      </trkpt>
      <trkpt lat="41.302282" lon="2.007148">
        <ele>6.620624</ele>
        <time>2023-01-22T09:08:02.000Z</time>
      </trkpt>
      <trkpt lat="41.302222" lon="2.007066">
        <ele>6.557082</ele>
        <time>2023-01-22T09:08:05.000Z</time>
      </trkpt>
      <trkpt lat="41.302138" lon="2.006904">
        <ele>6.447815</ele>
        <time>2023-01-22T09:08:09.000Z</time>
      </trkpt>
      <trkpt lat="41.301990" lon="2.006730">
        <ele>6.301907</ele>
        <time>2023-01-22T09:08:13.000Z</time>
      </trkpt>
      <trkpt lat="41.301895" lon="2.006681">
        <ele>6.226625</ele>
        <time>2023-01-22T09:08:15.000Z</time>
      </trkpt>
      <trkpt lat="41.301855" lon="2.006643">
        <ele>6.190313</ele>
        <time>2023-01-22T09:08:16.000Z</time>
      </trkpt>
      <trkpt lat="41.301778" lon="2.006560">
        <ele>6.117100</ele>
        <time>2023-01-22T09:08:18.000Z</time>
      </trkpt>
      <trkpt lat="41.301708" lon="2.006475">
        <ele>6.047088</ele>
        <time>2023-01-22T09:08:20.000Z</time>
      </trkpt>
      <trkpt lat="41.301631" lon="2.006434">
        <ele>5.985808</ele>
        <time>2023-01-22T09:08:22.000Z</time>
      </trkpt>
      <trkpt lat="41.301593" lon="2.006424">
        <ele>5.957185</ele>
        <time>2023-01-22T09:08:23.000Z</time>
      </trkpt>
      <trkpt lat="41.301512" lon="2.006393">
        <ele>5.894908</ele>
        <time>2023-01-22T09:08:25.000Z</time>
      </trkpt>
      <trkpt lat="41.301434" lon="2.006319">
        <ele>5.824132</ele>
        <time>2023-01-22T09:08:27.000Z</time>
      </trkpt>
      <trkpt lat="41.301235" lon="2.006125">
        <ele>5.691254</ele>
        <time>2023-01-22T09:08:31.000Z</time>
      </trkpt>
      <trkpt lat="41.300803" lon="2.005686">
        <ele>5.760609</ele>
        <time>2023-01-22T09:08:39.000Z</time>
      </trkpt>
      <trkpt lat="41.300334" lon="2.005211">
        <ele>5.835811</ele>
        <time>2023-01-22T09:08:48.000Z</time>
      </trkpt>
      <trkpt lat="41.300226" lon="2.005104">
        <ele>5.852991</ele>
        <time>2023-01-22T09:08:50.000Z</time>
      </trkpt>
      <trkpt lat="41.299779" lon="2.004645">
        <ele>5.817872</ele>
        <time>2023-01-22T09:08:58.000Z</time>
      </trkpt>
      <trkpt lat="41.299729" lon="2.004597">
        <ele>5.752625</ele>
        <time>2023-01-22T09:08:59.000Z</time>
      </trkpt>
      <trkpt lat="41.299314" lon="2.004202">
        <ele>5.212648</ele>
        <time>2023-01-22T09:09:06.000Z</time>
      </trkpt>
      <trkpt lat="41.299180" lon="2.004080">
        <ele>5.040820</ele>
        <time>2023-01-22T09:09:08.000Z</time>
      </trkpt>
      <trkpt lat="41.298981" lon="2.003884">
        <ele>4.778808</ele>
        <time>2023-01-22T09:09:11.000Z</time>
      </trkpt>
      <trkpt lat="41.298710" lon="2.003580">
        <ele>4.403708</ele>
        <time>2023-01-22T09:09:16.000Z</time>
      </trkpt>
      <trkpt lat="41.298544" lon="2.003291">
        <ele>4.114439</ele>
        <time>2023-01-22T09:09:20.000Z</time>
      </trkpt>
      <trkpt lat="41.298483" lon="2.003218">
        <ele>4.027620</ele>
        <time>2023-01-22T09:09:21.000Z</time>
      </trkpt>
      <trkpt lat="41.298427" lon="2.003171">
        <ele>3.971510</ele>
        <time>2023-01-22T09:09:22.000Z</time>
      </trkpt>
      <trkpt lat="41.298366" lon="2.003130">
        <ele>3.918499</ele>
        <time>2023-01-22T09:09:23.000Z</time>
      </trkpt>
      <trkpt lat="41.298169" lon="2.003001">
        <ele>3.748186</ele>
        <time>2023-01-22T09:09:26.000Z</time>
      </trkpt>
      <trkpt lat="41.297749" lon="2.002583">
        <ele>3.341369</ele>
        <time>2023-01-22T09:09:33.000Z</time>
      </trkpt>
      <trkpt lat="41.297525" lon="2.002316">
        <ele>3.108112</ele>
        <time>2023-01-22T09:09:37.000Z</time>
      </trkpt>
      <trkpt lat="41.297255" lon="2.001972">
        <ele>2.818174</ele>
        <time>2023-01-22T09:09:42.000Z</time>
      </trkpt>
      <trkpt lat="41.296862" lon="2.001450">
        <ele>2.573036</ele>
        <time>2023-01-22T09:09:49.000Z</time>
      </trkpt>
      <trkpt lat="41.296738" lon="2.001287">
        <ele>2.548324</ele>
        <time>2023-01-22T09:09:51.000Z</time>
      </trkpt>
      <trkpt lat="41.296359" lon="2.000765">
        <ele>2.470991</ele>
        <time>2023-01-22T09:09:58.000Z</time>
      </trkpt>
      <trkpt lat="41.296209" lon="2.000558">
        <ele>2.440353</ele>
        <time>2023-01-22T09:10:01.000Z</time>
      </trkpt>
      <trkpt lat="41.295956" lon="2.000117">
        <ele>2.381242</ele>
        <time>2023-01-22T09:10:07.000Z</time>
      </trkpt>
      <trkpt lat="41.295699" lon="1.999815">
        <ele>2.552017</ele>
        <time>2023-01-22T09:10:12.000Z</time>
      </trkpt>
      <trkpt lat="41.295250" lon="1.999271">
        <ele>3.168845</ele>
        <time>2023-01-22T09:10:20.000Z</time>
      </trkpt>
      <trkpt lat="41.295157" lon="1.999160">
        <ele>3.295748</ele>
        <time>2023-01-22T09:10:22.000Z</time>
      </trkpt>
      <trkpt lat="41.294907" lon="1.998834">
        <ele>3.651306</ele>
        <time>2023-01-22T09:10:27.000Z</time>
      </trkpt>
      <trkpt lat="41.294798" lon="1.998681">
        <ele>3.812241</ele>
        <time>2023-01-22T09:10:29.000Z</time>
      </trkpt>
      <trkpt lat="41.294369" lon="1.998092">
        <ele>4.354389</ele>
        <time>2023-01-22T09:10:37.000Z</time>
      </trkpt>
      <trkpt lat="41.294254" lon="1.997936">
        <ele>4.465515</ele>
        <time>2023-01-22T09:10:39.000Z</time>
      </trkpt>
      <trkpt lat="41.293855" lon="1.997389">
        <ele>4.853168</ele>
        <time>2023-01-22T09:10:46.000Z</time>
      </trkpt>
      <trkpt lat="41.293573" lon="1.997009">
        <ele>5.124750</ele>
        <time>2023-01-22T09:10:51.000Z</time>
      </trkpt>
      <trkpt lat="41.293353" lon="1.996708">
        <ele>5.338274</ele>
        <time>2023-01-22T09:10:55.000Z</time>
      </trkpt>
      <trkpt lat="41.293193" lon="1.996495">
        <ele>5.540307</ele>
        <time>2023-01-22T09:10:58.000Z</time>
      </trkpt>
      <trkpt lat="41.293089" lon="1.996358">
        <ele>5.694719</ele>
        <time>2023-01-22T09:11:00.000Z</time>
      </trkpt>
      <trkpt lat="41.292996" lon="1.996229">
        <ele>5.836466</ele>
        <time>2023-01-22T09:11:02.000Z</time>
      </trkpt>
      <trkpt lat="41.292877" lon="1.996062">
        <ele>6.018952</ele>
        <time>2023-01-22T09:11:05.000Z</time>
      </trkpt>
      <trkpt lat="41.292757" lon="1.995905">
        <ele>6.196521</ele>
        <time>2023-01-22T09:11:08.000Z</time>
      </trkpt>
      <trkpt lat="41.292566" lon="1.995647">
        <ele>6.483695</ele>
        <time>2023-01-22T09:11:12.000Z</time>
      </trkpt>
      <trkpt lat="41.292154" lon="1.995085">
        <ele>7.106250</ele>
        <time>2023-01-22T09:11:19.000Z</time>
      </trkpt>
      <trkpt lat="41.292087" lon="1.994993">
        <ele>7.207836</ele>
        <time>2023-01-22T09:11:20.000Z</time>
      </trkpt>
      <trkpt lat="41.291887" lon="1.994719">
        <ele>7.043014</ele>
        <time>2023-01-22T09:11:23.000Z</time>
      </trkpt>
      <trkpt lat="41.291693" lon="1.994453">
        <ele>6.678129</ele>
        <time>2023-01-22T09:11:26.000Z</time>
      </trkpt>
      <trkpt lat="41.291313" lon="1.993923">
        <ele>5.957044</ele>
        <time>2023-01-22T09:11:32.000Z</time>
      </trkpt>
      <trkpt lat="41.291124" lon="1.993664">
        <ele>5.601664</ele>
        <time>2023-01-22T09:11:35.000Z</time>
      </trkpt>
      <trkpt lat="41.290693" lon="1.993081">
        <ele>4.988222</ele>
        <time>2023-01-22T09:11:42.000Z</time>
      </trkpt>
      <trkpt lat="41.290518" lon="1.992860">
        <ele>5.078112</ele>
        <time>2023-01-22T09:11:45.000Z</time>
      </trkpt>
      <trkpt lat="41.290208" lon="1.992437">
        <ele>5.243544</ele>
        <time>2023-01-22T09:11:51.000Z</time>
      </trkpt>
      <trkpt lat="41.289794" lon="1.991864">
        <ele>5.466104</ele>
        <time>2023-01-22T09:11:59.000Z</time>
      </trkpt>
      <trkpt lat="41.289691" lon="1.991728">
        <ele>5.520166</ele>
        <time>2023-01-22T09:12:01.000Z</time>
      </trkpt>
      <trkpt lat="41.289283" lon="1.991170">
        <ele>5.735037</ele>
        <time>2023-01-22T09:12:09.000Z</time>
      </trkpt>
      <trkpt lat="41.289125" lon="1.990955">
        <ele>5.817089</ele>
        <time>2023-01-22T09:12:12.000Z</time>
      </trkpt>
      <trkpt lat="41.288701" lon="1.990384">
        <ele>6.036117</ele>
        <time>2023-01-22T09:12:20.000Z</time>
      </trkpt>
      <trkpt lat="41.288485" lon="1.990089">
        <ele>6.148498</ele>
        <time>2023-01-22T09:12:24.000Z</time>
      </trkpt>
      <trkpt lat="41.288105" lon="1.989576">
        <ele>6.214734</ele>
        <time>2023-01-22T09:12:32.000Z</time>
      </trkpt>
      <trkpt lat="41.288071" lon="1.989516">
        <ele>6.200061</ele>
        <time>2023-01-22T09:12:33.000Z</time>
      </trkpt>
      <trkpt lat="41.287995" lon="1.989301">
        <ele>6.153667</ele>
        <time>2023-01-22T09:12:36.000Z</time>
      </trkpt>
      <trkpt lat="41.287965" lon="1.989229">
        <ele>6.137592</ele>
        <time>2023-01-22T09:12:37.000Z</time>
      </trkpt>
      <trkpt lat="41.287878" lon="1.989105">
        <ele>6.104466</ele>
        <time>2023-01-22T09:12:39.000Z</time>
      </trkpt>
      <trkpt lat="41.287824" lon="1.989051">
        <ele>6.086913</ele>
        <time>2023-01-22T09:12:40.000Z</time>
      </trkpt>
      <trkpt lat="41.287645" lon="1.988897">
        <ele>6.031525</ele>
        <time>2023-01-22T09:12:43.000Z</time>
      </trkpt>
      <trkpt lat="41.287591" lon="1.988830">
        <ele>6.012341</ele>
        <time>2023-01-22T09:12:44.000Z</time>
      </trkpt>
      <trkpt lat="41.287165" lon="1.988247">
        <ele>5.853554</ele>
        <time>2023-01-22T09:12:52.000Z</time>
      </trkpt>
      <trkpt lat="41.287065" lon="1.988114">
        <ele>5.816816</ele>
        <time>2023-01-22T09:12:54.000Z</time>
      </trkpt>
      <trkpt lat="41.286688" lon="1.987605">
        <ele>5.449187</ele>
        <time>2023-01-22T09:13:01.000Z</time>
      </trkpt>
      <trkpt lat="41.286639" lon="1.987538">
        <ele>5.397469</ele>
        <time>2023-01-22T09:13:02.000Z</time>
      </trkpt>
      <trkpt lat="41.286457" lon="1.987281">
        <ele>5.202124</ele>
        <time>2023-01-22T09:13:06.000Z</time>
      </trkpt>
      <trkpt lat="41.286429" lon="1.987206">
        <ele>5.155799</ele>
        <time>2023-01-22T09:13:07.000Z</time>
      </trkpt>
      <trkpt lat="41.286385" lon="1.987067">
        <ele>5.072366</ele>
        <time>2023-01-22T09:13:09.000Z</time>
      </trkpt>
      <trkpt lat="41.286306" lon="1.986977">
        <ele>4.995813</ele>
        <time>2023-01-22T09:13:11.000Z</time>
      </trkpt>
      <trkpt lat="41.286167" lon="1.986885">
        <ele>4.881532</ele>
        <time>2023-01-22T09:13:14.000Z</time>
      </trkpt>
      <trkpt lat="41.286116" lon="1.986823">
        <ele>4.830682</ele>
        <time>2023-01-22T09:13:15.000Z</time>
      </trkpt>
      <trkpt lat="41.285777" lon="1.986389">
        <ele>4.484400</ele>
        <time>2023-01-22T09:13:22.000Z</time>
      </trkpt>
      <trkpt lat="41.285353" lon="1.985833">
        <ele>4.418453</ele>
        <time>2023-01-22T09:13:31.000Z</time>
      </trkpt>
      <trkpt lat="41.285304" lon="1.985768">
        <ele>4.411466</ele>
        <time>2023-01-22T09:13:32.000Z</time>
      </trkpt>
      <trkpt lat="41.285070" lon="1.985449">
        <ele>4.377640</ele>
        <time>2023-01-22T09:13:37.000Z</time>
      </trkpt>
      <trkpt lat="41.284922" lon="1.985260">
        <ele>4.356927</ele>
        <time>2023-01-22T09:13:40.000Z</time>
      </trkpt>
      <trkpt lat="41.284588" lon="1.984813">
        <ele>4.309093</ele>
        <time>2023-01-22T09:13:48.000Z</time>
      </trkpt>
      <trkpt lat="41.284462" lon="1.984642">
        <ele>4.269768</ele>
        <time>2023-01-22T09:13:53.000Z</time>
      </trkpt>
      <trkpt lat="41.284444" lon="1.984613">
        <ele>4.255043</ele>
        <time>2023-01-22T09:13:54.000Z</time>
      </trkpt>
      <trkpt lat="41.284416" lon="1.984438">
        <ele>4.184999</ele>
        <time>2023-01-22T09:13:58.000Z</time>
      </trkpt>
      <trkpt lat="41.284408" lon="1.984267">
        <ele>4.117928</ele>
        <time>2023-01-22T09:14:01.000Z</time>
      </trkpt>
      <trkpt lat="41.284367" lon="1.984156">
        <ele>4.069508</ele>
        <time>2023-01-22T09:14:03.000Z</time>
      </trkpt>
      <trkpt lat="41.284277" lon="1.984077">
        <ele>4.013340</ele>
        <time>2023-01-22T09:14:05.000Z</time>
      </trkpt>
      <trkpt lat="41.284222" lon="1.984061">
        <ele>3.984010</ele>
        <time>2023-01-22T09:14:06.000Z</time>
      </trkpt>
      <trkpt lat="41.284168" lon="1.984059">
        <ele>3.955868</ele>
        <time>2023-01-22T09:14:07.000Z</time>
      </trkpt>
      <trkpt lat="41.284069" lon="1.984065">
        <ele>3.904239</ele>
        <time>2023-01-22T09:14:09.000Z</time>
      </trkpt>
      <trkpt lat="41.284026" lon="1.984052">
        <ele>3.881266</ele>
        <time>2023-01-22T09:14:10.000Z</time>
      </trkpt>
      <trkpt lat="41.283987" lon="1.984022">
        <ele>3.857799</ele>
        <time>2023-01-22T09:14:11.000Z</time>
      </trkpt>
      <trkpt lat="41.283886" lon="1.983892">
        <ele>3.784596</ele>
        <time>2023-01-22T09:14:14.000Z</time>
      </trkpt>
      <trkpt lat="41.283577" lon="1.983471">
        <ele>3.554211</ele>
        <time>2023-01-22T09:14:23.000Z</time>
      </trkpt>
      <trkpt lat="41.283351" lon="1.983163">
        <ele>3.385686</ele>
        <time>2023-01-22T09:14:29.000Z</time>
      </trkpt>
      <trkpt lat="41.283272" lon="1.983050">
        <ele>3.315291</ele>
        <time>2023-01-22T09:14:31.000Z</time>
      </trkpt>
      <trkpt lat="41.282933" lon="1.982587">
        <ele>2.987355</ele>
        <time>2023-01-22T09:14:39.000Z</time>
      </trkpt>
      <trkpt lat="41.282613" lon="1.982176">
        <ele>2.687122</ele>
        <time>2023-01-22T09:14:47.000Z</time>
      </trkpt>
      <trkpt lat="41.282217" lon="1.981632">
        <ele>2.302898</ele>
        <time>2023-01-22T09:14:56.000Z</time>
      </trkpt>
      <trkpt lat="41.282017" lon="1.981374">
        <ele>2.116570</ele>
        <time>2023-01-22T09:15:00.000Z</time>
      </trkpt>
      <trkpt lat="41.281830" lon="1.981122">
        <ele>1.947215</ele>
        <time>2023-01-22T09:15:04.000Z</time>
      </trkpt>
      <trkpt lat="41.281429" lon="1.980691">
        <ele>1.619204</ele>
        <time>2023-01-22T09:15:12.000Z</time>
      </trkpt>
      <trkpt lat="41.281136" lon="1.980400">
        <ele>1.386552</ele>
        <time>2023-01-22T09:15:18.000Z</time>
      </trkpt>
      <trkpt lat="41.280832" lon="1.980077">
        <ele>1.139006</ele>
        <time>2023-01-22T09:15:25.000Z</time>
      </trkpt>
      <trkpt lat="41.280803" lon="1.980028">
        <ele>1.109179</ele>
        <time>2023-01-22T09:15:26.000Z</time>
      </trkpt>
      <trkpt lat="41.280758" lon="1.979922">
        <ele>1.050961</ele>
        <time>2023-01-22T09:15:28.000Z</time>
      </trkpt>
      <trkpt lat="41.280709" lon="1.979820">
        <ele>0.996364</ele>
        <time>2023-01-22T09:15:30.000Z</time>
      </trkpt>
      <trkpt lat="41.280672" lon="1.979782">
        <ele>0.980374</ele>
        <time>2023-01-22T09:15:31.000Z</time>
      </trkpt>
      <trkpt lat="41.280579" lon="1.979736">
        <ele>0.946429</ele>
        <time>2023-01-22T09:15:33.000Z</time>
      </trkpt>
      <trkpt lat="41.280448" lon="1.979621">
        <ele>0.892736</ele>
        <time>2023-01-22T09:15:36.000Z</time>
      </trkpt>
      <trkpt lat="41.280317" lon="1.979491">
        <ele>0.836827</ele>
        <time>2023-01-22T09:15:39.000Z</time>
      </trkpt>
      <trkpt lat="41.280155" lon="1.979308">
        <ele>0.764124</ele>
        <time>2023-01-22T09:15:43.000Z</time>
      </trkpt>
      <trkpt lat="41.279737" lon="1.978870">
        <ele>0.582099</ele>
        <time>2023-01-22T09:15:52.000Z</time>
      </trkpt>
      <trkpt lat="41.279279" lon="1.978397">
        <ele>0.385199</ele>
        <time>2023-01-22T09:16:01.000Z</time>
      </trkpt>
      <trkpt lat="41.278927" lon="1.978038">
        <ele>0.436975</ele>
        <time>2023-01-22T09:16:09.000Z</time>
      </trkpt>
      <trkpt lat="41.278651" lon="1.977750">
        <ele>0.477923</ele>
        <time>2023-01-22T09:16:16.000Z</time>
      </trkpt>
      <trkpt lat="41.278492" lon="1.977572">
        <ele>0.502181</ele>
        <time>2023-01-22T09:16:22.000Z</time>
      </trkpt>
      <trkpt lat="41.278487" lon="1.977567">
        <ele>0.502911</ele>
        <time>2023-01-22T09:16:26.000Z</time>
      </trkpt>
      <trkpt lat="41.278487" lon="1.977567">
        <ele>0.502911</ele>
        <time>2023-01-22T09:16:35.000Z</time>
      </trkpt>
      <trkpt lat="41.278438" lon="1.977513">
        <ele>0.510339</ele>
        <time>2023-01-22T09:16:41.000Z</time>
      </trkpt>
      <trkpt lat="41.278326" lon="1.977416">
        <ele>0.525940</ele>
        <time>2023-01-22T09:16:46.000Z</time>
      </trkpt>
      <trkpt lat="41.278157" lon="1.977217">
        <ele>0.552286</ele>
        <time>2023-01-22T09:16:52.000Z</time>
      </trkpt>
      <trkpt lat="41.277926" lon="1.976996">
        <ele>0.585501</ele>
        <time>2023-01-22T09:16:58.000Z</time>
      </trkpt>
      <trkpt lat="41.277626" lon="1.976685">
        <ele>0.514095</ele>
        <time>2023-01-22T09:17:05.000Z</time>
      </trkpt>
      <trkpt lat="41.277245" lon="1.976311">
        <ele>0.386930</ele>
        <time>2023-01-22T09:17:13.000Z</time>
      </trkpt>
      <trkpt lat="41.276835" lon="1.975864">
        <ele>0.244565</ele>
        <time>2023-01-22T09:17:22.000Z</time>
      </trkpt>
      <trkpt lat="41.276378" lon="1.975400">
        <ele>0.083857</ele>
        <time>2023-01-22T09:17:31.000Z</time>
      </trkpt>
      <trkpt lat="41.276285" lon="1.975293">
        <ele>0.041166</ele>
        <time>2023-01-22T09:17:33.000Z</time>
      </trkpt>
      <trkpt lat="41.275869" lon="1.974835">
        <ele>-0.146323</ele>
        <time>2023-01-22T09:17:42.000Z</time>
      </trkpt>
      <trkpt lat="41.275713" lon="1.974675">
        <ele>-0.214718</ele>
        <time>2023-01-22T09:17:46.000Z</time>
      </trkpt>
      <trkpt lat="41.275608" lon="1.974557">
        <ele>-0.262443</ele>
        <time>2023-01-22T09:17:49.000Z</time>
      </trkpt>
      <trkpt lat="41.275522" lon="1.974417">
        <ele>-0.309630</ele>
        <time>2023-01-22T09:17:52.000Z</time>
      </trkpt>
      <trkpt lat="41.275271" lon="1.974116">
        <ele>-0.426962</ele>
        <time>2023-01-22T09:17:58.000Z</time>
      </trkpt>
      <trkpt lat="41.275233" lon="1.974074">
        <ele>-0.444116</ele>
        <time>2023-01-22T09:17:59.000Z</time>
      </trkpt>
      <trkpt lat="41.275029" lon="1.973835">
        <ele>-0.496165</ele>
        <time>2023-01-22T09:18:03.000Z</time>
      </trkpt>
      <trkpt lat="41.274723" lon="1.973527">
        <ele>-0.409532</ele>
        <time>2023-01-22T09:18:09.000Z</time>
      </trkpt>
      <trkpt lat="41.274341" lon="1.973128">
        <ele>-0.299879</ele>
        <time>2023-01-22T09:18:17.000Z</time>
      </trkpt>
      <trkpt lat="41.274105" lon="1.972914">
        <ele>-0.235396</ele>
        <time>2023-01-22T09:18:22.000Z</time>
      </trkpt>
      <trkpt lat="41.274007" lon="1.972864">
        <ele>-0.211697</ele>
        <time>2023-01-22T09:18:24.000Z</time>
      </trkpt>
      <trkpt lat="41.273944" lon="1.972822">
        <ele>-0.195787</ele>
        <time>2023-01-22T09:18:25.000Z</time>
      </trkpt>
      <trkpt lat="41.273764" lon="1.972638">
        <ele>-0.144536</ele>
        <time>2023-01-22T09:18:29.000Z</time>
      </trkpt>
      <trkpt lat="41.273386" lon="1.972228">
        <ele>-0.031743</ele>
        <time>2023-01-22T09:18:37.000Z</time>
      </trkpt>
      <trkpt lat="41.273005" lon="1.971756">
        <ele>0.090153</ele>
        <time>2023-01-22T09:18:45.000Z</time>
      </trkpt>
      <trkpt lat="41.272603" lon="1.971150">
        <ele>0.232400</ele>
        <time>2023-01-22T09:18:54.000Z</time>
      </trkpt>
      <trkpt lat="41.272328" lon="1.970691">
        <ele>0.341700</ele>
        <time>2023-01-22T09:19:00.000Z</time>
      </trkpt>
      <trkpt lat="41.272230" lon="1.970536">
        <ele>0.387396</ele>
        <time>2023-01-22T09:19:02.000Z</time>
      </trkpt>
      <trkpt lat="41.271840" lon="1.969921">
        <ele>0.568930</ele>
        <time>2023-01-22T09:19:10.000Z</time>
      </trkpt>
      <trkpt lat="41.271744" lon="1.969767">
        <ele>0.614068</ele>
        <time>2023-01-22T09:19:12.000Z</time>
      </trkpt>
      <trkpt lat="41.271399" lon="1.969189">
        <ele>0.780586</ele>
        <time>2023-01-22T09:19:20.000Z</time>
      </trkpt>
      <trkpt lat="41.271059" lon="1.968558">
        <ele>1.627121</ele>
        <time>2023-01-22T09:19:29.000Z</time>
      </trkpt>
      <trkpt lat="41.270865" lon="1.968187">
        <ele>2.404048</ele>
        <time>2023-01-22T09:19:35.000Z</time>
      </trkpt>
      <trkpt lat="41.270770" lon="1.968010">
        <ele>2.777933</ele>
        <time>2023-01-22T09:19:38.000Z</time>
      </trkpt>
      <trkpt lat="41.270612" lon="1.967708">
        <ele>3.410472</ele>
        <time>2023-01-22T09:19:43.000Z</time>
      </trkpt>
      <trkpt lat="41.270586" lon="1.967659">
        <ele>3.513581</ele>
        <time>2023-01-22T09:19:44.000Z</time>
      </trkpt>
      <trkpt lat="41.270449" lon="1.967413">
        <ele>4.039902</ele>
        <time>2023-01-22T09:19:48.000Z</time>
      </trkpt>
      <trkpt lat="41.270218" lon="1.966999">
        <ele>4.926261</ele>
        <time>2023-01-22T09:19:54.000Z</time>
      </trkpt>
      <trkpt lat="41.270021" lon="1.966529">
        <ele>4.361374</ele>
        <time>2023-01-22T09:20:00.000Z</time>
      </trkpt>
      <trkpt lat="41.269919" lon="1.966041">
        <ele>3.763225</ele>
        <time>2023-01-22T09:20:05.000Z</time>
      </trkpt>
      <trkpt lat="41.269900" lon="1.965937">
        <ele>3.636835</ele>
        <time>2023-01-22T09:20:06.000Z</time>
      </trkpt>
      <trkpt lat="41.269848" lon="1.965686">
        <ele>3.329375</ele>
        <time>2023-01-22T09:20:09.000Z</time>
      </trkpt>
      <trkpt lat="41.269842" lon="1.965605">
        <ele>3.233258</ele>
        <time>2023-01-22T09:20:10.000Z</time>
      </trkpt>
      <trkpt lat="41.269851" lon="1.965522">
        <ele>3.134228</ele>
        <time>2023-01-22T09:20:11.000Z</time>
      </trkpt>
      <trkpt lat="41.269863" lon="1.965438">
        <ele>3.033257</ele>
        <time>2023-01-22T09:20:12.000Z</time>
      </trkpt>
      <trkpt lat="41.269862" lon="1.965352">
        <ele>2.931687</ele>
        <time>2023-01-22T09:20:13.000Z</time>
      </trkpt>
      <trkpt lat="41.269780" lon="1.965208">
        <ele>2.718343</ele>
        <time>2023-01-22T09:20:15.000Z</time>
      </trkpt>
      <trkpt lat="41.269659" lon="1.965162">
        <ele>2.520623</ele>
        <time>2023-01-22T09:20:17.000Z</time>
      </trkpt>
      <trkpt lat="41.269535" lon="1.965190">
        <ele>2.323013</ele>
        <time>2023-01-22T09:20:19.000Z</time>
      </trkpt>
      <trkpt lat="41.269409" lon="1.965175">
        <ele>2.144348</ele>
        <time>2023-01-22T09:20:21.000Z</time>
      </trkpt>
      <trkpt lat="41.269250" lon="1.965030">
        <ele>2.181492</ele>
        <time>2023-01-22T09:20:24.000Z</time>
      </trkpt>
      <trkpt lat="41.269205" lon="1.964963">
        <ele>2.194505</ele>
        <time>2023-01-22T09:20:25.000Z</time>
      </trkpt>
      <trkpt lat="41.268931" lon="1.964476">
        <ele>2.282608</ele>
        <time>2023-01-22T09:20:32.000Z</time>
      </trkpt>
      <trkpt lat="41.268612" lon="1.963889">
        <ele>2.387517</ele>
        <time>2023-01-22T09:20:40.000Z</time>
      </trkpt>
      <trkpt lat="41.268561" lon="1.963787">
        <ele>2.405259</ele>
        <time>2023-01-22T09:20:41.000Z</time>
      </trkpt>
      <trkpt lat="41.268345" lon="1.963223">
        <ele>2.479500</ele>
        <time>2023-01-22T09:20:47.000Z</time>
      </trkpt>
      <trkpt lat="41.268169" lon="1.962497">
        <ele>2.355206</ele>
        <time>2023-01-22T09:20:54.000Z</time>
      </trkpt>
      <trkpt lat="41.268144" lon="1.962396">
        <ele>2.337880</ele>
        <time>2023-01-22T09:20:55.000Z</time>
      </trkpt>
      <trkpt lat="41.268002" lon="1.961673">
        <ele>2.216120</ele>
        <time>2023-01-22T09:21:02.000Z</time>
      </trkpt>
      <trkpt lat="41.267983" lon="1.961569">
        <ele>2.198681</ele>
        <time>2023-01-22T09:21:03.000Z</time>
      </trkpt>
      <trkpt lat="41.267848" lon="1.960792">
        <ele>2.040266</ele>
        <time>2023-01-22T09:21:11.000Z</time>
      </trkpt>
      <trkpt lat="41.267835" lon="1.960692">
        <ele>2.008079</ele>
        <time>2023-01-22T09:21:12.000Z</time>
      </trkpt>
      <trkpt lat="41.267767" lon="1.960071">
        <ele>1.809042</ele>
        <time>2023-01-22T09:21:18.000Z</time>
      </trkpt>
      <trkpt lat="41.267675" lon="1.959308">
        <ele>1.563953</ele>
        <time>2023-01-22T09:21:25.000Z</time>
      </trkpt>
      <trkpt lat="41.267588" lon="1.958562">
        <ele>1.330380</ele>
        <time>2023-01-22T09:21:32.000Z</time>
      </trkpt>
      <trkpt lat="41.267575" lon="1.958459">
        <ele>1.309911</ele>
        <time>2023-01-22T09:21:33.000Z</time>
      </trkpt>
      <trkpt lat="41.267505" lon="1.957743">
        <ele>1.168404</ele>
        <time>2023-01-22T09:21:40.000Z</time>
      </trkpt>
      <trkpt lat="41.267496" lon="1.957640">
        <ele>1.148081</ele>
        <time>2023-01-22T09:21:41.000Z</time>
      </trkpt>
      <trkpt lat="41.267435" lon="1.957056">
        <ele>1.032526</ele>
        <time>2023-01-22T09:21:47.000Z</time>
      </trkpt>
      <trkpt lat="41.267425" lon="1.956955">
        <ele>1.012561</ele>
        <time>2023-01-22T09:21:48.000Z</time>
      </trkpt>
      <trkpt lat="41.267349" lon="1.956213">
        <ele>0.869876</ele>
        <time>2023-01-22T09:21:55.000Z</time>
      </trkpt>
      <trkpt lat="41.267275" lon="1.955469">
        <ele>0.840955</ele>
        <time>2023-01-22T09:22:02.000Z</time>
      </trkpt>
      <trkpt lat="41.267267" lon="1.955372">
        <ele>0.837194</ele>
        <time>2023-01-22T09:22:03.000Z</time>
      </trkpt>
      <trkpt lat="41.267201" lon="1.954688">
        <ele>0.810619</ele>
        <time>2023-01-22T09:22:10.000Z</time>
      </trkpt>
      <trkpt lat="41.267115" lon="1.953861">
        <ele>0.778014</ele>
        <time>2023-01-22T09:22:18.000Z</time>
      </trkpt>
      <trkpt lat="41.267041" lon="1.953135">
        <ele>0.692535</ele>
        <time>2023-01-22T09:22:25.000Z</time>
      </trkpt>
      <trkpt lat="41.267005" lon="1.952732">
        <ele>0.645185</ele>
        <time>2023-01-22T09:22:29.000Z</time>
      </trkpt>
      <trkpt lat="41.266927" lon="1.951968">
        <ele>0.555229</ele>
        <time>2023-01-22T09:22:36.000Z</time>
      </trkpt>
      <trkpt lat="41.266919" lon="1.951859">
        <ele>0.542451</ele>
        <time>2023-01-22T09:22:37.000Z</time>
      </trkpt>
      <trkpt lat="41.266855" lon="1.951140">
        <ele>0.473097</ele>
        <time>2023-01-22T09:22:44.000Z</time>
      </trkpt>
      <trkpt lat="41.266848" lon="1.951037">
        <ele>0.465428</ele>
        <time>2023-01-22T09:22:45.000Z</time>
      </trkpt>
      <trkpt lat="41.266787" lon="1.950322">
        <ele>0.412066</ele>
        <time>2023-01-22T09:22:52.000Z</time>
      </trkpt>
      <trkpt lat="41.266772" lon="1.950198">
        <ele>0.402752</ele>
        <time>2023-01-22T09:22:53.000Z</time>
      </trkpt>
      <trkpt lat="41.266763" lon="1.950095">
        <ele>0.395063</ele>
        <time>2023-01-22T09:22:54.000Z</time>
      </trkpt>
      <trkpt lat="41.266755" lon="1.949996">
        <ele>0.387679</ele>
        <time>2023-01-22T09:22:55.000Z</time>
      </trkpt>
      <trkpt lat="41.266687" lon="1.949197">
        <ele>0.328050</ele>
        <time>2023-01-22T09:23:03.000Z</time>
      </trkpt>
      <trkpt lat="41.266628" lon="1.948512">
        <ele>0.266097</ele>
        <time>2023-01-22T09:23:10.000Z</time>
      </trkpt>
      <trkpt lat="41.266568" lon="1.947785">
        <ele>0.198845</ele>
        <time>2023-01-22T09:23:17.000Z</time>
      </trkpt>
      <trkpt lat="41.266552" lon="1.947579">
        <ele>0.179802</ele>
        <time>2023-01-22T09:23:19.000Z</time>
      </trkpt>
      <trkpt lat="41.266502" lon="1.946884">
        <ele>0.115602</ele>
        <time>2023-01-22T09:23:26.000Z</time>
      </trkpt>
      <trkpt lat="41.266433" lon="1.946088">
        <ele>0.183300</ele>
        <time>2023-01-22T09:23:34.000Z</time>
      </trkpt>
      <trkpt lat="41.266391" lon="1.945524">
        <ele>0.253867</ele>
        <time>2023-01-22T09:23:40.000Z</time>
      </trkpt>
      <trkpt lat="41.266327" lon="1.944809">
        <ele>0.343521</ele>
        <time>2023-01-22T09:23:48.000Z</time>
      </trkpt>
      <trkpt lat="41.266320" lon="1.944716">
        <ele>0.355158</ele>
        <time>2023-01-22T09:23:49.000Z</time>
      </trkpt>
      <trkpt lat="41.266256" lon="1.943951">
        <ele>0.418111</ele>
        <time>2023-01-22T09:23:57.000Z</time>
      </trkpt>
      <trkpt lat="41.266233" lon="1.943679">
        <ele>0.430248</ele>
        <time>2023-01-22T09:24:00.000Z</time>
      </trkpt>
      <trkpt lat="41.266194" lon="1.943105">
        <ele>0.455803</ele>
        <time>2023-01-22T09:24:06.000Z</time>
      </trkpt>
      <trkpt lat="41.266145" lon="1.942422">
        <ele>0.486225</ele>
        <time>2023-01-22T09:24:14.000Z</time>
      </trkpt>
      <trkpt lat="41.266084" lon="1.941678">
        <ele>0.485511</ele>
        <time>2023-01-22T09:24:22.000Z</time>
      </trkpt>
      <trkpt lat="41.266015" lon="1.940909">
        <ele>0.432878</ele>
        <time>2023-01-22T09:24:30.000Z</time>
      </trkpt>
      <trkpt lat="41.266006" lon="1.940810">
        <ele>0.426101</ele>
        <time>2023-01-22T09:24:31.000Z</time>
      </trkpt>
      <trkpt lat="41.265944" lon="1.940083">
        <ele>0.376376</ele>
        <time>2023-01-22T09:24:38.000Z</time>
      </trkpt>
      <trkpt lat="41.265936" lon="1.939980">
        <ele>0.369339</ele>
        <time>2023-01-22T09:24:39.000Z</time>
      </trkpt>
      <trkpt lat="41.265872" lon="1.939168">
        <ele>0.394051</ele>
        <time>2023-01-22T09:24:47.000Z</time>
      </trkpt>
      <trkpt lat="41.265846" lon="1.938847">
        <ele>0.431660</ele>
        <time>2023-01-22T09:24:50.000Z</time>
      </trkpt>
      <trkpt lat="41.265769" lon="1.938200">
        <ele>0.507968</ele>
        <time>2023-01-22T09:24:56.000Z</time>
      </trkpt>
      <trkpt lat="41.265592" lon="1.937589">
        <ele>0.584246</ele>
        <time>2023-01-22T09:25:02.000Z</time>
      </trkpt>
      <trkpt lat="41.265423" lon="1.937070">
        <ele>0.557453</ele>
        <time>2023-01-22T09:25:08.000Z</time>
      </trkpt>
      <trkpt lat="41.265256" lon="1.936617">
        <ele>0.421575</ele>
        <time>2023-01-22T09:25:13.000Z</time>
      </trkpt>
      <trkpt lat="41.265038" lon="1.935898">
        <ele>0.212785</ele>
        <time>2023-01-22T09:25:20.000Z</time>
      </trkpt>
      <trkpt lat="41.264982" lon="1.935692">
        <ele>0.153791</ele>
        <time>2023-01-22T09:25:22.000Z</time>
      </trkpt>
      <trkpt lat="41.264787" lon="1.934956">
        <ele>0.019755</ele>
        <time>2023-01-22T09:25:29.000Z</time>
      </trkpt>
      <trkpt lat="41.264759" lon="1.934850">
        <ele>0.057039</ele>
        <time>2023-01-22T09:25:30.000Z</time>
      </trkpt>
      <trkpt lat="41.264549" lon="1.934101">
        <ele>0.322317</ele>
        <time>2023-01-22T09:25:37.000Z</time>
      </trkpt>
      <trkpt lat="41.264484" lon="1.933893">
        <ele>0.397068</ele>
        <time>2023-01-22T09:25:39.000Z</time>
      </trkpt>
      <trkpt lat="41.264260" lon="1.933186">
        <ele>0.651672</ele>
        <time>2023-01-22T09:25:46.000Z</time>
      </trkpt>
      <trkpt lat="41.264198" lon="1.932997">
        <ele>0.720103</ele>
        <time>2023-01-22T09:25:48.000Z</time>
      </trkpt>
      <trkpt lat="41.264003" lon="1.932389">
        <ele>1.357881</ele>
        <time>2023-01-22T09:25:55.000Z</time>
      </trkpt>
      <trkpt lat="41.263921" lon="1.932139">
        <ele>1.674268</ele>
        <time>2023-01-22T09:25:58.000Z</time>
      </trkpt>
      <trkpt lat="41.263693" lon="1.931425">
        <ele>2.574093</ele>
        <time>2023-01-22T09:26:06.000Z</time>
      </trkpt>
      <trkpt lat="41.263588" lon="1.931065">
        <ele>3.022002</ele>
        <time>2023-01-22T09:26:10.000Z</time>
      </trkpt>
      <trkpt lat="41.263505" lon="1.930806">
        <ele>3.348588</ele>
        <time>2023-01-22T09:26:13.000Z</time>
      </trkpt>
      <trkpt lat="41.263329" lon="1.930238">
        <ele>5.209040</ele>
        <time>2023-01-22T09:26:20.000Z</time>
      </trkpt>
      <trkpt lat="41.263311" lon="1.930170">
        <ele>5.479437</ele>
        <time>2023-01-22T09:26:21.000Z</time>
      </trkpt>
      <trkpt lat="41.263196" lon="1.929705">
        <ele>7.315470</ele>
        <time>2023-01-22T09:26:28.000Z</time>
      </trkpt>
      <trkpt lat="41.263180" lon="1.929638">
        <ele>7.579142</ele>
        <time>2023-01-22T09:26:29.000Z</time>
      </trkpt>
      <trkpt lat="41.263096" lon="1.929245">
        <ele>9.111590</ele>
        <time>2023-01-22T09:26:35.000Z</time>
      </trkpt>
      <trkpt lat="41.263086" lon="1.929194">
        <ele>9.309276</ele>
        <time>2023-01-22T09:26:36.000Z</time>
      </trkpt>
      <trkpt lat="41.263068" lon="1.929109">
        <ele>9.640493</ele>
        <time>2023-01-22T09:26:38.000Z</time>
      </trkpt>
      <trkpt lat="41.263052" lon="1.929025">
        <ele>9.965508</ele>
        <time>2023-01-22T09:26:40.000Z</time>
      </trkpt>
      <trkpt lat="41.263047" lon="1.928993">
        <ele>10.088096</ele>
        <time>2023-01-22T09:26:41.000Z</time>
      </trkpt>
      <trkpt lat="41.263032" lon="1.928907">
        <ele>10.419224</ele>
        <time>2023-01-22T09:26:43.000Z</time>
      </trkpt>
      <trkpt lat="41.262979" lon="1.928670">
        <ele>11.346641</ele>
        <time>2023-01-22T09:26:48.000Z</time>
      </trkpt>
      <trkpt lat="41.262953" lon="1.928542">
        <ele>11.843948</ele>
        <time>2023-01-22T09:26:51.000Z</time>
      </trkpt>
      <trkpt lat="41.262945" lon="1.928473">
        <ele>12.105806</ele>
        <time>2023-01-22T09:26:53.000Z</time>
      </trkpt>
      <trkpt lat="41.262937" lon="1.928384">
        <ele>12.441996</ele>
        <time>2023-01-22T09:26:56.000Z</time>
      </trkpt>
      <trkpt lat="41.262930" lon="1.928359">
        <ele>12.540553</ele>
        <time>2023-01-22T09:26:57.000Z</time>
      </trkpt>
      <trkpt lat="41.262902" lon="1.928261">
        <ele>12.904379</ele>
        <time>2023-01-22T09:27:01.000Z</time>
      </trkpt>
      <trkpt lat="41.262873" lon="1.928075">
        <ele>13.563590</ele>
        <time>2023-01-22T09:27:07.000Z</time>
      </trkpt>
      <trkpt lat="41.262858" lon="1.928055">
        <ele>13.661634</ele>
        <time>2023-01-22T09:27:10.000Z</time>
      </trkpt>
      <trkpt lat="41.262858" lon="1.928055">
        <ele>13.661634</ele>
        <time>2023-01-22T09:27:11.000Z</time>
      </trkpt>
      <trkpt lat="41.262858" lon="1.928055">
        <ele>13.661634</ele>
        <time>2023-01-22T09:27:22.000Z</time>
      </trkpt>
      <trkpt lat="41.262858" lon="1.928055">
        <ele>13.661634</ele>
        <time>2023-01-22T09:27:43.000Z</time>
      </trkpt>
      <trkpt lat="41.262858" lon="1.928055">
        <ele>13.661634</ele>
        <time>2023-01-22T09:28:00.000Z</time>
      </trkpt>
      <trkpt lat="41.262858" lon="1.928055">
        <ele>13.661634</ele>
        <time>2023-01-22T09:28:26.000Z</time>
      </trkpt>
      <trkpt lat="41.262851" lon="1.928050">
        <ele>13.698314</ele>
        <time>2023-01-22T09:30:06.000Z</time>
      </trkpt>
      <trkpt lat="41.262844" lon="1.928031">
        <ele>13.771743</ele>
        <time>2023-01-22T09:30:12.000Z</time>
      </trkpt>
      <trkpt lat="41.262825" lon="1.927948">
        <ele>14.072837</ele>
        <time>2023-01-22T09:30:15.000Z</time>
      </trkpt>
      <trkpt lat="41.262716" lon="1.927818">
        <ele>14.748668</ele>
        <time>2023-01-22T09:30:20.000Z</time>
      </trkpt>
      <trkpt lat="41.262567" lon="1.927739">
        <ele>15.489165</ele>
        <time>2023-01-22T09:30:26.000Z</time>
      </trkpt>
      <trkpt lat="41.262564" lon="1.927734">
        <ele>15.511366</ele>
        <time>2023-01-22T09:30:34.000Z</time>
      </trkpt>
      <trkpt lat="41.262473" lon="1.927724">
        <ele>15.932910</ele>
        <time>2023-01-22T09:30:38.000Z</time>
      </trkpt>
      <trkpt lat="41.262267" lon="1.927704">
        <ele>16.886466</ele>
        <time>2023-01-22T09:30:42.000Z</time>
      </trkpt>
      <trkpt lat="41.262148" lon="1.927641">
        <ele>17.477749</ele>
        <time>2023-01-22T09:30:44.000Z</time>
      </trkpt>
      <trkpt lat="41.262108" lon="1.927578">
        <ele>17.763932</ele>
        <time>2023-01-22T09:30:45.000Z</time>
      </trkpt>
      <trkpt lat="41.262062" lon="1.927424">
        <ele>18.339009</ele>
        <time>2023-01-22T09:30:47.000Z</time>
      </trkpt>
      <trkpt lat="41.262027" lon="1.927190">
        <ele>19.166985</ele>
        <time>2023-01-22T09:30:50.000Z</time>
      </trkpt>
      <trkpt lat="41.262022" lon="1.927116">
        <ele>19.424825</ele>
        <time>2023-01-22T09:30:51.000Z</time>
      </trkpt>
      <trkpt lat="41.262006" lon="1.926972">
        <ele>19.929982</ele>
        <time>2023-01-22T09:30:53.000Z</time>
      </trkpt>
      <trkpt lat="41.261994" lon="1.926900">
        <ele>20.185913</ele>
        <time>2023-01-22T09:30:54.000Z</time>
      </trkpt>
      <trkpt lat="41.261963" lon="1.926749">
        <ele>20.729125</ele>
        <time>2023-01-22T09:30:56.000Z</time>
      </trkpt>
      <trkpt lat="41.261920" lon="1.926601">
        <ele>20.876225</ele>
        <time>2023-01-22T09:30:58.000Z</time>
      </trkpt>
      <trkpt lat="41.261893" lon="1.926525">
        <ele>20.908735</ele>
        <time>2023-01-22T09:30:59.000Z</time>
      </trkpt>
      <trkpt lat="41.261843" lon="1.926371">
        <ele>20.973614</ele>
        <time>2023-01-22T09:31:01.000Z</time>
      </trkpt>
      <trkpt lat="41.261720" lon="1.925970">
        <ele>21.141117</ele>
        <time>2023-01-22T09:31:06.000Z</time>
      </trkpt>
      <trkpt lat="41.261677" lon="1.925778">
        <ele>21.218600</ele>
        <time>2023-01-22T09:31:08.000Z</time>
      </trkpt>
      <trkpt lat="41.261588" lon="1.925353">
        <ele>21.389230</ele>
        <time>2023-01-22T09:31:12.000Z</time>
      </trkpt>
      <trkpt lat="41.261487" lon="1.924881">
        <ele>21.579031</ele>
        <time>2023-01-22T09:31:16.000Z</time>
      </trkpt>
      <trkpt lat="41.261408" lon="1.924530">
        <ele>21.720738</ele>
        <time>2023-01-22T09:31:19.000Z</time>
      </trkpt>
      <trkpt lat="41.261332" lon="1.924164">
        <ele>21.050329</ele>
        <time>2023-01-22T09:31:22.000Z</time>
      </trkpt>
      <trkpt lat="41.261303" lon="1.923908">
        <ele>20.448476</ele>
        <time>2023-01-22T09:31:24.000Z</time>
      </trkpt>
      <trkpt lat="41.261304" lon="1.923775">
        <ele>20.139270</ele>
        <time>2023-01-22T09:31:25.000Z</time>
      </trkpt>
      <trkpt lat="41.261319" lon="1.923645">
        <ele>19.833514</ele>
        <time>2023-01-22T09:31:26.000Z</time>
      </trkpt>
      <trkpt lat="41.261397" lon="1.923399">
        <ele>19.212835</ele>
        <time>2023-01-22T09:31:28.000Z</time>
      </trkpt>
      <trkpt lat="41.261449" lon="1.923286">
        <ele>18.904825</ele>
        <time>2023-01-22T09:31:29.000Z</time>
      </trkpt>
      <trkpt lat="41.261624" lon="1.922969">
        <ele>17.990503</ele>
        <time>2023-01-22T09:31:32.000Z</time>
      </trkpt>
      <trkpt lat="41.261682" lon="1.922866">
        <ele>17.691323</ele>
        <time>2023-01-22T09:31:33.000Z</time>
      </trkpt>
      <trkpt lat="41.261882" lon="1.922457">
        <ele>16.557034</ele>
        <time>2023-01-22T09:31:37.000Z</time>
      </trkpt>
      <trkpt lat="41.261914" lon="1.922340">
        <ele>16.267597</ele>
        <time>2023-01-22T09:31:38.000Z</time>
      </trkpt>
      <trkpt lat="41.261936" lon="1.922219">
        <ele>16.225103</ele>
        <time>2023-01-22T09:31:39.000Z</time>
      </trkpt>
      <trkpt lat="41.261950" lon="1.921971">
        <ele>16.325636</ele>
        <time>2023-01-22T09:31:41.000Z</time>
      </trkpt>
      <trkpt lat="41.261918" lon="1.921724">
        <ele>16.426955</ele>
        <time>2023-01-22T09:31:43.000Z</time>
      </trkpt>
      <trkpt lat="41.261889" lon="1.921628">
        <ele>16.468778</ele>
        <time>2023-01-22T09:31:44.000Z</time>
      </trkpt>
      <trkpt lat="41.261845" lon="1.921515">
        <ele>16.520222</ele>
        <time>2023-01-22T09:31:45.000Z</time>
      </trkpt>
      <trkpt lat="41.261667" lon="1.921201">
        <ele>16.679200</ele>
        <time>2023-01-22T09:31:48.000Z</time>
      </trkpt>
      <trkpt lat="41.261314" lon="1.920723">
        <ele>16.950073</ele>
        <time>2023-01-22T09:31:54.000Z</time>
      </trkpt>
      <trkpt lat="41.261031" lon="1.920393">
        <ele>17.152449</ele>
        <time>2023-01-22T09:31:59.000Z</time>
      </trkpt>
      <trkpt lat="41.260970" lon="1.920345">
        <ele>17.494683</ele>
        <time>2023-01-22T09:32:00.000Z</time>
      </trkpt>
      <trkpt lat="41.260907" lon="1.920305">
        <ele>17.860380</ele>
        <time>2023-01-22T09:32:01.000Z</time>
      </trkpt>
      <trkpt lat="41.260774" lon="1.920241">
        <ele>18.601300</ele>
        <time>2023-01-22T09:32:03.000Z</time>
      </trkpt>
      <trkpt lat="41.260642" lon="1.920206">
        <ele>19.306401</ele>
        <time>2023-01-22T09:32:05.000Z</time>
      </trkpt>
      <trkpt lat="41.260522" lon="1.920189">
        <ele>19.938591</ele>
        <time>2023-01-22T09:32:07.000Z</time>
      </trkpt>
      <trkpt lat="41.260469" lon="1.920192">
        <ele>20.216489</ele>
        <time>2023-01-22T09:32:08.000Z</time>
      </trkpt>
      <trkpt lat="41.260418" lon="1.920200">
        <ele>20.485511</ele>
        <time>2023-01-22T09:32:09.000Z</time>
      </trkpt>
      <trkpt lat="41.260277" lon="1.920220">
        <ele>21.228344</ele>
        <time>2023-01-22T09:32:12.000Z</time>
      </trkpt>
      <trkpt lat="41.260151" lon="1.920235">
        <ele>21.891050</ele>
        <time>2023-01-22T09:32:15.000Z</time>
      </trkpt>
      <trkpt lat="41.260110" lon="1.920238">
        <ele>22.106158</ele>
        <time>2023-01-22T09:32:16.000Z</time>
      </trkpt>
      <trkpt lat="41.260066" lon="1.920237">
        <ele>22.336691</ele>
        <time>2023-01-22T09:32:17.000Z</time>
      </trkpt>
      <trkpt lat="41.259932" lon="1.920224">
        <ele>23.040532</ele>
        <time>2023-01-22T09:32:20.000Z</time>
      </trkpt>
      <trkpt lat="41.259887" lon="1.920209">
        <ele>23.283558</ele>
        <time>2023-01-22T09:32:21.000Z</time>
      </trkpt>
      <trkpt lat="41.259763" lon="1.920138">
        <ele>23.990766</ele>
        <time>2023-01-22T09:32:24.000Z</time>
      </trkpt>
      <trkpt lat="41.259694" lon="1.920078">
        <ele>24.422607</ele>
        <time>2023-01-22T09:32:26.000Z</time>
      </trkpt>
      <trkpt lat="41.259662" lon="1.920044">
        <ele>24.637151</ele>
        <time>2023-01-22T09:32:27.000Z</time>
      </trkpt>
      <trkpt lat="41.259556" lon="1.919879">
        <ele>25.491879</ele>
        <time>2023-01-22T09:32:31.000Z</time>
      </trkpt>
      <trkpt lat="41.259515" lon="1.919796">
        <ele>25.882989</ele>
        <time>2023-01-22T09:32:33.000Z</time>
      </trkpt>
      <trkpt lat="41.259470" lon="1.919719">
        <ele>26.267073</ele>
        <time>2023-01-22T09:32:35.000Z</time>
      </trkpt>
      <trkpt lat="41.259363" lon="1.919523">
        <ele>27.321590</ele>
        <time>2023-01-22T09:32:40.000Z</time>
      </trkpt>
      <trkpt lat="41.259238" lon="1.919287">
        <ele>28.636420</ele>
        <time>2023-01-22T09:32:46.000Z</time>
      </trkpt>
      <trkpt lat="41.259160" lon="1.919147">
        <ele>29.430060</ele>
        <time>2023-01-22T09:32:50.000Z</time>
      </trkpt>
      <trkpt lat="41.259120" lon="1.919072">
        <ele>29.848872</ele>
        <time>2023-01-22T09:32:52.000Z</time>
      </trkpt>
      <trkpt lat="41.259016" lon="1.918876">
        <ele>30.941504</ele>
        <time>2023-01-22T09:32:57.000Z</time>
      </trkpt>
      <trkpt lat="41.258903" lon="1.918669">
        <ele>32.106614</ele>
        <time>2023-01-22T09:33:02.000Z</time>
      </trkpt>
      <trkpt lat="41.258881" lon="1.918630">
        <ele>32.328683</ele>
        <time>2023-01-22T09:33:03.000Z</time>
      </trkpt>
      <trkpt lat="41.258801" lon="1.918476">
        <ele>33.181234</ele>
        <time>2023-01-22T09:33:07.000Z</time>
      </trkpt>
      <trkpt lat="41.258690" lon="1.918268">
        <ele>34.342980</ele>
        <time>2023-01-22T09:33:13.000Z</time>
      </trkpt>
      <trkpt lat="41.258613" lon="1.918126">
        <ele>35.140400</ele>
        <time>2023-01-22T09:33:17.000Z</time>
      </trkpt>
      <trkpt lat="41.258541" lon="1.917994">
        <ele>35.883166</ele>
        <time>2023-01-22T09:33:21.000Z</time>
      </trkpt>
      <trkpt lat="41.258522" lon="1.917964">
        <ele>36.061825</ele>
        <time>2023-01-22T09:33:22.000Z</time>
      </trkpt>
      <trkpt lat="41.258414" lon="1.917765">
        <ele>37.179664</ele>
        <time>2023-01-22T09:33:28.000Z</time>
      </trkpt>
      <trkpt lat="41.258397" lon="1.917728">
        <ele>37.377160</ele>
        <time>2023-01-22T09:33:29.000Z</time>
      </trkpt>
      <trkpt lat="41.258280" lon="1.917491">
        <ele>38.589892</ele>
        <time>2023-01-22T09:33:35.000Z</time>
      </trkpt>
      <trkpt lat="41.258256" lon="1.917438">
        <ele>38.853123</ele>
        <time>2023-01-22T09:33:36.000Z</time>
      </trkpt>
      <trkpt lat="41.258187" lon="1.917231">
        <ele>39.816477</ele>
        <time>2023-01-22T09:33:40.000Z</time>
      </trkpt>
      <trkpt lat="41.258142" lon="1.917083">
        <ele>40.495681</ele>
        <time>2023-01-22T09:33:43.000Z</time>
      </trkpt>
      <trkpt lat="41.258114" lon="1.917000">
        <ele>40.882722</ele>
        <time>2023-01-22T09:33:45.000Z</time>
      </trkpt>
      <trkpt lat="41.258063" lon="1.916851">
        <ele>41.579244</ele>
        <time>2023-01-22T09:33:49.000Z</time>
      </trkpt>
      <trkpt lat="41.258027" lon="1.916721">
        <ele>42.168650</ele>
        <time>2023-01-22T09:33:52.000Z</time>
      </trkpt>
      <trkpt lat="41.257976" lon="1.916569">
        <ele>42.876808</ele>
        <time>2023-01-22T09:33:56.000Z</time>
      </trkpt>
      <trkpt lat="41.257945" lon="1.916492">
        <ele>43.248419</ele>
        <time>2023-01-22T09:33:58.000Z</time>
      </trkpt>
      <trkpt lat="41.257884" lon="1.916327">
        <ele>44.030693</ele>
        <time>2023-01-22T09:34:02.000Z</time>
      </trkpt>
      <trkpt lat="41.257801" lon="1.916164">
        <ele>44.868276</ele>
        <time>2023-01-22T09:34:06.000Z</time>
      </trkpt>
      <trkpt lat="41.257781" lon="1.916127">
        <ele>45.062158</ele>
        <time>2023-01-22T09:34:07.000Z</time>
      </trkpt>
      <trkpt lat="41.257703" lon="1.915982">
        <ele>45.820720</ele>
        <time>2023-01-22T09:34:11.000Z</time>
      </trkpt>
      <trkpt lat="41.257662" lon="1.915905">
        <ele>46.222162</ele>
        <time>2023-01-22T09:34:13.000Z</time>
      </trkpt>
      <trkpt lat="41.257582" lon="1.915753">
        <ele>47.011573</ele>
        <time>2023-01-22T09:34:17.000Z</time>
      </trkpt>
      <trkpt lat="41.257522" lon="1.915648">
        <ele>47.572695</ele>
        <time>2023-01-22T09:34:20.000Z</time>
      </trkpt>
      <trkpt lat="41.257424" lon="1.915450">
        <ele>47.690474</ele>
        <time>2023-01-22T09:34:25.000Z</time>
      </trkpt>
      <trkpt lat="41.257368" lon="1.915329">
        <ele>47.713987</ele>
        <time>2023-01-22T09:34:28.000Z</time>
      </trkpt>
      <trkpt lat="41.257268" lon="1.915103">
        <ele>47.757382</ele>
        <time>2023-01-22T09:34:34.000Z</time>
      </trkpt>
      <trkpt lat="41.257233" lon="1.915021">
        <ele>47.772986</ele>
        <time>2023-01-22T09:34:36.000Z</time>
      </trkpt>
      <trkpt lat="41.257143" lon="1.914779">
        <ele>47.817664</ele>
        <time>2023-01-22T09:34:41.000Z</time>
      </trkpt>
      <trkpt lat="41.257113" lon="1.914655">
        <ele>47.839219</ele>
        <time>2023-01-22T09:34:43.000Z</time>
      </trkpt>
      <trkpt lat="41.257087" lon="1.914431">
        <ele>47.876725</ele>
        <time>2023-01-22T09:34:46.000Z</time>
      </trkpt>
      <trkpt lat="41.257072" lon="1.913895">
        <ele>47.965483</ele>
        <time>2023-01-22T09:34:52.000Z</time>
      </trkpt>
      <trkpt lat="41.257070" lon="1.913697">
        <ele>47.998250</ele>
        <time>2023-01-22T09:34:54.000Z</time>
      </trkpt>
      <trkpt lat="41.257046" lon="1.913303">
        <ele>47.818509</ele>
        <time>2023-01-22T09:34:58.000Z</time>
      </trkpt>
      <trkpt lat="41.256918" lon="1.912925">
        <ele>46.624356</ele>
        <time>2023-01-22T09:35:02.000Z</time>
      </trkpt>
      <trkpt lat="41.256759" lon="1.912518">
        <ele>45.303184</ele>
        <time>2023-01-22T09:35:06.000Z</time>
      </trkpt>
      <trkpt lat="41.256739" lon="1.912431">
        <ele>45.041133</ele>
        <time>2023-01-22T09:35:07.000Z</time>
      </trkpt>
      <trkpt lat="41.256708" lon="1.912210">
        <ele>44.393574</ele>
        <time>2023-01-22T09:35:09.000Z</time>
      </trkpt>
      <trkpt lat="41.256711" lon="1.911950">
        <ele>43.644577</ele>
        <time>2023-01-22T09:35:11.000Z</time>
      </trkpt>
      <trkpt lat="41.256718" lon="1.911827">
        <ele>43.289272</ele>
        <time>2023-01-22T09:35:12.000Z</time>
      </trkpt>
      <trkpt lat="41.256744" lon="1.911333">
        <ele>41.862864</ele>
        <time>2023-01-22T09:35:16.000Z</time>
      </trkpt>
      <trkpt lat="41.256712" lon="1.911034">
        <ele>40.985320</ele>
        <time>2023-01-22T09:35:18.000Z</time>
      </trkpt>
      <trkpt lat="41.256672" lon="1.910906">
        <ele>40.567704</ele>
        <time>2023-01-22T09:35:19.000Z</time>
      </trkpt>
      <trkpt lat="41.256619" lon="1.910785">
        <ele>40.145803</ele>
        <time>2023-01-22T09:35:20.000Z</time>
      </trkpt>
      <trkpt lat="41.256556" lon="1.910673">
        <ele>39.724380</ele>
        <time>2023-01-22T09:35:21.000Z</time>
      </trkpt>
      <trkpt lat="41.256488" lon="1.910569">
        <ele>39.309129</ele>
        <time>2023-01-22T09:35:22.000Z</time>
      </trkpt>
      <trkpt lat="41.256379" lon="1.910402">
        <ele>38.642838</ele>
        <time>2023-01-22T09:35:24.000Z</time>
      </trkpt>
      <trkpt lat="41.256267" lon="1.910227">
        <ele>37.950432</ele>
        <time>2023-01-22T09:35:26.000Z</time>
      </trkpt>
      <trkpt lat="41.256213" lon="1.910142">
        <ele>37.615157</ele>
        <time>2023-01-22T09:35:27.000Z</time>
      </trkpt>
      <trkpt lat="41.256162" lon="1.910054">
        <ele>37.280401</ele>
        <time>2023-01-22T09:35:28.000Z</time>
      </trkpt>
      <trkpt lat="41.255999" lon="1.909656">
        <ele>35.914947</ele>
        <time>2023-01-22T09:35:32.000Z</time>
      </trkpt>
      <trkpt lat="41.255973" lon="1.909539">
        <ele>35.547380</ele>
        <time>2023-01-22T09:35:33.000Z</time>
      </trkpt>
      <trkpt lat="41.255954" lon="1.909393">
        <ele>35.100979</ele>
        <time>2023-01-22T09:35:34.000Z</time>
      </trkpt>
      <trkpt lat="41.255952" lon="1.909265">
        <ele>34.715265</ele>
        <time>2023-01-22T09:35:35.000Z</time>
      </trkpt>
      <trkpt lat="41.255976" lon="1.908743">
        <ele>33.003116</ele>
        <time>2023-01-22T09:35:39.000Z</time>
      </trkpt>
      <trkpt lat="41.255993" lon="1.908469">
        <ele>32.035342</ele>
        <time>2023-01-22T09:35:41.000Z</time>
      </trkpt>
      <trkpt lat="41.256001" lon="1.908192">
        <ele>31.059567</ele>
        <time>2023-01-22T09:35:43.000Z</time>
      </trkpt>
      <trkpt lat="41.255998" lon="1.908050">
        <ele>30.559522</ele>
        <time>2023-01-22T09:35:44.000Z</time>
      </trkpt>
      <trkpt lat="41.255985" lon="1.907911">
        <ele>30.066462</ele>
        <time>2023-01-22T09:35:45.000Z</time>
      </trkpt>
      <trkpt lat="41.255963" lon="1.907773">
        <ele>29.569892</ele>
        <time>2023-01-22T09:35:46.000Z</time>
      </trkpt>
      <trkpt lat="41.255863" lon="1.907352">
        <ele>28.015735</ele>
        <time>2023-01-22T09:35:49.000Z</time>
      </trkpt>
      <trkpt lat="41.255827" lon="1.907210">
        <ele>27.488228</ele>
        <time>2023-01-22T09:35:50.000Z</time>
      </trkpt>
      <trkpt lat="41.255793" lon="1.907068">
        <ele>26.963639</ele>
        <time>2023-01-22T09:35:51.000Z</time>
      </trkpt>
      <trkpt lat="41.255772" lon="1.906953">
        <ele>26.547060</ele>
        <time>2023-01-22T09:35:52.000Z</time>
      </trkpt>
      <trkpt lat="41.255748" lon="1.906672">
        <ele>25.551557</ele>
        <time>2023-01-22T09:35:54.000Z</time>
      </trkpt>
      <trkpt lat="41.255751" lon="1.906529">
        <ele>25.152958</ele>
        <time>2023-01-22T09:35:55.000Z</time>
      </trkpt>
      <trkpt lat="41.255767" lon="1.906388">
        <ele>24.760595</ele>
        <time>2023-01-22T09:35:56.000Z</time>
      </trkpt>
      <trkpt lat="41.255853" lon="1.906100">
        <ele>23.907924</ele>
        <time>2023-01-22T09:35:58.000Z</time>
      </trkpt>
      <trkpt lat="41.255984" lon="1.905892">
        <ele>23.161303</ele>
        <time>2023-01-22T09:36:00.000Z</time>
      </trkpt>
      <trkpt lat="41.256066" lon="1.905808">
        <ele>22.782493</ele>
        <time>2023-01-22T09:36:01.000Z</time>
      </trkpt>
      <trkpt lat="41.256154" lon="1.905731">
        <ele>22.396970</ele>
        <time>2023-01-22T09:36:02.000Z</time>
      </trkpt>
      <trkpt lat="41.256516" lon="1.905445">
        <ele>20.855946</ele>
        <time>2023-01-22T09:36:06.000Z</time>
      </trkpt>
      <trkpt lat="41.256695" lon="1.905303">
        <ele>20.093132</ele>
        <time>2023-01-22T09:36:08.000Z</time>
      </trkpt>
      <trkpt lat="41.256781" lon="1.905235">
        <ele>19.726955</ele>
        <time>2023-01-22T09:36:09.000Z</time>
      </trkpt>
      <trkpt lat="41.257092" lon="1.904992">
        <ele>18.489211</ele>
        <time>2023-01-22T09:36:13.000Z</time>
      </trkpt>
      <trkpt lat="41.257418" lon="1.904730">
        <ele>17.308327</ele>
        <time>2023-01-22T09:36:18.000Z</time>
      </trkpt>
      <trkpt lat="41.257532" lon="1.904650">
        <ele>16.908712</ele>
        <time>2023-01-22T09:36:20.000Z</time>
      </trkpt>
      <trkpt lat="41.257631" lon="1.904583">
        <ele>16.564331</ele>
        <time>2023-01-22T09:36:22.000Z</time>
      </trkpt>
      <trkpt lat="41.257687" lon="1.904529">
        <ele>16.349888</ele>
        <time>2023-01-22T09:36:23.000Z</time>
      </trkpt>
      <trkpt lat="41.257825" lon="1.904330">
        <ele>15.718867</ele>
        <time>2023-01-22T09:36:27.000Z</time>
      </trkpt>
      <trkpt lat="41.257849" lon="1.904266">
        <ele>15.552170</ele>
        <time>2023-01-22T09:36:28.000Z</time>
      </trkpt>
      <trkpt lat="41.257865" lon="1.904197">
        <ele>15.383873</ele>
        <time>2023-01-22T09:36:29.000Z</time>
      </trkpt>
      <trkpt lat="41.257879" lon="1.903884">
        <ele>14.653063</ele>
        <time>2023-01-22T09:36:33.000Z</time>
      </trkpt>
      <trkpt lat="41.257887" lon="1.903754">
        <ele>14.349054</ele>
        <time>2023-01-22T09:36:35.000Z</time>
      </trkpt>
      <trkpt lat="41.257895" lon="1.903683">
        <ele>14.181724</ele>
        <time>2023-01-22T09:36:36.000Z</time>
      </trkpt>
      <trkpt lat="41.257954" lon="1.903493">
        <ele>13.702592</ele>
        <time>2023-01-22T09:36:39.000Z</time>
      </trkpt>
      <trkpt lat="41.257981" lon="1.903419">
        <ele>13.510876</ele>
        <time>2023-01-22T09:36:40.000Z</time>
      </trkpt>
      <trkpt lat="41.257990" lon="1.903357">
        <ele>13.362178</ele>
        <time>2023-01-22T09:36:41.000Z</time>
      </trkpt>
      <trkpt lat="41.257980" lon="1.903294">
        <ele>13.169458</ele>
        <time>2023-01-22T09:36:42.000Z</time>
      </trkpt>
      <trkpt lat="41.257919" lon="1.903188">
        <ele>12.769905</ele>
        <time>2023-01-22T09:36:44.000Z</time>
      </trkpt>
      <trkpt lat="41.257873" lon="1.903159">
        <ele>12.567230</ele>
        <time>2023-01-22T09:36:45.000Z</time>
      </trkpt>
      <trkpt lat="41.257777" lon="1.903126">
        <ele>12.172453</ele>
        <time>2023-01-22T09:36:47.000Z</time>
      </trkpt>
      <trkpt lat="41.257664" lon="1.903131">
        <ele>11.722298</ele>
        <time>2023-01-22T09:36:49.000Z</time>
      </trkpt>
      <trkpt lat="41.257606" lon="1.903150">
        <ele>11.484474</ele>
        <time>2023-01-22T09:36:50.000Z</time>
      </trkpt>
      <trkpt lat="41.257483" lon="1.903219">
        <ele>10.952987</ele>
        <time>2023-01-22T09:36:52.000Z</time>
      </trkpt>
      <trkpt lat="41.257431" lon="1.903257">
        <ele>10.716766</ele>
        <time>2023-01-22T09:36:53.000Z</time>
      </trkpt>
      <trkpt lat="41.257337" lon="1.903332">
        <ele>10.280348</ele>
        <time>2023-01-22T09:36:55.000Z</time>
      </trkpt>
      <trkpt lat="41.257011" lon="1.903632">
        <ele>8.702066</ele>
        <time>2023-01-22T09:37:02.000Z</time>
      </trkpt>
      <trkpt lat="41.256896" lon="1.903702">
        <ele>8.198536</ele>
        <time>2023-01-22T09:37:04.000Z</time>
      </trkpt>
      <trkpt lat="41.256785" lon="1.903768">
        <ele>7.714452</ele>
        <time>2023-01-22T09:37:06.000Z</time>
      </trkpt>
      <trkpt lat="41.256697" lon="1.903849">
        <ele>7.288380</ele>
        <time>2023-01-22T09:37:08.000Z</time>
      </trkpt>
      <trkpt lat="41.256658" lon="1.903907">
        <ele>7.055467</ele>
        <time>2023-01-22T09:37:09.000Z</time>
      </trkpt>
      <trkpt lat="41.256624" lon="1.903972">
        <ele>6.818453</ele>
        <time>2023-01-22T09:37:10.000Z</time>
      </trkpt>
      <trkpt lat="41.256547" lon="1.904190">
        <ele>6.148114</ele>
        <time>2023-01-22T09:37:13.000Z</time>
      </trkpt>
      <trkpt lat="41.256519" lon="1.904268">
        <ele>6.008071</ele>
        <time>2023-01-22T09:37:14.000Z</time>
      </trkpt>
      <trkpt lat="41.256490" lon="1.904338">
        <ele>5.878576</ele>
        <time>2023-01-22T09:37:15.000Z</time>
      </trkpt>
      <trkpt lat="41.256376" lon="1.904530">
        <ele>5.482177</ele>
        <time>2023-01-22T09:37:18.000Z</time>
      </trkpt>
      <trkpt lat="41.256246" lon="1.904714">
        <ele>5.073069</ele>
        <time>2023-01-22T09:37:21.000Z</time>
      </trkpt>
      <trkpt lat="41.256200" lon="1.904762">
        <ele>4.947067</ele>
        <time>2023-01-22T09:37:22.000Z</time>
      </trkpt>
      <trkpt lat="41.256088" lon="1.904825">
        <ele>4.684993</ele>
        <time>2023-01-22T09:37:24.000Z</time>
      </trkpt>
      <trkpt lat="41.256029" lon="1.904841">
        <ele>4.555221</ele>
        <time>2023-01-22T09:37:25.000Z</time>
      </trkpt>
      <trkpt lat="41.255911" lon="1.904861">
        <ele>4.298854</ele>
        <time>2023-01-22T09:37:27.000Z</time>
      </trkpt>
      <trkpt lat="41.255742" lon="1.904882">
        <ele>3.933044</ele>
        <time>2023-01-22T09:37:30.000Z</time>
      </trkpt>
      <trkpt lat="41.255330" lon="1.904920">
        <ele>3.042978</ele>
        <time>2023-01-22T09:37:38.000Z</time>
      </trkpt>
      <trkpt lat="41.254845" lon="1.904956">
        <ele>2.331109</ele>
        <time>2023-01-22T09:37:46.000Z</time>
      </trkpt>
      <trkpt lat="41.254789" lon="1.904927">
        <ele>2.330988</ele>
        <time>2023-01-22T09:37:47.000Z</time>
      </trkpt>
      <trkpt lat="41.254759" lon="1.904881">
        <ele>2.330896</ele>
        <time>2023-01-22T09:37:48.000Z</time>
      </trkpt>
      <trkpt lat="41.254716" lon="1.904788">
        <ele>2.330730</ele>
        <time>2023-01-22T09:37:49.000Z</time>
      </trkpt>
      <trkpt lat="41.254690" lon="1.904703">
        <ele>2.330591</ele>
        <time>2023-01-22T09:37:50.000Z</time>
      </trkpt>
      <trkpt lat="41.254671" lon="1.904630">
        <ele>2.330474</ele>
        <time>2023-01-22T09:37:51.000Z</time>
      </trkpt>
      <trkpt lat="41.254648" lon="1.904534">
        <ele>2.330321</ele>
        <time>2023-01-22T09:37:52.000Z</time>
      </trkpt>
      <trkpt lat="41.254624" lon="1.904453">
        <ele>2.330189</ele>
        <time>2023-01-22T09:37:53.000Z</time>
      </trkpt>
      <trkpt lat="41.254568" lon="1.904248">
        <ele>2.329858</ele>
        <time>2023-01-22T09:37:56.000Z</time>
      </trkpt>
      <trkpt lat="41.254460" lon="1.903824">
        <ele>2.329179</ele>
        <time>2023-01-22T09:38:03.000Z</time>
      </trkpt>
      <trkpt lat="41.254340" lon="1.903363">
        <ele>2.328440</ele>
        <time>2023-01-22T09:38:11.000Z</time>
      </trkpt>
      <trkpt lat="41.254260" lon="1.903118">
        <ele>2.328035</ele>
        <time>2023-01-22T09:38:15.000Z</time>
      </trkpt>
      <trkpt lat="41.254191" lon="1.902956">
        <ele>2.350804</ele>
        <time>2023-01-22T09:38:18.000Z</time>
      </trkpt>
      <trkpt lat="41.254114" lon="1.902827">
        <ele>2.484844</ele>
        <time>2023-01-22T09:38:21.000Z</time>
      </trkpt>
      <trkpt lat="41.254006" lon="1.902699">
        <ele>2.641419</ele>
        <time>2023-01-22T09:38:24.000Z</time>
      </trkpt>
      <trkpt lat="41.253972" lon="1.902668">
        <ele>2.686038</ele>
        <time>2023-01-22T09:38:25.000Z</time>
      </trkpt>
      <trkpt lat="41.253835" lon="1.902573">
        <ele>2.853272</ele>
        <time>2023-01-22T09:38:29.000Z</time>
      </trkpt>
      <trkpt lat="41.253631" lon="1.902441">
        <ele>3.098829</ele>
        <time>2023-01-22T09:38:35.000Z</time>
      </trkpt>
      <trkpt lat="41.253304" lon="1.902339">
        <ele>3.462386</ele>
        <time>2023-01-22T09:38:43.000Z</time>
      </trkpt>
      <trkpt lat="41.252917" lon="1.902229">
        <ele>3.890744</ele>
        <time>2023-01-22T09:38:52.000Z</time>
      </trkpt>
      <trkpt lat="41.252623" lon="1.902159">
        <ele>4.214037</ele>
        <time>2023-01-22T09:38:59.000Z</time>
      </trkpt>
      <trkpt lat="41.252461" lon="1.901962">
        <ele>4.124864</ele>
        <time>2023-01-22T09:39:01.000Z</time>
      </trkpt>
      <trkpt lat="41.252324" lon="1.901800">
        <ele>3.956823</ele>
        <time>2023-01-22T09:39:04.000Z</time>
      </trkpt>
      <trkpt lat="41.252283" lon="1.901730">
        <ele>3.895668</ele>
        <time>2023-01-22T09:39:05.000Z</time>
      </trkpt>
      <trkpt lat="41.252258" lon="1.901652">
        <ele>3.837230</ele>
        <time>2023-01-22T09:39:06.000Z</time>
      </trkpt>
      <trkpt lat="41.252233" lon="1.901480">
        <ele>3.716495</ele>
        <time>2023-01-22T09:39:08.000Z</time>
      </trkpt>
      <trkpt lat="41.252231" lon="1.901408">
        <ele>3.666839</ele>
        <time>2023-01-22T09:39:09.000Z</time>
      </trkpt>
      <trkpt lat="41.252229" lon="1.901115">
        <ele>3.464899</ele>
        <time>2023-01-22T09:39:12.000Z</time>
      </trkpt>
      <trkpt lat="41.252228" lon="1.901026">
        <ele>3.403554</ele>
        <time>2023-01-22T09:39:13.000Z</time>
      </trkpt>
      <trkpt lat="41.252182" lon="1.900565">
        <ele>3.083053</ele>
        <time>2023-01-22T09:39:19.000Z</time>
      </trkpt>
      <trkpt lat="41.252172" lon="1.900493">
        <ele>3.032591</ele>
        <time>2023-01-22T09:39:20.000Z</time>
      </trkpt>
      <trkpt lat="41.252106" lon="1.900222">
        <ele>2.836266</ele>
        <time>2023-01-22T09:39:24.000Z</time>
      </trkpt>
      <trkpt lat="41.251969" lon="1.899689">
        <ele>2.625886</ele>
        <time>2023-01-22T09:39:31.000Z</time>
      </trkpt>
      <trkpt lat="41.251886" lon="1.899442">
        <ele>2.625886</ele>
        <time>2023-01-22T09:39:35.000Z</time>
      </trkpt>
      <trkpt lat="41.251856" lon="1.899391">
        <ele>2.625886</ele>
        <time>2023-01-22T09:39:36.000Z</time>
      </trkpt>
      <trkpt lat="41.251823" lon="1.899348">
        <ele>2.625886</ele>
        <time>2023-01-22T09:39:37.000Z</time>
      </trkpt>
      <trkpt lat="41.251682" lon="1.899204">
        <ele>2.625886</ele>
        <time>2023-01-22T09:39:41.000Z</time>
      </trkpt>
      <trkpt lat="41.251648" lon="1.899168">
        <ele>2.625886</ele>
        <time>2023-01-22T09:39:42.000Z</time>
      </trkpt>
      <trkpt lat="41.251557" lon="1.899028">
        <ele>2.625886</ele>
        <time>2023-01-22T09:39:46.000Z</time>
      </trkpt>
      <trkpt lat="41.251480" lon="1.898908">
        <ele>2.625886</ele>
        <time>2023-01-22T09:39:52.000Z</time>
      </trkpt>
      <trkpt lat="41.251385" lon="1.898785">
        <ele>2.625886</ele>
        <time>2023-01-22T09:39:59.000Z</time>
      </trkpt>
      <trkpt lat="41.251290" lon="1.898658">
        <ele>2.625886</ele>
        <time>2023-01-22T09:40:05.000Z</time>
      </trkpt>
      <trkpt lat="41.251194" lon="1.898536">
        <ele>2.625886</ele>
        <time>2023-01-22T09:40:10.000Z</time>
      </trkpt>
      <trkpt lat="41.251182" lon="1.898529">
        <ele>2.625886</ele>
        <time>2023-01-22T09:40:15.000Z</time>
      </trkpt>
      <trkpt lat="41.251182" lon="1.898529">
        <ele>2.625886</ele>
        <time>2023-01-22T09:40:17.000Z</time>
      </trkpt>
      <trkpt lat="41.251182" lon="1.898529">
        <ele>2.625886</ele>
        <time>2023-01-22T09:40:18.000Z</time>
      </trkpt>
      <trkpt lat="41.251589" lon="1.899112">
        <ele>6.715417</ele>
        <time>2023-01-22T10:46:38.000Z</time>
      </trkpt>
      <trkpt lat="41.251676" lon="1.899249">
        <ele>6.715417</ele>
        <time>2023-01-22T10:46:41.000Z</time>
      </trkpt>
      <trkpt lat="41.251756" lon="1.899335">
        <ele>6.715417</ele>
        <time>2023-01-22T10:46:43.000Z</time>
      </trkpt>
      <trkpt lat="41.251895" lon="1.899508">
        <ele>6.715417</ele>
        <time>2023-01-22T10:46:46.000Z</time>
      </trkpt>
      <trkpt lat="41.251928" lon="1.899596">
        <ele>6.715417</ele>
        <time>2023-01-22T10:46:47.000Z</time>
      </trkpt>
      <trkpt lat="41.251984" lon="1.899788">
        <ele>6.715417</ele>
        <time>2023-01-22T10:46:49.000Z</time>
      </trkpt>
      <trkpt lat="41.252046" lon="1.899990">
        <ele>6.715417</ele>
        <time>2023-01-22T10:46:51.000Z</time>
      </trkpt>
      <trkpt lat="41.252099" lon="1.900171">
        <ele>6.719464</ele>
        <time>2023-01-22T10:46:53.000Z</time>
      </trkpt>
      <trkpt lat="41.252237" lon="1.900901">
        <ele>6.753360</ele>
        <time>2023-01-22T10:47:00.000Z</time>
      </trkpt>
      <trkpt lat="41.252245" lon="1.901000">
        <ele>6.757844</ele>
        <time>2023-01-22T10:47:01.000Z</time>
      </trkpt>
      <trkpt lat="41.252251" lon="1.901275">
        <ele>6.770233</ele>
        <time>2023-01-22T10:47:04.000Z</time>
      </trkpt>
      <trkpt lat="41.252251" lon="1.901338">
        <ele>6.773070</ele>
        <time>2023-01-22T10:47:05.000Z</time>
      </trkpt>
      <trkpt lat="41.252257" lon="1.901595">
        <ele>6.784648</ele>
        <time>2023-01-22T10:47:08.000Z</time>
      </trkpt>
      <trkpt lat="41.252288" lon="1.901760">
        <ele>6.792307</ele>
        <time>2023-01-22T10:47:10.000Z</time>
      </trkpt>
      <trkpt lat="41.252346" lon="1.901897">
        <ele>6.799387</ele>
        <time>2023-01-22T10:47:12.000Z</time>
      </trkpt>
      <trkpt lat="41.252447" lon="1.902043">
        <ele>6.808322</ele>
        <time>2023-01-22T10:47:14.000Z</time>
      </trkpt>
      <trkpt lat="41.252598" lon="1.902170">
        <ele>6.819023</ele>
        <time>2023-01-22T10:47:17.000Z</time>
      </trkpt>
      <trkpt lat="41.252646" lon="1.902197">
        <ele>6.822144</ele>
        <time>2023-01-22T10:47:18.000Z</time>
      </trkpt>
      <trkpt lat="41.252693" lon="1.902219">
        <ele>6.841301</ele>
        <time>2023-01-22T10:47:19.000Z</time>
      </trkpt>
      <trkpt lat="41.252832" lon="1.902287">
        <ele>6.922704</ele>
        <time>2023-01-22T10:47:22.000Z</time>
      </trkpt>
      <trkpt lat="41.253145" lon="1.902316">
        <ele>7.095156</ele>
        <time>2023-01-22T10:47:28.000Z</time>
      </trkpt>
      <trkpt lat="41.253210" lon="1.902348">
        <ele>7.133251</ele>
        <time>2023-01-22T10:47:29.000Z</time>
      </trkpt>
      <trkpt lat="41.253440" lon="1.902416">
        <ele>7.262751</ele>
        <time>2023-01-22T10:47:35.000Z</time>
      </trkpt>
      <trkpt lat="41.253551" lon="1.902451">
        <ele>7.325451</ele>
        <time>2023-01-22T10:47:37.000Z</time>
      </trkpt>
      <trkpt lat="41.253631" lon="1.902493">
        <ele>7.372723</ele>
        <time>2023-01-22T10:47:39.000Z</time>
      </trkpt>
      <trkpt lat="41.253670" lon="1.902507">
        <ele>7.394926</ele>
        <time>2023-01-22T10:47:40.000Z</time>
      </trkpt>
      <trkpt lat="41.253704" lon="1.902520">
        <ele>7.414370</ele>
        <time>2023-01-22T10:47:41.000Z</time>
      </trkpt>
      <trkpt lat="41.253792" lon="1.902573">
        <ele>7.467465</ele>
        <time>2023-01-22T10:47:43.000Z</time>
      </trkpt>
      <trkpt lat="41.253876" lon="1.902642">
        <ele>7.521728</ele>
        <time>2023-01-22T10:47:45.000Z</time>
      </trkpt>
      <trkpt lat="41.254079" lon="1.902815">
        <ele>7.654240</ele>
        <time>2023-01-22T10:47:49.000Z</time>
      </trkpt>
      <trkpt lat="41.254126" lon="1.902872">
        <ele>7.689198</ele>
        <time>2023-01-22T10:47:50.000Z</time>
      </trkpt>
      <trkpt lat="41.254168" lon="1.902940">
        <ele>7.725563</ele>
        <time>2023-01-22T10:47:51.000Z</time>
      </trkpt>
      <trkpt lat="41.254295" lon="1.903196">
        <ele>7.739736</ele>
        <time>2023-01-22T10:47:54.000Z</time>
      </trkpt>
      <trkpt lat="41.254359" lon="1.903383">
        <ele>7.588989</ele>
        <time>2023-01-22T10:47:56.000Z</time>
      </trkpt>
      <trkpt lat="41.254383" lon="1.903481">
        <ele>7.513369</ele>
        <time>2023-01-22T10:47:59.000Z</time>
      </trkpt>
      <trkpt lat="41.254427" lon="1.903667">
        <ele>7.370307</ele>
        <time>2023-01-22T10:48:01.000Z</time>
      </trkpt>
      <trkpt lat="41.254475" lon="1.903845">
        <ele>7.231564</ele>
        <time>2023-01-22T10:48:03.000Z</time>
      </trkpt>
      <trkpt lat="41.254545" lon="1.904119">
        <ele>7.019244</ele>
        <time>2023-01-22T10:48:06.000Z</time>
      </trkpt>
      <trkpt lat="41.254594" lon="1.904306">
        <ele>6.873950</ele>
        <time>2023-01-22T10:48:08.000Z</time>
      </trkpt>
      <trkpt lat="41.254726" lon="1.904791">
        <ele>6.495513</ele>
        <time>2023-01-22T10:48:13.000Z</time>
      </trkpt>
      <trkpt lat="41.254798" lon="1.904971">
        <ele>6.345921</ele>
        <time>2023-01-22T10:48:15.000Z</time>
      </trkpt>
      <trkpt lat="41.254860" lon="1.905038">
        <ele>6.267963</ele>
        <time>2023-01-22T10:48:16.000Z</time>
      </trkpt>
      <trkpt lat="41.254907" lon="1.905061">
        <ele>6.219089</ele>
        <time>2023-01-22T10:48:17.000Z</time>
      </trkpt>
      <trkpt lat="41.255034" lon="1.905077">
        <ele>6.094593</ele>
        <time>2023-01-22T10:48:19.000Z</time>
      </trkpt>
      <trkpt lat="41.255034" lon="1.905077">
        <ele>6.094593</ele>
        <time>2023-01-22T10:48:26.000Z</time>
      </trkpt>
      <trkpt lat="41.255723" lon="1.904949">
        <ele>7.224613</ele>
        <time>2023-01-22T10:48:31.000Z</time>
      </trkpt>
      <trkpt lat="41.255861" lon="1.904958">
        <ele>7.470445</ele>
        <time>2023-01-22T10:48:33.000Z</time>
      </trkpt>
      <trkpt lat="41.255972" lon="1.904939">
        <ele>7.669570</ele>
        <time>2023-01-22T10:48:35.000Z</time>
      </trkpt>
      <trkpt lat="41.256197" lon="1.904882">
        <ele>8.077098</ele>
        <time>2023-01-22T10:48:39.000Z</time>
      </trkpt>
      <trkpt lat="41.256300" lon="1.904813">
        <ele>8.282289</ele>
        <time>2023-01-22T10:48:41.000Z</time>
      </trkpt>
      <trkpt lat="41.256546" lon="1.904518">
        <ele>8.871591</ele>
        <time>2023-01-22T10:48:47.000Z</time>
      </trkpt>
      <trkpt lat="41.256735" lon="1.904285">
        <ele>9.492799</ele>
        <time>2023-01-22T10:48:52.000Z</time>
      </trkpt>
      <trkpt lat="41.256800" lon="1.904203">
        <ele>10.005420</ele>
        <time>2023-01-22T10:48:54.000Z</time>
      </trkpt>
      <trkpt lat="41.256913" lon="1.904045">
        <ele>10.943555</ele>
        <time>2023-01-22T10:48:58.000Z</time>
      </trkpt>
      <trkpt lat="41.256938" lon="1.904012">
        <ele>11.145095</ele>
        <time>2023-01-22T10:48:59.000Z</time>
      </trkpt>
      <trkpt lat="41.256999" lon="1.903936">
        <ele>11.623355</ele>
        <time>2023-01-22T10:49:02.000Z</time>
      </trkpt>
      <trkpt lat="41.257021" lon="1.903909">
        <ele>11.794642</ele>
        <time>2023-01-22T10:49:03.000Z</time>
      </trkpt>
      <trkpt lat="41.257097" lon="1.903845">
        <ele>12.309360</ele>
        <time>2023-01-22T10:49:06.000Z</time>
      </trkpt>
      <trkpt lat="41.257203" lon="1.903793">
        <ele>12.955860</ele>
        <time>2023-01-22T10:49:10.000Z</time>
      </trkpt>
      <trkpt lat="41.257235" lon="1.903797">
        <ele>13.139781</ele>
        <time>2023-01-22T10:49:11.000Z</time>
      </trkpt>
      <trkpt lat="41.257349" lon="1.903854">
        <ele>13.836687</ele>
        <time>2023-01-22T10:49:15.000Z</time>
      </trkpt>
      <trkpt lat="41.257367" lon="1.903874">
        <ele>13.970895</ele>
        <time>2023-01-22T10:49:16.000Z</time>
      </trkpt>
      <trkpt lat="41.257410" lon="1.903926">
        <ele>14.303436</ele>
        <time>2023-01-22T10:49:18.000Z</time>
      </trkpt>
      <trkpt lat="41.257441" lon="1.903962">
        <ele>14.538917</ele>
        <time>2023-01-22T10:49:19.000Z</time>
      </trkpt>
      <trkpt lat="41.257499" lon="1.904050">
        <ele>15.042364</ele>
        <time>2023-01-22T10:49:21.000Z</time>
      </trkpt>
      <trkpt lat="41.257526" lon="1.904089">
        <ele>15.270438</ele>
        <time>2023-01-22T10:49:22.000Z</time>
      </trkpt>
      <trkpt lat="41.257556" lon="1.904206">
        <ele>15.802218</ele>
        <time>2023-01-22T10:49:25.000Z</time>
      </trkpt>
      <trkpt lat="41.257553" lon="1.904243">
        <ele>15.962307</ele>
        <time>2023-01-22T10:49:26.000Z</time>
      </trkpt>
      <trkpt lat="41.257550" lon="1.904351">
        <ele>16.427216</ele>
        <time>2023-01-22T10:49:28.000Z</time>
      </trkpt>
      <trkpt lat="41.257509" lon="1.904513">
        <ele>17.162537</ele>
        <time>2023-01-22T10:49:31.000Z</time>
      </trkpt>
      <trkpt lat="41.257485" lon="1.904562">
        <ele>17.414117</ele>
        <time>2023-01-22T10:49:32.000Z</time>
      </trkpt>
      <trkpt lat="41.257458" lon="1.904606">
        <ele>17.658448</ele>
        <time>2023-01-22T10:49:33.000Z</time>
      </trkpt>
      <trkpt lat="41.257363" lon="1.904722">
        <ele>18.396372</ele>
        <time>2023-01-22T10:49:36.000Z</time>
      </trkpt>
      <trkpt lat="41.257196" lon="1.904886">
        <ele>19.567910</ele>
        <time>2023-01-22T10:49:41.000Z</time>
      </trkpt>
      <trkpt lat="41.257084" lon="1.904982">
        <ele>19.976585</ele>
        <time>2023-01-22T10:49:44.000Z</time>
      </trkpt>
      <trkpt lat="41.256807" lon="1.905197">
        <ele>20.960273</ele>
        <time>2023-01-22T10:49:51.000Z</time>
      </trkpt>
      <trkpt lat="41.256657" lon="1.905313">
        <ele>21.492463</ele>
        <time>2023-01-22T10:49:55.000Z</time>
      </trkpt>
      <trkpt lat="41.256587" lon="1.905365">
        <ele>21.738383</ele>
        <time>2023-01-22T10:49:57.000Z</time>
      </trkpt>
      <trkpt lat="41.256514" lon="1.905419">
        <ele>21.994585</ele>
        <time>2023-01-22T10:49:59.000Z</time>
      </trkpt>
      <trkpt lat="41.256475" lon="1.905456">
        <ele>22.141516</ele>
        <time>2023-01-22T10:50:00.000Z</time>
      </trkpt>
      <trkpt lat="41.256447" lon="1.905477">
        <ele>22.240109</ele>
        <time>2023-01-22T10:50:01.000Z</time>
      </trkpt>
      <trkpt lat="41.256163" lon="1.905693">
        <ele>23.243546</ele>
        <time>2023-01-22T10:50:09.000Z</time>
      </trkpt>
      <trkpt lat="41.256132" lon="1.905717">
        <ele>23.353563</ele>
        <time>2023-01-22T10:50:10.000Z</time>
      </trkpt>
      <trkpt lat="41.255937" lon="1.905890">
        <ele>24.072503</ele>
        <time>2023-01-22T10:50:16.000Z</time>
      </trkpt>
      <trkpt lat="41.255889" lon="1.905955">
        <ele>24.282600</ele>
        <time>2023-01-22T10:50:18.000Z</time>
      </trkpt>
      <trkpt lat="41.255784" lon="1.906208">
        <ele>24.948981</ele>
        <time>2023-01-22T10:50:23.000Z</time>
      </trkpt>
      <trkpt lat="41.255707" lon="1.906590">
        <ele>26.140244</ele>
        <time>2023-01-22T10:50:28.000Z</time>
      </trkpt>
      <trkpt lat="41.255699" lon="1.906730">
        <ele>26.577747</ele>
        <time>2023-01-22T10:50:30.000Z</time>
      </trkpt>
      <trkpt lat="41.255711" lon="1.906868">
        <ele>27.010626</ele>
        <time>2023-01-22T10:50:32.000Z</time>
      </trkpt>
      <trkpt lat="41.255724" lon="1.906940">
        <ele>27.241361</ele>
        <time>2023-01-22T10:50:33.000Z</time>
      </trkpt>
      <trkpt lat="41.255805" lon="1.907264">
        <ele>28.305315</ele>
        <time>2023-01-22T10:50:37.000Z</time>
      </trkpt>
      <trkpt lat="41.255848" lon="1.907430">
        <ele>28.852421</ele>
        <time>2023-01-22T10:50:39.000Z</time>
      </trkpt>
      <trkpt lat="41.255922" lon="1.907740">
        <ele>29.865917</ele>
        <time>2023-01-22T10:50:43.000Z</time>
      </trkpt>
      <trkpt lat="41.255958" lon="1.907938">
        <ele>30.500677</ele>
        <time>2023-01-22T10:50:46.000Z</time>
      </trkpt>
      <trkpt lat="41.255967" lon="1.907999">
        <ele>30.694380</ele>
        <time>2023-01-22T10:50:47.000Z</time>
      </trkpt>
      <trkpt lat="41.255979" lon="1.908193">
        <ele>31.300931</ele>
        <time>2023-01-22T10:50:50.000Z</time>
      </trkpt>
      <trkpt lat="41.255978" lon="1.908241">
        <ele>31.450557</ele>
        <time>2023-01-22T10:50:51.000Z</time>
      </trkpt>
      <trkpt lat="41.255970" lon="1.908354">
        <ele>31.804226</ele>
        <time>2023-01-22T10:50:53.000Z</time>
      </trkpt>
      <trkpt lat="41.255963" lon="1.908479">
        <ele>32.194807</ele>
        <time>2023-01-22T10:50:55.000Z</time>
      </trkpt>
      <trkpt lat="41.255948" lon="1.908774">
        <ele>33.086318</ele>
        <time>2023-01-22T10:51:00.000Z</time>
      </trkpt>
      <trkpt lat="41.255938" lon="1.908951">
        <ele>33.611691</ele>
        <time>2023-01-22T10:51:03.000Z</time>
      </trkpt>
      <trkpt lat="41.255930" lon="1.909060">
        <ele>33.935850</ele>
        <time>2023-01-22T10:51:05.000Z</time>
      </trkpt>
      <trkpt lat="41.255922" lon="1.909355">
        <ele>34.809578</ele>
        <time>2023-01-22T10:51:10.000Z</time>
      </trkpt>
      <trkpt lat="41.255929" lon="1.909484">
        <ele>35.192394</ele>
        <time>2023-01-22T10:51:12.000Z</time>
      </trkpt>
      <trkpt lat="41.255958" lon="1.909640">
        <ele>35.668040</ele>
        <time>2023-01-22T10:51:15.000Z</time>
      </trkpt>
      <trkpt lat="41.256024" lon="1.909869">
        <ele>36.393952</ele>
        <time>2023-01-22T10:51:19.000Z</time>
      </trkpt>
      <trkpt lat="41.256067" lon="1.909974">
        <ele>36.747858</ele>
        <time>2023-01-22T10:51:21.000Z</time>
      </trkpt>
      <trkpt lat="41.256207" lon="1.910225">
        <ele>37.672933</ele>
        <time>2023-01-22T10:51:26.000Z</time>
      </trkpt>
      <trkpt lat="41.256366" lon="1.910479">
        <ele>38.651246</ele>
        <time>2023-01-22T10:51:31.000Z</time>
      </trkpt>
      <trkpt lat="41.256581" lon="1.910828">
        <ele>40.016543</ele>
        <time>2023-01-22T10:51:38.000Z</time>
      </trkpt>
      <trkpt lat="41.256628" lon="1.910917">
        <ele>40.363434</ele>
        <time>2023-01-22T10:51:40.000Z</time>
      </trkpt>
      <trkpt lat="41.256688" lon="1.911090">
        <ele>40.971084</ele>
        <time>2023-01-22T10:51:43.000Z</time>
      </trkpt>
      <trkpt lat="41.256699" lon="1.911147">
        <ele>41.158772</ele>
        <time>2023-01-22T10:51:44.000Z</time>
      </trkpt>
      <trkpt lat="41.256711" lon="1.911254">
        <ele>41.503812</ele>
        <time>2023-01-22T10:51:46.000Z</time>
      </trkpt>
      <trkpt lat="41.256711" lon="1.911379">
        <ele>41.902484</ele>
        <time>2023-01-22T10:51:48.000Z</time>
      </trkpt>
      <trkpt lat="41.256707" lon="1.911495">
        <ele>42.272840</ele>
        <time>2023-01-22T10:51:50.000Z</time>
      </trkpt>
      <trkpt lat="41.256693" lon="1.911652">
        <ele>42.777082</ele>
        <time>2023-01-22T10:51:53.000Z</time>
      </trkpt>
      <trkpt lat="41.256676" lon="1.911873">
        <ele>43.485614</ele>
        <time>2023-01-22T10:51:57.000Z</time>
      </trkpt>
      <trkpt lat="41.256672" lon="1.911935">
        <ele>43.684082</ele>
        <time>2023-01-22T10:51:58.000Z</time>
      </trkpt>
      <trkpt lat="41.256668" lon="1.912043">
        <ele>44.028953</ele>
        <time>2023-01-22T10:52:00.000Z</time>
      </trkpt>
      <trkpt lat="41.256666" lon="1.912087">
        <ele>44.169542</ele>
        <time>2023-01-22T10:52:01.000Z</time>
      </trkpt>
      <trkpt lat="41.256668" lon="1.912253">
        <ele>44.699046</ele>
        <time>2023-01-22T10:52:04.000Z</time>
      </trkpt>
      <trkpt lat="41.256692" lon="1.912424">
        <ele>45.253852</ele>
        <time>2023-01-22T10:52:07.000Z</time>
      </trkpt>
      <trkpt lat="41.256719" lon="1.912542">
        <ele>45.647245</ele>
        <time>2023-01-22T10:52:09.000Z</time>
      </trkpt>
      <trkpt lat="41.256824" lon="1.912829">
        <ele>46.665235</ele>
        <time>2023-01-22T10:52:14.000Z</time>
      </trkpt>
      <trkpt lat="41.256876" lon="1.912952">
        <ele>47.115305</ele>
        <time>2023-01-22T10:52:16.000Z</time>
      </trkpt>
      <trkpt lat="41.257008" lon="1.913335">
        <ele>48.166971</ele>
        <time>2023-01-22T10:52:23.000Z</time>
      </trkpt>
      <trkpt lat="41.257022" lon="1.913453">
        <ele>48.457157</ele>
        <time>2023-01-22T10:52:25.000Z</time>
      </trkpt>
      <trkpt lat="41.257029" lon="1.913639">
        <ele>48.909544</ele>
        <time>2023-01-22T10:52:28.000Z</time>
      </trkpt>
      <trkpt lat="41.257029" lon="1.913701">
        <ele>49.060151</ele>
        <time>2023-01-22T10:52:29.000Z</time>
      </trkpt>
      <trkpt lat="41.257038" lon="1.914015">
        <ele>49.823456</ele>
        <time>2023-01-22T10:52:34.000Z</time>
      </trkpt>
      <trkpt lat="41.257038" lon="1.914302">
        <ele>50.520620</ele>
        <time>2023-01-22T10:52:39.000Z</time>
      </trkpt>
      <trkpt lat="41.257040" lon="1.914362">
        <ele>50.666512</ele>
        <time>2023-01-22T10:52:40.000Z</time>
      </trkpt>
      <trkpt lat="41.257091" lon="1.914774">
        <ele>51.680795</ele>
        <time>2023-01-22T10:52:47.000Z</time>
      </trkpt>
      <trkpt lat="41.257105" lon="1.914831">
        <ele>51.826459</ele>
        <time>2023-01-22T10:52:48.000Z</time>
      </trkpt>
      <trkpt lat="41.257190" lon="1.915052">
        <ele>52.429480</ele>
        <time>2023-01-22T10:52:52.000Z</time>
      </trkpt>
      <trkpt lat="41.257215" lon="1.915108">
        <ele>52.587690</ele>
        <time>2023-01-22T10:52:53.000Z</time>
      </trkpt>
      <trkpt lat="41.257486" lon="1.915668">
        <ele>52.026097</ele>
        <time>2023-01-22T10:53:02.000Z</time>
      </trkpt>
      <trkpt lat="41.257741" lon="1.916153">
        <ele>50.762675</ele>
        <time>2023-01-22T10:53:08.000Z</time>
      </trkpt>
      <trkpt lat="41.257911" lon="1.916522">
        <ele>49.838820</ele>
        <time>2023-01-22T10:53:12.000Z</time>
      </trkpt>
      <trkpt lat="41.257980" lon="1.916729">
        <ele>49.355448</ele>
        <time>2023-01-22T10:53:14.000Z</time>
      </trkpt>
      <trkpt lat="41.258076" lon="1.917034">
        <ele>48.649603</ele>
        <time>2023-01-22T10:53:17.000Z</time>
      </trkpt>
      <trkpt lat="41.258197" lon="1.917400">
        <ele>47.661398</ele>
        <time>2023-01-22T10:53:20.000Z</time>
      </trkpt>
      <trkpt lat="41.258242" lon="1.917516">
        <ele>47.118272</ele>
        <time>2023-01-22T10:53:21.000Z</time>
      </trkpt>
      <trkpt lat="41.258291" lon="1.917633">
        <ele>46.561014</ele>
        <time>2023-01-22T10:53:22.000Z</time>
      </trkpt>
      <trkpt lat="41.258398" lon="1.917864">
        <ele>45.432069</ele>
        <time>2023-01-22T10:53:24.000Z</time>
      </trkpt>
      <trkpt lat="41.258517" lon="1.918085">
        <ele>44.300989</ele>
        <time>2023-01-22T10:53:26.000Z</time>
      </trkpt>
      <trkpt lat="41.258577" lon="1.918193">
        <ele>43.742233</ele>
        <time>2023-01-22T10:53:27.000Z</time>
      </trkpt>
      <trkpt lat="41.258694" lon="1.918408">
        <ele>42.637882</ele>
        <time>2023-01-22T10:53:29.000Z</time>
      </trkpt>
      <trkpt lat="41.258802" lon="1.918606">
        <ele>41.620037</ele>
        <time>2023-01-22T10:53:31.000Z</time>
      </trkpt>
      <trkpt lat="41.258939" lon="1.918853">
        <ele>40.342875</ele>
        <time>2023-01-22T10:53:33.000Z</time>
      </trkpt>
      <trkpt lat="41.259067" lon="1.919083">
        <ele>39.152204</ele>
        <time>2023-01-22T10:53:35.000Z</time>
      </trkpt>
      <trkpt lat="41.259133" lon="1.919202">
        <ele>38.536906</ele>
        <time>2023-01-22T10:53:36.000Z</time>
      </trkpt>
      <trkpt lat="41.259186" lon="1.919300">
        <ele>38.034600</ele>
        <time>2023-01-22T10:53:37.000Z</time>
      </trkpt>
      <trkpt lat="41.259265" lon="1.919447">
        <ele>37.244641</ele>
        <time>2023-01-22T10:53:38.000Z</time>
      </trkpt>
      <trkpt lat="41.259452" lon="1.919798">
        <ele>35.357214</ele>
        <time>2023-01-22T10:53:41.000Z</time>
      </trkpt>
      <trkpt lat="41.259562" lon="1.919991">
        <ele>34.294631</ele>
        <time>2023-01-22T10:53:43.000Z</time>
      </trkpt>
      <trkpt lat="41.259705" lon="1.920186">
        <ele>33.099480</ele>
        <time>2023-01-22T10:53:45.000Z</time>
      </trkpt>
      <trkpt lat="41.259794" lon="1.920260">
        <ele>32.486951</ele>
        <time>2023-01-22T10:53:46.000Z</time>
      </trkpt>
      <trkpt lat="41.259892" lon="1.920315">
        <ele>31.866194</ele>
        <time>2023-01-22T10:53:47.000Z</time>
      </trkpt>
      <trkpt lat="41.260107" lon="1.920354">
        <ele>30.599814</ele>
        <time>2023-01-22T10:53:49.000Z</time>
      </trkpt>
      <trkpt lat="41.260332" lon="1.920335">
        <ele>29.284041</ele>
        <time>2023-01-22T10:53:51.000Z</time>
      </trkpt>
      <trkpt lat="41.260569" lon="1.920318">
        <ele>27.898868</ele>
        <time>2023-01-22T10:53:53.000Z</time>
      </trkpt>
      <trkpt lat="41.260688" lon="1.920326">
        <ele>27.292495</ele>
        <time>2023-01-22T10:53:54.000Z</time>
      </trkpt>
      <trkpt lat="41.260808" lon="1.920356">
        <ele>26.804635</ele>
        <time>2023-01-22T10:53:55.000Z</time>
      </trkpt>
      <trkpt lat="41.260924" lon="1.920410">
        <ele>26.313591</ele>
        <time>2023-01-22T10:53:56.000Z</time>
      </trkpt>
      <trkpt lat="41.261037" lon="1.920488">
        <ele>25.804932</ele>
        <time>2023-01-22T10:53:57.000Z</time>
      </trkpt>
      <trkpt lat="41.261142" lon="1.920585">
        <ele>25.294160</ele>
        <time>2023-01-22T10:53:58.000Z</time>
      </trkpt>
      <trkpt lat="41.261234" lon="1.920693">
        <ele>24.803910</ele>
        <time>2023-01-22T10:53:59.000Z</time>
      </trkpt>
      <trkpt lat="41.261403" lon="1.920925">
        <ele>23.833597</ele>
        <time>2023-01-22T10:54:01.000Z</time>
      </trkpt>
      <trkpt lat="41.261564" lon="1.921149">
        <ele>22.902764</ele>
        <time>2023-01-22T10:54:03.000Z</time>
      </trkpt>
      <trkpt lat="41.261856" lon="1.921634">
        <ele>21.036448</ele>
        <time>2023-01-22T10:54:07.000Z</time>
      </trkpt>
      <trkpt lat="41.261931" lon="1.921903">
        <ele>20.306984</ele>
        <time>2023-01-22T10:54:09.000Z</time>
      </trkpt>
      <trkpt lat="41.261940" lon="1.922044">
        <ele>20.333767</ele>
        <time>2023-01-22T10:54:10.000Z</time>
      </trkpt>
      <trkpt lat="41.261935" lon="1.922180">
        <ele>20.359538</ele>
        <time>2023-01-22T10:54:11.000Z</time>
      </trkpt>
      <trkpt lat="41.261888" lon="1.922418">
        <ele>20.406112</ele>
        <time>2023-01-22T10:54:13.000Z</time>
      </trkpt>
      <trkpt lat="41.261801" lon="1.922658">
        <ele>20.456543</ele>
        <time>2023-01-22T10:54:15.000Z</time>
      </trkpt>
      <trkpt lat="41.261746" lon="1.922767">
        <ele>20.481390</ele>
        <time>2023-01-22T10:54:16.000Z</time>
      </trkpt>
      <trkpt lat="41.261403" lon="1.923395">
        <ele>20.628313</ele>
        <time>2023-01-22T10:54:22.000Z</time>
      </trkpt>
      <trkpt lat="41.261361" lon="1.923498">
        <ele>20.650492</ele>
        <time>2023-01-22T10:54:23.000Z</time>
      </trkpt>
      <trkpt lat="41.261328" lon="1.923609">
        <ele>20.673084</ele>
        <time>2023-01-22T10:54:24.000Z</time>
      </trkpt>
      <trkpt lat="41.261298" lon="1.923845">
        <ele>20.718386</ele>
        <time>2023-01-22T10:54:26.000Z</time>
      </trkpt>
      <trkpt lat="41.261324" lon="1.924206">
        <ele>21.203470</ele>
        <time>2023-01-22T10:54:29.000Z</time>
      </trkpt>
      <trkpt lat="41.261389" lon="1.924581">
        <ele>22.142773</ele>
        <time>2023-01-22T10:54:32.000Z</time>
      </trkpt>
      <trkpt lat="41.261458" lon="1.924929">
        <ele>23.021207</ele>
        <time>2023-01-22T10:54:35.000Z</time>
      </trkpt>
      <trkpt lat="41.261481" lon="1.925044">
        <ele>23.311659</ele>
        <time>2023-01-22T10:54:36.000Z</time>
      </trkpt>
      <trkpt lat="41.261604" lon="1.925609">
        <ele>24.747351</ele>
        <time>2023-01-22T10:54:41.000Z</time>
      </trkpt>
      <trkpt lat="41.261665" lon="1.925893">
        <ele>25.468266</ele>
        <time>2023-01-22T10:54:44.000Z</time>
      </trkpt>
      <trkpt lat="41.261708" lon="1.926083">
        <ele>25.952570</ele>
        <time>2023-01-22T10:54:46.000Z</time>
      </trkpt>
      <trkpt lat="41.261771" lon="1.926279">
        <ele>26.472856</ele>
        <time>2023-01-22T10:54:49.000Z</time>
      </trkpt>
      <trkpt lat="41.261822" lon="1.926427">
        <ele>26.353952</ele>
        <time>2023-01-22T10:54:51.000Z</time>
      </trkpt>
      <trkpt lat="41.261977" lon="1.926971">
        <ele>25.137958</ele>
        <time>2023-01-22T10:54:58.000Z</time>
      </trkpt>
      <trkpt lat="41.262014" lon="1.927238">
        <ele>24.570480</ele>
        <time>2023-01-22T10:55:01.000Z</time>
      </trkpt>
      <trkpt lat="41.262044" lon="1.927399">
        <ele>24.223779</ele>
        <time>2023-01-22T10:55:03.000Z</time>
      </trkpt>
      <trkpt lat="41.262101" lon="1.927656">
        <ele>23.663713</ele>
        <time>2023-01-22T10:55:06.000Z</time>
      </trkpt>
      <trkpt lat="41.262169" lon="1.927810">
        <ele>23.290402</ele>
        <time>2023-01-22T10:55:08.000Z</time>
      </trkpt>
      <trkpt lat="41.262209" lon="1.927892">
        <ele>23.086083</ele>
        <time>2023-01-22T10:55:09.000Z</time>
      </trkpt>
      <trkpt lat="41.262323" lon="1.928167">
        <ele>22.429678</ele>
        <time>2023-01-22T10:55:12.000Z</time>
      </trkpt>
      <trkpt lat="41.262353" lon="1.928251">
        <ele>22.235296</ele>
        <time>2023-01-22T10:55:13.000Z</time>
      </trkpt>
      <trkpt lat="41.262387" lon="1.928358">
        <ele>21.992488</ele>
        <time>2023-01-22T10:55:14.000Z</time>
      </trkpt>
      <trkpt lat="41.262448" lon="1.928587">
        <ele>21.346479</ele>
        <time>2023-01-22T10:55:16.000Z</time>
      </trkpt>
      <trkpt lat="41.262544" lon="1.928960">
        <ele>19.449756</ele>
        <time>2023-01-22T10:55:19.000Z</time>
      </trkpt>
      <trkpt lat="41.262613" lon="1.929230">
        <ele>18.077809</ele>
        <time>2023-01-22T10:55:21.000Z</time>
      </trkpt>
      <trkpt lat="41.262703" lon="1.929539">
        <ele>16.483563</ele>
        <time>2023-01-22T10:55:23.000Z</time>
      </trkpt>
      <trkpt lat="41.262747" lon="1.929684">
        <ele>15.731294</ele>
        <time>2023-01-22T10:55:24.000Z</time>
      </trkpt>
      <trkpt lat="41.262790" lon="1.929828">
        <ele>14.985871</ele>
        <time>2023-01-22T10:55:25.000Z</time>
      </trkpt>
      <trkpt lat="41.262827" lon="1.929945">
        <ele>14.375219</ele>
        <time>2023-01-22T10:55:26.000Z</time>
      </trkpt>
      <trkpt lat="41.262918" lon="1.930240">
        <ele>12.841167</ele>
        <time>2023-01-22T10:55:28.000Z</time>
      </trkpt>
      <trkpt lat="41.263010" lon="1.930532">
        <ele>11.317997</ele>
        <time>2023-01-22T10:55:30.000Z</time>
      </trkpt>
      <trkpt lat="41.263055" lon="1.930675">
        <ele>10.572197</ele>
        <time>2023-01-22T10:55:31.000Z</time>
      </trkpt>
      <trkpt lat="41.263099" lon="1.930813">
        <ele>10.013086</ele>
        <time>2023-01-22T10:55:32.000Z</time>
      </trkpt>
      <trkpt lat="41.263182" lon="1.931071">
        <ele>9.620607</ele>
        <time>2023-01-22T10:55:34.000Z</time>
      </trkpt>
      <trkpt lat="41.263301" lon="1.931435">
        <ele>9.065478</ele>
        <time>2023-01-22T10:55:37.000Z</time>
      </trkpt>
      <trkpt lat="41.263511" lon="1.932081">
        <ele>8.081160</ele>
        <time>2023-01-22T10:55:43.000Z</time>
      </trkpt>
      <trkpt lat="41.263578" lon="1.932282">
        <ele>7.773656</ele>
        <time>2023-01-22T10:55:45.000Z</time>
      </trkpt>
      <trkpt lat="41.263747" lon="1.932792">
        <ele>6.994176</ele>
        <time>2023-01-22T10:55:50.000Z</time>
      </trkpt>
      <trkpt lat="41.263975" lon="1.933497">
        <ele>6.380843</ele>
        <time>2023-01-22T10:55:57.000Z</time>
      </trkpt>
      <trkpt lat="41.264147" lon="1.934038">
        <ele>6.024600</ele>
        <time>2023-01-22T10:56:02.000Z</time>
      </trkpt>
      <trkpt lat="41.264354" lon="1.934775">
        <ele>5.547449</ele>
        <time>2023-01-22T10:56:09.000Z</time>
      </trkpt>
      <trkpt lat="41.264441" lon="1.935110">
        <ele>5.332498</ele>
        <time>2023-01-22T10:56:12.000Z</time>
      </trkpt>
      <trkpt lat="41.264547" lon="1.935515">
        <ele>5.520892</ele>
        <time>2023-01-22T10:56:16.000Z</time>
      </trkpt>
      <trkpt lat="41.264624" lon="1.935808">
        <ele>5.735682</ele>
        <time>2023-01-22T10:56:19.000Z</time>
      </trkpt>
      <trkpt lat="41.264744" lon="1.936362">
        <ele>6.134648</ele>
        <time>2023-01-22T10:56:24.000Z</time>
      </trkpt>
      <trkpt lat="41.264858" lon="1.937169">
        <ele>6.702865</ele>
        <time>2023-01-22T10:56:32.000Z</time>
      </trkpt>
      <trkpt lat="41.264888" lon="1.937425">
        <ele>6.882155</ele>
        <time>2023-01-22T10:56:35.000Z</time>
      </trkpt>
      <trkpt lat="41.264912" lon="1.937608">
        <ele>7.144887</ele>
        <time>2023-01-22T10:56:37.000Z</time>
      </trkpt>
      <trkpt lat="41.264937" lon="1.937790">
        <ele>7.508349</ele>
        <time>2023-01-22T10:56:39.000Z</time>
      </trkpt>
      <trkpt lat="41.264980" lon="1.938133">
        <ele>8.191482</ele>
        <time>2023-01-22T10:56:43.000Z</time>
      </trkpt>
      <trkpt lat="41.265010" lon="1.938363">
        <ele>8.650070</ele>
        <time>2023-01-22T10:56:46.000Z</time>
      </trkpt>
      <trkpt lat="41.265023" lon="1.938436">
        <ele>8.797449</ele>
        <time>2023-01-22T10:56:47.000Z</time>
      </trkpt>
      <trkpt lat="41.265116" lon="1.938793">
        <ele>9.539700</ele>
        <time>2023-01-22T10:56:52.000Z</time>
      </trkpt>
      <trkpt lat="41.265138" lon="1.938863">
        <ele>9.688752</ele>
        <time>2023-01-22T10:56:53.000Z</time>
      </trkpt>
      <trkpt lat="41.265162" lon="1.938928">
        <ele>9.831019</ele>
        <time>2023-01-22T10:56:54.000Z</time>
      </trkpt>
      <trkpt lat="41.265255" lon="1.939096">
        <ele>10.240898</ele>
        <time>2023-01-22T10:56:57.000Z</time>
      </trkpt>
      <trkpt lat="41.265291" lon="1.939148">
        <ele>10.379778</ele>
        <time>2023-01-22T10:56:58.000Z</time>
      </trkpt>
      <trkpt lat="41.265475" lon="1.939401">
        <ele>11.071357</ele>
        <time>2023-01-22T10:57:03.000Z</time>
      </trkpt>
      <trkpt lat="41.265579" lon="1.939562">
        <ele>11.488386</ele>
        <time>2023-01-22T10:57:06.000Z</time>
      </trkpt>
      <trkpt lat="41.265774" lon="1.939991">
        <ele>10.561090</ele>
        <time>2023-01-22T10:57:12.000Z</time>
      </trkpt>
      <trkpt lat="41.265797" lon="1.940087">
        <ele>10.305593</ele>
        <time>2023-01-22T10:57:13.000Z</time>
      </trkpt>
      <trkpt lat="41.265866" lon="1.940504">
        <ele>9.222873</ele>
        <time>2023-01-22T10:57:17.000Z</time>
      </trkpt>
      <trkpt lat="41.265899" lon="1.940838">
        <ele>8.368652</ele>
        <time>2023-01-22T10:57:20.000Z</time>
      </trkpt>
      <trkpt lat="41.265924" lon="1.941062">
        <ele>7.794420</ele>
        <time>2023-01-22T10:57:22.000Z</time>
      </trkpt>
      <trkpt lat="41.265953" lon="1.941303">
        <ele>7.175527</ele>
        <time>2023-01-22T10:57:24.000Z</time>
      </trkpt>
      <trkpt lat="41.265962" lon="1.941386">
        <ele>6.962883</ele>
        <time>2023-01-22T10:57:25.000Z</time>
      </trkpt>
      <trkpt lat="41.266010" lon="1.941861">
        <ele>5.747575</ele>
        <time>2023-01-22T10:57:30.000Z</time>
      </trkpt>
      <trkpt lat="41.266032" lon="1.942109">
        <ele>5.504160</ele>
        <time>2023-01-22T10:57:34.000Z</time>
      </trkpt>
      <trkpt lat="41.266061" lon="1.942358">
        <ele>5.410913</ele>
        <time>2023-01-22T10:57:40.000Z</time>
      </trkpt>
      <trkpt lat="41.266062" lon="1.942423">
        <ele>5.386853</ele>
        <time>2023-01-22T10:57:44.000Z</time>
      </trkpt>
      <trkpt lat="41.266062" lon="1.942423">
        <ele>5.386853</ele>
        <time>2023-01-22T10:57:48.000Z</time>
      </trkpt>
      <trkpt lat="41.266069" lon="1.942452">
        <ele>5.375581</ele>
        <time>2023-01-22T10:57:52.000Z</time>
      </trkpt>
      <trkpt lat="41.266098" lon="1.942567">
        <ele>5.330692</ele>
        <time>2023-01-22T10:57:58.000Z</time>
      </trkpt>
      <trkpt lat="41.266122" lon="1.942724">
        <ele>5.271401</ele>
        <time>2023-01-22T10:58:02.000Z</time>
      </trkpt>
      <trkpt lat="41.266147" lon="1.942966">
        <ele>5.181002</ele>
        <time>2023-01-22T10:58:06.000Z</time>
      </trkpt>
      <trkpt lat="41.266197" lon="1.943568">
        <ele>4.956863</ele>
        <time>2023-01-22T10:58:15.000Z</time>
      </trkpt>
      <trkpt lat="41.266205" lon="1.943636">
        <ele>4.931392</ele>
        <time>2023-01-22T10:58:16.000Z</time>
      </trkpt>
      <trkpt lat="41.266246" lon="1.944031">
        <ele>4.783827</ele>
        <time>2023-01-22T10:58:21.000Z</time>
      </trkpt>
      <trkpt lat="41.266284" lon="1.944562">
        <ele>4.668668</ele>
        <time>2023-01-22T10:58:27.000Z</time>
      </trkpt>
      <trkpt lat="41.266351" lon="1.945288">
        <ele>4.623307</ele>
        <time>2023-01-22T10:58:35.000Z</time>
      </trkpt>
      <trkpt lat="41.266409" lon="1.945997">
        <ele>4.579078</ele>
        <time>2023-01-22T10:58:43.000Z</time>
      </trkpt>
      <trkpt lat="41.266461" lon="1.946623">
        <ele>4.540019</ele>
        <time>2023-01-22T10:58:50.000Z</time>
      </trkpt>
      <trkpt lat="41.266522" lon="1.947332">
        <ele>4.488573</ele>
        <time>2023-01-22T10:58:58.000Z</time>
      </trkpt>
      <trkpt lat="41.266585" lon="1.948054">
        <ele>4.435604</ele>
        <time>2023-01-22T10:59:06.000Z</time>
      </trkpt>
      <trkpt lat="41.266614" lon="1.948438">
        <ele>4.407479</ele>
        <time>2023-01-22T10:59:10.000Z</time>
      </trkpt>
      <trkpt lat="41.266631" lon="1.948693">
        <ele>4.388823</ele>
        <time>2023-01-22T10:59:13.000Z</time>
      </trkpt>
      <trkpt lat="41.266698" lon="1.949456">
        <ele>4.334868</ele>
        <time>2023-01-22T10:59:21.000Z</time>
      </trkpt>
      <trkpt lat="41.266754" lon="1.950185">
        <ele>4.285124</ele>
        <time>2023-01-22T10:59:29.000Z</time>
      </trkpt>
      <trkpt lat="41.266760" lon="1.950256">
        <ele>4.280274</ele>
        <time>2023-01-22T10:59:30.000Z</time>
      </trkpt>
      <trkpt lat="41.266833" lon="1.951052">
        <ele>4.225839</ele>
        <time>2023-01-22T10:59:39.000Z</time>
      </trkpt>
      <trkpt lat="41.266846" lon="1.951232">
        <ele>4.213563</ele>
        <time>2023-01-22T10:59:41.000Z</time>
      </trkpt>
      <trkpt lat="41.266912" lon="1.951999">
        <ele>4.263451</ele>
        <time>2023-01-22T10:59:50.000Z</time>
      </trkpt>
      <trkpt lat="41.266981" lon="1.952728">
        <ele>4.344928</ele>
        <time>2023-01-22T10:59:58.000Z</time>
      </trkpt>
      <trkpt lat="41.266989" lon="1.952819">
        <ele>4.355088</ele>
        <time>2023-01-22T10:59:59.000Z</time>
      </trkpt>
      <trkpt lat="41.267065" lon="1.953584">
        <ele>4.440655</ele>
        <time>2023-01-22T11:00:07.000Z</time>
      </trkpt>
      <trkpt lat="41.267085" lon="1.953756">
        <ele>4.459955</ele>
        <time>2023-01-22T11:00:09.000Z</time>
      </trkpt>
      <trkpt lat="41.267162" lon="1.954534">
        <ele>4.529900</ele>
        <time>2023-01-22T11:00:17.000Z</time>
      </trkpt>
      <trkpt lat="41.267182" lon="1.954749">
        <ele>4.548899</ele>
        <time>2023-01-22T11:00:19.000Z</time>
      </trkpt>
      <trkpt lat="41.267258" lon="1.955531">
        <ele>4.618049</ele>
        <time>2023-01-22T11:00:27.000Z</time>
      </trkpt>
      <trkpt lat="41.267278" lon="1.955709">
        <ele>4.633832</ele>
        <time>2023-01-22T11:00:29.000Z</time>
      </trkpt>
      <trkpt lat="41.267351" lon="1.956429">
        <ele>4.721170</ele>
        <time>2023-01-22T11:00:36.000Z</time>
      </trkpt>
      <trkpt lat="41.267375" lon="1.956640">
        <ele>4.759675</ele>
        <time>2023-01-22T11:00:38.000Z</time>
      </trkpt>
      <trkpt lat="41.267454" lon="1.957424">
        <ele>4.902399</ele>
        <time>2023-01-22T11:00:45.000Z</time>
      </trkpt>
      <trkpt lat="41.267474" lon="1.957615">
        <ele>4.937195</ele>
        <time>2023-01-22T11:00:47.000Z</time>
      </trkpt>
      <trkpt lat="41.267552" lon="1.958334">
        <ele>5.068270</ele>
        <time>2023-01-22T11:00:54.000Z</time>
      </trkpt>
      <trkpt lat="41.267570" lon="1.958524">
        <ele>5.102823</ele>
        <time>2023-01-22T11:00:56.000Z</time>
      </trkpt>
      <trkpt lat="41.267581" lon="1.958621">
        <ele>5.134842</ele>
        <time>2023-01-22T11:00:57.000Z</time>
      </trkpt>
      <trkpt lat="41.267670" lon="1.959373">
        <ele>5.417348</ele>
        <time>2023-01-22T11:01:05.000Z</time>
      </trkpt>
      <trkpt lat="41.267708" lon="1.959669">
        <ele>5.528784</ele>
        <time>2023-01-22T11:01:08.000Z</time>
      </trkpt>
      <trkpt lat="41.267793" lon="1.960388">
        <ele>5.798885</ele>
        <time>2023-01-22T11:01:15.000Z</time>
      </trkpt>
      <trkpt lat="41.267829" lon="1.960682">
        <ele>5.909426</ele>
        <time>2023-01-22T11:01:18.000Z</time>
      </trkpt>
      <trkpt lat="41.267905" lon="1.961221">
        <ele>6.050842</ele>
        <time>2023-01-22T11:01:24.000Z</time>
      </trkpt>
      <trkpt lat="41.267988" lon="1.961682">
        <ele>6.134132</ele>
        <time>2023-01-22T11:01:29.000Z</time>
      </trkpt>
      <trkpt lat="41.268114" lon="1.962277">
        <ele>6.242745</ele>
        <time>2023-01-22T11:01:35.000Z</time>
      </trkpt>
      <trkpt lat="41.268287" lon="1.963013">
        <ele>6.378238</ele>
        <time>2023-01-22T11:01:42.000Z</time>
      </trkpt>
      <trkpt lat="41.268488" lon="1.963669">
        <ele>6.538480</ele>
        <time>2023-01-22T11:01:49.000Z</time>
      </trkpt>
      <trkpt lat="41.268740" lon="1.964196">
        <ele>6.693219</ele>
        <time>2023-01-22T11:01:56.000Z</time>
      </trkpt>
      <trkpt lat="41.269057" lon="1.964785">
        <ele>6.872686</ele>
        <time>2023-01-22T11:02:04.000Z</time>
      </trkpt>
      <trkpt lat="41.269221" lon="1.965060">
        <ele>6.959652</ele>
        <time>2023-01-22T11:02:08.000Z</time>
      </trkpt>
      <trkpt lat="41.269485" lon="1.965312">
        <ele>7.097102</ele>
        <time>2023-01-22T11:02:13.000Z</time>
      </trkpt>
      <trkpt lat="41.269569" lon="1.965396">
        <ele>7.149724</ele>
        <time>2023-01-22T11:02:16.000Z</time>
      </trkpt>
      <trkpt lat="41.269659" lon="1.965560">
        <ele>7.226154</ele>
        <time>2023-01-22T11:02:20.000Z</time>
      </trkpt>
      <trkpt lat="41.269700" lon="1.965604">
        <ele>7.252532</ele>
        <time>2023-01-22T11:02:21.000Z</time>
      </trkpt>
      <trkpt lat="41.269799" lon="1.965720">
        <ele>7.318594</ele>
        <time>2023-01-22T11:02:23.000Z</time>
      </trkpt>
      <trkpt lat="41.269860" lon="1.965849">
        <ele>7.375958</ele>
        <time>2023-01-22T11:02:25.000Z</time>
      </trkpt>
      <trkpt lat="41.269899" lon="1.966008">
        <ele>7.438910</ele>
        <time>2023-01-22T11:02:27.000Z</time>
      </trkpt>
      <trkpt lat="41.269940" lon="1.966275">
        <ele>7.541481</ele>
        <time>2023-01-22T11:02:30.000Z</time>
      </trkpt>
      <trkpt lat="41.270064" lon="1.966750">
        <ele>7.730741</ele>
        <time>2023-01-22T11:02:37.000Z</time>
      </trkpt>
      <trkpt lat="41.270143" lon="1.966961">
        <ele>7.819467</ele>
        <time>2023-01-22T11:02:40.000Z</time>
      </trkpt>
      <trkpt lat="41.270251" lon="1.967192">
        <ele>7.886908</ele>
        <time>2023-01-22T11:02:44.000Z</time>
      </trkpt>
      <trkpt lat="41.270307" lon="1.967303">
        <ele>7.800391</ele>
        <time>2023-01-22T11:02:46.000Z</time>
      </trkpt>
      <trkpt lat="41.270458" lon="1.967583">
        <ele>7.577367</ele>
        <time>2023-01-22T11:02:50.000Z</time>
      </trkpt>
      <trkpt lat="41.270810" lon="1.968220">
        <ele>7.065702</ele>
        <time>2023-01-22T11:02:58.000Z</time>
      </trkpt>
      <trkpt lat="41.270858" lon="1.968305">
        <ele>6.996898</ele>
        <time>2023-01-22T11:02:59.000Z</time>
      </trkpt>
      <trkpt lat="41.271146" lon="1.968794">
        <ele>6.594855</ele>
        <time>2023-01-22T11:03:04.000Z</time>
      </trkpt>
      <trkpt lat="41.271195" lon="1.968876">
        <ele>6.527060</ele>
        <time>2023-01-22T11:03:05.000Z</time>
      </trkpt>
      <trkpt lat="41.271330" lon="1.969107">
        <ele>6.326523</ele>
        <time>2023-01-22T11:03:07.000Z</time>
      </trkpt>
      <trkpt lat="41.271563" lon="1.969499">
        <ele>5.843357</ele>
        <time>2023-01-22T11:03:11.000Z</time>
      </trkpt>
      <trkpt lat="41.271620" lon="1.969604">
        <ele>5.718136</ele>
        <time>2023-01-22T11:03:12.000Z</time>
      </trkpt>
      <trkpt lat="41.271996" lon="1.970224">
        <ele>4.947942</ele>
        <time>2023-01-22T11:03:18.000Z</time>
      </trkpt>
      <trkpt lat="41.272056" lon="1.970324">
        <ele>4.824237</ele>
        <time>2023-01-22T11:03:19.000Z</time>
      </trkpt>
      <trkpt lat="41.272432" lon="1.970907">
        <ele>4.081545</ele>
        <time>2023-01-22T11:03:24.000Z</time>
      </trkpt>
      <trkpt lat="41.272545" lon="1.971088">
        <ele>4.072300</ele>
        <time>2023-01-22T11:03:27.000Z</time>
      </trkpt>
      <trkpt lat="41.272927" lon="1.971694">
        <ele>4.173895</ele>
        <time>2023-01-22T11:03:34.000Z</time>
      </trkpt>
      <trkpt lat="41.273047" lon="1.971861">
        <ele>4.203572</ele>
        <time>2023-01-22T11:03:35.000Z</time>
      </trkpt>
      <trkpt lat="41.273470" lon="1.972388">
        <ele>4.302611</ele>
        <time>2023-01-22T11:03:42.000Z</time>
      </trkpt>
      <trkpt lat="41.273526" lon="1.972452">
        <ele>4.315227</ele>
        <time>2023-01-22T11:03:43.000Z</time>
      </trkpt>
      <trkpt lat="41.273820" lon="1.972752">
        <ele>4.132785</ele>
        <time>2023-01-22T11:03:49.000Z</time>
      </trkpt>
      <trkpt lat="41.273968" lon="1.972901">
        <ele>3.845594</ele>
        <time>2023-01-22T11:03:55.000Z</time>
      </trkpt>
      <trkpt lat="41.273974" lon="1.972909">
        <ele>3.832450</ele>
        <time>2023-01-22T11:03:59.000Z</time>
      </trkpt>
      <trkpt lat="41.274002" lon="1.972971">
        <ele>3.748328</ele>
        <time>2023-01-22T11:04:04.000Z</time>
      </trkpt>
      <trkpt lat="41.274052" lon="1.973147">
        <ele>3.529506</ele>
        <time>2023-01-22T11:04:07.000Z</time>
      </trkpt>
      <trkpt lat="41.274084" lon="1.973191">
        <ele>3.458298</ele>
        <time>2023-01-22T11:04:08.000Z</time>
      </trkpt>
      <trkpt lat="41.274229" lon="1.973344">
        <ele>3.171929</ele>
        <time>2023-01-22T11:04:11.000Z</time>
      </trkpt>
      <trkpt lat="41.274473" lon="1.973623">
        <ele>2.674089</ele>
        <time>2023-01-22T11:04:15.000Z</time>
      </trkpt>
      <trkpt lat="41.274703" lon="1.973867">
        <ele>2.218901</ele>
        <time>2023-01-22T11:04:18.000Z</time>
      </trkpt>
      <trkpt lat="41.274864" lon="1.974042">
        <ele>1.897202</ele>
        <time>2023-01-22T11:04:20.000Z</time>
      </trkpt>
      <trkpt lat="41.274946" lon="1.974130">
        <ele>1.734184</ele>
        <time>2023-01-22T11:04:21.000Z</time>
      </trkpt>
      <trkpt lat="41.275323" lon="1.974520">
        <ele>2.075751</ele>
        <time>2023-01-22T11:04:26.000Z</time>
      </trkpt>
      <trkpt lat="41.275459" lon="1.974643">
        <ele>2.298972</ele>
        <time>2023-01-22T11:04:28.000Z</time>
      </trkpt>
      <trkpt lat="41.275522" lon="1.974668">
        <ele>2.388213</ele>
        <time>2023-01-22T11:04:29.000Z</time>
      </trkpt>
      <trkpt lat="41.275639" lon="1.974689">
        <ele>2.548472</ele>
        <time>2023-01-22T11:04:31.000Z</time>
      </trkpt>
      <trkpt lat="41.275700" lon="1.974713">
        <ele>2.634821</ele>
        <time>2023-01-22T11:04:32.000Z</time>
      </trkpt>
      <trkpt lat="41.275757" lon="1.974751">
        <ele>2.721363</ele>
        <time>2023-01-22T11:04:33.000Z</time>
      </trkpt>
      <trkpt lat="41.275920" lon="1.974914">
        <ele>2.998148</ele>
        <time>2023-01-22T11:04:36.000Z</time>
      </trkpt>
      <trkpt lat="41.276012" lon="1.975015">
        <ele>3.160052</ele>
        <time>2023-01-22T11:04:38.000Z</time>
      </trkpt>
      <trkpt lat="41.276316" lon="1.975342">
        <ele>3.690691</ele>
        <time>2023-01-22T11:04:43.000Z</time>
      </trkpt>
      <trkpt lat="41.276562" lon="1.975611">
        <ele>4.058965</ele>
        <time>2023-01-22T11:04:47.000Z</time>
      </trkpt>
      <trkpt lat="41.276756" lon="1.975822">
        <ele>4.202300</ele>
        <time>2023-01-22T11:04:50.000Z</time>
      </trkpt>
      <trkpt lat="41.277169" lon="1.976225">
        <ele>4.495277</ele>
        <time>2023-01-22T11:04:57.000Z</time>
      </trkpt>
      <trkpt lat="41.277470" lon="1.976551">
        <ele>4.717293</ele>
        <time>2023-01-22T11:05:02.000Z</time>
      </trkpt>
      <trkpt lat="41.277517" lon="1.976599">
        <ele>4.751186</ele>
        <time>2023-01-22T11:05:03.000Z</time>
      </trkpt>
      <trkpt lat="41.277701" lon="1.976791">
        <ele>4.884949</ele>
        <time>2023-01-22T11:05:07.000Z</time>
      </trkpt>
      <trkpt lat="41.277726" lon="1.976827">
        <ele>4.906021</ele>
        <time>2023-01-22T11:05:08.000Z</time>
      </trkpt>
      <trkpt lat="41.277851" lon="1.976955">
        <ele>4.996251</ele>
        <time>2023-01-22T11:05:13.000Z</time>
      </trkpt>
      <trkpt lat="41.277890" lon="1.976990">
        <ele>5.023161</ele>
        <time>2023-01-22T11:05:15.000Z</time>
      </trkpt>
      <trkpt lat="41.277938" lon="1.977042">
        <ele>5.040622</ele>
        <time>2023-01-22T11:05:18.000Z</time>
      </trkpt>
      <trkpt lat="41.277951" lon="1.977057">
        <ele>5.040232</ele>
        <time>2023-01-22T11:05:23.000Z</time>
      </trkpt>
      <trkpt lat="41.278026" lon="1.977127">
        <ele>5.038159</ele>
        <time>2023-01-22T11:05:28.000Z</time>
      </trkpt>
      <trkpt lat="41.278199" lon="1.977297">
        <ele>5.033292</ele>
        <time>2023-01-22T11:05:33.000Z</time>
      </trkpt>
      <trkpt lat="41.278301" lon="1.977374">
        <ele>5.030639</ele>
        <time>2023-01-22T11:05:37.000Z</time>
      </trkpt>
      <trkpt lat="41.278342" lon="1.977420">
        <ele>5.029425</ele>
        <time>2023-01-22T11:05:38.000Z</time>
      </trkpt>
      <trkpt lat="41.278432" lon="1.977518">
        <ele>5.026793</ele>
        <time>2023-01-22T11:05:40.000Z</time>
      </trkpt>
      <trkpt lat="41.278666" lon="1.977748">
        <ele>5.020210</ele>
        <time>2023-01-22T11:05:47.000Z</time>
      </trkpt>
      <trkpt lat="41.278916" lon="1.978011">
        <ele>5.012998</ele>
        <time>2023-01-22T11:05:54.000Z</time>
      </trkpt>
      <trkpt lat="41.279081" lon="1.978184">
        <ele>5.008245</ele>
        <time>2023-01-22T11:06:01.000Z</time>
      </trkpt>
      <trkpt lat="41.279082" lon="1.978186">
        <ele>5.008204</ele>
        <time>2023-01-22T11:06:06.000Z</time>
      </trkpt>
      <trkpt lat="41.279119" lon="1.978223">
        <ele>5.007156</ele>
        <time>2023-01-22T11:06:14.000Z</time>
      </trkpt>
      <trkpt lat="41.279214" lon="1.978359">
        <ele>5.003999</ele>
        <time>2023-01-22T11:06:19.000Z</time>
      </trkpt>
      <trkpt lat="41.279347" lon="1.978536">
        <ele>4.992812</ele>
        <time>2023-01-22T11:06:23.000Z</time>
      </trkpt>
      <trkpt lat="41.279559" lon="1.978745">
        <ele>4.938738</ele>
        <time>2023-01-22T11:06:30.000Z</time>
      </trkpt>
      <trkpt lat="41.279611" lon="1.978783">
        <ele>4.926579</ele>
        <time>2023-01-22T11:06:31.000Z</time>
      </trkpt>
      <trkpt lat="41.279759" lon="1.978930">
        <ele>4.888728</ele>
        <time>2023-01-22T11:06:34.000Z</time>
      </trkpt>
      <trkpt lat="41.280183" lon="1.979397">
        <ele>4.775924</ele>
        <time>2023-01-22T11:06:41.000Z</time>
      </trkpt>
      <trkpt lat="41.280334" lon="1.979551">
        <ele>4.736932</ele>
        <time>2023-01-22T11:06:45.000Z</time>
      </trkpt>
      <trkpt lat="41.280494" lon="1.979728">
        <ele>4.694288</ele>
        <time>2023-01-22T11:06:50.000Z</time>
      </trkpt>
      <trkpt lat="41.280595" lon="1.979841">
        <ele>4.667244</ele>
        <time>2023-01-22T11:06:53.000Z</time>
      </trkpt>
      <trkpt lat="41.280614" lon="1.979935">
        <ele>4.652252</ele>
        <time>2023-01-22T11:06:55.000Z</time>
      </trkpt>
      <trkpt lat="41.280597" lon="1.980056">
        <ele>4.633293</ele>
        <time>2023-01-22T11:06:57.000Z</time>
      </trkpt>
      <trkpt lat="41.280524" lon="1.980181">
        <ele>4.507816</ele>
        <time>2023-01-22T11:06:59.000Z</time>
      </trkpt>
      <trkpt lat="41.280327" lon="1.980520">
        <ele>4.152451</ele>
        <time>2023-01-22T11:07:03.000Z</time>
      </trkpt>
      <trkpt lat="41.280210" lon="1.980723">
        <ele>3.940302</ele>
        <time>2023-01-22T11:07:05.000Z</time>
      </trkpt>
      <trkpt lat="41.280140" lon="1.980818">
        <ele>3.829971</ele>
        <time>2023-01-22T11:07:06.000Z</time>
      </trkpt>
      <trkpt lat="41.280056" lon="1.980933">
        <ele>3.696981</ele>
        <time>2023-01-22T11:07:07.000Z</time>
      </trkpt>
      <trkpt lat="41.279979" lon="1.981019">
        <ele>3.586050</ele>
        <time>2023-01-22T11:07:08.000Z</time>
      </trkpt>
      <trkpt lat="41.279979" lon="1.981019">
        <ele>3.586050</ele>
        <time>2023-01-22T11:07:09.000Z</time>
      </trkpt>
      <trkpt lat="41.279979" lon="1.981019">
        <ele>3.586050</ele>
        <time>2023-01-22T11:07:12.000Z</time>
      </trkpt>
      <trkpt lat="41.279793" lon="1.981338">
        <ele>3.251228</ele>
        <time>2023-01-22T11:07:13.000Z</time>
      </trkpt>
      <trkpt lat="41.279767" lon="1.981379">
        <ele>3.206741</ele>
        <time>2023-01-22T11:07:14.000Z</time>
      </trkpt>
      <trkpt lat="41.279532" lon="1.981647">
        <ele>2.865217</ele>
        <time>2023-01-22T11:07:21.000Z</time>
      </trkpt>
      <trkpt lat="41.279457" lon="1.981703">
        <ele>2.770317</ele>
        <time>2023-01-22T11:07:23.000Z</time>
      </trkpt>
      <trkpt lat="41.279261" lon="1.981802">
        <ele>2.742805</ele>
        <time>2023-01-22T11:07:28.000Z</time>
      </trkpt>
      <trkpt lat="41.279222" lon="1.981822">
        <ele>2.783553</ele>
        <time>2023-01-22T11:07:29.000Z</time>
      </trkpt>
      <trkpt lat="41.279060" lon="1.981895">
        <ele>2.950301</ele>
        <time>2023-01-22T11:07:33.000Z</time>
      </trkpt>
      <trkpt lat="41.279020" lon="1.981996">
        <ele>3.033947</ele>
        <time>2023-01-22T11:07:35.000Z</time>
      </trkpt>
      <trkpt lat="41.279025" lon="1.982042">
        <ele>3.068001</ele>
        <time>2023-01-22T11:07:36.000Z</time>
      </trkpt>
      <trkpt lat="41.279063" lon="1.982160">
        <ele>3.162058</ele>
        <time>2023-01-22T11:07:38.000Z</time>
      </trkpt>
      <trkpt lat="41.279089" lon="1.982224">
        <ele>3.215361</ele>
        <time>2023-01-22T11:07:39.000Z</time>
      </trkpt>
      <trkpt lat="41.279273" lon="1.982723">
        <ele>3.622598</ele>
        <time>2023-01-22T11:07:46.000Z</time>
      </trkpt>
      <trkpt lat="41.279450" lon="1.983187">
        <ele>4.003841</ele>
        <time>2023-01-22T11:07:52.000Z</time>
      </trkpt>
      <trkpt lat="41.279515" lon="1.983336">
        <ele>4.130067</ele>
        <time>2023-01-22T11:07:54.000Z</time>
      </trkpt>
      <trkpt lat="41.279766" lon="1.983951">
        <ele>4.538437</ele>
        <time>2023-01-22T11:08:03.000Z</time>
      </trkpt>
      <trkpt lat="41.279933" lon="1.984369">
        <ele>4.735727</ele>
        <time>2023-01-22T11:08:09.000Z</time>
      </trkpt>
      <trkpt lat="41.280155" lon="1.984885">
        <ele>4.983519</ele>
        <time>2023-01-22T11:08:16.000Z</time>
      </trkpt>
      <trkpt lat="41.280258" lon="1.985138">
        <ele>5.103434</ele>
        <time>2023-01-22T11:08:20.000Z</time>
      </trkpt>
      <trkpt lat="41.280283" lon="1.985205">
        <ele>5.134609</ele>
        <time>2023-01-22T11:08:21.000Z</time>
      </trkpt>
      <trkpt lat="41.280486" lon="1.985641">
        <ele>5.348359</ele>
        <time>2023-01-22T11:08:28.000Z</time>
      </trkpt>
      <trkpt lat="41.280499" lon="1.985740">
        <ele>5.390243</ele>
        <time>2023-01-22T11:08:30.000Z</time>
      </trkpt>
      <trkpt lat="41.280492" lon="1.985869">
        <ele>5.485162</ele>
        <time>2023-01-22T11:08:32.000Z</time>
      </trkpt>
      <trkpt lat="41.280492" lon="1.985941">
        <ele>5.541960</ele>
        <time>2023-01-22T11:08:33.000Z</time>
      </trkpt>
      <trkpt lat="41.280549" lon="1.986055">
        <ele>5.649975</ele>
        <time>2023-01-22T11:08:35.000Z</time>
      </trkpt>
      <trkpt lat="41.280697" lon="1.986181">
        <ele>5.834407</ele>
        <time>2023-01-22T11:08:38.000Z</time>
      </trkpt>
      <trkpt lat="41.280771" lon="1.986292">
        <ele>5.951459</ele>
        <time>2023-01-22T11:08:40.000Z</time>
      </trkpt>
      <trkpt lat="41.280914" lon="1.986693">
        <ele>6.301595</ele>
        <time>2023-01-22T11:08:46.000Z</time>
      </trkpt>
      <trkpt lat="41.281013" lon="1.986907">
        <ele>6.499831</ele>
        <time>2023-01-22T11:08:50.000Z</time>
      </trkpt>
      <trkpt lat="41.281035" lon="1.986952">
        <ele>6.542180</ele>
        <time>2023-01-22T11:08:51.000Z</time>
      </trkpt>
      <trkpt lat="41.281056" lon="1.986986">
        <ele>6.576897</ele>
        <time>2023-01-22T11:08:52.000Z</time>
      </trkpt>
      <trkpt lat="41.281116" lon="1.987089">
        <ele>6.679701</ele>
        <time>2023-01-22T11:08:56.000Z</time>
      </trkpt>
      <trkpt lat="41.281139" lon="1.987156">
        <ele>6.737806</ele>
        <time>2023-01-22T11:08:58.000Z</time>
      </trkpt>
      <trkpt lat="41.281147" lon="1.987287">
        <ele>6.841485</ele>
        <time>2023-01-22T11:09:01.000Z</time>
      </trkpt>
      <trkpt lat="41.281130" lon="1.987466">
        <ele>6.983811</ele>
        <time>2023-01-22T11:09:04.000Z</time>
      </trkpt>
      <trkpt lat="41.281110" lon="1.987537">
        <ele>7.043624</ele>
        <time>2023-01-22T11:09:05.000Z</time>
      </trkpt>
      <trkpt lat="41.281049" lon="1.987761">
        <ele>7.231569</ele>
        <time>2023-01-22T11:09:08.000Z</time>
      </trkpt>
      <trkpt lat="41.281054" lon="1.987926">
        <ele>7.301515</ele>
        <time>2023-01-22T11:09:10.000Z</time>
      </trkpt>
      <trkpt lat="41.281113" lon="1.988078">
        <ele>7.328749</ele>
        <time>2023-01-22T11:09:12.000Z</time>
      </trkpt>
      <trkpt lat="41.281161" lon="1.988136">
        <ele>7.342484</ele>
        <time>2023-01-22T11:09:13.000Z</time>
      </trkpt>
      <trkpt lat="41.281214" lon="1.988179">
        <ele>7.355633</ele>
        <time>2023-01-22T11:09:14.000Z</time>
      </trkpt>
      <trkpt lat="41.281325" lon="1.988223">
        <ele>7.380168</ele>
        <time>2023-01-22T11:09:16.000Z</time>
      </trkpt>
      <trkpt lat="41.281380" lon="1.988233">
        <ele>7.391927</ele>
        <time>2023-01-22T11:09:17.000Z</time>
      </trkpt>
      <trkpt lat="41.281487" lon="1.988233">
        <ele>7.414593</ele>
        <time>2023-01-22T11:09:19.000Z</time>
      </trkpt>
      <trkpt lat="41.281540" lon="1.988220">
        <ele>7.426010</ele>
        <time>2023-01-22T11:09:20.000Z</time>
      </trkpt>
      <trkpt lat="41.281885" lon="1.988053">
        <ele>7.503777</ele>
        <time>2023-01-22T11:09:27.000Z</time>
      </trkpt>
      <trkpt lat="41.282106" lon="1.987865">
        <ele>7.559341</ele>
        <time>2023-01-22T11:09:33.000Z</time>
      </trkpt>
      <trkpt lat="41.282185" lon="1.987791">
        <ele>7.579806</ele>
        <time>2023-01-22T11:09:38.000Z</time>
      </trkpt>
      <trkpt lat="41.282280" lon="1.987673">
        <ele>7.607335</ele>
        <time>2023-01-22T11:09:44.000Z</time>
      </trkpt>
      <trkpt lat="41.282409" lon="1.987551">
        <ele>7.640860</ele>
        <time>2023-01-22T11:09:50.000Z</time>
      </trkpt>
      <trkpt lat="41.282454" lon="1.987544">
        <ele>7.650457</ele>
        <time>2023-01-22T11:09:51.000Z</time>
      </trkpt>
      <trkpt lat="41.282571" lon="1.987573">
        <ele>7.623968</ele>
        <time>2023-01-22T11:09:56.000Z</time>
      </trkpt>
      <trkpt lat="41.282666" lon="1.987679">
        <ele>7.488369</ele>
        <time>2023-01-22T11:10:01.000Z</time>
      </trkpt>
      <trkpt lat="41.282852" lon="1.987932">
        <ele>7.197458</ele>
        <time>2023-01-22T11:10:07.000Z</time>
      </trkpt>
      <trkpt lat="41.282894" lon="1.987990">
        <ele>7.131255</ele>
        <time>2023-01-22T11:10:08.000Z</time>
      </trkpt>
      <trkpt lat="41.282994" lon="1.988155">
        <ele>6.957028</ele>
        <time>2023-01-22T11:10:11.000Z</time>
      </trkpt>
      <trkpt lat="41.283017" lon="1.988218">
        <ele>6.899460</ele>
        <time>2023-01-22T11:10:13.000Z</time>
      </trkpt>
      <trkpt lat="41.283019" lon="1.988237">
        <ele>6.883691</ele>
        <time>2023-01-22T11:10:14.000Z</time>
      </trkpt>
      <trkpt lat="41.283022" lon="1.988248">
        <ele>6.874073</ele>
        <time>2023-01-22T11:10:15.000Z</time>
      </trkpt>
      <trkpt lat="41.283045" lon="1.988404">
        <ele>6.743409</ele>
        <time>2023-01-22T11:10:19.000Z</time>
      </trkpt>
      <trkpt lat="41.283086" lon="1.988524">
        <ele>6.635063</ele>
        <time>2023-01-22T11:10:21.000Z</time>
      </trkpt>
      <trkpt lat="41.283110" lon="1.988553">
        <ele>6.599606</ele>
        <time>2023-01-22T11:10:22.000Z</time>
      </trkpt>
      <trkpt lat="41.283259" lon="1.988596">
        <ele>6.432848</ele>
        <time>2023-01-22T11:10:26.000Z</time>
      </trkpt>
      <trkpt lat="41.283387" lon="1.988669">
        <ele>6.280531</ele>
        <time>2023-01-22T11:10:29.000Z</time>
      </trkpt>
      <trkpt lat="41.283422" lon="1.988709">
        <ele>6.230070</ele>
        <time>2023-01-22T11:10:30.000Z</time>
      </trkpt>
      <trkpt lat="41.283458" lon="1.988751">
        <ele>6.177705</ele>
        <time>2023-01-22T11:10:31.000Z</time>
      </trkpt>
      <trkpt lat="41.283590" lon="1.988912">
        <ele>5.981860</ele>
        <time>2023-01-22T11:10:34.000Z</time>
      </trkpt>
      <trkpt lat="41.283622" lon="1.988964">
        <ele>5.926618</ele>
        <time>2023-01-22T11:10:35.000Z</time>
      </trkpt>
      <trkpt lat="41.283717" lon="1.989111">
        <ele>5.767262</ele>
        <time>2023-01-22T11:10:37.000Z</time>
      </trkpt>
      <trkpt lat="41.283851" lon="1.989291">
        <ele>5.721681</ele>
        <time>2023-01-22T11:10:40.000Z</time>
      </trkpt>
      <trkpt lat="41.284196" lon="1.989756">
        <ele>5.804297</ele>
        <time>2023-01-22T11:10:47.000Z</time>
      </trkpt>
      <trkpt lat="41.284608" lon="1.990329">
        <ele>5.904562</ele>
        <time>2023-01-22T11:10:55.000Z</time>
      </trkpt>
      <trkpt lat="41.285039" lon="1.990909">
        <ele>6.022303</ele>
        <time>2023-01-22T11:11:03.000Z</time>
      </trkpt>
      <trkpt lat="41.285413" lon="1.991441">
        <ele>6.379417</ele>
        <time>2023-01-22T11:11:10.000Z</time>
      </trkpt>
      <trkpt lat="41.285805" lon="1.991974">
        <ele>6.745002</ele>
        <time>2023-01-22T11:11:17.000Z</time>
      </trkpt>
      <trkpt lat="41.285911" lon="1.992121">
        <ele>6.844871</ele>
        <time>2023-01-22T11:11:19.000Z</time>
      </trkpt>
      <trkpt lat="41.286115" lon="1.992401">
        <ele>7.036045</ele>
        <time>2023-01-22T11:11:23.000Z</time>
      </trkpt>
      <trkpt lat="41.286425" lon="1.992834">
        <ele>7.296088</ele>
        <time>2023-01-22T11:11:29.000Z</time>
      </trkpt>
      <trkpt lat="41.286566" lon="1.993026">
        <ele>7.399250</ele>
        <time>2023-01-22T11:11:32.000Z</time>
      </trkpt>
      <trkpt lat="41.286926" lon="1.993526">
        <ele>7.665343</ele>
        <time>2023-01-22T11:11:40.000Z</time>
      </trkpt>
      <trkpt lat="41.287323" lon="1.994078">
        <ele>7.958954</ele>
        <time>2023-01-22T11:11:49.000Z</time>
      </trkpt>
      <trkpt lat="41.287723" lon="1.994626">
        <ele>8.227735</ele>
        <time>2023-01-22T11:11:58.000Z</time>
      </trkpt>
      <trkpt lat="41.287763" lon="1.994682">
        <ele>8.252730</ele>
        <time>2023-01-22T11:11:59.000Z</time>
      </trkpt>
      <trkpt lat="41.287994" lon="1.994983">
        <ele>8.391918</ele>
        <time>2023-01-22T11:12:05.000Z</time>
      </trkpt>
      <trkpt lat="41.288021" lon="1.995021">
        <ele>8.408837</ele>
        <time>2023-01-22T11:12:06.000Z</time>
      </trkpt>
      <trkpt lat="41.288118" lon="1.995168">
        <ele>8.472127</ele>
        <time>2023-01-22T11:12:11.000Z</time>
      </trkpt>
      <trkpt lat="41.288234" lon="1.995292">
        <ele>8.536185</ele>
        <time>2023-01-22T11:12:17.000Z</time>
      </trkpt>
      <trkpt lat="41.288351" lon="1.995266">
        <ele>8.587256</ele>
        <time>2023-01-22T11:12:22.000Z</time>
      </trkpt>
      <trkpt lat="41.288494" lon="1.995130">
        <ele>8.662927</ele>
        <time>2023-01-22T11:12:26.000Z</time>
      </trkpt>
      <trkpt lat="41.288745" lon="1.994921">
        <ele>8.790401</ele>
        <time>2023-01-22T11:12:31.000Z</time>
      </trkpt>
      <trkpt lat="41.289218" lon="1.994545">
        <ele>8.598225</ele>
        <time>2023-01-22T11:12:40.000Z</time>
      </trkpt>
      <trkpt lat="41.289558" lon="1.994199">
        <ele>8.280111</ele>
        <time>2023-01-22T11:12:47.000Z</time>
      </trkpt>
      <trkpt lat="41.289856" lon="1.993814">
        <ele>7.971428</ele>
        <time>2023-01-22T11:12:52.000Z</time>
      </trkpt>
      <trkpt lat="41.290077" lon="1.993528">
        <ele>7.742319</ele>
        <time>2023-01-22T11:12:55.000Z</time>
      </trkpt>
      <trkpt lat="41.290228" lon="1.993331">
        <ele>7.585159</ele>
        <time>2023-01-22T11:12:57.000Z</time>
      </trkpt>
      <trkpt lat="41.290348" lon="1.993143">
        <ele>7.633119</ele>
        <time>2023-01-22T11:13:00.000Z</time>
      </trkpt>
      <trkpt lat="41.290375" lon="1.993101">
        <ele>7.669007</ele>
        <time>2023-01-22T11:13:01.000Z</time>
      </trkpt>
      <trkpt lat="41.290421" lon="1.993048">
        <ele>7.721582</ele>
        <time>2023-01-22T11:13:03.000Z</time>
      </trkpt>
      <trkpt lat="41.290471" lon="1.993012">
        <ele>7.770705</ele>
        <time>2023-01-22T11:13:05.000Z</time>
      </trkpt>
      <trkpt lat="41.290538" lon="1.993005">
        <ele>7.828779</ele>
        <time>2023-01-22T11:13:07.000Z</time>
      </trkpt>
      <trkpt lat="41.290604" lon="1.993037">
        <ele>7.889477</ele>
        <time>2023-01-22T11:13:09.000Z</time>
      </trkpt>
      <trkpt lat="41.290670" lon="1.993113">
        <ele>7.964892</ele>
        <time>2023-01-22T11:13:11.000Z</time>
      </trkpt>
      <trkpt lat="41.290893" lon="1.993413">
        <ele>8.238885</ele>
        <time>2023-01-22T11:13:16.000Z</time>
      </trkpt>
      <trkpt lat="41.290995" lon="1.993560">
        <ele>8.368799</ele>
        <time>2023-01-22T11:13:18.000Z</time>
      </trkpt>
      <trkpt lat="41.291259" lon="1.993923">
        <ele>8.696806</ele>
        <time>2023-01-22T11:13:23.000Z</time>
      </trkpt>
      <trkpt lat="41.291641" lon="1.994447">
        <ele>9.222490</ele>
        <time>2023-01-22T11:13:30.000Z</time>
      </trkpt>
      <trkpt lat="41.291738" lon="1.994577">
        <ele>9.415178</ele>
        <time>2023-01-22T11:13:32.000Z</time>
      </trkpt>
      <trkpt lat="41.291988" lon="1.994924">
        <ele>9.920789</ele>
        <time>2023-01-22T11:13:38.000Z</time>
      </trkpt>
      <trkpt lat="41.292404" lon="1.995484">
        <ele>10.749006</ele>
        <time>2023-01-22T11:13:47.000Z</time>
      </trkpt>
      <trkpt lat="41.292660" lon="1.995839">
        <ele>11.266500</ele>
        <time>2023-01-22T11:13:53.000Z</time>
      </trkpt>
      <trkpt lat="41.292741" lon="1.995952">
        <ele>11.430752</ele>
        <time>2023-01-22T11:13:55.000Z</time>
      </trkpt>
      <trkpt lat="41.292780" lon="1.996004">
        <ele>11.508024</ele>
        <time>2023-01-22T11:13:56.000Z</time>
      </trkpt>
      <trkpt lat="41.292942" lon="1.996218">
        <ele>11.438917</ele>
        <time>2023-01-22T11:14:00.000Z</time>
      </trkpt>
      <trkpt lat="41.293084" lon="1.996408">
        <ele>11.228176</ele>
        <time>2023-01-22T11:14:03.000Z</time>
      </trkpt>
      <trkpt lat="41.293430" lon="1.996878">
        <ele>10.710740</ele>
        <time>2023-01-22T11:14:09.000Z</time>
      </trkpt>
      <trkpt lat="41.293745" lon="1.997305">
        <ele>10.240165</ele>
        <time>2023-01-22T11:14:14.000Z</time>
      </trkpt>
      <trkpt lat="41.293818" lon="1.997403">
        <ele>10.131646</ele>
        <time>2023-01-22T11:14:15.000Z</time>
      </trkpt>
      <trkpt lat="41.293889" lon="1.997502">
        <ele>10.024024</ele>
        <time>2023-01-22T11:14:16.000Z</time>
      </trkpt>
      <trkpt lat="41.294152" lon="1.997868">
        <ele>9.648118</ele>
        <time>2023-01-22T11:14:20.000Z</time>
      </trkpt>
      <trkpt lat="41.294276" lon="1.998032">
        <ele>9.507348</ele>
        <time>2023-01-22T11:14:22.000Z</time>
      </trkpt>
      <trkpt lat="41.294392" lon="1.998194">
        <ele>9.371951</ele>
        <time>2023-01-22T11:14:24.000Z</time>
      </trkpt>
      <trkpt lat="41.294676" lon="1.998580">
        <ele>9.045085</ele>
        <time>2023-01-22T11:14:29.000Z</time>
      </trkpt>
      <trkpt lat="41.294900" lon="1.998878">
        <ele>8.790049</ele>
        <time>2023-01-22T11:14:34.000Z</time>
      </trkpt>
      <trkpt lat="41.294937" lon="1.998928">
        <ele>8.747589</ele>
        <time>2023-01-22T11:14:35.000Z</time>
      </trkpt>
      <trkpt lat="41.295175" lon="1.999308">
        <ele>8.448277</ele>
        <time>2023-01-22T11:14:42.000Z</time>
      </trkpt>
      <trkpt lat="41.295451" lon="1.999717">
        <ele>8.034356</ele>
        <time>2023-01-22T11:14:50.000Z</time>
      </trkpt>
      <trkpt lat="41.295691" lon="2.000113">
        <ele>7.568734</ele>
        <time>2023-01-22T11:14:57.000Z</time>
      </trkpt>
      <trkpt lat="41.295707" lon="2.000179">
        <ele>7.505266</ele>
        <time>2023-01-22T11:14:58.000Z</time>
      </trkpt>
      <trkpt lat="41.295708" lon="2.000233">
        <ele>7.455832</ele>
        <time>2023-01-22T11:14:59.000Z</time>
      </trkpt>
      <trkpt lat="41.295669" lon="2.000363">
        <ele>7.327726</ele>
        <time>2023-01-22T11:15:01.000Z</time>
      </trkpt>
      <trkpt lat="41.295583" lon="2.000490">
        <ele>7.171257</ele>
        <time>2023-01-22T11:15:03.000Z</time>
      </trkpt>
      <trkpt lat="41.295549" lon="2.000534">
        <ele>7.113493</ele>
        <time>2023-01-22T11:15:04.000Z</time>
      </trkpt>
      <trkpt lat="41.295510" lon="2.000600">
        <ele>7.036648</ele>
        <time>2023-01-22T11:15:05.000Z</time>
      </trkpt>
      <trkpt lat="41.295356" lon="2.000967">
        <ele>6.651945</ele>
        <time>2023-01-22T11:15:10.000Z</time>
      </trkpt>
      <trkpt lat="41.295085" lon="2.001340">
        <ele>6.177081</ele>
        <time>2023-01-22T11:15:16.000Z</time>
      </trkpt>
      <trkpt lat="41.294696" lon="2.001855">
        <ele>6.025116</ele>
        <time>2023-01-22T11:15:24.000Z</time>
      </trkpt>
      <trkpt lat="41.294650" lon="2.001914">
        <ele>6.017229</ele>
        <time>2023-01-22T11:15:25.000Z</time>
      </trkpt>
      <trkpt lat="41.294275" lon="2.002417">
        <ele>5.951495</ele>
        <time>2023-01-22T11:15:33.000Z</time>
      </trkpt>
      <trkpt lat="41.293909" lon="2.002985">
        <ele>5.882081</ele>
        <time>2023-01-22T11:15:41.000Z</time>
      </trkpt>
      <trkpt lat="41.293874" lon="2.003042">
        <ele>5.875252</ele>
        <time>2023-01-22T11:15:42.000Z</time>
      </trkpt>
      <trkpt lat="41.293537" lon="2.003618">
        <ele>5.837573</ele>
        <time>2023-01-22T11:15:50.000Z</time>
      </trkpt>
      <trkpt lat="41.293452" lon="2.003755">
        <ele>5.830303</ele>
        <time>2023-01-22T11:15:52.000Z</time>
      </trkpt>
      <trkpt lat="41.293066" lon="2.004255">
        <ele>5.800968</ele>
        <time>2023-01-22T11:16:00.000Z</time>
      </trkpt>
      <trkpt lat="41.292743" lon="2.004545">
        <ele>5.779748</ele>
        <time>2023-01-22T11:16:05.000Z</time>
      </trkpt>
      <trkpt lat="41.292226" lon="2.004980">
        <ele>6.411377</ele>
        <time>2023-01-22T11:16:13.000Z</time>
      </trkpt>
      <trkpt lat="41.292148" lon="2.005049">
        <ele>6.607080</ele>
        <time>2023-01-22T11:16:14.000Z</time>
      </trkpt>
      <trkpt lat="41.291644" lon="2.005498">
        <ele>7.874375</ele>
        <time>2023-01-22T11:16:22.000Z</time>
      </trkpt>
      <trkpt lat="41.291417" lon="2.005722">
        <ele>8.464859</ele>
        <time>2023-01-22T11:16:26.000Z</time>
      </trkpt>
      <trkpt lat="41.291162" lon="2.005995">
        <ele>9.148692</ele>
        <time>2023-01-22T11:16:32.000Z</time>
      </trkpt>
      <trkpt lat="41.291124" lon="2.006037">
        <ele>9.251906</ele>
        <time>2023-01-22T11:16:33.000Z</time>
      </trkpt>
      <trkpt lat="41.290973" lon="2.006196">
        <ele>9.522127</ele>
        <time>2023-01-22T11:16:37.000Z</time>
      </trkpt>
      <trkpt lat="41.290906" lon="2.006271">
        <ele>9.522710</ele>
        <time>2023-01-22T11:16:39.000Z</time>
      </trkpt>
      <trkpt lat="41.290843" lon="2.006330">
        <ele>9.523223</ele>
        <time>2023-01-22T11:16:41.000Z</time>
      </trkpt>
      <trkpt lat="41.290747" lon="2.006433">
        <ele>9.524043</ele>
        <time>2023-01-22T11:16:44.000Z</time>
      </trkpt>
      <trkpt lat="41.290713" lon="2.006471">
        <ele>9.524339</ele>
        <time>2023-01-22T11:16:45.000Z</time>
      </trkpt>
      <trkpt lat="41.290645" lon="2.006545">
        <ele>9.524923</ele>
        <time>2023-01-22T11:16:47.000Z</time>
      </trkpt>
      <trkpt lat="41.290440" lon="2.006762">
        <ele>9.526667</ele>
        <time>2023-01-22T11:16:52.000Z</time>
      </trkpt>
      <trkpt lat="41.290135" lon="2.007088">
        <ele>9.529271</ele>
        <time>2023-01-22T11:16:58.000Z</time>
      </trkpt>
      <trkpt lat="41.289853" lon="2.007386">
        <ele>9.531667</ele>
        <time>2023-01-22T11:17:02.000Z</time>
      </trkpt>
      <trkpt lat="41.289775" lon="2.007469">
        <ele>9.532332</ele>
        <time>2023-01-22T11:17:03.000Z</time>
      </trkpt>
      <trkpt lat="41.289681" lon="2.007570">
        <ele>9.533136</ele>
        <time>2023-01-22T11:17:04.000Z</time>
      </trkpt>
      <trkpt lat="41.289525" lon="2.007739">
        <ele>9.209825</ele>
        <time>2023-01-22T11:17:06.000Z</time>
      </trkpt>
      <trkpt lat="41.289463" lon="2.007805">
        <ele>8.995455</ele>
        <time>2023-01-22T11:17:07.000Z</time>
      </trkpt>
      <trkpt lat="41.289314" lon="2.007964">
        <ele>8.479784</ele>
        <time>2023-01-22T11:17:09.000Z</time>
      </trkpt>
      <trkpt lat="41.289254" lon="2.008024">
        <ele>8.277142</ele>
        <time>2023-01-22T11:17:10.000Z</time>
      </trkpt>
      <trkpt lat="41.289208" lon="2.008069">
        <ele>8.122993</ele>
        <time>2023-01-22T11:17:11.000Z</time>
      </trkpt>
      <trkpt lat="41.289039" lon="2.008225">
        <ele>7.567660</ele>
        <time>2023-01-22T11:17:14.000Z</time>
      </trkpt>
      <trkpt lat="41.289004" lon="2.008266">
        <ele>7.441763</ele>
        <time>2023-01-22T11:17:15.000Z</time>
      </trkpt>
      <trkpt lat="41.288965" lon="2.008323">
        <ele>7.285359</ele>
        <time>2023-01-22T11:17:16.000Z</time>
      </trkpt>
      <trkpt lat="41.288941" lon="2.008471">
        <ele>6.978179</ele>
        <time>2023-01-22T11:17:18.000Z</time>
      </trkpt>
      <trkpt lat="41.289010" lon="2.008675">
        <ele>6.524298</ele>
        <time>2023-01-22T11:17:21.000Z</time>
      </trkpt>
      <trkpt lat="41.289032" lon="2.008769">
        <ele>6.324551</ele>
        <time>2023-01-22T11:17:22.000Z</time>
      </trkpt>
      <trkpt lat="41.289158" lon="2.009524">
        <ele>4.755461</ele>
        <time>2023-01-22T11:17:32.000Z</time>
      </trkpt>
      <trkpt lat="41.289254" lon="2.010060">
        <ele>4.709848</ele>
        <time>2023-01-22T11:17:38.000Z</time>
      </trkpt>
      <trkpt lat="41.289474" lon="2.010649">
        <ele>4.751802</ele>
        <time>2023-01-22T11:17:45.000Z</time>
      </trkpt>
      <trkpt lat="41.289716" lon="2.011242">
        <ele>4.794844</ele>
        <time>2023-01-22T11:17:53.000Z</time>
      </trkpt>
      <trkpt lat="41.289985" lon="2.011890">
        <ele>4.909888</ele>
        <time>2023-01-22T11:18:02.000Z</time>
      </trkpt>
      <trkpt lat="41.290247" lon="2.012475">
        <ele>5.194469</ele>
        <time>2023-01-22T11:18:10.000Z</time>
      </trkpt>
      <trkpt lat="41.290475" lon="2.012930">
        <ele>5.422999</ele>
        <time>2023-01-22T11:18:16.000Z</time>
      </trkpt>
      <trkpt lat="41.290759" lon="2.013607">
        <ele>5.746994</ele>
        <time>2023-01-22T11:18:24.000Z</time>
      </trkpt>
      <trkpt lat="41.290854" lon="2.013820">
        <ele>5.879124</ele>
        <time>2023-01-22T11:18:28.000Z</time>
      </trkpt>
      <trkpt lat="41.290894" lon="2.013906">
        <ele>5.980773</ele>
        <time>2023-01-22T11:18:32.000Z</time>
      </trkpt>
      <trkpt lat="41.290896" lon="2.013911">
        <ele>5.986466</ele>
        <time>2023-01-22T11:18:36.000Z</time>
      </trkpt>
      <trkpt lat="41.290896" lon="2.013911">
        <ele>5.986466</ele>
        <time>2023-01-22T11:19:02.000Z</time>
      </trkpt>
      <trkpt lat="41.290897" lon="2.013915">
        <ele>5.990702</ele>
        <time>2023-01-22T11:19:19.000Z</time>
      </trkpt>
      <trkpt lat="41.290897" lon="2.013915">
        <ele>5.990702</ele>
        <time>2023-01-22T11:19:30.000Z</time>
      </trkpt>
      <trkpt lat="41.290897" lon="2.013915">
        <ele>5.990702</ele>
        <time>2023-01-22T11:19:46.000Z</time>
      </trkpt>
      <trkpt lat="41.290923" lon="2.013969">
        <ele>6.055158</ele>
        <time>2023-01-22T11:19:58.000Z</time>
      </trkpt>
      <trkpt lat="41.290924" lon="2.013978">
        <ele>6.064302</ele>
        <time>2023-01-22T11:20:04.000Z</time>
      </trkpt>
      <trkpt lat="41.290943" lon="2.014006">
        <ele>6.102219</ele>
        <time>2023-01-22T11:20:13.000Z</time>
      </trkpt>
      <trkpt lat="41.290956" lon="2.014023">
        <ele>6.126596</ele>
        <time>2023-01-22T11:20:14.000Z</time>
      </trkpt>
      <trkpt lat="41.291024" lon="2.014153">
        <ele>6.285786</ele>
        <time>2023-01-22T11:20:20.000Z</time>
      </trkpt>
      <trkpt lat="41.291042" lon="2.014188">
        <ele>6.328411</ele>
        <time>2023-01-22T11:20:26.000Z</time>
      </trkpt>
      <trkpt lat="41.291072" lon="2.014263">
        <ele>6.413801</ele>
        <time>2023-01-22T11:20:32.000Z</time>
      </trkpt>
      <trkpt lat="41.291077" lon="2.014302">
        <ele>6.453562</ele>
        <time>2023-01-22T11:20:38.000Z</time>
      </trkpt>
      <trkpt lat="41.291073" lon="2.014304">
        <ele>6.459277</ele>
        <time>2023-01-22T11:20:45.000Z</time>
      </trkpt>
      <trkpt lat="41.291042" lon="2.014335">
        <ele>6.511141</ele>
        <time>2023-01-22T11:20:52.000Z</time>
      </trkpt>
      <trkpt lat="41.291042" lon="2.014335">
        <ele>6.511141</ele>
        <time>2023-01-22T11:21:34.000Z</time>
      </trkpt>
      <trkpt lat="41.291042" lon="2.014335">
        <ele>6.511141</ele>
        <time>2023-01-22T11:22:12.000Z</time>
      </trkpt>
      <trkpt lat="41.291042" lon="2.014330">
        <ele>6.516166</ele>
        <time>2023-01-22T11:23:28.000Z</time>
      </trkpt>
      <trkpt lat="41.291042" lon="2.014330">
        <ele>6.516166</ele>
        <time>2023-01-22T11:24:19.000Z</time>
      </trkpt>
      <trkpt lat="41.291042" lon="2.014330">
        <ele>6.516166</ele>
        <time>2023-01-22T11:24:56.000Z</time>
      </trkpt>
      <trkpt lat="41.291042" lon="2.014330">
        <ele>6.516166</ele>
        <time>2023-01-22T11:25:50.000Z</time>
      </trkpt>
      <trkpt lat="41.291042" lon="2.014330">
        <ele>6.516166</ele>
        <time>2023-01-22T11:26:26.000Z</time>
      </trkpt>
      <trkpt lat="41.291042" lon="2.014330">
        <ele>6.516166</ele>
        <time>2023-01-22T11:26:44.000Z</time>
      </trkpt>
      <trkpt lat="41.291042" lon="2.014330">
        <ele>6.516166</ele>
        <time>2023-01-22T11:27:21.000Z</time>
      </trkpt>
      <trkpt lat="41.291042" lon="2.014330">
        <ele>6.516166</ele>
        <time>2023-01-22T11:27:37.000Z</time>
      </trkpt>
      <trkpt lat="41.291042" lon="2.014330">
        <ele>6.516166</ele>
        <time>2023-01-22T11:29:21.000Z</time>
      </trkpt>
      <trkpt lat="41.291042" lon="2.014330">
        <ele>6.516166</ele>
        <time>2023-01-22T11:31:12.000Z</time>
      </trkpt>
      <trkpt lat="41.291042" lon="2.014329">
        <ele>6.517171</ele>
        <time>2023-01-22T11:32:22.000Z</time>
      </trkpt>
      <trkpt lat="41.291042" lon="2.014329">
        <ele>6.517171</ele>
        <time>2023-01-22T11:33:43.000Z</time>
      </trkpt>
      <trkpt lat="41.291042" lon="2.014329">
        <ele>6.517171</ele>
        <time>2023-01-22T11:35:25.000Z</time>
      </trkpt>
      <trkpt lat="41.291042" lon="2.014329">
        <ele>6.517171</ele>
        <time>2023-01-22T11:38:19.000Z</time>
      </trkpt>
      <trkpt lat="41.291042" lon="2.014329">
        <ele>6.517171</ele>
        <time>2023-01-22T11:39:20.000Z</time>
      </trkpt>
      <trkpt lat="41.291042" lon="2.014329">
        <ele>6.517171</ele>
        <time>2023-01-22T11:39:40.000Z</time>
      </trkpt>
      <trkpt lat="41.291042" lon="2.014329">
        <ele>6.517171</ele>
        <time>2023-01-22T11:40:07.000Z</time>
      </trkpt>
      <trkpt lat="41.291042" lon="2.014329">
        <ele>6.517171</ele>
        <time>2023-01-22T11:40:34.000Z</time>
      </trkpt>
      <trkpt lat="41.291042" lon="2.014329">
        <ele>6.517171</ele>
        <time>2023-01-22T11:40:55.000Z</time>
      </trkpt>
      <trkpt lat="41.291042" lon="2.014329">
        <ele>6.517171</ele>
        <time>2023-01-22T11:41:17.000Z</time>
      </trkpt>
      <trkpt lat="41.291042" lon="2.014329">
        <ele>6.517171</ele>
        <time>2023-01-22T11:42:12.000Z</time>
      </trkpt>
      <trkpt lat="41.291042" lon="2.014329">
        <ele>6.517171</ele>
        <time>2023-01-22T11:43:10.000Z</time>
      </trkpt>
      <trkpt lat="41.291043" lon="2.014327">
        <ele>6.519586</ele>
        <time>2023-01-22T11:43:58.000Z</time>
      </trkpt>
      <trkpt lat="41.291038" lon="2.014315">
        <ele>6.533376</ele>
        <time>2023-01-22T11:44:07.000Z</time>
      </trkpt>
      <trkpt lat="41.291030" lon="2.014296">
        <ele>6.555264</ele>
        <time>2023-01-22T11:44:08.000Z</time>
      </trkpt>
      <trkpt lat="41.290996" lon="2.014212">
        <ele>6.651153</ele>
        <time>2023-01-22T11:44:11.000Z</time>
      </trkpt>
      <trkpt lat="41.290898" lon="2.014015">
        <ele>6.888597</ele>
        <time>2023-01-22T11:44:17.000Z</time>
      </trkpt>
      <trkpt lat="41.290774" lon="2.013783">
        <ele>7.174728</ele>
        <time>2023-01-22T11:44:23.000Z</time>
      </trkpt>
      <trkpt lat="41.290653" lon="2.013522">
        <ele>7.482943</ele>
        <time>2023-01-22T11:44:30.000Z</time>
      </trkpt>
      <trkpt lat="41.290531" lon="2.013232">
        <ele>7.816965</ele>
        <time>2023-01-22T11:44:38.000Z</time>
      </trkpt>
      <trkpt lat="41.290397" lon="2.012942">
        <ele>8.159115</ele>
        <time>2023-01-22T11:44:46.000Z</time>
      </trkpt>
      <trkpt lat="41.290393" lon="2.012938">
        <ele>8.165807</ele>
        <time>2023-01-22T11:44:49.000Z</time>
      </trkpt>
      <trkpt lat="41.290393" lon="2.012938">
        <ele>8.165807</ele>
        <time>2023-01-22T11:45:57.000Z</time>
      </trkpt>
      <trkpt lat="41.290385" lon="2.012913">
        <ele>8.193116</ele>
        <time>2023-01-22T11:46:06.000Z</time>
      </trkpt>
      <trkpt lat="41.290380" lon="2.012900">
        <ele>8.207793</ele>
        <time>2023-01-22T11:46:07.000Z</time>
      </trkpt>
      <trkpt lat="41.290340" lon="2.012799">
        <ele>8.215121</ele>
        <time>2023-01-22T11:46:11.000Z</time>
      </trkpt>
      <trkpt lat="41.290246" lon="2.012615">
        <ele>8.161501</ele>
        <time>2023-01-22T11:46:15.000Z</time>
      </trkpt>
      <trkpt lat="41.290186" lon="2.012509">
        <ele>8.129520</ele>
        <time>2023-01-22T11:46:17.000Z</time>
      </trkpt>
      <trkpt lat="41.290097" lon="2.012328">
        <ele>8.077391</ele>
        <time>2023-01-22T11:46:20.000Z</time>
      </trkpt>
      <trkpt lat="41.289974" lon="2.012032">
        <ele>7.995877</ele>
        <time>2023-01-22T11:46:25.000Z</time>
      </trkpt>
      <trkpt lat="41.289910" lon="2.011897">
        <ele>7.957410</ele>
        <time>2023-01-22T11:46:30.000Z</time>
      </trkpt>
      <trkpt lat="41.289841" lon="2.011738">
        <ele>7.913161</ele>
        <time>2023-01-22T11:46:35.000Z</time>
      </trkpt>
      <trkpt lat="41.289789" lon="2.011594">
        <ele>7.874659</ele>
        <time>2023-01-22T11:46:42.000Z</time>
      </trkpt>
      <trkpt lat="41.289762" lon="2.011554">
        <ele>7.861701</ele>
        <time>2023-01-22T11:46:56.000Z</time>
      </trkpt>
      <trkpt lat="41.289762" lon="2.011554">
        <ele>7.861701</ele>
        <time>2023-01-22T11:48:11.000Z</time>
      </trkpt>
      <trkpt lat="41.289762" lon="2.011554">
        <ele>7.861701</ele>
        <time>2023-01-22T11:48:26.000Z</time>
      </trkpt>
      <trkpt lat="41.290536" lon="2.013057">
        <ele>7.954528</ele>
        <time>2023-01-22T11:56:50.000Z</time>
      </trkpt>
      <trkpt lat="41.290595" lon="2.013186">
        <ele>8.000015</ele>
        <time>2023-01-22T11:56:52.000Z</time>
      </trkpt>
      <trkpt lat="41.290743" lon="2.013595">
        <ele>8.136746</ele>
        <time>2023-01-22T11:56:57.000Z</time>
      </trkpt>
      <trkpt lat="41.290988" lon="2.014079">
        <ele>8.312521</ele>
        <time>2023-01-22T11:57:04.000Z</time>
      </trkpt>
      <trkpt lat="41.291015" lon="2.014132">
        <ele>8.331808</ele>
        <time>2023-01-22T11:57:05.000Z</time>
      </trkpt>
      <trkpt lat="41.291124" lon="2.014350">
        <ele>8.375411</ele>
        <time>2023-01-22T11:57:10.000Z</time>
      </trkpt>
      <trkpt lat="41.291192" lon="2.014654">
        <ele>8.361000</ele>
        <time>2023-01-22T11:57:17.000Z</time>
      </trkpt>
      <trkpt lat="41.291176" lon="2.014791">
        <ele>8.354700</ele>
        <time>2023-01-22T11:57:19.000Z</time>
      </trkpt>
      <trkpt lat="41.291206" lon="2.014940">
        <ele>8.347692</ele>
        <time>2023-01-22T11:57:21.000Z</time>
      </trkpt>
      <trkpt lat="41.291286" lon="2.015066">
        <ele>8.340197</ele>
        <time>2023-01-22T11:57:23.000Z</time>
      </trkpt>
      <trkpt lat="41.291345" lon="2.015113">
        <ele>8.336039</ele>
        <time>2023-01-22T11:57:24.000Z</time>
      </trkpt>
      <trkpt lat="41.291399" lon="2.015140">
        <ele>8.332551</ele>
        <time>2023-01-22T11:57:25.000Z</time>
      </trkpt>
      <trkpt lat="41.291531" lon="2.015202">
        <ele>8.324087</ele>
        <time>2023-01-22T11:57:27.000Z</time>
      </trkpt>
      <trkpt lat="41.291588" lon="2.015244">
        <ele>8.320147</ele>
        <time>2023-01-22T11:57:28.000Z</time>
      </trkpt>
      <trkpt lat="41.291754" lon="2.015405">
        <ele>8.307727</ele>
        <time>2023-01-22T11:57:31.000Z</time>
      </trkpt>
      <trkpt lat="41.291847" lon="2.015532">
        <ele>8.299670</ele>
        <time>2023-01-22T11:57:33.000Z</time>
      </trkpt>
      <trkpt lat="41.292093" lon="2.015930">
        <ele>8.276255</ele>
        <time>2023-01-22T11:57:39.000Z</time>
      </trkpt>
      <trkpt lat="41.292432" lon="2.016495">
        <ele>8.380367</ele>
        <time>2023-01-22T11:57:48.000Z</time>
      </trkpt>
      <trkpt lat="41.292506" lon="2.016620">
        <ele>8.408671</ele>
        <time>2023-01-22T11:57:50.000Z</time>
      </trkpt>
      <trkpt lat="41.292867" lon="2.017222">
        <ele>8.545664</ele>
        <time>2023-01-22T11:57:59.000Z</time>
      </trkpt>
      <trkpt lat="41.293214" lon="2.017867">
        <ele>8.686759</ele>
        <time>2023-01-22T11:58:08.000Z</time>
      </trkpt>
      <trkpt lat="41.293275" lon="2.018031">
        <ele>8.690074</ele>
        <time>2023-01-22T11:58:10.000Z</time>
      </trkpt>
      <trkpt lat="41.293377" lon="2.018366">
        <ele>8.669930</ele>
        <time>2023-01-22T11:58:14.000Z</time>
      </trkpt>
      <trkpt lat="41.293574" lon="2.019073">
        <ele>8.627907</ele>
        <time>2023-01-22T11:58:22.000Z</time>
      </trkpt>
      <trkpt lat="41.293649" lon="2.019335">
        <ele>8.612282</ele>
        <time>2023-01-22T11:58:25.000Z</time>
      </trkpt>
      <trkpt lat="41.293846" lon="2.020032">
        <ele>8.570781</ele>
        <time>2023-01-22T11:58:33.000Z</time>
      </trkpt>
      <trkpt lat="41.293897" lon="2.020215">
        <ele>8.576834</ele>
        <time>2023-01-22T11:58:35.000Z</time>
      </trkpt>
      <trkpt lat="41.294091" lon="2.020932">
        <ele>8.726983</ele>
        <time>2023-01-22T11:58:43.000Z</time>
      </trkpt>
      <trkpt lat="41.294145" lon="2.021102">
        <ele>8.763348</ele>
        <time>2023-01-22T11:58:45.000Z</time>
      </trkpt>
      <trkpt lat="41.294368" lon="2.021763">
        <ele>8.906108</ele>
        <time>2023-01-22T11:58:53.000Z</time>
      </trkpt>
      <trkpt lat="41.294400" lon="2.021846">
        <ele>8.924488</ele>
        <time>2023-01-22T11:58:54.000Z</time>
      </trkpt>
      <trkpt lat="41.294670" lon="2.022538">
        <ele>9.045916</ele>
        <time>2023-01-22T11:59:02.000Z</time>
      </trkpt>
      <trkpt lat="41.294704" lon="2.022621">
        <ele>9.050533</ele>
        <time>2023-01-22T11:59:03.000Z</time>
      </trkpt>
      <trkpt lat="41.294965" lon="2.023285">
        <ele>9.087131</ele>
        <time>2023-01-22T11:59:11.000Z</time>
      </trkpt>
      <trkpt lat="41.295229" lon="2.023950">
        <ele>9.123862</ele>
        <time>2023-01-22T11:59:19.000Z</time>
      </trkpt>
      <trkpt lat="41.295361" lon="2.024293">
        <ele>9.142683</ele>
        <time>2023-01-22T11:59:23.000Z</time>
      </trkpt>
      <trkpt lat="41.295625" lon="2.024940">
        <ele>9.270996</ele>
        <time>2023-01-22T11:59:30.000Z</time>
      </trkpt>
      <trkpt lat="41.295699" lon="2.025126">
        <ele>9.317203</ele>
        <time>2023-01-22T11:59:32.000Z</time>
      </trkpt>
      <trkpt lat="41.295978" lon="2.025838">
        <ele>9.493504</ele>
        <time>2023-01-22T11:59:40.000Z</time>
      </trkpt>
      <trkpt lat="41.296108" lon="2.026183">
        <ele>9.578240</ele>
        <time>2023-01-22T11:59:44.000Z</time>
      </trkpt>
      <trkpt lat="41.296377" lon="2.026873">
        <ele>9.623466</ele>
        <time>2023-01-22T11:59:52.000Z</time>
      </trkpt>
      <trkpt lat="41.296619" lon="2.027485">
        <ele>9.507397</ele>
        <time>2023-01-22T11:59:59.000Z</time>
      </trkpt>
      <trkpt lat="41.296894" lon="2.028189">
        <ele>9.374230</ele>
        <time>2023-01-22T12:00:07.000Z</time>
      </trkpt>
      <trkpt lat="41.296965" lon="2.028368">
        <ele>9.340259</ele>
        <time>2023-01-22T12:00:09.000Z</time>
      </trkpt>
      <trkpt lat="41.297202" lon="2.028995">
        <ele>9.317110</ele>
        <time>2023-01-22T12:00:16.000Z</time>
      </trkpt>
      <trkpt lat="41.297306" lon="2.029260">
        <ele>9.355598</ele>
        <time>2023-01-22T12:00:19.000Z</time>
      </trkpt>
      <trkpt lat="41.297566" lon="2.029942">
        <ele>9.454051</ele>
        <time>2023-01-22T12:00:27.000Z</time>
      </trkpt>
      <trkpt lat="41.297835" lon="2.030617">
        <ele>9.552413</ele>
        <time>2023-01-22T12:00:35.000Z</time>
      </trkpt>
      <trkpt lat="41.297906" lon="2.030782">
        <ele>9.576891</ele>
        <time>2023-01-22T12:00:37.000Z</time>
      </trkpt>
      <trkpt lat="41.298196" lon="2.031453">
        <ele>9.521512</ele>
        <time>2023-01-22T12:00:45.000Z</time>
      </trkpt>
      <trkpt lat="41.298494" lon="2.032149">
        <ele>9.451467</ele>
        <time>2023-01-22T12:00:53.000Z</time>
      </trkpt>
      <trkpt lat="41.298565" lon="2.032324">
        <ele>9.434077</ele>
        <time>2023-01-22T12:00:55.000Z</time>
      </trkpt>
      <trkpt lat="41.298830" lon="2.033045">
        <ele>9.388298</ele>
        <time>2023-01-22T12:01:03.000Z</time>
      </trkpt>
      <trkpt lat="41.298932" lon="2.033329">
        <ele>9.421872</ele>
        <time>2023-01-22T12:01:06.000Z</time>
      </trkpt>
      <trkpt lat="41.299174" lon="2.034034">
        <ele>9.504542</ele>
        <time>2023-01-22T12:01:14.000Z</time>
      </trkpt>
      <trkpt lat="41.299245" lon="2.034255">
        <ele>9.530178</ele>
        <time>2023-01-22T12:01:17.000Z</time>
      </trkpt>
      <trkpt lat="41.299272" lon="2.034409">
        <ele>9.547045</ele>
        <time>2023-01-22T12:01:19.000Z</time>
      </trkpt>
      <trkpt lat="41.299274" lon="2.034564">
        <ele>9.563579</ele>
        <time>2023-01-22T12:01:21.000Z</time>
      </trkpt>
      <trkpt lat="41.299253" lon="2.034728">
        <ele>9.581323</ele>
        <time>2023-01-22T12:01:23.000Z</time>
      </trkpt>
      <trkpt lat="41.299260" lon="2.034904">
        <ele>9.600121</ele>
        <time>2023-01-22T12:01:25.000Z</time>
      </trkpt>
      <trkpt lat="41.299285" lon="2.034985">
        <ele>9.609460</ele>
        <time>2023-01-22T12:01:26.000Z</time>
      </trkpt>
      <trkpt lat="41.299325" lon="2.035052">
        <ele>9.618588</ele>
        <time>2023-01-22T12:01:27.000Z</time>
      </trkpt>
      <trkpt lat="41.299434" lon="2.035134">
        <ele>9.651914</ele>
        <time>2023-01-22T12:01:29.000Z</time>
      </trkpt>
      <trkpt lat="41.299551" lon="2.035126">
        <ele>9.710779</ele>
        <time>2023-01-22T12:01:31.000Z</time>
      </trkpt>
      <trkpt lat="41.299600" lon="2.035089">
        <ele>9.739084</ele>
        <time>2023-01-22T12:01:32.000Z</time>
      </trkpt>
      <trkpt lat="41.299646" lon="2.035035">
        <ele>9.769901</ele>
        <time>2023-01-22T12:01:33.000Z</time>
      </trkpt>
      <trkpt lat="41.299715" lon="2.034892">
        <ele>9.834055</ele>
        <time>2023-01-22T12:01:35.000Z</time>
      </trkpt>
      <trkpt lat="41.299816" lon="2.034655">
        <ele>9.936908</ele>
        <time>2023-01-22T12:01:38.000Z</time>
      </trkpt>
      <trkpt lat="41.299912" lon="2.034520">
        <ele>10.007075</ele>
        <time>2023-01-22T12:01:40.000Z</time>
      </trkpt>
      <trkpt lat="41.300248" lon="2.034213">
        <ele>10.211845</ele>
        <time>2023-01-22T12:01:46.000Z</time>
      </trkpt>
      <trkpt lat="41.300716" lon="2.033812">
        <ele>10.491498</ele>
        <time>2023-01-22T12:01:54.000Z</time>
      </trkpt>
      <trkpt lat="41.300841" lon="2.033704">
        <ele>10.552647</ele>
        <time>2023-01-22T12:01:56.000Z</time>
      </trkpt>
      <trkpt lat="41.301280" lon="2.033364">
        <ele>10.699740</ele>
        <time>2023-01-22T12:02:03.000Z</time>
      </trkpt>
      <trkpt lat="41.301802" lon="2.033065">
        <ele>10.864319</ele>
        <time>2023-01-22T12:02:11.000Z</time>
      </trkpt>
      <trkpt lat="41.301872" lon="2.033031">
        <ele>10.885899</ele>
        <time>2023-01-22T12:02:12.000Z</time>
      </trkpt>
      <trkpt lat="41.302418" lon="2.032732">
        <ele>11.058117</ele>
        <time>2023-01-22T12:02:20.000Z</time>
      </trkpt>
      <trkpt lat="41.302481" lon="2.032682">
        <ele>11.092385</ele>
        <time>2023-01-22T12:02:21.000Z</time>
      </trkpt>
      <trkpt lat="41.302542" lon="2.032627">
        <ele>11.126806</ele>
        <time>2023-01-22T12:02:22.000Z</time>
      </trkpt>
      <trkpt lat="41.302762" lon="2.032358">
        <ele>11.266370</ele>
        <time>2023-01-22T12:02:26.000Z</time>
      </trkpt>
      <trkpt lat="41.302813" lon="2.032286">
        <ele>11.301101</ele>
        <time>2023-01-22T12:02:27.000Z</time>
      </trkpt>
      <trkpt lat="41.303195" lon="2.031810">
        <ele>11.545562</ele>
        <time>2023-01-22T12:02:34.000Z</time>
      </trkpt>
      <trkpt lat="41.303252" lon="2.031749">
        <ele>11.579730</ele>
        <time>2023-01-22T12:02:35.000Z</time>
      </trkpt>
      <trkpt lat="41.303738" lon="2.031270">
        <ele>11.862250</ele>
        <time>2023-01-22T12:02:43.000Z</time>
      </trkpt>
      <trkpt lat="41.303801" lon="2.031209">
        <ele>11.898349</ele>
        <time>2023-01-22T12:02:44.000Z</time>
      </trkpt>
      <trkpt lat="41.304238" lon="2.030775">
        <ele>12.131190</ele>
        <time>2023-01-22T12:02:51.000Z</time>
      </trkpt>
      <trkpt lat="41.304299" lon="2.030713">
        <ele>12.163966</ele>
        <time>2023-01-22T12:02:52.000Z</time>
      </trkpt>
      <trkpt lat="41.304420" lon="2.030589">
        <ele>12.229179</ele>
        <time>2023-01-22T12:02:54.000Z</time>
      </trkpt>
      <trkpt lat="41.304897" lon="2.030098">
        <ele>12.486683</ele>
        <time>2023-01-22T12:03:02.000Z</time>
      </trkpt>
      <trkpt lat="41.305136" lon="2.029846">
        <ele>12.616889</ele>
        <time>2023-01-22T12:03:06.000Z</time>
      </trkpt>
      <trkpt lat="41.305608" lon="2.029355">
        <ele>13.960439</ele>
        <time>2023-01-22T12:03:14.000Z</time>
      </trkpt>
      <trkpt lat="41.305727" lon="2.029231">
        <ele>14.360239</ele>
        <time>2023-01-22T12:03:16.000Z</time>
      </trkpt>
      <trkpt lat="41.306190" lon="2.028748">
        <ele>15.916427</ele>
        <time>2023-01-22T12:03:24.000Z</time>
      </trkpt>
      <trkpt lat="41.306242" lon="2.028693">
        <ele>16.092132</ele>
        <time>2023-01-22T12:03:25.000Z</time>
      </trkpt>
      <trkpt lat="41.306293" lon="2.028639">
        <ele>16.264529</ele>
        <time>2023-01-22T12:03:26.000Z</time>
      </trkpt>
      <trkpt lat="41.306473" lon="2.028448">
        <ele>16.873499</ele>
        <time>2023-01-22T12:03:30.000Z</time>
      </trkpt>
      <trkpt lat="41.306514" lon="2.028407">
        <ele>17.009161</ele>
        <time>2023-01-22T12:03:31.000Z</time>
      </trkpt>
      <trkpt lat="41.306593" lon="2.028331">
        <ele>17.267022</ele>
        <time>2023-01-22T12:03:33.000Z</time>
      </trkpt>
      <trkpt lat="41.306697" lon="2.028220">
        <ele>17.670684</ele>
        <time>2023-01-22T12:03:36.000Z</time>
      </trkpt>
      <trkpt lat="41.306762" lon="2.028146">
        <ele>17.955263</ele>
        <time>2023-01-22T12:03:38.000Z</time>
      </trkpt>
      <trkpt lat="41.306790" lon="2.028112">
        <ele>18.081365</ele>
        <time>2023-01-22T12:03:39.000Z</time>
      </trkpt>
      <trkpt lat="41.306866" lon="2.028024">
        <ele>18.416515</ele>
        <time>2023-01-22T12:03:42.000Z</time>
      </trkpt>
      <trkpt lat="41.306896" lon="2.027992">
        <ele>18.544426</ele>
        <time>2023-01-22T12:03:43.000Z</time>
      </trkpt>
      <trkpt lat="41.307062" lon="2.027819">
        <ele>19.245889</ele>
        <time>2023-01-22T12:03:48.000Z</time>
      </trkpt>
      <trkpt lat="41.307171" lon="2.027718">
        <ele>19.687776</ele>
        <time>2023-01-22T12:03:51.000Z</time>
      </trkpt>
      <trkpt lat="41.307214" lon="2.027699">
        <ele>19.838527</ele>
        <time>2023-01-22T12:03:52.000Z</time>
      </trkpt>
      <trkpt lat="41.307261" lon="2.027693">
        <ele>19.995630</ele>
        <time>2023-01-22T12:03:53.000Z</time>
      </trkpt>
      <trkpt lat="41.307361" lon="2.027684">
        <ele>20.329123</ele>
        <time>2023-01-22T12:03:55.000Z</time>
      </trkpt>
      <trkpt lat="41.307406" lon="2.027656">
        <ele>20.494401</ele>
        <time>2023-01-22T12:03:56.000Z</time>
      </trkpt>
      <trkpt lat="41.307447" lon="2.027608">
        <ele>20.676071</ele>
        <time>2023-01-22T12:03:57.000Z</time>
      </trkpt>
      <trkpt lat="41.307504" lon="2.027504">
        <ele>20.997846</ele>
        <time>2023-01-22T12:03:59.000Z</time>
      </trkpt>
      <trkpt lat="41.307542" lon="2.027436">
        <ele>21.209679</ele>
        <time>2023-01-22T12:04:00.000Z</time>
      </trkpt>
      <trkpt lat="41.307622" lon="2.027334">
        <ele>21.578258</ele>
        <time>2023-01-22T12:04:02.000Z</time>
      </trkpt>
      <trkpt lat="41.307713" lon="2.027253">
        <ele>21.942494</ele>
        <time>2023-01-22T12:04:04.000Z</time>
      </trkpt>
      <trkpt lat="41.308075" lon="2.026951">
        <ele>23.363960</ele>
        <time>2023-01-22T12:04:12.000Z</time>
      </trkpt>
      <trkpt lat="41.308397" lon="2.026685">
        <ele>23.161587</ele>
        <time>2023-01-22T12:04:19.000Z</time>
      </trkpt>
      <trkpt lat="41.308784" lon="2.026356">
        <ele>22.854596</ele>
        <time>2023-01-22T12:04:28.000Z</time>
      </trkpt>
      <trkpt lat="41.308968" lon="2.026233">
        <ele>22.716942</ele>
        <time>2023-01-22T12:04:33.000Z</time>
      </trkpt>
      <trkpt lat="41.309058" lon="2.026229">
        <ele>22.656737</ele>
        <time>2023-01-22T12:04:35.000Z</time>
      </trkpt>
      <trkpt lat="41.309096" lon="2.026248">
        <ele>22.629599</ele>
        <time>2023-01-22T12:04:36.000Z</time>
      </trkpt>
      <trkpt lat="41.309165" lon="2.026312">
        <ele>22.573375</ele>
        <time>2023-01-22T12:04:38.000Z</time>
      </trkpt>
      <trkpt lat="41.309237" lon="2.026421">
        <ele>22.500480</ele>
        <time>2023-01-22T12:04:40.000Z</time>
      </trkpt>
      <trkpt lat="41.309486" lon="2.026831">
        <ele>22.235700</ele>
        <time>2023-01-22T12:04:46.000Z</time>
      </trkpt>
      <trkpt lat="41.309525" lon="2.026901">
        <ele>22.174506</ele>
        <time>2023-01-22T12:04:47.000Z</time>
      </trkpt>
      <trkpt lat="41.309687" lon="2.027187">
        <ele>21.732709</ele>
        <time>2023-01-22T12:04:51.000Z</time>
      </trkpt>
      <trkpt lat="41.309922" lon="2.027619">
        <ele>21.074848</ele>
        <time>2023-01-22T12:04:57.000Z</time>
      </trkpt>
      <trkpt lat="41.309963" lon="2.027691">
        <ele>20.963412</ele>
        <time>2023-01-22T12:04:58.000Z</time>
      </trkpt>
      <trkpt lat="41.310211" lon="2.028143">
        <ele>20.273049</ele>
        <time>2023-01-22T12:05:04.000Z</time>
      </trkpt>
      <trkpt lat="41.310253" lon="2.028224">
        <ele>20.151656</ele>
        <time>2023-01-22T12:05:05.000Z</time>
      </trkpt>
      <trkpt lat="41.310540" lon="2.028727">
        <ele>19.372592</ele>
        <time>2023-01-22T12:05:12.000Z</time>
      </trkpt>
      <trkpt lat="41.310809" lon="2.029123">
        <ele>19.136116</ele>
        <time>2023-01-22T12:05:19.000Z</time>
      </trkpt>
      <trkpt lat="41.311215" lon="2.029636">
        <ele>18.940019</ele>
        <time>2023-01-22T12:05:28.000Z</time>
      </trkpt>
      <trkpt lat="41.311654" lon="2.030096">
        <ele>18.744301</ele>
        <time>2023-01-22T12:05:36.000Z</time>
      </trkpt>
      <trkpt lat="41.312045" lon="2.030466">
        <ele>18.337708</ele>
        <time>2023-01-22T12:05:42.000Z</time>
      </trkpt>
      <trkpt lat="41.312174" lon="2.030592">
        <ele>17.979287</ele>
        <time>2023-01-22T12:05:44.000Z</time>
      </trkpt>
      <trkpt lat="41.312367" lon="2.030780">
        <ele>17.443553</ele>
        <time>2023-01-22T12:05:47.000Z</time>
      </trkpt>
      <trkpt lat="41.312614" lon="2.031025">
        <ele>16.753529</ele>
        <time>2023-01-22T12:05:51.000Z</time>
      </trkpt>
      <trkpt lat="41.312669" lon="2.031087">
        <ele>16.592082</ele>
        <time>2023-01-22T12:05:52.000Z</time>
      </trkpt>
      <trkpt lat="41.312707" lon="2.031161">
        <ele>16.441246</ele>
        <time>2023-01-22T12:05:53.000Z</time>
      </trkpt>
      <trkpt lat="41.312726" lon="2.031245">
        <ele>16.293632</ele>
        <time>2023-01-22T12:05:54.000Z</time>
      </trkpt>
      <trkpt lat="41.312756" lon="2.031429">
        <ele>15.976811</ele>
        <time>2023-01-22T12:05:56.000Z</time>
      </trkpt>
      <trkpt lat="41.312795" lon="2.031509">
        <ele>15.816330</ele>
        <time>2023-01-22T12:05:57.000Z</time>
      </trkpt>
      <trkpt lat="41.312846" lon="2.031571">
        <ele>15.661614</ele>
        <time>2023-01-22T12:05:58.000Z</time>
      </trkpt>
      <trkpt lat="41.312970" lon="2.031621">
        <ele>15.371366</ele>
        <time>2023-01-22T12:06:00.000Z</time>
      </trkpt>
      <trkpt lat="41.313036" lon="2.031598">
        <ele>15.218530</ele>
        <time>2023-01-22T12:06:01.000Z</time>
      </trkpt>
      <trkpt lat="41.313102" lon="2.031579">
        <ele>15.067258</ele>
        <time>2023-01-22T12:06:02.000Z</time>
      </trkpt>
      <trkpt lat="41.313239" lon="2.031616">
        <ele>14.754097</ele>
        <time>2023-01-22T12:06:04.000Z</time>
      </trkpt>
      <trkpt lat="41.313546" lon="2.031903">
        <ele>14.606801</ele>
        <time>2023-01-22T12:06:09.000Z</time>
      </trkpt>
      <trkpt lat="41.313962" lon="2.032311">
        <ele>14.633621</ele>
        <time>2023-01-22T12:06:16.000Z</time>
      </trkpt>
      <trkpt lat="41.314346" lon="2.032691">
        <ele>14.658456</ele>
        <time>2023-01-22T12:06:23.000Z</time>
      </trkpt>
      <trkpt lat="41.314600" lon="2.032942">
        <ele>14.674876</ele>
        <time>2023-01-22T12:06:28.000Z</time>
      </trkpt>
      <trkpt lat="41.314707" lon="2.033043">
        <ele>14.681684</ele>
        <time>2023-01-22T12:06:30.000Z</time>
      </trkpt>
      <trkpt lat="41.315183" lon="2.033507">
        <ele>14.813546</ele>
        <time>2023-01-22T12:06:39.000Z</time>
      </trkpt>
      <trkpt lat="41.315238" lon="2.033560">
        <ele>14.829887</ele>
        <time>2023-01-22T12:06:40.000Z</time>
      </trkpt>
      <trkpt lat="41.315681" lon="2.033986">
        <ele>14.961411</ele>
        <time>2023-01-22T12:06:48.000Z</time>
      </trkpt>
      <trkpt lat="41.315851" lon="2.034150">
        <ele>15.011939</ele>
        <time>2023-01-22T12:06:51.000Z</time>
      </trkpt>
      <trkpt lat="41.316306" lon="2.034593">
        <ele>15.157795</ele>
        <time>2023-01-22T12:06:59.000Z</time>
      </trkpt>
      <trkpt lat="41.316542" lon="2.034818">
        <ele>15.251200</ele>
        <time>2023-01-22T12:07:03.000Z</time>
      </trkpt>
      <trkpt lat="41.317002" lon="2.035262">
        <ele>15.434027</ele>
        <time>2023-01-22T12:07:11.000Z</time>
      </trkpt>
      <trkpt lat="41.317174" lon="2.035420">
        <ele>15.501269</ele>
        <time>2023-01-22T12:07:14.000Z</time>
      </trkpt>
      <trkpt lat="41.317608" lon="2.035810">
        <ele>15.669757</ele>
        <time>2023-01-22T12:07:22.000Z</time>
      </trkpt>
      <trkpt lat="41.317854" lon="2.036036">
        <ele>15.679382</ele>
        <time>2023-01-22T12:07:27.000Z</time>
      </trkpt>
      <trkpt lat="41.317906" lon="2.036044">
        <ele>15.675333</ele>
        <time>2023-01-22T12:07:28.000Z</time>
      </trkpt>
      <trkpt lat="41.317957" lon="2.036029">
        <ele>15.671294</ele>
        <time>2023-01-22T12:07:29.000Z</time>
      </trkpt>
      <trkpt lat="41.318051" lon="2.035939">
        <ele>15.662339</ele>
        <time>2023-01-22T12:07:31.000Z</time>
      </trkpt>
      <trkpt lat="41.318425" lon="2.035432">
        <ele>15.621060</ele>
        <time>2023-01-22T12:07:40.000Z</time>
      </trkpt>
      <trkpt lat="41.318736" lon="2.035015">
        <ele>15.586924</ele>
        <time>2023-01-22T12:07:47.000Z</time>
      </trkpt>
      <trkpt lat="41.319140" lon="2.034466">
        <ele>15.656976</ele>
        <time>2023-01-22T12:07:56.000Z</time>
      </trkpt>
      <trkpt lat="41.319231" lon="2.034336">
        <ele>15.726834</ele>
        <time>2023-01-22T12:07:58.000Z</time>
      </trkpt>
      <trkpt lat="41.319588" lon="2.033855">
        <ele>15.992667</ele>
        <time>2023-01-22T12:08:06.000Z</time>
      </trkpt>
      <trkpt lat="41.319853" lon="2.033542">
        <ele>16.178079</ele>
        <time>2023-01-22T12:08:12.000Z</time>
      </trkpt>
      <trkpt lat="41.319899" lon="2.033496">
        <ele>16.208190</ele>
        <time>2023-01-22T12:08:13.000Z</time>
      </trkpt>
      <trkpt lat="41.319967" lon="2.033375">
        <ele>16.267597</ele>
        <time>2023-01-22T12:08:15.000Z</time>
      </trkpt>
      <trkpt lat="41.319988" lon="2.033302">
        <ele>16.298326</ele>
        <time>2023-01-22T12:08:16.000Z</time>
      </trkpt>
      <trkpt lat="41.320011" lon="2.033225">
        <ele>16.330900</ele>
        <time>2023-01-22T12:08:17.000Z</time>
      </trkpt>
      <trkpt lat="41.320119" lon="2.033032">
        <ele>16.425512</ele>
        <time>2023-01-22T12:08:20.000Z</time>
      </trkpt>
      <trkpt lat="41.320461" lon="2.032577">
        <ele>16.606515</ele>
        <time>2023-01-22T12:08:28.000Z</time>
      </trkpt>
      <trkpt lat="41.320768" lon="2.032173">
        <ele>16.742057</ele>
        <time>2023-01-22T12:08:35.000Z</time>
      </trkpt>
      <trkpt lat="41.321165" lon="2.031641">
        <ele>16.918927</ele>
        <time>2023-01-22T12:08:44.000Z</time>
      </trkpt>
      <trkpt lat="41.321383" lon="2.031344">
        <ele>17.016867</ele>
        <time>2023-01-22T12:08:49.000Z</time>
      </trkpt>
      <trkpt lat="41.321769" lon="2.030830">
        <ele>17.189007</ele>
        <time>2023-01-22T12:08:58.000Z</time>
      </trkpt>
      <trkpt lat="41.321815" lon="2.030778">
        <ele>17.208064</ele>
        <time>2023-01-22T12:08:59.000Z</time>
      </trkpt>
      <trkpt lat="41.321860" lon="2.030729">
        <ele>17.226423</ele>
        <time>2023-01-22T12:09:00.000Z</time>
      </trkpt>
      <trkpt lat="41.321904" lon="2.030678">
        <ele>17.244846</ele>
        <time>2023-01-22T12:09:01.000Z</time>
      </trkpt>
      <trkpt lat="41.322014" lon="2.030493">
        <ele>17.300812</ele>
        <time>2023-01-22T12:09:04.000Z</time>
      </trkpt>
      <trkpt lat="41.322288" lon="2.030164">
        <ele>17.417334</ele>
        <time>2023-01-22T12:09:10.000Z</time>
      </trkpt>
      <trkpt lat="41.322339" lon="2.030121">
        <ele>17.436399</ele>
        <time>2023-01-22T12:09:11.000Z</time>
      </trkpt>
      <trkpt lat="41.322458" lon="2.030063">
        <ele>17.476420</ele>
        <time>2023-01-22T12:09:13.000Z</time>
      </trkpt>
      <trkpt lat="41.322522" lon="2.030050">
        <ele>17.496866</ele>
        <time>2023-01-22T12:09:14.000Z</time>
      </trkpt>
      <trkpt lat="41.322587" lon="2.030051">
        <ele>17.517395</ele>
        <time>2023-01-22T12:09:15.000Z</time>
      </trkpt>
      <trkpt lat="41.322718" lon="2.030057">
        <ele>17.558792</ele>
        <time>2023-01-22T12:09:17.000Z</time>
      </trkpt>
      <trkpt lat="41.322846" lon="2.030030">
        <ele>17.599721</ele>
        <time>2023-01-22T12:09:19.000Z</time>
      </trkpt>
      <trkpt lat="41.322973" lon="2.029994">
        <ele>17.631122</ele>
        <time>2023-01-22T12:09:21.000Z</time>
      </trkpt>
      <trkpt lat="41.323098" lon="2.030023">
        <ele>17.630267</ele>
        <time>2023-01-22T12:09:23.000Z</time>
      </trkpt>
      <trkpt lat="41.323202" lon="2.030122">
        <ele>17.629405</ele>
        <time>2023-01-22T12:09:25.000Z</time>
      </trkpt>
      <trkpt lat="41.323250" lon="2.030192">
        <ele>17.628925</ele>
        <time>2023-01-22T12:09:26.000Z</time>
      </trkpt>
      <trkpt lat="41.323632" lon="2.030731">
        <ele>17.625173</ele>
        <time>2023-01-22T12:09:34.000Z</time>
      </trkpt>
      <trkpt lat="41.323679" lon="2.030796">
        <ele>17.624716</ele>
        <time>2023-01-22T12:09:35.000Z</time>
      </trkpt>
      <trkpt lat="41.324066" lon="2.031330">
        <ele>17.620959</ele>
        <time>2023-01-22T12:09:43.000Z</time>
      </trkpt>
      <trkpt lat="41.324275" lon="2.031609">
        <ele>17.636692</ele>
        <time>2023-01-22T12:09:47.000Z</time>
      </trkpt>
      <trkpt lat="41.324583" lon="2.032037">
        <ele>17.861532</ele>
        <time>2023-01-22T12:09:54.000Z</time>
      </trkpt>
      <trkpt lat="41.324615" lon="2.032104">
        <ele>17.891649</ele>
        <time>2023-01-22T12:09:55.000Z</time>
      </trkpt>
      <trkpt lat="41.324638" lon="2.032268">
        <ele>17.954929</ele>
        <time>2023-01-22T12:09:57.000Z</time>
      </trkpt>
      <trkpt lat="41.324665" lon="2.032442">
        <ele>18.022320</ele>
        <time>2023-01-22T12:09:59.000Z</time>
      </trkpt>
      <trkpt lat="41.324705" lon="2.032506">
        <ele>18.053902</ele>
        <time>2023-01-22T12:10:00.000Z</time>
      </trkpt>
      <trkpt lat="41.324755" lon="2.032549">
        <ele>18.083964</ele>
        <time>2023-01-22T12:10:01.000Z</time>
      </trkpt>
      <trkpt lat="41.324884" lon="2.032576">
        <ele>18.149918</ele>
        <time>2023-01-22T12:10:03.000Z</time>
      </trkpt>
      <trkpt lat="41.324950" lon="2.032593">
        <ele>18.183870</ele>
        <time>2023-01-22T12:10:04.000Z</time>
      </trkpt>
      <trkpt lat="41.325064" lon="2.032689">
        <ele>18.251995</ele>
        <time>2023-01-22T12:10:06.000Z</time>
      </trkpt>
      <trkpt lat="41.325443" lon="2.033215">
        <ele>18.527956</ele>
        <time>2023-01-22T12:10:14.000Z</time>
      </trkpt>
      <trkpt lat="41.325838" lon="2.033746">
        <ele>18.636282</ele>
        <time>2023-01-22T12:10:22.000Z</time>
      </trkpt>
      <trkpt lat="41.325985" lon="2.033936">
        <ele>18.675820</ele>
        <time>2023-01-22T12:10:25.000Z</time>
      </trkpt>
      <trkpt lat="41.326402" lon="2.034486">
        <ele>18.789095</ele>
        <time>2023-01-22T12:10:34.000Z</time>
      </trkpt>
      <trkpt lat="41.326582" lon="2.034724">
        <ele>18.838051</ele>
        <time>2023-01-22T12:10:38.000Z</time>
      </trkpt>
      <trkpt lat="41.326734" lon="2.034908">
        <ele>18.878525</ele>
        <time>2023-01-22T12:10:43.000Z</time>
      </trkpt>
      <trkpt lat="41.326793" lon="2.034983">
        <ele>18.898720</ele>
        <time>2023-01-22T12:10:48.000Z</time>
      </trkpt>
      <trkpt lat="41.326884" lon="2.035119">
        <ele>18.932588</ele>
        <time>2023-01-22T12:10:54.000Z</time>
      </trkpt>
      <trkpt lat="41.327054" lon="2.035340">
        <ele>18.991409</ele>
        <time>2023-01-22T12:10:59.000Z</time>
      </trkpt>
      <trkpt lat="41.327095" lon="2.035386">
        <ele>19.004683</ele>
        <time>2023-01-22T12:11:00.000Z</time>
      </trkpt>
      <trkpt lat="41.327236" lon="2.035554">
        <ele>19.051527</ele>
        <time>2023-01-22T12:11:03.000Z</time>
      </trkpt>
      <trkpt lat="41.327536" lon="2.035982">
        <ele>19.160382</ele>
        <time>2023-01-22T12:11:09.000Z</time>
      </trkpt>
      <trkpt lat="41.327801" lon="2.036352">
        <ele>19.255446</ele>
        <time>2023-01-22T12:11:15.000Z</time>
      </trkpt>
      <trkpt lat="41.328175" lon="2.036862">
        <ele>19.411310</ele>
        <time>2023-01-22T12:11:24.000Z</time>
      </trkpt>
      <trkpt lat="41.328219" lon="2.036925">
        <ele>19.432802</ele>
        <time>2023-01-22T12:11:25.000Z</time>
      </trkpt>
      <trkpt lat="41.328352" lon="2.037105">
        <ele>19.495885</ele>
        <time>2023-01-22T12:11:29.000Z</time>
      </trkpt>
      <trkpt lat="41.328464" lon="2.037255">
        <ele>19.548727</ele>
        <time>2023-01-22T12:11:34.000Z</time>
      </trkpt>
      <trkpt lat="41.328533" lon="2.037347">
        <ele>19.581209</ele>
        <time>2023-01-22T12:11:40.000Z</time>
      </trkpt>
      <trkpt lat="41.328629" lon="2.037552">
        <ele>19.641562</ele>
        <time>2023-01-22T12:11:47.000Z</time>
      </trkpt>
      <trkpt lat="41.328642" lon="2.037739">
        <ele>19.688475</ele>
        <time>2023-01-22T12:11:50.000Z</time>
      </trkpt>
      <trkpt lat="41.328662" lon="2.037805">
        <ele>19.706254</ele>
        <time>2023-01-22T12:11:51.000Z</time>
      </trkpt>
      <trkpt lat="41.328698" lon="2.037857">
        <ele>19.723923</ele>
        <time>2023-01-22T12:11:52.000Z</time>
      </trkpt>
      <trkpt lat="41.328807" lon="2.037912">
        <ele>19.762699</ele>
        <time>2023-01-22T12:11:54.000Z</time>
      </trkpt>
      <trkpt lat="41.328995" lon="2.037969">
        <ele>19.826840</ele>
        <time>2023-01-22T12:11:57.000Z</time>
      </trkpt>
      <trkpt lat="41.329067" lon="2.038030">
        <ele>19.855228</ele>
        <time>2023-01-22T12:11:58.000Z</time>
      </trkpt>
      <trkpt lat="41.329374" lon="2.038456">
        <ele>19.662951</ele>
        <time>2023-01-22T12:12:04.000Z</time>
      </trkpt>
      <trkpt lat="41.329801" lon="2.039025">
        <ele>19.053901</ele>
        <time>2023-01-22T12:12:12.000Z</time>
      </trkpt>
      <trkpt lat="41.329910" lon="2.039170">
        <ele>18.898563</ele>
        <time>2023-01-22T12:12:14.000Z</time>
      </trkpt>
      <trkpt lat="41.330016" lon="2.039312">
        <ele>18.746969</ele>
        <time>2023-01-22T12:12:16.000Z</time>
      </trkpt>
      <trkpt lat="41.330394" lon="2.039820">
        <ele>18.205508</ele>
        <time>2023-01-22T12:12:23.000Z</time>
      </trkpt>
      <trkpt lat="41.330693" lon="2.040231">
        <ele>17.931142</ele>
        <time>2023-01-22T12:12:29.000Z</time>
      </trkpt>
      <trkpt lat="41.330823" lon="2.040402">
        <ele>17.834899</ele>
        <time>2023-01-22T12:12:32.000Z</time>
      </trkpt>
      <trkpt lat="41.331113" lon="2.040791">
        <ele>17.618096</ele>
        <time>2023-01-22T12:12:39.000Z</time>
      </trkpt>
      <trkpt lat="41.331457" lon="2.041260">
        <ele>17.358791</ele>
        <time>2023-01-22T12:12:46.000Z</time>
      </trkpt>
      <trkpt lat="41.331786" lon="2.041697">
        <ele>17.229211</ele>
        <time>2023-01-22T12:12:52.000Z</time>
      </trkpt>
      <trkpt lat="41.332132" lon="2.042161">
        <ele>17.654951</ele>
        <time>2023-01-22T12:12:59.000Z</time>
      </trkpt>
      <trkpt lat="41.332487" lon="2.042651">
        <ele>18.098245</ele>
        <time>2023-01-22T12:13:07.000Z</time>
      </trkpt>
      <trkpt lat="41.332650" lon="2.042861">
        <ele>18.294880</ele>
        <time>2023-01-22T12:13:12.000Z</time>
      </trkpt>
      <trkpt lat="41.332743" lon="2.043018">
        <ele>18.425071</ele>
        <time>2023-01-22T12:13:15.000Z</time>
      </trkpt>
      <trkpt lat="41.332774" lon="2.043163">
        <ele>18.523225</ele>
        <time>2023-01-22T12:13:17.000Z</time>
      </trkpt>
      <trkpt lat="41.332790" lon="2.043243">
        <ele>18.577124</ele>
        <time>2023-01-22T12:13:18.000Z</time>
      </trkpt>
      <trkpt lat="41.332820" lon="2.043319">
        <ele>18.633024</ele>
        <time>2023-01-22T12:13:19.000Z</time>
      </trkpt>
      <trkpt lat="41.332865" lon="2.043387">
        <ele>18.692034</ele>
        <time>2023-01-22T12:13:20.000Z</time>
      </trkpt>
      <trkpt lat="41.332991" lon="2.043458">
        <ele>18.615966</ele>
        <time>2023-01-22T12:13:22.000Z</time>
      </trkpt>
      <trkpt lat="41.333057" lon="2.043475">
        <ele>18.553021</ele>
        <time>2023-01-22T12:13:23.000Z</time>
      </trkpt>
      <trkpt lat="41.333121" lon="2.043501">
        <ele>18.490368</ele>
        <time>2023-01-22T12:13:24.000Z</time>
      </trkpt>
      <trkpt lat="41.333229" lon="2.043600">
        <ele>18.367602</ele>
        <time>2023-01-22T12:13:26.000Z</time>
      </trkpt>
      <trkpt lat="41.333558" lon="2.044045">
        <ele>17.928521</ele>
        <time>2023-01-22T12:13:33.000Z</time>
      </trkpt>
      <trkpt lat="41.333605" lon="2.044110">
        <ele>17.865076</ele>
        <time>2023-01-22T12:13:34.000Z</time>
      </trkpt>
      <trkpt lat="41.333821" lon="2.044406">
        <ele>17.574874</ele>
        <time>2023-01-22T12:13:38.000Z</time>
      </trkpt>
      <trkpt lat="41.333970" lon="2.044611">
        <ele>17.374278</ele>
        <time>2023-01-22T12:13:41.000Z</time>
      </trkpt>
      <trkpt lat="41.334081" lon="2.044758">
        <ele>17.227702</ele>
        <time>2023-01-22T12:13:43.000Z</time>
      </trkpt>
      <trkpt lat="41.334305" lon="2.045068">
        <ele>17.026265</ele>
        <time>2023-01-22T12:13:48.000Z</time>
      </trkpt>
      <trkpt lat="41.334653" lon="2.045536">
        <ele>16.997785</ele>
        <time>2023-01-22T12:13:55.000Z</time>
      </trkpt>
      <trkpt lat="41.334780" lon="2.045764">
        <ele>16.985510</ele>
        <time>2023-01-22T12:13:58.000Z</time>
      </trkpt>
      <trkpt lat="41.334808" lon="2.045851">
        <ele>16.981417</ele>
        <time>2023-01-22T12:13:59.000Z</time>
      </trkpt>
      <trkpt lat="41.334838" lon="2.045941">
        <ele>16.977159</ele>
        <time>2023-01-22T12:14:00.000Z</time>
      </trkpt>
      <trkpt lat="41.334935" lon="2.046087">
        <ele>16.968730</ele>
        <time>2023-01-22T12:14:02.000Z</time>
      </trkpt>
      <trkpt lat="41.335071" lon="2.046137">
        <ele>16.960605</ele>
        <time>2023-01-22T12:14:04.000Z</time>
      </trkpt>
      <trkpt lat="41.335140" lon="2.046122">
        <ele>16.956579</ele>
        <time>2023-01-22T12:14:05.000Z</time>
      </trkpt>
      <trkpt lat="41.335207" lon="2.046087">
        <ele>16.952435</ele>
        <time>2023-01-22T12:14:06.000Z</time>
      </trkpt>
      <trkpt lat="41.335390" lon="2.045948">
        <ele>16.940303</ele>
        <time>2023-01-22T12:14:09.000Z</time>
      </trkpt>
      <trkpt lat="41.335441" lon="2.045916">
        <ele>16.937057</ele>
        <time>2023-01-22T12:14:10.000Z</time>
      </trkpt>
      <trkpt lat="41.335534" lon="2.045877">
        <ele>16.931442</ele>
        <time>2023-01-22T12:14:12.000Z</time>
      </trkpt>
      <trkpt lat="41.335584" lon="2.045863">
        <ele>16.941389</ele>
        <time>2023-01-22T12:14:13.000Z</time>
      </trkpt>
      <trkpt lat="41.335752" lon="2.045863">
        <ele>17.085664</ele>
        <time>2023-01-22T12:14:16.000Z</time>
      </trkpt>
      <trkpt lat="41.335808" lon="2.045878">
        <ele>17.134719</ele>
        <time>2023-01-22T12:14:17.000Z</time>
      </trkpt>
      <trkpt lat="41.336253" lon="2.046090">
        <ele>17.540592</ele>
        <time>2023-01-22T12:14:25.000Z</time>
      </trkpt>
      <trkpt lat="41.336616" lon="2.046276">
        <ele>17.874606</ele>
        <time>2023-01-22T12:14:31.000Z</time>
      </trkpt>
      <trkpt lat="41.337164" lon="2.046566">
        <ele>18.381009</ele>
        <time>2023-01-22T12:14:40.000Z</time>
      </trkpt>
      <trkpt lat="41.337220" lon="2.046596">
        <ele>18.432846</ele>
        <time>2023-01-22T12:14:41.000Z</time>
      </trkpt>
      <trkpt lat="41.337432" lon="2.046702">
        <ele>18.654604</ele>
        <time>2023-01-22T12:14:45.000Z</time>
      </trkpt>
      <trkpt lat="41.337563" lon="2.046765">
        <ele>18.795497</ele>
        <time>2023-01-22T12:14:48.000Z</time>
      </trkpt>
      <trkpt lat="41.337700" lon="2.046835">
        <ele>18.943934</ele>
        <time>2023-01-22T12:14:52.000Z</time>
      </trkpt>
      <trkpt lat="41.337755" lon="2.046863">
        <ele>19.003498</ele>
        <time>2023-01-22T12:14:54.000Z</time>
      </trkpt>
      <trkpt lat="41.337918" lon="2.046946">
        <ele>19.180029</ele>
        <time>2023-01-22T12:15:00.000Z</time>
      </trkpt>
      <trkpt lat="41.337955" lon="2.046965">
        <ele>19.220143</ele>
        <time>2023-01-22T12:15:01.000Z</time>
      </trkpt>
      <trkpt lat="41.338069" lon="2.047022">
        <ele>19.343324</ele>
        <time>2023-01-22T12:15:04.000Z</time>
      </trkpt>
      <trkpt lat="41.338111" lon="2.047044">
        <ele>19.388979</ele>
        <time>2023-01-22T12:15:05.000Z</time>
      </trkpt>
      <trkpt lat="41.338157" lon="2.047069">
        <ele>19.439237</ele>
        <time>2023-01-22T12:15:06.000Z</time>
      </trkpt>
      <trkpt lat="41.338510" lon="2.047240">
        <ele>19.819217</ele>
        <time>2023-01-22T12:15:13.000Z</time>
      </trkpt>
      <trkpt lat="41.338920" lon="2.047450">
        <ele>20.263583</ele>
        <time>2023-01-22T12:15:20.000Z</time>
      </trkpt>
      <trkpt lat="41.339309" lon="2.047652">
        <ele>20.201822</ele>
        <time>2023-01-22T12:15:26.000Z</time>
      </trkpt>
      <trkpt lat="41.339819" lon="2.047923">
        <ele>20.072141</ele>
        <time>2023-01-22T12:15:34.000Z</time>
      </trkpt>
      <trkpt lat="41.339954" lon="2.047994">
        <ele>20.037862</ele>
        <time>2023-01-22T12:15:36.000Z</time>
      </trkpt>
      <trkpt lat="41.340492" lon="2.048271">
        <ele>19.901637</ele>
        <time>2023-01-22T12:15:45.000Z</time>
      </trkpt>
      <trkpt lat="41.340980" lon="2.048527">
        <ele>19.991165</ele>
        <time>2023-01-22T12:15:54.000Z</time>
      </trkpt>
      <trkpt lat="41.341022" lon="2.048551">
        <ele>20.005712</ele>
        <time>2023-01-22T12:15:55.000Z</time>
      </trkpt>
      <trkpt lat="41.341107" lon="2.048635">
        <ele>20.039401</ele>
        <time>2023-01-22T12:15:58.000Z</time>
      </trkpt>
      <trkpt lat="41.341138" lon="2.048729">
        <ele>20.063937</ele>
        <time>2023-01-22T12:16:02.000Z</time>
      </trkpt>
      <trkpt lat="41.341132" lon="2.048856">
        <ele>20.094347</ele>
        <time>2023-01-22T12:16:08.000Z</time>
      </trkpt>
      <trkpt lat="41.341102" lon="2.049078">
        <ele>20.148253</ele>
        <time>2023-01-22T12:16:13.000Z</time>
      </trkpt>
      <trkpt lat="41.341112" lon="2.049203">
        <ele>20.178294</ele>
        <time>2023-01-22T12:16:15.000Z</time>
      </trkpt>
      <trkpt lat="41.341144" lon="2.049327">
        <ele>20.209629</ele>
        <time>2023-01-22T12:16:17.000Z</time>
      </trkpt>
      <trkpt lat="41.341171" lon="2.049390">
        <ele>20.226965</ele>
        <time>2023-01-22T12:16:18.000Z</time>
      </trkpt>
      <trkpt lat="41.341206" lon="2.049452">
        <ele>20.245502</ele>
        <time>2023-01-22T12:16:19.000Z</time>
      </trkpt>
      <trkpt lat="41.341296" lon="2.049562">
        <ele>20.284383</ele>
        <time>2023-01-22T12:16:21.000Z</time>
      </trkpt>
      <trkpt lat="41.341351" lon="2.049603">
        <ele>20.304445</ele>
        <time>2023-01-22T12:16:22.000Z</time>
      </trkpt>
      <trkpt lat="41.341411" lon="2.049632">
        <ele>20.324761</ele>
        <time>2023-01-22T12:16:23.000Z</time>
      </trkpt>
      <trkpt lat="41.341536" lon="2.049658">
        <ele>20.365031</ele>
        <time>2023-01-22T12:16:25.000Z</time>
      </trkpt>
      <trkpt lat="41.341597" lon="2.049652">
        <ele>20.384500</ele>
        <time>2023-01-22T12:16:26.000Z</time>
      </trkpt>
      <trkpt lat="41.341654" lon="2.049634">
        <ele>20.403146</ele>
        <time>2023-01-22T12:16:27.000Z</time>
      </trkpt>
      <trkpt lat="41.341759" lon="2.049572">
        <ele>20.439705</ele>
        <time>2023-01-22T12:16:29.000Z</time>
      </trkpt>
      <trkpt lat="41.341802" lon="2.049527">
        <ele>20.462624</ele>
        <time>2023-01-22T12:16:30.000Z</time>
      </trkpt>
      <trkpt lat="41.341842" lon="2.049476">
        <ele>20.486346</ele>
        <time>2023-01-22T12:16:31.000Z</time>
      </trkpt>
      <trkpt lat="41.341978" lon="2.049246">
        <ele>20.580509</ele>
        <time>2023-01-22T12:16:35.000Z</time>
      </trkpt>
      <trkpt lat="41.342066" lon="2.049165">
        <ele>20.626334</ele>
        <time>2023-01-22T12:16:37.000Z</time>
      </trkpt>
      <trkpt lat="41.342120" lon="2.049145">
        <ele>20.650345</ele>
        <time>2023-01-22T12:16:38.000Z</time>
      </trkpt>
      <trkpt lat="41.342179" lon="2.049141">
        <ele>20.675653</ele>
        <time>2023-01-22T12:16:39.000Z</time>
      </trkpt>
      <trkpt lat="41.342354" lon="2.049184">
        <ele>20.751887</ele>
        <time>2023-01-22T12:16:42.000Z</time>
      </trkpt>
      <trkpt lat="41.342701" lon="2.049346">
        <ele>20.909407</ele>
        <time>2023-01-22T12:16:49.000Z</time>
      </trkpt>
      <trkpt lat="41.342874" lon="2.049449">
        <ele>20.990587</ele>
        <time>2023-01-22T12:16:53.000Z</time>
      </trkpt>
      <trkpt lat="41.342963" lon="2.049529">
        <ele>21.036584</ele>
        <time>2023-01-22T12:16:55.000Z</time>
      </trkpt>
      <trkpt lat="41.343013" lon="2.049564">
        <ele>21.060781</ele>
        <time>2023-01-22T12:16:56.000Z</time>
      </trkpt>
      <trkpt lat="41.343229" lon="2.049686">
        <ele>21.161290</ele>
        <time>2023-01-22T12:17:00.000Z</time>
      </trkpt>
      <trkpt lat="41.343761" lon="2.049965">
        <ele>20.987243</ele>
        <time>2023-01-22T12:17:09.000Z</time>
      </trkpt>
      <trkpt lat="41.344290" lon="2.050233">
        <ele>20.707468</ele>
        <time>2023-01-22T12:17:17.000Z</time>
      </trkpt>
      <trkpt lat="41.344836" lon="2.050495">
        <ele>20.420585</ele>
        <time>2023-01-22T12:17:25.000Z</time>
      </trkpt>
      <trkpt lat="41.345323" lon="2.050723">
        <ele>20.579373</ele>
        <time>2023-01-22T12:17:33.000Z</time>
      </trkpt>
      <trkpt lat="41.345496" lon="2.050824">
        <ele>20.731923</ele>
        <time>2023-01-22T12:17:36.000Z</time>
      </trkpt>
      <trkpt lat="41.345640" lon="2.050968">
        <ele>20.877347</ele>
        <time>2023-01-22T12:17:39.000Z</time>
      </trkpt>
      <trkpt lat="41.345877" lon="2.051339">
        <ele>21.172703</ele>
        <time>2023-01-22T12:17:45.000Z</time>
      </trkpt>
      <trkpt lat="41.345982" lon="2.051540">
        <ele>21.321172</ele>
        <time>2023-01-22T12:17:48.000Z</time>
      </trkpt>
      <trkpt lat="41.346309" lon="2.052171">
        <ele>21.765356</ele>
        <time>2023-01-22T12:17:57.000Z</time>
      </trkpt>
      <trkpt lat="41.346570" lon="2.052486">
        <ele>21.506793</ele>
        <time>2023-01-22T12:18:02.000Z</time>
      </trkpt>
      <trkpt lat="41.346635" lon="2.052535">
        <ele>21.451962</ele>
        <time>2023-01-22T12:18:03.000Z</time>
      </trkpt>
      <trkpt lat="41.346773" lon="2.052600">
        <ele>21.344504</ele>
        <time>2023-01-22T12:18:05.000Z</time>
      </trkpt>
      <trkpt lat="41.346845" lon="2.052614">
        <ele>21.291086</ele>
        <time>2023-01-22T12:18:06.000Z</time>
      </trkpt>
      <trkpt lat="41.346904" lon="2.052611">
        <ele>21.247740</ele>
        <time>2023-01-22T12:18:07.000Z</time>
      </trkpt>
      <trkpt lat="41.347057" lon="2.052543">
        <ele>21.129329</ele>
        <time>2023-01-22T12:18:09.000Z</time>
      </trkpt>
      <trkpt lat="41.347163" lon="2.052405">
        <ele>21.020516</ele>
        <time>2023-01-22T12:18:11.000Z</time>
      </trkpt>
      <trkpt lat="41.347202" lon="2.052315">
        <ele>20.963243</ele>
        <time>2023-01-22T12:18:12.000Z</time>
      </trkpt>
      <trkpt lat="41.347225" lon="2.052215">
        <ele>20.905601</ele>
        <time>2023-01-22T12:18:13.000Z</time>
      </trkpt>
      <trkpt lat="41.347236" lon="2.052110">
        <ele>20.847172</ele>
        <time>2023-01-22T12:18:14.000Z</time>
      </trkpt>
      <trkpt lat="41.347238" lon="2.052003">
        <ele>20.788182</ele>
        <time>2023-01-22T12:18:15.000Z</time>
      </trkpt>
      <trkpt lat="41.347212" lon="2.051792">
        <ele>20.670337</ele>
        <time>2023-01-22T12:18:17.000Z</time>
      </trkpt>
      <trkpt lat="41.347164" lon="2.051593">
        <ele>20.555139</ele>
        <time>2023-01-22T12:18:19.000Z</time>
      </trkpt>
      <trkpt lat="41.347052" lon="2.051121">
        <ele>20.658839</ele>
        <time>2023-01-22T12:18:24.000Z</time>
      </trkpt>
      <trkpt lat="41.346945" lon="2.050509">
        <ele>21.068719</ele>
        <time>2023-01-22T12:18:31.000Z</time>
      </trkpt>
      <trkpt lat="41.346803" lon="2.049770">
        <ele>21.566297</ele>
        <time>2023-01-22T12:18:40.000Z</time>
      </trkpt>
      <trkpt lat="41.346788" lon="2.049686">
        <ele>21.622618</ele>
        <time>2023-01-22T12:18:41.000Z</time>
      </trkpt>
      <trkpt lat="41.346746" lon="2.049431">
        <ele>21.792907</ele>
        <time>2023-01-22T12:18:44.000Z</time>
      </trkpt>
      <trkpt lat="41.346717" lon="2.049076">
        <ele>22.032443</ele>
        <time>2023-01-22T12:18:48.000Z</time>
      </trkpt>
      <trkpt lat="41.346720" lon="2.048998">
        <ele>22.124017</ele>
        <time>2023-01-22T12:18:49.000Z</time>
      </trkpt>
      <trkpt lat="41.346786" lon="2.048613">
        <ele>22.587044</ele>
        <time>2023-01-22T12:18:53.000Z</time>
      </trkpt>
      <trkpt lat="41.346902" lon="2.048243">
        <ele>23.057174</ele>
        <time>2023-01-22T12:18:58.000Z</time>
      </trkpt>
      <trkpt lat="41.346947" lon="2.048111">
        <ele>23.227152</ele>
        <time>2023-01-22T12:19:00.000Z</time>
      </trkpt>
      <trkpt lat="41.347031" lon="2.047865">
        <ele>23.544018</ele>
        <time>2023-01-22T12:19:04.000Z</time>
      </trkpt>
      <trkpt lat="41.347080" lon="2.047734">
        <ele>23.715622</ele>
        <time>2023-01-22T12:19:06.000Z</time>
      </trkpt>
      <trkpt lat="41.347156" lon="2.047527">
        <ele>23.985796</ele>
        <time>2023-01-22T12:19:09.000Z</time>
      </trkpt>
      <trkpt lat="41.347342" lon="2.047108">
        <ele>24.556526</ele>
        <time>2023-01-22T12:19:15.000Z</time>
      </trkpt>
      <trkpt lat="41.347523" lon="2.046792">
        <ele>24.454986</ele>
        <time>2023-01-22T12:19:19.000Z</time>
      </trkpt>
      <trkpt lat="41.347714" lon="2.046512">
        <ele>23.613233</ele>
        <time>2023-01-22T12:19:22.000Z</time>
      </trkpt>
      <trkpt lat="41.347908" lon="2.046250">
        <ele>22.794455</ele>
        <time>2023-01-22T12:19:25.000Z</time>
      </trkpt>
      <trkpt lat="41.347974" lon="2.046159">
        <ele>22.512931</ele>
        <time>2023-01-22T12:19:26.000Z</time>
      </trkpt>
      <trkpt lat="41.348035" lon="2.046062">
        <ele>22.231396</ele>
        <time>2023-01-22T12:19:27.000Z</time>
      </trkpt>
      <trkpt lat="41.348157" lon="2.045861">
        <ele>21.656301</ele>
        <time>2023-01-22T12:19:29.000Z</time>
      </trkpt>
      <trkpt lat="41.348222" lon="2.045755">
        <ele>21.351781</ele>
        <time>2023-01-22T12:19:30.000Z</time>
      </trkpt>
      <trkpt lat="41.348420" lon="2.045456">
        <ele>20.464697</ele>
        <time>2023-01-22T12:19:33.000Z</time>
      </trkpt>
      <trkpt lat="41.348536" lon="2.045245">
        <ele>19.882818</ele>
        <time>2023-01-22T12:19:35.000Z</time>
      </trkpt>
      <trkpt lat="41.348768" lon="2.044774">
        <ele>20.180799</ele>
        <time>2023-01-22T12:19:40.000Z</time>
      </trkpt>
      <trkpt lat="41.348922" lon="2.044315">
        <ele>21.064884</ele>
        <time>2023-01-22T12:19:45.000Z</time>
      </trkpt>
      <trkpt lat="41.349018" lon="2.044068">
        <ele>21.553988</ele>
        <time>2023-01-22T12:19:48.000Z</time>
      </trkpt>
      <trkpt lat="41.349116" lon="2.043824">
        <ele>22.040605</ele>
        <time>2023-01-22T12:19:51.000Z</time>
      </trkpt>
      <trkpt lat="41.349187" lon="2.043663">
        <ele>22.368954</ele>
        <time>2023-01-22T12:19:53.000Z</time>
      </trkpt>
      <trkpt lat="41.349321" lon="2.043377">
        <ele>22.961791</ele>
        <time>2023-01-22T12:19:57.000Z</time>
      </trkpt>
      <trkpt lat="41.349468" lon="2.043067">
        <ele>23.606561</ele>
        <time>2023-01-22T12:20:01.000Z</time>
      </trkpt>
      <trkpt lat="41.349704" lon="2.042626">
        <ele>23.966335</ele>
        <time>2023-01-22T12:20:06.000Z</time>
      </trkpt>
      <trkpt lat="41.350023" lon="2.042023">
        <ele>24.358911</ele>
        <time>2023-01-22T12:20:13.000Z</time>
      </trkpt>
      <trkpt lat="41.350115" lon="2.041847">
        <ele>24.473044</ele>
        <time>2023-01-22T12:20:15.000Z</time>
      </trkpt>
      <trkpt lat="41.350430" lon="2.041240">
        <ele>24.865741</ele>
        <time>2023-01-22T12:20:22.000Z</time>
      </trkpt>
      <trkpt lat="41.350611" lon="2.040909">
        <ele>25.074792</ele>
        <time>2023-01-22T12:20:26.000Z</time>
      </trkpt>
      <trkpt lat="41.350657" lon="2.040829">
        <ele>25.123632</ele>
        <time>2023-01-22T12:20:27.000Z</time>
      </trkpt>
      <trkpt lat="41.350958" lon="2.040279">
        <ele>25.453510</ele>
        <time>2023-01-22T12:20:34.000Z</time>
      </trkpt>
      <trkpt lat="41.350993" lon="2.040202">
        <ele>25.497137</ele>
        <time>2023-01-22T12:20:35.000Z</time>
      </trkpt>
      <trkpt lat="41.351028" lon="2.040131">
        <ele>25.538304</ele>
        <time>2023-01-22T12:20:36.000Z</time>
      </trkpt>
      <trkpt lat="41.351139" lon="2.039931">
        <ele>25.658850</ele>
        <time>2023-01-22T12:20:39.000Z</time>
      </trkpt>
      <trkpt lat="41.351176" lon="2.039860">
        <ele>25.700739</ele>
        <time>2023-01-22T12:20:40.000Z</time>
      </trkpt>
      <trkpt lat="41.351424" lon="2.039361">
        <ele>25.990780</ele>
        <time>2023-01-22T12:20:46.000Z</time>
      </trkpt>
      <trkpt lat="41.351618" lon="2.038985">
        <ele>26.003061</ele>
        <time>2023-01-22T12:20:50.000Z</time>
      </trkpt>
      <trkpt lat="41.351710" lon="2.038803">
        <ele>25.774982</ele>
        <time>2023-01-22T12:20:52.000Z</time>
      </trkpt>
      <trkpt lat="41.351791" lon="2.038630">
        <ele>25.563041</ele>
        <time>2023-01-22T12:20:54.000Z</time>
      </trkpt>
      <trkpt lat="41.351836" lon="2.038454">
        <ele>25.369773</ele>
        <time>2023-01-22T12:20:56.000Z</time>
      </trkpt>
      <trkpt lat="41.351843" lon="2.038366">
        <ele>25.277787</ele>
        <time>2023-01-22T12:20:57.000Z</time>
      </trkpt>
      <trkpt lat="41.351843" lon="2.038279">
        <ele>25.187353</ele>
        <time>2023-01-22T12:20:58.000Z</time>
      </trkpt>
      <trkpt lat="41.351808" lon="2.038015">
        <ele>24.908686</ele>
        <time>2023-01-22T12:21:01.000Z</time>
      </trkpt>
      <trkpt lat="41.351790" lon="2.037837">
        <ele>24.721988</ele>
        <time>2023-01-22T12:21:03.000Z</time>
      </trkpt>
      <trkpt lat="41.351808" lon="2.037650">
        <ele>24.526016</ele>
        <time>2023-01-22T12:21:05.000Z</time>
      </trkpt>
      <trkpt lat="41.351872" lon="2.037472">
        <ele>24.320861</ele>
        <time>2023-01-22T12:21:07.000Z</time>
      </trkpt>
      <trkpt lat="41.351926" lon="2.037391">
        <ele>24.208253</ele>
        <time>2023-01-22T12:21:08.000Z</time>
      </trkpt>
      <trkpt lat="41.351985" lon="2.037316">
        <ele>24.095326</ele>
        <time>2023-01-22T12:21:09.000Z</time>
      </trkpt>
      <trkpt lat="41.352183" lon="2.037116">
        <ele>23.751244</ele>
        <time>2023-01-22T12:21:12.000Z</time>
      </trkpt>
      <trkpt lat="41.352249" lon="2.037058">
        <ele>23.650493</ele>
        <time>2023-01-22T12:21:13.000Z</time>
      </trkpt>
      <trkpt lat="41.352317" lon="2.037006">
        <ele>23.614319</ele>
        <time>2023-01-22T12:21:14.000Z</time>
      </trkpt>
      <trkpt lat="41.352531" lon="2.036876">
        <ele>23.505809</ele>
        <time>2023-01-22T12:21:17.000Z</time>
      </trkpt>
      <trkpt lat="41.352603" lon="2.036839">
        <ele>23.470206</ele>
        <time>2023-01-22T12:21:18.000Z</time>
      </trkpt>
      <trkpt lat="41.353102" lon="2.036645">
        <ele>23.230387</ele>
        <time>2023-01-22T12:21:25.000Z</time>
      </trkpt>
      <trkpt lat="41.353235" lon="2.036609">
        <ele>23.167773</ele>
        <time>2023-01-22T12:21:27.000Z</time>
      </trkpt>
      <trkpt lat="41.353498" lon="2.036575">
        <ele>23.045867</ele>
        <time>2023-01-22T12:21:31.000Z</time>
      </trkpt>
      <trkpt lat="41.353628" lon="2.036567">
        <ele>22.985827</ele>
        <time>2023-01-22T12:21:33.000Z</time>
      </trkpt>
      <trkpt lat="41.353888" lon="2.036562">
        <ele>22.865863</ele>
        <time>2023-01-22T12:21:37.000Z</time>
      </trkpt>
      <trkpt lat="41.354383" lon="2.036578">
        <ele>22.923061</ele>
        <time>2023-01-22T12:21:45.000Z</time>
      </trkpt>
      <trkpt lat="41.354895" lon="2.036589">
        <ele>23.046477</ele>
        <time>2023-01-22T12:21:53.000Z</time>
      </trkpt>
      <trkpt lat="41.355408" lon="2.036586">
        <ele>23.170118</ele>
        <time>2023-01-22T12:22:01.000Z</time>
      </trkpt>
      <trkpt lat="41.355953" lon="2.036510">
        <ele>23.312743</ele>
        <time>2023-01-22T12:22:10.000Z</time>
      </trkpt>
      <trkpt lat="41.356013" lon="2.036493">
        <ele>23.331102</ele>
        <time>2023-01-22T12:22:11.000Z</time>
      </trkpt>
      <trkpt lat="41.356568" lon="2.036293">
        <ele>23.503184</ele>
        <time>2023-01-22T12:22:20.000Z</time>
      </trkpt>
      <trkpt lat="41.356630" lon="2.036267">
        <ele>23.522639</ele>
        <time>2023-01-22T12:22:21.000Z</time>
      </trkpt>
      <trkpt lat="41.357098" lon="2.036002">
        <ele>23.674838</ele>
        <time>2023-01-22T12:22:29.000Z</time>
      </trkpt>
      <trkpt lat="41.357547" lon="2.035676">
        <ele>23.821748</ele>
        <time>2023-01-22T12:22:37.000Z</time>
      </trkpt>
      <trkpt lat="41.357893" lon="2.035380">
        <ele>23.920455</ele>
        <time>2023-01-22T12:22:44.000Z</time>
      </trkpt>
      <trkpt lat="41.358392" lon="2.035005">
        <ele>24.057983</ele>
        <time>2023-01-22T12:22:53.000Z</time>
      </trkpt>
      <trkpt lat="41.358885" lon="2.034688">
        <ele>24.189390</ele>
        <time>2023-01-22T12:23:02.000Z</time>
      </trkpt>
      <trkpt lat="41.359395" lon="2.034366">
        <ele>24.354357</ele>
        <time>2023-01-22T12:23:11.000Z</time>
      </trkpt>
      <trkpt lat="41.359507" lon="2.034297">
        <ele>24.393057</ele>
        <time>2023-01-22T12:23:13.000Z</time>
      </trkpt>
      <trkpt lat="41.359619" lon="2.034227">
        <ele>24.431856</ele>
        <time>2023-01-22T12:23:15.000Z</time>
      </trkpt>
      <trkpt lat="41.360067" lon="2.033946">
        <ele>24.587151</ele>
        <time>2023-01-22T12:23:23.000Z</time>
      </trkpt>
      <trkpt lat="41.360232" lon="2.033842">
        <ele>24.644397</ele>
        <time>2023-01-22T12:23:26.000Z</time>
      </trkpt>
      <trkpt lat="41.360682" lon="2.033587">
        <ele>24.798980</ele>
        <time>2023-01-22T12:23:34.000Z</time>
      </trkpt>
      <trkpt lat="41.361210" lon="2.033349">
        <ele>25.016215</ele>
        <time>2023-01-22T12:23:43.000Z</time>
      </trkpt>
      <trkpt lat="41.361272" lon="2.033325">
        <ele>25.041377</ele>
        <time>2023-01-22T12:23:44.000Z</time>
      </trkpt>
      <trkpt lat="41.361818" lon="2.033157">
        <ele>25.259769</ele>
        <time>2023-01-22T12:23:53.000Z</time>
      </trkpt>
      <trkpt lat="41.361945" lon="2.033129">
        <ele>25.309938</ele>
        <time>2023-01-22T12:23:55.000Z</time>
      </trkpt>
      <trkpt lat="41.362512" lon="2.033030">
        <ele>25.534724</ele>
        <time>2023-01-22T12:24:04.000Z</time>
      </trkpt>
      <trkpt lat="41.362571" lon="2.033016">
        <ele>25.559228</ele>
        <time>2023-01-22T12:24:05.000Z</time>
      </trkpt>
      <trkpt lat="41.363047" lon="2.032862">
        <ele>25.759511</ele>
        <time>2023-01-22T12:24:13.000Z</time>
      </trkpt>
      <trkpt lat="41.363557" lon="2.032611">
        <ele>25.981813</ele>
        <time>2023-01-22T12:24:22.000Z</time>
      </trkpt>
      <trkpt lat="41.364037" lon="2.032267">
        <ele>26.204667</ele>
        <time>2023-01-22T12:24:31.000Z</time>
      </trkpt>
      <trkpt lat="41.364245" lon="2.032105">
        <ele>26.256481</ele>
        <time>2023-01-22T12:24:36.000Z</time>
      </trkpt>
      <trkpt lat="41.364428" lon="2.031957">
        <ele>26.288790</ele>
        <time>2023-01-22T12:24:41.000Z</time>
      </trkpt>
      <trkpt lat="41.364758" lon="2.031702">
        <ele>26.346365</ele>
        <time>2023-01-22T12:24:48.000Z</time>
      </trkpt>
      <trkpt lat="41.365166" lon="2.031381">
        <ele>26.417876</ele>
        <time>2023-01-22T12:24:56.000Z</time>
      </trkpt>
      <trkpt lat="41.365504" lon="2.031102">
        <ele>26.477885</ele>
        <time>2023-01-22T12:25:02.000Z</time>
      </trkpt>
      <trkpt lat="41.365995" lon="2.030711">
        <ele>26.635909</ele>
        <time>2023-01-22T12:25:10.000Z</time>
      </trkpt>
      <trkpt lat="41.366321" lon="2.030413">
        <ele>26.762841</ele>
        <time>2023-01-22T12:25:16.000Z</time>
      </trkpt>
      <trkpt lat="41.366552" lon="2.030062">
        <ele>26.875332</ele>
        <time>2023-01-22T12:25:22.000Z</time>
      </trkpt>
      <trkpt lat="41.366897" lon="2.029413">
        <ele>27.066971</ele>
        <time>2023-01-22T12:25:32.000Z</time>
      </trkpt>
      <trkpt lat="41.366932" lon="2.029345">
        <ele>27.096900</ele>
        <time>2023-01-22T12:25:33.000Z</time>
      </trkpt>
      <trkpt lat="41.367262" lon="2.028752">
        <ele>27.479774</ele>
        <time>2023-01-22T12:25:42.000Z</time>
      </trkpt>
      <trkpt lat="41.367337" lon="2.028621">
        <ele>27.565227</ele>
        <time>2023-01-22T12:25:44.000Z</time>
      </trkpt>
      <trkpt lat="41.367414" lon="2.028491">
        <ele>27.651118</ele>
        <time>2023-01-22T12:25:46.000Z</time>
      </trkpt>
      <trkpt lat="41.367666" lon="2.028084">
        <ele>27.924764</ele>
        <time>2023-01-22T12:25:53.000Z</time>
      </trkpt>
      <trkpt lat="41.368043" lon="2.027589">
        <ele>28.290524</ele>
        <time>2023-01-22T12:26:02.000Z</time>
      </trkpt>
      <trkpt lat="41.368156" lon="2.027425">
        <ele>28.313416</ele>
        <time>2023-01-22T12:26:05.000Z</time>
      </trkpt>
      <trkpt lat="41.368289" lon="2.027174">
        <ele>28.299043</ele>
        <time>2023-01-22T12:26:09.000Z</time>
      </trkpt>
      <trkpt lat="41.368316" lon="2.027105">
        <ele>28.295403</ele>
        <time>2023-01-22T12:26:10.000Z</time>
      </trkpt>
      <trkpt lat="41.368513" lon="2.026731">
        <ele>28.274029</ele>
        <time>2023-01-22T12:26:16.000Z</time>
      </trkpt>
      <trkpt lat="41.368853" lon="2.026230">
        <ele>28.242432</ele>
        <time>2023-01-22T12:26:24.000Z</time>
      </trkpt>
      <trkpt lat="41.369148" lon="2.025795">
        <ele>28.215007</ele>
        <time>2023-01-22T12:26:30.000Z</time>
      </trkpt>
      <trkpt lat="41.369367" lon="2.025477">
        <ele>28.221818</ele>
        <time>2023-01-22T12:26:35.000Z</time>
      </trkpt>
      <trkpt lat="41.369410" lon="2.025415">
        <ele>28.225406</ele>
        <time>2023-01-22T12:26:36.000Z</time>
      </trkpt>
      <trkpt lat="41.369646" lon="2.025114">
        <ele>28.243908</ele>
        <time>2023-01-22T12:26:42.000Z</time>
      </trkpt>
      <trkpt lat="41.369912" lon="2.024877">
        <ele>28.262031</ele>
        <time>2023-01-22T12:26:47.000Z</time>
      </trkpt>
      <trkpt lat="41.370151" lon="2.024708">
        <ele>28.277355</ele>
        <time>2023-01-22T12:26:52.000Z</time>
      </trkpt>
      <trkpt lat="41.370195" lon="2.024675">
        <ele>28.280215</ele>
        <time>2023-01-22T12:26:53.000Z</time>
      </trkpt>
      <trkpt lat="41.370295" lon="2.024621">
        <ele>28.286326</ele>
        <time>2023-01-22T12:26:55.000Z</time>
      </trkpt>
      <trkpt lat="41.370493" lon="2.024613">
        <ele>28.297545</ele>
        <time>2023-01-22T12:26:58.000Z</time>
      </trkpt>
      <trkpt lat="41.370679" lon="2.024599">
        <ele>28.308096</ele>
        <time>2023-01-22T12:27:01.000Z</time>
      </trkpt>
      <trkpt lat="41.370774" lon="2.024553">
        <ele>28.341939</ele>
        <time>2023-01-22T12:27:03.000Z</time>
      </trkpt>
      <trkpt lat="41.370850" lon="2.024491">
        <ele>28.394482</ele>
        <time>2023-01-22T12:27:05.000Z</time>
      </trkpt>
      <trkpt lat="41.370927" lon="2.024404">
        <ele>28.454008</ele>
        <time>2023-01-22T12:27:07.000Z</time>
      </trkpt>
      <trkpt lat="41.370962" lon="2.024366">
        <ele>28.480628</ele>
        <time>2023-01-22T12:27:08.000Z</time>
      </trkpt>
      <trkpt lat="41.371162" lon="2.024228">
        <ele>28.613427</ele>
        <time>2023-01-22T12:27:12.000Z</time>
      </trkpt>
      <trkpt lat="41.371247" lon="2.024110">
        <ele>28.685802</ele>
        <time>2023-01-22T12:27:14.000Z</time>
      </trkpt>
      <trkpt lat="41.371279" lon="2.024041">
        <ele>28.721694</ele>
        <time>2023-01-22T12:27:15.000Z</time>
      </trkpt>
      <trkpt lat="41.371311" lon="2.023972">
        <ele>28.757585</ele>
        <time>2023-01-22T12:27:16.000Z</time>
      </trkpt>
      <trkpt lat="41.371402" lon="2.023867">
        <ele>28.828562</ele>
        <time>2023-01-22T12:27:18.000Z</time>
      </trkpt>
      <trkpt lat="41.371771" lon="2.023653">
        <ele>29.065850</ele>
        <time>2023-01-22T12:27:24.000Z</time>
      </trkpt>
      <trkpt lat="41.372310" lon="2.023341">
        <ele>29.341760</ele>
        <time>2023-01-22T12:27:33.000Z</time>
      </trkpt>
      <trkpt lat="41.372391" lon="2.023294">
        <ele>29.304110</ele>
        <time>2023-01-22T12:27:34.000Z</time>
      </trkpt>
      <trkpt lat="41.372463" lon="2.023250">
        <ele>29.270354</ele>
        <time>2023-01-22T12:27:35.000Z</time>
      </trkpt>
      <trkpt lat="41.372995" lon="2.022930">
        <ele>29.021606</ele>
        <time>2023-01-22T12:27:43.000Z</time>
      </trkpt>
      <trkpt lat="41.373059" lon="2.022891">
        <ele>28.991615</ele>
        <time>2023-01-22T12:27:44.000Z</time>
      </trkpt>
      <trkpt lat="41.373494" lon="2.022633">
        <ele>28.788700</ele>
        <time>2023-01-22T12:27:51.000Z</time>
      </trkpt>
      <trkpt lat="41.373577" lon="2.022601">
        <ele>28.751878</ele>
        <time>2023-01-22T12:27:52.000Z</time>
      </trkpt>
      <trkpt lat="41.374073" lon="2.022484">
        <ele>28.748817</ele>
        <time>2023-01-22T12:27:59.000Z</time>
      </trkpt>
      <trkpt lat="41.374676" lon="2.022373">
        <ele>29.300934</ele>
        <time>2023-01-22T12:28:08.000Z</time>
      </trkpt>
      <trkpt lat="41.374867" lon="2.022324">
        <ele>29.477352</ele>
        <time>2023-01-22T12:28:11.000Z</time>
      </trkpt>
      <trkpt lat="41.375057" lon="2.022277">
        <ele>29.652627</ele>
        <time>2023-01-22T12:28:14.000Z</time>
      </trkpt>
      <trkpt lat="41.375178" lon="2.022226">
        <ele>29.767733</ele>
        <time>2023-01-22T12:28:16.000Z</time>
      </trkpt>
      <trkpt lat="41.375585" lon="2.021947">
        <ele>30.182860</ele>
        <time>2023-01-22T12:28:23.000Z</time>
      </trkpt>
      <trkpt lat="41.375694" lon="2.021862">
        <ele>30.281366</ele>
        <time>2023-01-22T12:28:25.000Z</time>
      </trkpt>
      <trkpt lat="41.375975" lon="2.021655">
        <ele>30.496224</ele>
        <time>2023-01-22T12:28:30.000Z</time>
      </trkpt>
      <trkpt lat="41.376196" lon="2.021493">
        <ele>30.665010</ele>
        <time>2023-01-22T12:28:34.000Z</time>
      </trkpt>
      <trkpt lat="41.376689" lon="2.021124">
        <ele>31.043391</ele>
        <time>2023-01-22T12:28:42.000Z</time>
      </trkpt>
      <trkpt lat="41.377117" lon="2.020731">
        <ele>31.391206</ele>
        <time>2023-01-22T12:28:49.000Z</time>
      </trkpt>
      <trkpt lat="41.377523" lon="2.020243">
        <ele>31.226910</ele>
        <time>2023-01-22T12:28:57.000Z</time>
      </trkpt>
      <trkpt lat="41.377572" lon="2.020181">
        <ele>31.196557</ele>
        <time>2023-01-22T12:28:58.000Z</time>
      </trkpt>
      <trkpt lat="41.377920" lon="2.019778">
        <ele>30.989456</ele>
        <time>2023-01-22T12:29:05.000Z</time>
      </trkpt>
      <trkpt lat="41.378241" lon="2.019559">
        <ele>30.827461</ele>
        <time>2023-01-22T12:29:10.000Z</time>
      </trkpt>
      <trkpt lat="41.378616" lon="2.019302">
        <ele>30.638036</ele>
        <time>2023-01-22T12:29:16.000Z</time>
      </trkpt>
      <trkpt lat="41.378936" lon="2.019115">
        <ele>30.533317</ele>
        <time>2023-01-22T12:29:21.000Z</time>
      </trkpt>
      <trkpt lat="41.379068" lon="2.019055">
        <ele>30.492370</ele>
        <time>2023-01-22T12:29:23.000Z</time>
      </trkpt>
      <trkpt lat="41.379607" lon="2.018892">
        <ele>30.330099</ele>
        <time>2023-01-22T12:29:31.000Z</time>
      </trkpt>
      <trkpt lat="41.380185" lon="2.018815">
        <ele>30.159555</ele>
        <time>2023-01-22T12:29:39.000Z</time>
      </trkpt>
      <trkpt lat="41.380257" lon="2.018803">
        <ele>30.138251</ele>
        <time>2023-01-22T12:29:40.000Z</time>
      </trkpt>
      <trkpt lat="41.380328" lon="2.018785">
        <ele>30.117032</ele>
        <time>2023-01-22T12:29:41.000Z</time>
      </trkpt>
      <trkpt lat="41.380532" lon="2.018690">
        <ele>30.238653</ele>
        <time>2023-01-22T12:29:44.000Z</time>
      </trkpt>
      <trkpt lat="41.380863" lon="2.018361">
        <ele>30.564202</ele>
        <time>2023-01-22T12:29:50.000Z</time>
      </trkpt>
      <trkpt lat="41.380959" lon="2.018245">
        <ele>30.666366</ele>
        <time>2023-01-22T12:29:52.000Z</time>
      </trkpt>
      <trkpt lat="41.381223" lon="2.017897">
        <ele>30.959117</ele>
        <time>2023-01-22T12:29:58.000Z</time>
      </trkpt>
      <trkpt lat="41.381540" lon="2.017596">
        <ele>31.265987</ele>
        <time>2023-01-22T12:30:04.000Z</time>
      </trkpt>
      <trkpt lat="41.381892" lon="2.017413">
        <ele>31.497114</ele>
        <time>2023-01-22T12:30:09.000Z</time>
      </trkpt>
      <trkpt lat="41.382396" lon="2.017245">
        <ele>31.255643</ele>
        <time>2023-01-22T12:30:16.000Z</time>
      </trkpt>
      <trkpt lat="41.382959" lon="2.016971">
        <ele>30.977063</ele>
        <time>2023-01-22T12:30:24.000Z</time>
      </trkpt>
      <trkpt lat="41.383361" lon="2.016750">
        <ele>30.774945</ele>
        <time>2023-01-22T12:30:30.000Z</time>
      </trkpt>
      <trkpt lat="41.383499" lon="2.016681">
        <ele>30.706438</ele>
        <time>2023-01-22T12:30:32.000Z</time>
      </trkpt>
      <trkpt lat="41.383909" lon="2.016560">
        <ele>31.314396</ele>
        <time>2023-01-22T12:30:38.000Z</time>
      </trkpt>
      <trkpt lat="41.384452" lon="2.016507">
        <ele>32.225248</ele>
        <time>2023-01-22T12:30:46.000Z</time>
      </trkpt>
      <trkpt lat="41.384511" lon="2.016498">
        <ele>32.324597</ele>
        <time>2023-01-22T12:30:47.000Z</time>
      </trkpt>
      <trkpt lat="41.384690" lon="2.016457">
        <ele>32.628447</ele>
        <time>2023-01-22T12:30:50.000Z</time>
      </trkpt>
      <trkpt lat="41.384804" lon="2.016426">
        <ele>32.823094</ele>
        <time>2023-01-22T12:30:52.000Z</time>
      </trkpt>
      <trkpt lat="41.384977" lon="2.016379">
        <ele>33.118468</ele>
        <time>2023-01-22T12:30:55.000Z</time>
      </trkpt>
      <trkpt lat="41.385201" lon="2.016299">
        <ele>33.506433</ele>
        <time>2023-01-22T12:30:59.000Z</time>
      </trkpt>
      <trkpt lat="41.385308" lon="2.016249">
        <ele>33.695417</ele>
        <time>2023-01-22T12:31:01.000Z</time>
      </trkpt>
      <trkpt lat="41.385745" lon="2.016010">
        <ele>34.013914</ele>
        <time>2023-01-22T12:31:09.000Z</time>
      </trkpt>
      <trkpt lat="41.386225" lon="2.015704">
        <ele>34.372679</ele>
        <time>2023-01-22T12:31:18.000Z</time>
      </trkpt>
      <trkpt lat="41.386328" lon="2.015665">
        <ele>34.444877</ele>
        <time>2023-01-22T12:31:20.000Z</time>
      </trkpt>
      <trkpt lat="41.386384" lon="2.015672">
        <ele>34.482801</ele>
        <time>2023-01-22T12:31:21.000Z</time>
      </trkpt>
      <trkpt lat="41.386496" lon="2.015707">
        <ele>34.560367</ele>
        <time>2023-01-22T12:31:23.000Z</time>
      </trkpt>
      <trkpt lat="41.386618" lon="2.015713">
        <ele>34.642684</ele>
        <time>2023-01-22T12:31:25.000Z</time>
      </trkpt>
      <trkpt lat="41.386681" lon="2.015725">
        <ele>34.685595</ele>
        <time>2023-01-22T12:31:26.000Z</time>
      </trkpt>
      <trkpt lat="41.386809" lon="2.015786">
        <ele>34.777252</ele>
        <time>2023-01-22T12:31:28.000Z</time>
      </trkpt>
      <trkpt lat="41.387183" lon="2.015912">
        <ele>34.778762</ele>
        <time>2023-01-22T12:31:33.000Z</time>
      </trkpt>
      <trkpt lat="41.387412" lon="2.016004">
        <ele>34.618366</ele>
        <time>2023-01-22T12:31:36.000Z</time>
      </trkpt>
      <trkpt lat="41.387567" lon="2.016089">
        <ele>34.505966</ele>
        <time>2023-01-22T12:31:38.000Z</time>
      </trkpt>
      <trkpt lat="41.387973" lon="2.016433">
        <ele>34.183340</ele>
        <time>2023-01-22T12:31:44.000Z</time>
      </trkpt>
      <trkpt lat="41.388227" lon="2.016797">
        <ele>33.933231</ele>
        <time>2023-01-22T12:31:49.000Z</time>
      </trkpt>
      <trkpt lat="41.388535" lon="2.017320">
        <ele>34.186626</ele>
        <time>2023-01-22T12:31:56.000Z</time>
      </trkpt>
      <trkpt lat="41.388783" lon="2.017731">
        <ele>35.438964</ele>
        <time>2023-01-22T12:32:02.000Z</time>
      </trkpt>
      <trkpt lat="41.388898" lon="2.017931">
        <ele>36.037269</ele>
        <time>2023-01-22T12:32:05.000Z</time>
      </trkpt>
      <trkpt lat="41.389068" lon="2.018216">
        <ele>36.901781</ele>
        <time>2023-01-22T12:32:10.000Z</time>
      </trkpt>
      <trkpt lat="41.389100" lon="2.018271">
        <ele>37.067039</ele>
        <time>2023-01-22T12:32:11.000Z</time>
      </trkpt>
      <trkpt lat="41.389155" lon="2.018367">
        <ele>37.353840</ele>
        <time>2023-01-22T12:32:13.000Z</time>
      </trkpt>
      <trkpt lat="41.389237" lon="2.018544">
        <ele>37.847771</ele>
        <time>2023-01-22T12:32:16.000Z</time>
      </trkpt>
      <trkpt lat="41.389258" lon="2.018595">
        <ele>37.985903</ele>
        <time>2023-01-22T12:32:17.000Z</time>
      </trkpt>
      <trkpt lat="41.389317" lon="2.018778">
        <ele>38.458833</ele>
        <time>2023-01-22T12:32:21.000Z</time>
      </trkpt>
      <trkpt lat="41.389311" lon="2.018831">
        <ele>38.586099</ele>
        <time>2023-01-22T12:32:22.000Z</time>
      </trkpt>
      <trkpt lat="41.389294" lon="2.018891">
        <ele>38.738381</ele>
        <time>2023-01-22T12:32:23.000Z</time>
      </trkpt>
      <trkpt lat="41.389250" lon="2.019091">
        <ele>39.233249</ele>
        <time>2023-01-22T12:32:26.000Z</time>
      </trkpt>
      <trkpt lat="41.389243" lon="2.019162">
        <ele>39.400233</ele>
        <time>2023-01-22T12:32:27.000Z</time>
      </trkpt>
      <trkpt lat="41.389269" lon="2.019380">
        <ele>39.754417</ele>
        <time>2023-01-22T12:32:30.000Z</time>
      </trkpt>
      <trkpt lat="41.389318" lon="2.019518">
        <ele>39.999391</ele>
        <time>2023-01-22T12:32:32.000Z</time>
      </trkpt>
      <trkpt lat="41.389396" lon="2.019629">
        <ele>40.243421</ele>
        <time>2023-01-22T12:32:34.000Z</time>
      </trkpt>
      <trkpt lat="41.389496" lon="2.019705">
        <ele>40.489616</ele>
        <time>2023-01-22T12:32:36.000Z</time>
      </trkpt>
      <trkpt lat="41.389552" lon="2.019728">
        <ele>40.614941</ele>
        <time>2023-01-22T12:32:37.000Z</time>
      </trkpt>
      <trkpt lat="41.389608" lon="2.019742">
        <ele>40.736798</ele>
        <time>2023-01-22T12:32:38.000Z</time>
      </trkpt>
      <trkpt lat="41.389837" lon="2.019723">
        <ele>41.227514</ele>
        <time>2023-01-22T12:32:42.000Z</time>
      </trkpt>
      <trkpt lat="41.389950" lon="2.019749">
        <ele>41.472764</ele>
        <time>2023-01-22T12:32:44.000Z</time>
      </trkpt>
      <trkpt lat="41.390000" lon="2.019791">
        <ele>41.599164</ele>
        <time>2023-01-22T12:32:45.000Z</time>
      </trkpt>
      <trkpt lat="41.390040" lon="2.019846">
        <ele>41.722072</ele>
        <time>2023-01-22T12:32:46.000Z</time>
      </trkpt>
      <trkpt lat="41.390181" lon="2.020081">
        <ele>42.204893</ele>
        <time>2023-01-22T12:32:50.000Z</time>
      </trkpt>
      <trkpt lat="41.390245" lon="2.020199">
        <ele>42.438523</ele>
        <time>2023-01-22T12:32:52.000Z</time>
      </trkpt>
      <trkpt lat="41.390467" lon="2.020561">
        <ele>43.188725</ele>
        <time>2023-01-22T12:32:58.000Z</time>
      </trkpt>
      <trkpt lat="41.390834" lon="2.021182">
        <ele>43.419467</ele>
        <time>2023-01-22T12:33:08.000Z</time>
      </trkpt>
      <trkpt lat="41.391205" lon="2.021810">
        <ele>43.607955</ele>
        <time>2023-01-22T12:33:18.000Z</time>
      </trkpt>
      <trkpt lat="41.391283" lon="2.021939">
        <ele>43.647024</ele>
        <time>2023-01-22T12:33:20.000Z</time>
      </trkpt>
      <trkpt lat="41.391604" lon="2.022471">
        <ele>43.801741</ele>
        <time>2023-01-22T12:33:28.000Z</time>
      </trkpt>
      <trkpt lat="41.391847" lon="2.022898">
        <ele>43.527226</ele>
        <time>2023-01-22T12:33:35.000Z</time>
      </trkpt>
      <trkpt lat="41.391859" lon="2.023040">
        <ele>43.454034</ele>
        <time>2023-01-22T12:33:37.000Z</time>
      </trkpt>
      <trkpt lat="41.391858" lon="2.023123">
        <ele>43.411517</ele>
        <time>2023-01-22T12:33:38.000Z</time>
      </trkpt>
      <trkpt lat="41.391870" lon="2.023291">
        <ele>43.325078</ele>
        <time>2023-01-22T12:33:40.000Z</time>
      </trkpt>
      <trkpt lat="41.391933" lon="2.023432">
        <ele>43.241020</ele>
        <time>2023-01-22T12:33:42.000Z</time>
      </trkpt>
      <trkpt lat="41.392036" lon="2.023522">
        <ele>43.156935</ele>
        <time>2023-01-22T12:33:44.000Z</time>
      </trkpt>
      <trkpt lat="41.392096" lon="2.023552">
        <ele>43.113184</ele>
        <time>2023-01-22T12:33:45.000Z</time>
      </trkpt>
      <trkpt lat="41.392218" lon="2.023615">
        <ele>43.023857</ele>
        <time>2023-01-22T12:33:47.000Z</time>
      </trkpt>
      <trkpt lat="41.392326" lon="2.023717">
        <ele>42.933489</ele>
        <time>2023-01-22T12:33:49.000Z</time>
      </trkpt>
      <trkpt lat="41.392588" lon="2.024143">
        <ele>42.651344</ele>
        <time>2023-01-22T12:33:55.000Z</time>
      </trkpt>
      <trkpt lat="41.392953" lon="2.024756">
        <ele>41.703230</ele>
        <time>2023-01-22T12:34:03.000Z</time>
      </trkpt>
      <trkpt lat="41.392990" lon="2.024817">
        <ele>41.595918</ele>
        <time>2023-01-22T12:34:04.000Z</time>
      </trkpt>
      <trkpt lat="41.393036" lon="2.024893">
        <ele>41.462331</ele>
        <time>2023-01-22T12:34:05.000Z</time>
      </trkpt>
      <trkpt lat="41.393309" lon="2.025386">
        <ele>40.624076</ele>
        <time>2023-01-22T12:34:11.000Z</time>
      </trkpt>
      <trkpt lat="41.393384" lon="2.025675">
        <ele>40.205740</ele>
        <time>2023-01-22T12:34:14.000Z</time>
      </trkpt>
      <trkpt lat="41.393394" lon="2.025779">
        <ele>40.062305</ele>
        <time>2023-01-22T12:34:15.000Z</time>
      </trkpt>
      <trkpt lat="41.393411" lon="2.025858">
        <ele>39.949876</ele>
        <time>2023-01-22T12:34:16.000Z</time>
      </trkpt>
      <trkpt lat="41.393496" lon="2.026026">
        <ele>39.672671</ele>
        <time>2023-01-22T12:34:18.000Z</time>
      </trkpt>
      <trkpt lat="41.393763" lon="2.026266">
        <ele>38.882791</ele>
        <time>2023-01-22T12:34:22.000Z</time>
      </trkpt>
      <trkpt lat="41.394033" lon="2.026666">
        <ele>37.445454</ele>
        <time>2023-01-22T12:34:27.000Z</time>
      </trkpt>
      <trkpt lat="41.394204" lon="2.026999">
        <ele>36.367509</ele>
        <time>2023-01-22T12:34:30.000Z</time>
      </trkpt>
      <trkpt lat="41.394315" lon="2.027207">
        <ele>35.685663</ele>
        <time>2023-01-22T12:34:32.000Z</time>
      </trkpt>
      <trkpt lat="41.394370" lon="2.027313">
        <ele>35.341388</ele>
        <time>2023-01-22T12:34:33.000Z</time>
      </trkpt>
      <trkpt lat="41.394471" lon="2.027505">
        <ele>34.714995</ele>
        <time>2023-01-22T12:34:35.000Z</time>
      </trkpt>
      <trkpt lat="41.394628" lon="2.027860">
        <ele>33.614209</ele>
        <time>2023-01-22T12:34:38.000Z</time>
      </trkpt>
      <trkpt lat="41.394703" lon="2.028065">
        <ele>33.004969</ele>
        <time>2023-01-22T12:34:40.000Z</time>
      </trkpt>
      <trkpt lat="41.394783" lon="2.028320">
        <ele>32.787732</ele>
        <time>2023-01-22T12:34:42.000Z</time>
      </trkpt>
      <trkpt lat="41.394897" lon="2.028776">
        <ele>32.570840</ele>
        <time>2023-01-22T12:34:46.000Z</time>
      </trkpt>
      <trkpt lat="41.394930" lon="2.028983">
        <ele>32.475347</ele>
        <time>2023-01-22T12:34:48.000Z</time>
      </trkpt>
      <trkpt lat="41.394942" lon="2.029175">
        <ele>32.388408</ele>
        <time>2023-01-22T12:34:50.000Z</time>
      </trkpt>
      <trkpt lat="41.394923" lon="2.029355">
        <ele>32.306384</ele>
        <time>2023-01-22T12:34:52.000Z</time>
      </trkpt>
      <trkpt lat="41.394896" lon="2.029439">
        <ele>32.265147</ele>
        <time>2023-01-22T12:34:53.000Z</time>
      </trkpt>
      <trkpt lat="41.394860" lon="2.029519">
        <ele>32.223050</ele>
        <time>2023-01-22T12:34:54.000Z</time>
      </trkpt>
      <trkpt lat="41.394789" lon="2.029680">
        <ele>32.138777</ele>
        <time>2023-01-22T12:34:56.000Z</time>
      </trkpt>
      <trkpt lat="41.394769" lon="2.029770">
        <ele>32.096421</ele>
        <time>2023-01-22T12:34:57.000Z</time>
      </trkpt>
      <trkpt lat="41.394766" lon="2.029865">
        <ele>32.053514</ele>
        <time>2023-01-22T12:34:58.000Z</time>
      </trkpt>
      <trkpt lat="41.394811" lon="2.030025">
        <ele>31.976408</ele>
        <time>2023-01-22T12:35:00.000Z</time>
      </trkpt>
      <trkpt lat="41.394935" lon="2.030133">
        <ele>31.887310</ele>
        <time>2023-01-22T12:35:02.000Z</time>
      </trkpt>
      <trkpt lat="41.395071" lon="2.030119">
        <ele>31.813475</ele>
        <time>2023-01-22T12:35:04.000Z</time>
      </trkpt>
      <trkpt lat="41.395134" lon="2.030079">
        <ele>31.824799</ele>
        <time>2023-01-22T12:35:05.000Z</time>
      </trkpt>
      <trkpt lat="41.395417" lon="2.029845">
        <ele>31.878837</ele>
        <time>2023-01-22T12:35:10.000Z</time>
      </trkpt>
      <trkpt lat="41.395903" lon="2.029388">
        <ele>31.975345</ele>
        <time>2023-01-22T12:35:18.000Z</time>
      </trkpt>
      <trkpt lat="41.396240" lon="2.029002">
        <ele>32.047443</ele>
        <time>2023-01-22T12:35:25.000Z</time>
      </trkpt>
      <trkpt lat="41.396495" lon="2.028707">
        <ele>32.102230</ele>
        <time>2023-01-22T12:35:31.000Z</time>
      </trkpt>
      <trkpt lat="41.396547" lon="2.028656">
        <ele>32.115847</ele>
        <time>2023-01-22T12:35:32.000Z</time>
      </trkpt>
      <trkpt lat="41.396698" lon="2.028561">
        <ele>32.152282</ele>
        <time>2023-01-22T12:35:35.000Z</time>
      </trkpt>
      <trkpt lat="41.396865" lon="2.028330">
        <ele>32.204797</ele>
        <time>2023-01-22T12:35:39.000Z</time>
      </trkpt>
      <trkpt lat="41.397256" lon="2.027895">
        <ele>32.315926</ele>
        <time>2023-01-22T12:35:47.000Z</time>
      </trkpt>
      <trkpt lat="41.397695" lon="2.027412">
        <ele>32.440133</ele>
        <time>2023-01-22T12:35:56.000Z</time>
      </trkpt>
      <trkpt lat="41.398136" lon="2.026925">
        <ele>32.543757</ele>
        <time>2023-01-22T12:36:05.000Z</time>
      </trkpt>
      <trkpt lat="41.398186" lon="2.026871">
        <ele>32.553458</ele>
        <time>2023-01-22T12:36:06.000Z</time>
      </trkpt>
      <trkpt lat="41.398600" lon="2.026424">
        <ele>32.633773</ele>
        <time>2023-01-22T12:36:14.000Z</time>
      </trkpt>
      <trkpt lat="41.399030" lon="2.025943">
        <ele>32.718394</ele>
        <time>2023-01-22T12:36:23.000Z</time>
      </trkpt>
      <trkpt lat="41.399079" lon="2.025890">
        <ele>32.727907</ele>
        <time>2023-01-22T12:36:24.000Z</time>
      </trkpt>
      <trkpt lat="41.399453" lon="2.025497">
        <ele>32.783631</ele>
        <time>2023-01-22T12:36:32.000Z</time>
      </trkpt>
      <trkpt lat="41.399539" lon="2.025441">
        <ele>32.790920</ele>
        <time>2023-01-22T12:36:34.000Z</time>
      </trkpt>
      <trkpt lat="41.399625" lon="2.025334">
        <ele>32.799879</ele>
        <time>2023-01-22T12:36:36.000Z</time>
      </trkpt>
      <trkpt lat="41.399705" lon="2.025209">
        <ele>32.809266</ele>
        <time>2023-01-22T12:36:38.000Z</time>
      </trkpt>
      <trkpt lat="41.399892" lon="2.024986">
        <ele>32.828374</ele>
        <time>2023-01-22T12:36:42.000Z</time>
      </trkpt>
      <trkpt lat="41.400172" lon="2.024688">
        <ele>32.855660</ele>
        <time>2023-01-22T12:36:47.000Z</time>
      </trkpt>
      <trkpt lat="41.400552" lon="2.024281">
        <ele>32.892783</ele>
        <time>2023-01-22T12:36:54.000Z</time>
      </trkpt>
      <trkpt lat="41.400982" lon="2.023815">
        <ele>32.976931</ele>
        <time>2023-01-22T12:37:02.000Z</time>
      </trkpt>
      <trkpt lat="41.401034" lon="2.023759">
        <ele>32.988959</ele>
        <time>2023-01-22T12:37:03.000Z</time>
      </trkpt>
      <trkpt lat="41.401465" lon="2.023290">
        <ele>33.089073</ele>
        <time>2023-01-22T12:37:12.000Z</time>
      </trkpt>
      <trkpt lat="41.401506" lon="2.023244">
        <ele>33.098716</ele>
        <time>2023-01-22T12:37:13.000Z</time>
      </trkpt>
      <trkpt lat="41.401669" lon="2.023080">
        <ele>33.135463</ele>
        <time>2023-01-22T12:37:16.000Z</time>
      </trkpt>
      <trkpt lat="41.401719" lon="2.023049">
        <ele>33.145386</ele>
        <time>2023-01-22T12:37:18.000Z</time>
      </trkpt>
      <trkpt lat="41.401808" lon="2.022957">
        <ele>33.165651</ele>
        <time>2023-01-22T12:37:19.000Z</time>
      </trkpt>
      <trkpt lat="41.401845" lon="2.022897">
        <ele>33.176136</ele>
        <time>2023-01-22T12:37:21.000Z</time>
      </trkpt>
      <trkpt lat="41.401933" lon="2.022768">
        <ele>33.199672</ele>
        <time>2023-01-22T12:37:22.000Z</time>
      </trkpt>
      <trkpt lat="41.402041" lon="2.022643">
        <ele>33.225408</ele>
        <time>2023-01-22T12:37:24.000Z</time>
      </trkpt>
      <trkpt lat="41.402505" lon="2.022124">
        <ele>33.108454</ele>
        <time>2023-01-22T12:37:32.000Z</time>
      </trkpt>
      <trkpt lat="41.402614" lon="2.022002">
        <ele>33.079745</ele>
        <time>2023-01-22T12:37:34.000Z</time>
      </trkpt>
      <trkpt lat="41.402970" lon="2.021602">
        <ele>32.985830</ele>
        <time>2023-01-22T12:37:41.000Z</time>
      </trkpt>
      <trkpt lat="41.403409" lon="2.021113">
        <ele>32.870434</ele>
        <time>2023-01-22T12:37:50.000Z</time>
      </trkpt>
      <trkpt lat="41.403551" lon="2.020974">
        <ele>32.866005</ele>
        <time>2023-01-22T12:37:53.000Z</time>
      </trkpt>
      <trkpt lat="41.403666" lon="2.020917">
        <ele>32.866791</ele>
        <time>2023-01-22T12:37:55.000Z</time>
      </trkpt>
      <trkpt lat="41.403798" lon="2.020900">
        <ele>32.867640</ele>
        <time>2023-01-22T12:37:57.000Z</time>
      </trkpt>
      <trkpt lat="41.403925" lon="2.020940">
        <ele>32.868476</ele>
        <time>2023-01-22T12:37:59.000Z</time>
      </trkpt>
      <trkpt lat="41.404046" lon="2.021030">
        <ele>32.869363</ele>
        <time>2023-01-22T12:38:01.000Z</time>
      </trkpt>
      <trkpt lat="41.404150" lon="2.021155">
        <ele>32.870260</ele>
        <time>2023-01-22T12:38:03.000Z</time>
      </trkpt>
      <trkpt lat="41.404460" lon="2.021562">
        <ele>32.873046</ele>
        <time>2023-01-22T12:38:09.000Z</time>
      </trkpt>
      <trkpt lat="41.404613" lon="2.021765">
        <ele>32.874429</ele>
        <time>2023-01-22T12:38:12.000Z</time>
      </trkpt>
      <trkpt lat="41.404724" lon="2.021891">
        <ele>32.875363</ele>
        <time>2023-01-22T12:38:14.000Z</time>
      </trkpt>
      <trkpt lat="41.404772" lon="2.021956">
        <ele>32.875801</ele>
        <time>2023-01-22T12:38:15.000Z</time>
      </trkpt>
      <trkpt lat="41.405119" lon="2.022388">
        <ele>33.282637</ele>
        <time>2023-01-22T12:38:22.000Z</time>
      </trkpt>
      <trkpt lat="41.405370" lon="2.022716">
        <ele>33.684551</ele>
        <time>2023-01-22T12:38:28.000Z</time>
      </trkpt>
      <trkpt lat="41.405592" lon="2.022986">
        <ele>34.028178</ele>
        <time>2023-01-22T12:38:33.000Z</time>
      </trkpt>
      <trkpt lat="41.405669" lon="2.023088">
        <ele>34.152304</ele>
        <time>2023-01-22T12:38:35.000Z</time>
      </trkpt>
      <trkpt lat="41.405763" lon="2.023219">
        <ele>34.307803</ele>
        <time>2023-01-22T12:38:38.000Z</time>
      </trkpt>
      <trkpt lat="41.405914" lon="2.023435">
        <ele>34.561062</ele>
        <time>2023-01-22T12:38:44.000Z</time>
      </trkpt>
      <trkpt lat="41.405990" lon="2.023539">
        <ele>34.685603</ele>
        <time>2023-01-22T12:38:48.000Z</time>
      </trkpt>
      <trkpt lat="41.406019" lon="2.023579">
        <ele>34.733319</ele>
        <time>2023-01-22T12:38:50.000Z</time>
      </trkpt>
      <trkpt lat="41.406023" lon="2.023587">
        <ele>34.741566</ele>
        <time>2023-01-22T12:38:54.000Z</time>
      </trkpt>
      <trkpt lat="41.406069" lon="2.023662">
        <ele>34.824663</ele>
        <time>2023-01-22T12:39:22.000Z</time>
      </trkpt>
      <trkpt lat="41.406176" lon="2.023765">
        <ele>34.944537</ele>
        <time>2023-01-22T12:39:26.000Z</time>
      </trkpt>
      <trkpt lat="41.406213" lon="2.023769">
        <ele>34.955741</ele>
        <time>2023-01-22T12:39:27.000Z</time>
      </trkpt>
      <trkpt lat="41.406293" lon="2.023732">
        <ele>34.981300</ele>
        <time>2023-01-22T12:39:29.000Z</time>
      </trkpt>
      <trkpt lat="41.406371" lon="2.023653">
        <ele>35.010865</ele>
        <time>2023-01-22T12:39:31.000Z</time>
      </trkpt>
      <trkpt lat="41.406495" lon="2.023509">
        <ele>35.060499</ele>
        <time>2023-01-22T12:39:34.000Z</time>
      </trkpt>
      <trkpt lat="41.406833" lon="2.023134">
        <ele>35.193220</ele>
        <time>2023-01-22T12:39:42.000Z</time>
      </trkpt>
      <trkpt lat="41.406954" lon="2.023008">
        <ele>35.239561</ele>
        <time>2023-01-22T12:39:46.000Z</time>
      </trkpt>
      <trkpt lat="41.407029" lon="2.022929">
        <ele>35.268411</ele>
        <time>2023-01-22T12:39:52.000Z</time>
      </trkpt>
      <trkpt lat="41.407029" lon="2.022929">
        <ele>35.268411</ele>
        <time>2023-01-22T12:40:04.000Z</time>
      </trkpt>
      <trkpt lat="41.407095" lon="2.022853">
        <ele>35.294733</ele>
        <time>2023-01-22T12:40:13.000Z</time>
      </trkpt>
      <trkpt lat="41.407203" lon="2.022716">
        <ele>35.339728</ele>
        <time>2023-01-22T12:40:17.000Z</time>
      </trkpt>
      <trkpt lat="41.407328" lon="2.022576">
        <ele>35.389002</ele>
        <time>2023-01-22T12:40:20.000Z</time>
      </trkpt>
      <trkpt lat="41.407415" lon="2.022482">
        <ele>35.422801</ele>
        <time>2023-01-22T12:40:22.000Z</time>
      </trkpt>
      <trkpt lat="41.407504" lon="2.022386">
        <ele>35.457355</ele>
        <time>2023-01-22T12:40:24.000Z</time>
      </trkpt>
      <trkpt lat="41.407631" lon="2.022256">
        <ele>35.517233</ele>
        <time>2023-01-22T12:40:27.000Z</time>
      </trkpt>
      <trkpt lat="41.407753" lon="2.022117">
        <ele>35.584709</ele>
        <time>2023-01-22T12:40:30.000Z</time>
      </trkpt>
      <trkpt lat="41.408004" lon="2.021888">
        <ele>35.712590</ele>
        <time>2023-01-22T12:40:35.000Z</time>
      </trkpt>
      <trkpt lat="41.408209" lon="2.021637">
        <ele>35.829617</ele>
        <time>2023-01-22T12:40:40.000Z</time>
      </trkpt>
      <trkpt lat="41.408248" lon="2.021588">
        <ele>35.852149</ele>
        <time>2023-01-22T12:40:41.000Z</time>
      </trkpt>
      <trkpt lat="41.408456" lon="2.021342">
        <ele>35.969056</ele>
        <time>2023-01-22T12:40:47.000Z</time>
      </trkpt>
      <trkpt lat="41.408486" lon="2.021306">
        <ele>35.986027</ele>
        <time>2023-01-22T12:40:48.000Z</time>
      </trkpt>
      <trkpt lat="41.408580" lon="2.021191">
        <ele>36.039668</ele>
        <time>2023-01-22T12:40:52.000Z</time>
      </trkpt>
      <trkpt lat="41.408610" lon="2.021153">
        <ele>36.057067</ele>
        <time>2023-01-22T12:40:54.000Z</time>
      </trkpt>
      <trkpt lat="41.408646" lon="2.021116">
        <ele>36.076179</ele>
        <time>2023-01-22T12:40:57.000Z</time>
      </trkpt>
      <trkpt lat="41.408660" lon="2.021101">
        <ele>36.083731</ele>
        <time>2023-01-22T12:41:03.000Z</time>
      </trkpt>
      <trkpt lat="41.408668" lon="2.021087">
        <ele>36.089281</ele>
        <time>2023-01-22T12:41:06.000Z</time>
      </trkpt>
      <trkpt lat="41.408711" lon="2.021029">
        <ele>36.114999</ele>
        <time>2023-01-22T12:41:09.000Z</time>
      </trkpt>
      <trkpt lat="41.408860" lon="2.020858">
        <ele>36.197662</ele>
        <time>2023-01-22T12:41:15.000Z</time>
      </trkpt>
      <trkpt lat="41.409068" lon="2.020603">
        <ele>36.317151</ele>
        <time>2023-01-22T12:41:21.000Z</time>
      </trkpt>
      <trkpt lat="41.409195" lon="2.020451">
        <ele>36.389491</ele>
        <time>2023-01-22T12:41:24.000Z</time>
      </trkpt>
      <trkpt lat="41.409277" lon="2.020334">
        <ele>36.440400</ele>
        <time>2023-01-22T12:41:26.000Z</time>
      </trkpt>
      <trkpt lat="41.409490" lon="2.019974">
        <ele>36.586174</ele>
        <time>2023-01-22T12:41:32.000Z</time>
      </trkpt>
      <trkpt lat="41.409625" lon="2.019700">
        <ele>36.690396</ele>
        <time>2023-01-22T12:41:37.000Z</time>
      </trkpt>
      <trkpt lat="41.409653" lon="2.019652">
        <ele>36.709728</ele>
        <time>2023-01-22T12:41:38.000Z</time>
      </trkpt>
      <trkpt lat="41.409705" lon="2.019505">
        <ele>36.761399</ele>
        <time>2023-01-22T12:41:42.000Z</time>
      </trkpt>
      <trkpt lat="41.409719" lon="2.019451">
        <ele>36.779562</ele>
        <time>2023-01-22T12:41:44.000Z</time>
      </trkpt>
      <trkpt lat="41.409707" lon="2.019356">
        <ele>36.810189</ele>
        <time>2023-01-22T12:41:49.000Z</time>
      </trkpt>
      <trkpt lat="41.409707" lon="2.019356">
        <ele>36.810189</ele>
        <time>2023-01-22T12:41:54.000Z</time>
      </trkpt>
      <trkpt lat="41.409707" lon="2.019356">
        <ele>36.810189</ele>
        <time>2023-01-22T12:42:03.000Z</time>
      </trkpt>
      <trkpt lat="41.409720" lon="2.019318">
        <ele>36.823467</ele>
        <time>2023-01-22T12:42:29.000Z</time>
      </trkpt>
      <trkpt lat="41.409727" lon="2.019295">
        <ele>36.831358</ele>
        <time>2023-01-22T12:42:30.000Z</time>
      </trkpt>
      <trkpt lat="41.409758" lon="2.019140">
        <ele>36.882356</ele>
        <time>2023-01-22T12:42:34.000Z</time>
      </trkpt>
      <trkpt lat="41.409781" lon="2.018989">
        <ele>36.931341</ele>
        <time>2023-01-22T12:42:37.000Z</time>
      </trkpt>
      <trkpt lat="41.409804" lon="2.018890">
        <ele>36.964289</ele>
        <time>2023-01-22T12:42:39.000Z</time>
      </trkpt>
      <trkpt lat="41.409853" lon="2.018686">
        <ele>37.002535</ele>
        <time>2023-01-22T12:42:42.000Z</time>
      </trkpt>
      <trkpt lat="41.409918" lon="2.018483">
        <ele>37.016709</ele>
        <time>2023-01-22T12:42:45.000Z</time>
      </trkpt>
      <trkpt lat="41.409926" lon="2.018415">
        <ele>37.021129</ele>
        <time>2023-01-22T12:42:46.000Z</time>
      </trkpt>
      <trkpt lat="41.409940" lon="2.018200">
        <ele>37.034986</ele>
        <time>2023-01-22T12:42:49.000Z</time>
      </trkpt>
      <trkpt lat="41.409948" lon="2.018127">
        <ele>37.039724</ele>
        <time>2023-01-22T12:42:50.000Z</time>
      </trkpt>
      <trkpt lat="41.409929" lon="2.017521">
        <ele>37.078671</ele>
        <time>2023-01-22T12:42:58.000Z</time>
      </trkpt>
      <trkpt lat="41.409927" lon="2.017323">
        <ele>37.091386</ele>
        <time>2023-01-22T12:43:02.000Z</time>
      </trkpt>
      <trkpt lat="41.409930" lon="2.017299">
        <ele>37.092949</ele>
        <time>2023-01-22T12:43:05.000Z</time>
      </trkpt>
      <trkpt lat="41.409927" lon="2.017250">
        <ele>37.096105</ele>
        <time>2023-01-22T12:44:00.000Z</time>
      </trkpt>
      <trkpt lat="41.409919" lon="2.017222">
        <ele>37.098029</ele>
        <time>2023-01-22T12:44:01.000Z</time>
      </trkpt>
      <trkpt lat="41.409884" lon="2.017064">
        <ele>37.108608</ele>
        <time>2023-01-22T12:44:05.000Z</time>
      </trkpt>
      <trkpt lat="41.409882" lon="2.017011">
        <ele>37.112016</ele>
        <time>2023-01-22T12:44:06.000Z</time>
      </trkpt>
      <trkpt lat="41.409877" lon="2.016954">
        <ele>37.115701</ele>
        <time>2023-01-22T12:44:07.000Z</time>
      </trkpt>
      <trkpt lat="41.409853" lon="2.016839">
        <ele>37.123366</ele>
        <time>2023-01-22T12:44:09.000Z</time>
      </trkpt>
      <trkpt lat="41.409843" lon="2.016776">
        <ele>37.127501</ele>
        <time>2023-01-22T12:44:10.000Z</time>
      </trkpt>
      <trkpt lat="41.409815" lon="2.016647">
        <ele>37.136125</ele>
        <time>2023-01-22T12:44:12.000Z</time>
      </trkpt>
      <trkpt lat="41.409751" lon="2.016461">
        <ele>37.150090</ele>
        <time>2023-01-22T12:44:15.000Z</time>
      </trkpt>
      <trkpt lat="41.409670" lon="2.016192">
        <ele>37.221614</ele>
        <time>2023-01-22T12:44:19.000Z</time>
      </trkpt>
      <trkpt lat="41.409621" lon="2.016053">
        <ele>37.259512</ele>
        <time>2023-01-22T12:44:21.000Z</time>
      </trkpt>
      <trkpt lat="41.409579" lon="2.015761">
        <ele>37.332875</ele>
        <time>2023-01-22T12:44:25.000Z</time>
      </trkpt>
      <trkpt lat="41.409610" lon="2.015696">
        <ele>37.351882</ele>
        <time>2023-01-22T12:44:26.000Z</time>
      </trkpt>
      <trkpt lat="41.409649" lon="2.015639">
        <ele>37.370919</ele>
        <time>2023-01-22T12:44:27.000Z</time>
      </trkpt>
      <trkpt lat="41.409797" lon="2.015493">
        <ele>37.431489</ele>
        <time>2023-01-22T12:44:30.000Z</time>
      </trkpt>
      <trkpt lat="41.410271" lon="2.015014">
        <ele>37.627161</ele>
        <time>2023-01-22T12:44:39.000Z</time>
      </trkpt>
      <trkpt lat="41.410327" lon="2.014958">
        <ele>37.650191</ele>
        <time>2023-01-22T12:44:40.000Z</time>
      </trkpt>
      <trkpt lat="41.410681" lon="2.014623">
        <ele>37.755662</ele>
        <time>2023-01-22T12:44:46.000Z</time>
      </trkpt>
      <trkpt lat="41.411149" lon="2.014211">
        <ele>37.808385</ele>
        <time>2023-01-22T12:44:54.000Z</time>
      </trkpt>
      <trkpt lat="41.411570" lon="2.013886">
        <ele>37.854120</ele>
        <time>2023-01-22T12:45:01.000Z</time>
      </trkpt>
      <trkpt lat="41.411687" lon="2.013803">
        <ele>37.866580</ele>
        <time>2023-01-22T12:45:03.000Z</time>
      </trkpt>
      <trkpt lat="41.412251" lon="2.013436">
        <ele>38.022049</ele>
        <time>2023-01-22T12:45:11.000Z</time>
      </trkpt>
      <trkpt lat="41.412318" lon="2.013394">
        <ele>38.071607</ele>
        <time>2023-01-22T12:45:12.000Z</time>
      </trkpt>
      <trkpt lat="41.412832" lon="2.013074">
        <ele>38.451330</ele>
        <time>2023-01-22T12:45:20.000Z</time>
      </trkpt>
      <trkpt lat="41.413008" lon="2.012964">
        <ele>38.581443</ele>
        <time>2023-01-22T12:45:23.000Z</time>
      </trkpt>
      <trkpt lat="41.413296" lon="2.012781">
        <ele>38.794998</ele>
        <time>2023-01-22T12:45:29.000Z</time>
      </trkpt>
      <trkpt lat="41.413493" lon="2.012657">
        <ele>38.940822</ele>
        <time>2023-01-22T12:45:33.000Z</time>
      </trkpt>
      <trkpt lat="41.413633" lon="2.012571">
        <ele>39.044003</ele>
        <time>2023-01-22T12:45:36.000Z</time>
      </trkpt>
      <trkpt lat="41.414059" lon="2.012316">
        <ele>39.037920</ele>
        <time>2023-01-22T12:45:44.000Z</time>
      </trkpt>
      <trkpt lat="41.414425" lon="2.012099">
        <ele>38.954099</ele>
        <time>2023-01-22T12:45:50.000Z</time>
      </trkpt>
      <trkpt lat="41.414966" lon="2.011755">
        <ele>38.828675</ele>
        <time>2023-01-22T12:45:59.000Z</time>
      </trkpt>
      <trkpt lat="41.415087" lon="2.011676">
        <ele>38.800482</ele>
        <time>2023-01-22T12:46:01.000Z</time>
      </trkpt>
      <trkpt lat="41.415594" lon="2.011360">
        <ele>38.934179</ele>
        <time>2023-01-22T12:46:09.000Z</time>
      </trkpt>
      <trkpt lat="41.415736" lon="2.011273">
        <ele>39.053211</ele>
        <time>2023-01-22T12:46:11.000Z</time>
      </trkpt>
      <trkpt lat="41.416228" lon="2.010964">
        <ele>39.467456</ele>
        <time>2023-01-22T12:46:19.000Z</time>
      </trkpt>
      <trkpt lat="41.416300" lon="2.010919">
        <ele>39.528024</ele>
        <time>2023-01-22T12:46:20.000Z</time>
      </trkpt>
      <trkpt lat="41.416829" lon="2.010598">
        <ele>39.970723</ele>
        <time>2023-01-22T12:46:29.000Z</time>
      </trkpt>
      <trkpt lat="41.417198" lon="2.010362">
        <ele>40.384530</ele>
        <time>2023-01-22T12:46:35.000Z</time>
      </trkpt>
      <trkpt lat="41.417432" lon="2.010215">
        <ele>40.696494</ele>
        <time>2023-01-22T12:46:39.000Z</time>
      </trkpt>
      <trkpt lat="41.417965" lon="2.009892">
        <ele>41.402581</ele>
        <time>2023-01-22T12:46:48.000Z</time>
      </trkpt>
      <trkpt lat="41.418010" lon="2.009864">
        <ele>41.462470</ele>
        <time>2023-01-22T12:46:49.000Z</time>
      </trkpt>
      <trkpt lat="41.418141" lon="2.009777">
        <ele>41.638972</ele>
        <time>2023-01-22T12:46:51.000Z</time>
      </trkpt>
      <trkpt lat="41.418529" lon="2.009544">
        <ele>42.152177</ele>
        <time>2023-01-22T12:46:57.000Z</time>
      </trkpt>
      <trkpt lat="41.419072" lon="2.009261">
        <ele>43.072168</ele>
        <time>2023-01-22T12:47:05.000Z</time>
      </trkpt>
      <trkpt lat="41.419139" lon="2.009227">
        <ele>43.191032</ele>
        <time>2023-01-22T12:47:06.000Z</time>
      </trkpt>
      <trkpt lat="41.419679" lon="2.008991">
        <ele>44.133262</ele>
        <time>2023-01-22T12:47:14.000Z</time>
      </trkpt>
      <trkpt lat="41.419878" lon="2.008913">
        <ele>44.477180</ele>
        <time>2023-01-22T12:47:17.000Z</time>
      </trkpt>
      <trkpt lat="41.420284" lon="2.008763">
        <ele>45.175725</ele>
        <time>2023-01-22T12:47:23.000Z</time>
      </trkpt>
      <trkpt lat="41.420346" lon="2.008739">
        <ele>45.294123</ele>
        <time>2023-01-22T12:47:24.000Z</time>
      </trkpt>
      <trkpt lat="41.420647" lon="2.008623">
        <ele>46.061990</ele>
        <time>2023-01-22T12:47:29.000Z</time>
      </trkpt>
      <trkpt lat="41.420813" lon="2.008551">
        <ele>46.489794</ele>
        <time>2023-01-22T12:47:32.000Z</time>
      </trkpt>
      <trkpt lat="41.421096" lon="2.008432">
        <ele>47.217023</ele>
        <time>2023-01-22T12:47:37.000Z</time>
      </trkpt>
      <trkpt lat="41.421250" lon="2.008361">
        <ele>47.616359</ele>
        <time>2023-01-22T12:47:40.000Z</time>
      </trkpt>
      <trkpt lat="41.421336" lon="2.008320">
        <ele>47.840188</ele>
        <time>2023-01-22T12:47:42.000Z</time>
      </trkpt>
      <trkpt lat="41.421611" lon="2.008184">
        <ele>48.559000</ele>
        <time>2023-01-22T12:47:47.000Z</time>
      </trkpt>
      <trkpt lat="41.421724" lon="2.008129">
        <ele>48.853805</ele>
        <time>2023-01-22T12:47:49.000Z</time>
      </trkpt>
      <trkpt lat="41.421950" lon="2.008013">
        <ele>49.447286</ele>
        <time>2023-01-22T12:47:53.000Z</time>
      </trkpt>
      <trkpt lat="41.422006" lon="2.007982">
        <ele>49.595883</ele>
        <time>2023-01-22T12:47:54.000Z</time>
      </trkpt>
      <trkpt lat="41.422181" lon="2.007893">
        <ele>49.717007</ele>
        <time>2023-01-22T12:47:57.000Z</time>
      </trkpt>
      <trkpt lat="41.422410" lon="2.007735">
        <ele>49.798359</ele>
        <time>2023-01-22T12:48:01.000Z</time>
      </trkpt>
      <trkpt lat="41.422874" lon="2.007413">
        <ele>49.963395</ele>
        <time>2023-01-22T12:48:09.000Z</time>
      </trkpt>
      <trkpt lat="41.422935" lon="2.007375">
        <ele>49.984638</ele>
        <time>2023-01-22T12:48:10.000Z</time>
      </trkpt>
      <trkpt lat="41.423059" lon="2.007284">
        <ele>50.029296</ele>
        <time>2023-01-22T12:48:13.000Z</time>
      </trkpt>
      <trkpt lat="41.423430" lon="2.007014">
        <ele>50.162649</ele>
        <time>2023-01-22T12:48:20.000Z</time>
      </trkpt>
      <trkpt lat="41.423604" lon="2.006875">
        <ele>50.226645</ele>
        <time>2023-01-22T12:48:23.000Z</time>
      </trkpt>
      <trkpt lat="41.423661" lon="2.006830">
        <ele>50.130004</ele>
        <time>2023-01-22T12:48:24.000Z</time>
      </trkpt>
      <trkpt lat="41.423986" lon="2.006602">
        <ele>49.194926</ele>
        <time>2023-01-22T12:48:29.000Z</time>
      </trkpt>
      <trkpt lat="41.424203" lon="2.006443">
        <ele>48.564465</ele>
        <time>2023-01-22T12:48:32.000Z</time>
      </trkpt>
      <trkpt lat="41.424420" lon="2.006300">
        <ele>47.948132</ele>
        <time>2023-01-22T12:48:35.000Z</time>
      </trkpt>
      <trkpt lat="41.424490" lon="2.006255">
        <ele>47.750261</ele>
        <time>2023-01-22T12:48:36.000Z</time>
      </trkpt>
      <trkpt lat="41.424823" lon="2.006065">
        <ele>46.827986</ele>
        <time>2023-01-22T12:48:40.000Z</time>
      </trkpt>
      <trkpt lat="41.424971" lon="2.005987">
        <ele>46.422768</ele>
        <time>2023-01-22T12:48:42.000Z</time>
      </trkpt>
      <trkpt lat="41.425113" lon="2.005915">
        <ele>46.035937</ele>
        <time>2023-01-22T12:48:44.000Z</time>
      </trkpt>
      <trkpt lat="41.425414" lon="2.005775">
        <ele>45.411798</ele>
        <time>2023-01-22T12:48:48.000Z</time>
      </trkpt>
      <trkpt lat="41.425707" lon="2.005652">
        <ele>44.970520</ele>
        <time>2023-01-22T12:48:52.000Z</time>
      </trkpt>
      <trkpt lat="41.425917" lon="2.005579">
        <ele>44.658758</ele>
        <time>2023-01-22T12:48:55.000Z</time>
      </trkpt>
      <trkpt lat="41.426319" lon="2.005431">
        <ele>44.059653</ele>
        <time>2023-01-22T12:49:01.000Z</time>
      </trkpt>
      <trkpt lat="41.426818" lon="2.005192">
        <ele>43.297974</ele>
        <time>2023-01-22T12:49:09.000Z</time>
      </trkpt>
      <trkpt lat="41.427302" lon="2.004843">
        <ele>43.112873</ele>
        <time>2023-01-22T12:49:17.000Z</time>
      </trkpt>
      <trkpt lat="41.427807" lon="2.004543">
        <ele>43.172305</ele>
        <time>2023-01-22T12:49:25.000Z</time>
      </trkpt>
      <trkpt lat="41.428301" lon="2.004391">
        <ele>43.226808</ele>
        <time>2023-01-22T12:49:32.000Z</time>
      </trkpt>
      <trkpt lat="41.428818" lon="2.004282">
        <ele>43.427307</ele>
        <time>2023-01-22T12:49:40.000Z</time>
      </trkpt>
      <trkpt lat="41.429359" lon="2.004181">
        <ele>43.932152</ele>
        <time>2023-01-22T12:49:48.000Z</time>
      </trkpt>
      <trkpt lat="41.429425" lon="2.004168">
        <ele>43.993808</ele>
        <time>2023-01-22T12:49:49.000Z</time>
      </trkpt>
      <trkpt lat="41.429994" lon="2.004059">
        <ele>44.525052</ele>
        <time>2023-01-22T12:49:58.000Z</time>
      </trkpt>
      <trkpt lat="41.430070" lon="2.004042">
        <ele>44.596269</ele>
        <time>2023-01-22T12:49:59.000Z</time>
      </trkpt>
      <trkpt lat="41.430399" lon="2.003981">
        <ele>44.903241</ele>
        <time>2023-01-22T12:50:04.000Z</time>
      </trkpt>
      <trkpt lat="41.430738" lon="2.003921">
        <ele>45.062473</ele>
        <time>2023-01-22T12:50:09.000Z</time>
      </trkpt>
      <trkpt lat="41.431308" lon="2.003797">
        <ele>45.310521</ele>
        <time>2023-01-22T12:50:17.000Z</time>
      </trkpt>
      <trkpt lat="41.431869" lon="2.003633">
        <ele>45.557188</ele>
        <time>2023-01-22T12:50:25.000Z</time>
      </trkpt>
      <trkpt lat="41.432074" lon="2.003553">
        <ele>45.648926</ele>
        <time>2023-01-22T12:50:28.000Z</time>
      </trkpt>
      <trkpt lat="41.432546" lon="2.003346">
        <ele>45.809055</ele>
        <time>2023-01-22T12:50:35.000Z</time>
      </trkpt>
      <trkpt lat="41.432614" lon="2.003315">
        <ele>45.829863</ele>
        <time>2023-01-22T12:50:36.000Z</time>
      </trkpt>
      <trkpt lat="41.432817" lon="2.003217">
        <ele>45.892373</ele>
        <time>2023-01-22T12:50:39.000Z</time>
      </trkpt>
      <trkpt lat="41.433339" lon="2.002935">
        <ele>46.055445</ele>
        <time>2023-01-22T12:50:47.000Z</time>
      </trkpt>
      <trkpt lat="41.433685" lon="2.002728">
        <ele>46.165246</ele>
        <time>2023-01-22T12:50:52.000Z</time>
      </trkpt>
      <trkpt lat="41.434193" lon="2.002406">
        <ele>46.222636</ele>
        <time>2023-01-22T12:51:00.000Z</time>
      </trkpt>
      <trkpt lat="41.434382" lon="2.002276">
        <ele>46.224339</ele>
        <time>2023-01-22T12:51:03.000Z</time>
      </trkpt>
      <trkpt lat="41.434862" lon="2.001906">
        <ele>46.228780</ele>
        <time>2023-01-22T12:51:11.000Z</time>
      </trkpt>
      <trkpt lat="41.434922" lon="2.001858">
        <ele>46.229340</ele>
        <time>2023-01-22T12:51:12.000Z</time>
      </trkpt>
      <trkpt lat="41.435390" lon="2.001485">
        <ele>46.233707</ele>
        <time>2023-01-22T12:51:20.000Z</time>
      </trkpt>
      <trkpt lat="41.435751" lon="2.001193">
        <ele>47.060631</ele>
        <time>2023-01-22T12:51:27.000Z</time>
      </trkpt>
      <trkpt lat="41.436190" lon="2.000837">
        <ele>48.177205</ele>
        <time>2023-01-22T12:51:36.000Z</time>
      </trkpt>
      <trkpt lat="41.436240" lon="2.000797">
        <ele>48.303917</ele>
        <time>2023-01-22T12:51:37.000Z</time>
      </trkpt>
      <trkpt lat="41.436536" lon="2.000559">
        <ele>49.055058</ele>
        <time>2023-01-22T12:51:43.000Z</time>
      </trkpt>
      <trkpt lat="41.436722" lon="2.000413">
        <ele>49.524095</ele>
        <time>2023-01-22T12:51:47.000Z</time>
      </trkpt>
      <trkpt lat="41.436821" lon="2.000334">
        <ele>49.774816</ele>
        <time>2023-01-22T12:51:49.000Z</time>
      </trkpt>
      <trkpt lat="41.437086" lon="2.000115">
        <ele>50.773339</ele>
        <time>2023-01-22T12:51:55.000Z</time>
      </trkpt>
      <trkpt lat="41.437127" lon="2.000082">
        <ele>50.985444</ele>
        <time>2023-01-22T12:51:56.000Z</time>
      </trkpt>
      <trkpt lat="41.437423" lon="1.999845">
        <ele>52.514602</ele>
        <time>2023-01-22T12:52:03.000Z</time>
      </trkpt>
      <trkpt lat="41.437479" lon="1.999804">
        <ele>52.797554</ele>
        <time>2023-01-22T12:52:04.000Z</time>
      </trkpt>
      <trkpt lat="41.437695" lon="1.999649">
        <ele>53.883959</ele>
        <time>2023-01-22T12:52:09.000Z</time>
      </trkpt>
      <trkpt lat="41.437860" lon="1.999547">
        <ele>54.689476</ele>
        <time>2023-01-22T12:52:13.000Z</time>
      </trkpt>
      <trkpt lat="41.437901" lon="1.999524">
        <ele>54.886486</ele>
        <time>2023-01-22T12:52:14.000Z</time>
      </trkpt>
      <trkpt lat="41.438070" lon="1.999439">
        <ele>55.686496</ele>
        <time>2023-01-22T12:52:18.000Z</time>
      </trkpt>
      <trkpt lat="41.438292" lon="1.999343">
        <ele>56.720199</ele>
        <time>2023-01-22T12:52:23.000Z</time>
      </trkpt>
      <trkpt lat="41.438336" lon="1.999330">
        <ele>56.919815</ele>
        <time>2023-01-22T12:52:24.000Z</time>
      </trkpt>
      <trkpt lat="41.438500" lon="1.999287">
        <ele>57.660134</ele>
        <time>2023-01-22T12:52:28.000Z</time>
      </trkpt>
      <trkpt lat="41.438649" lon="1.999260">
        <ele>58.259836</ele>
        <time>2023-01-22T12:52:32.000Z</time>
      </trkpt>
      <trkpt lat="41.438915" lon="1.999194">
        <ele>59.090566</ele>
        <time>2023-01-22T12:52:39.000Z</time>
      </trkpt>
      <trkpt lat="41.439111" lon="1.999151">
        <ele>59.700445</ele>
        <time>2023-01-22T12:52:44.000Z</time>
      </trkpt>
      <trkpt lat="41.439149" lon="1.999146">
        <ele>59.817686</ele>
        <time>2023-01-22T12:52:45.000Z</time>
      </trkpt>
      <trkpt lat="41.439369" lon="1.999088">
        <ele>60.506236</ele>
        <time>2023-01-22T12:52:51.000Z</time>
      </trkpt>
      <trkpt lat="41.439443" lon="1.999074">
        <ele>60.735718</ele>
        <time>2023-01-22T12:52:53.000Z</time>
      </trkpt>
      <trkpt lat="41.439616" lon="1.999067">
        <ele>61.267138</ele>
        <time>2023-01-22T12:52:58.000Z</time>
      </trkpt>
      <trkpt lat="41.439652" lon="1.999088">
        <ele>61.387778</ele>
        <time>2023-01-22T12:52:59.000Z</time>
      </trkpt>
      <trkpt lat="41.439685" lon="1.999119">
        <ele>61.511704</ele>
        <time>2023-01-22T12:53:00.000Z</time>
      </trkpt>
      <trkpt lat="41.439785" lon="1.999256">
        <ele>61.951828</ele>
        <time>2023-01-22T12:53:03.000Z</time>
      </trkpt>
      <trkpt lat="41.439870" lon="1.999346">
        <ele>62.285031</ele>
        <time>2023-01-22T12:53:05.000Z</time>
      </trkpt>
      <trkpt lat="41.439971" lon="1.999399">
        <ele>62.618272</ele>
        <time>2023-01-22T12:53:07.000Z</time>
      </trkpt>
      <trkpt lat="41.440076" lon="1.999403">
        <ele>62.940793</ele>
        <time>2023-01-22T12:53:09.000Z</time>
      </trkpt>
      <trkpt lat="41.440172" lon="1.999359">
        <ele>63.252463</ele>
        <time>2023-01-22T12:53:11.000Z</time>
      </trkpt>
      <trkpt lat="41.440215" lon="1.999326">
        <ele>63.404779</ele>
        <time>2023-01-22T12:53:12.000Z</time>
      </trkpt>
      <trkpt lat="41.440284" lon="1.999240">
        <ele>63.598370</ele>
        <time>2023-01-22T12:53:14.000Z</time>
      </trkpt>
      <trkpt lat="41.440310" lon="1.999187">
        <ele>63.518472</ele>
        <time>2023-01-22T12:53:15.000Z</time>
      </trkpt>
      <trkpt lat="41.440418" lon="1.998932">
        <ele>63.149025</ele>
        <time>2023-01-22T12:53:20.000Z</time>
      </trkpt>
      <trkpt lat="41.440449" lon="1.998888">
        <ele>63.072858</ele>
        <time>2023-01-22T12:53:21.000Z</time>
      </trkpt>
      <trkpt lat="41.440487" lon="1.998850">
        <ele>62.992944</ele>
        <time>2023-01-22T12:53:22.000Z</time>
      </trkpt>
      <trkpt lat="41.440578" lon="1.998795">
        <ele>62.824837</ele>
        <time>2023-01-22T12:53:24.000Z</time>
      </trkpt>
      <trkpt lat="41.440626" lon="1.998778">
        <ele>62.741270</ele>
        <time>2023-01-22T12:53:25.000Z</time>
      </trkpt>
      <trkpt lat="41.440732" lon="1.998747">
        <ele>62.558670</ele>
        <time>2023-01-22T12:53:27.000Z</time>
      </trkpt>
      <trkpt lat="41.440898" lon="1.998708">
        <ele>62.275046</ele>
        <time>2023-01-22T12:53:30.000Z</time>
      </trkpt>
      <trkpt lat="41.441147" lon="1.998638">
        <ele>61.846856</ele>
        <time>2023-01-22T12:53:34.000Z</time>
      </trkpt>
      <trkpt lat="41.441293" lon="1.998602">
        <ele>61.597023</ele>
        <time>2023-01-22T12:53:36.000Z</time>
      </trkpt>
      <trkpt lat="41.441450" lon="1.998583">
        <ele>61.331757</ele>
        <time>2023-01-22T12:53:38.000Z</time>
      </trkpt>
      <trkpt lat="41.441704" lon="1.998580">
        <ele>60.904340</ele>
        <time>2023-01-22T12:53:41.000Z</time>
      </trkpt>
      <trkpt lat="41.441788" lon="1.998589">
        <ele>60.762540</ele>
        <time>2023-01-22T12:53:42.000Z</time>
      </trkpt>
      <trkpt lat="41.442178" lon="1.998653">
        <ele>60.785701</ele>
        <time>2023-01-22T12:53:47.000Z</time>
      </trkpt>
      <trkpt lat="41.442247" lon="1.998663">
        <ele>60.827308</ele>
        <time>2023-01-22T12:53:48.000Z</time>
      </trkpt>
      <trkpt lat="41.442553" lon="1.998651">
        <ele>61.010822</ele>
        <time>2023-01-22T12:53:53.000Z</time>
      </trkpt>
      <trkpt lat="41.442923" lon="1.998534">
        <ele>61.238768</ele>
        <time>2023-01-22T12:53:59.000Z</time>
      </trkpt>
      <trkpt lat="41.442977" lon="1.998503">
        <ele>61.274009</ele>
        <time>2023-01-22T12:54:00.000Z</time>
      </trkpt>
      <trkpt lat="41.443243" lon="1.998300">
        <ele>61.457714</ele>
        <time>2023-01-22T12:54:05.000Z</time>
      </trkpt>
      <trkpt lat="41.443296" lon="1.998251">
        <ele>61.496370</ele>
        <time>2023-01-22T12:54:06.000Z</time>
      </trkpt>
      <trkpt lat="41.443618" lon="1.997855">
        <ele>61.572720</ele>
        <time>2023-01-22T12:54:13.000Z</time>
      </trkpt>
      <trkpt lat="41.444032" lon="1.997338">
        <ele>61.065943</ele>
        <time>2023-01-22T12:54:22.000Z</time>
      </trkpt>
      <trkpt lat="41.444088" lon="1.997284">
        <ele>61.004194</ele>
        <time>2023-01-22T12:54:23.000Z</time>
      </trkpt>
      <trkpt lat="41.444537" lon="1.996964">
        <ele>60.549275</ele>
        <time>2023-01-22T12:54:30.000Z</time>
      </trkpt>
      <trkpt lat="41.444684" lon="1.996896">
        <ele>60.410235</ele>
        <time>2023-01-22T12:54:32.000Z</time>
      </trkpt>
      <trkpt lat="41.444936" lon="1.996817">
        <ele>60.178901</ele>
        <time>2023-01-22T12:54:35.000Z</time>
      </trkpt>
      <trkpt lat="41.445208" lon="1.996763">
        <ele>59.538057</ele>
        <time>2023-01-22T12:54:38.000Z</time>
      </trkpt>
      <trkpt lat="41.445395" lon="1.996735">
        <ele>58.907369</ele>
        <time>2023-01-22T12:54:40.000Z</time>
      </trkpt>
      <trkpt lat="41.445488" lon="1.996720">
        <ele>58.593399</ele>
        <time>2023-01-22T12:54:41.000Z</time>
      </trkpt>
      <trkpt lat="41.445675" lon="1.996686">
        <ele>57.960853</ele>
        <time>2023-01-22T12:54:43.000Z</time>
      </trkpt>
      <trkpt lat="41.445771" lon="1.996673">
        <ele>57.637444</ele>
        <time>2023-01-22T12:54:44.000Z</time>
      </trkpt>
      <trkpt lat="41.445866" lon="1.996674">
        <ele>57.319031</ele>
        <time>2023-01-22T12:54:45.000Z</time>
      </trkpt>
      <trkpt lat="41.445970" lon="1.996677">
        <ele>56.970381</ele>
        <time>2023-01-22T12:54:46.000Z</time>
      </trkpt>
      <trkpt lat="41.446072" lon="1.996688">
        <ele>56.627401</ele>
        <time>2023-01-22T12:54:47.000Z</time>
      </trkpt>
      <trkpt lat="41.446273" lon="1.996727">
        <ele>55.946639</ele>
        <time>2023-01-22T12:54:49.000Z</time>
      </trkpt>
      <trkpt lat="41.446463" lon="1.996782">
        <ele>55.295013</ele>
        <time>2023-01-22T12:54:51.000Z</time>
      </trkpt>
      <trkpt lat="41.446553" lon="1.996809">
        <ele>54.985835</ele>
        <time>2023-01-22T12:54:52.000Z</time>
      </trkpt>
      <trkpt lat="41.446901" lon="1.996875">
        <ele>54.297415</ele>
        <time>2023-01-22T12:54:56.000Z</time>
      </trkpt>
      <trkpt lat="41.447358" lon="1.996895">
        <ele>55.882698</ele>
        <time>2023-01-22T12:55:02.000Z</time>
      </trkpt>
      <trkpt lat="41.447428" lon="1.996895">
        <ele>56.125390</ele>
        <time>2023-01-22T12:55:03.000Z</time>
      </trkpt>
      <trkpt lat="41.447630" lon="1.996888">
        <ele>56.825966</ele>
        <time>2023-01-22T12:55:06.000Z</time>
      </trkpt>
      <trkpt lat="41.447815" lon="1.996881">
        <ele>57.467624</ele>
        <time>2023-01-22T12:55:09.000Z</time>
      </trkpt>
      <trkpt lat="41.447969" lon="1.996868">
        <ele>58.002613</ele>
        <time>2023-01-22T12:55:12.000Z</time>
      </trkpt>
      <trkpt lat="41.448071" lon="1.996838">
        <ele>58.364742</ele>
        <time>2023-01-22T12:55:14.000Z</time>
      </trkpt>
      <trkpt lat="41.448123" lon="1.996821">
        <ele>58.550361</ele>
        <time>2023-01-22T12:55:15.000Z</time>
      </trkpt>
      <trkpt lat="41.448332" lon="1.996762">
        <ele>59.291014</ele>
        <time>2023-01-22T12:55:19.000Z</time>
      </trkpt>
      <trkpt lat="41.448663" lon="1.996697">
        <ele>60.342657</ele>
        <time>2023-01-22T12:55:25.000Z</time>
      </trkpt>
      <trkpt lat="41.449228" lon="1.996714">
        <ele>61.028111</ele>
        <time>2023-01-22T12:55:34.000Z</time>
      </trkpt>
      <trkpt lat="41.449726" lon="1.996869">
        <ele>61.648347</ele>
        <time>2023-01-22T12:55:42.000Z</time>
      </trkpt>
      <trkpt lat="41.450230" lon="1.997137">
        <ele>62.306405</ele>
        <time>2023-01-22T12:55:51.000Z</time>
      </trkpt>
      <trkpt lat="41.450284" lon="1.997176">
        <ele>62.380881</ele>
        <time>2023-01-22T12:55:52.000Z</time>
      </trkpt>
      <trkpt lat="41.450617" lon="1.997458">
        <ele>63.660990</ele>
        <time>2023-01-22T12:55:59.000Z</time>
      </trkpt>
      <trkpt lat="41.450660" lon="1.997501">
        <ele>63.859017</ele>
        <time>2023-01-22T12:56:00.000Z</time>
      </trkpt>
      <trkpt lat="41.450777" lon="1.997630">
        <ele>64.418344</ele>
        <time>2023-01-22T12:56:03.000Z</time>
      </trkpt>
      <trkpt lat="41.450914" lon="1.997812">
        <ele>65.130790</ele>
        <time>2023-01-22T12:56:07.000Z</time>
      </trkpt>
      <trkpt lat="41.451076" lon="1.998057">
        <ele>66.033182</ele>
        <time>2023-01-22T12:56:12.000Z</time>
      </trkpt>
      <trkpt lat="41.451202" lon="1.998257">
        <ele>66.754809</ele>
        <time>2023-01-22T12:56:16.000Z</time>
      </trkpt>
      <trkpt lat="41.451284" lon="1.998400">
        <ele>67.252114</ele>
        <time>2023-01-22T12:56:19.000Z</time>
      </trkpt>
      <trkpt lat="41.451419" lon="1.998622">
        <ele>68.041714</ele>
        <time>2023-01-22T12:56:24.000Z</time>
      </trkpt>
      <trkpt lat="41.451532" lon="1.998800">
        <ele>68.686005</ele>
        <time>2023-01-22T12:56:28.000Z</time>
      </trkpt>
      <trkpt lat="41.451692" lon="1.999002">
        <ele>69.255982</ele>
        <time>2023-01-22T12:56:33.000Z</time>
      </trkpt>
      <trkpt lat="41.451891" lon="1.999215">
        <ele>69.633086</ele>
        <time>2023-01-22T12:56:39.000Z</time>
      </trkpt>
      <trkpt lat="41.451962" lon="1.999277">
        <ele>69.758513</ele>
        <time>2023-01-22T12:56:41.000Z</time>
      </trkpt>
      <trkpt lat="41.452154" lon="1.999427">
        <ele>70.087387</ele>
        <time>2023-01-22T12:56:46.000Z</time>
      </trkpt>
      <trkpt lat="41.452320" lon="1.999535">
        <ele>70.360374</ele>
        <time>2023-01-22T12:56:50.000Z</time>
      </trkpt>
      <trkpt lat="41.452763" lon="1.999745">
        <ele>71.055286</ele>
        <time>2023-01-22T12:56:59.000Z</time>
      </trkpt>
      <trkpt lat="41.452818" lon="1.999774">
        <ele>71.142701</ele>
        <time>2023-01-22T12:57:00.000Z</time>
      </trkpt>
      <trkpt lat="41.452921" lon="1.999856">
        <ele>71.319991</ele>
        <time>2023-01-22T12:57:02.000Z</time>
      </trkpt>
      <trkpt lat="41.452967" lon="1.999911">
        <ele>71.411292</ele>
        <time>2023-01-22T12:57:03.000Z</time>
      </trkpt>
      <trkpt lat="41.453006" lon="1.999973">
        <ele>71.500964</ele>
        <time>2023-01-22T12:57:04.000Z</time>
      </trkpt>
      <trkpt lat="41.453102" lon="2.000173">
        <ele>71.759915</ele>
        <time>2023-01-22T12:57:07.000Z</time>
      </trkpt>
      <trkpt lat="41.453192" lon="2.000275">
        <ele>71.870721</ele>
        <time>2023-01-22T12:57:09.000Z</time>
      </trkpt>
      <trkpt lat="41.453237" lon="2.000301">
        <ele>71.916736</ele>
        <time>2023-01-22T12:57:10.000Z</time>
      </trkpt>
      <trkpt lat="41.453307" lon="2.000328">
        <ele>71.985111</ele>
        <time>2023-01-22T12:57:11.000Z</time>
      </trkpt>
      <trkpt lat="41.453424" lon="2.000326">
        <ele>72.094907</ele>
        <time>2023-01-22T12:57:13.000Z</time>
      </trkpt>
      <trkpt lat="41.453481" lon="2.000308">
        <ele>72.149871</ele>
        <time>2023-01-22T12:57:14.000Z</time>
      </trkpt>
      <trkpt lat="41.453729" lon="2.000255">
        <ele>72.385548</ele>
        <time>2023-01-22T12:57:18.000Z</time>
      </trkpt>
      <trkpt lat="41.453791" lon="2.000263">
        <ele>72.443997</ele>
        <time>2023-01-22T12:57:19.000Z</time>
      </trkpt>
      <trkpt lat="41.453850" lon="2.000284">
        <ele>72.501296</ele>
        <time>2023-01-22T12:57:20.000Z</time>
      </trkpt>
      <trkpt lat="41.454064" lon="2.000405">
        <ele>72.719390</ele>
        <time>2023-01-22T12:57:24.000Z</time>
      </trkpt>
      <trkpt lat="41.454447" lon="2.000697">
        <ele>73.133312</ele>
        <time>2023-01-22T12:57:32.000Z</time>
      </trkpt>
      <trkpt lat="41.454730" lon="2.001009">
        <ele>73.465410</ele>
        <time>2023-01-22T12:57:39.000Z</time>
      </trkpt>
      <trkpt lat="41.454765" lon="2.001057">
        <ele>73.496898</ele>
        <time>2023-01-22T12:57:40.000Z</time>
      </trkpt>
      <trkpt lat="41.454914" lon="2.001252">
        <ele>73.627834</ele>
        <time>2023-01-22T12:57:44.000Z</time>
      </trkpt>
      <trkpt lat="41.455130" lon="2.001488">
        <ele>73.802979</ele>
        <time>2023-01-22T12:57:49.000Z</time>
      </trkpt>
      <trkpt lat="41.455225" lon="2.001574">
        <ele>73.875000</ele>
        <time>2023-01-22T12:57:51.000Z</time>
      </trkpt>
      <trkpt lat="41.455430" lon="2.001708">
        <ele>74.018212</ele>
        <time>2023-01-22T12:57:55.000Z</time>
      </trkpt>
      <trkpt lat="41.455813" lon="2.001823">
        <ele>74.264498</ele>
        <time>2023-01-22T12:58:01.000Z</time>
      </trkpt>
      <trkpt lat="41.456320" lon="2.001919">
        <ele>74.487126</ele>
        <time>2023-01-22T12:58:08.000Z</time>
      </trkpt>
      <trkpt lat="41.456478" lon="2.001944">
        <ele>74.005403</ele>
        <time>2023-01-22T12:58:10.000Z</time>
      </trkpt>
      <trkpt lat="41.456807" lon="2.002011">
        <ele>72.997764</ele>
        <time>2023-01-22T12:58:14.000Z</time>
      </trkpt>
      <trkpt lat="41.457159" lon="2.002076">
        <ele>71.921867</ele>
        <time>2023-01-22T12:58:18.000Z</time>
      </trkpt>
      <trkpt lat="41.457422" lon="2.002131">
        <ele>71.115870</ele>
        <time>2023-01-22T12:58:21.000Z</time>
      </trkpt>
      <trkpt lat="41.457507" lon="2.002147">
        <ele>70.855970</ele>
        <time>2023-01-22T12:58:22.000Z</time>
      </trkpt>
      <trkpt lat="41.457672" lon="2.002188">
        <ele>70.347815</ele>
        <time>2023-01-22T12:58:24.000Z</time>
      </trkpt>
      <trkpt lat="41.457909" lon="2.002280">
        <ele>69.600509</ele>
        <time>2023-01-22T12:58:27.000Z</time>
      </trkpt>
      <trkpt lat="41.457991" lon="2.002321">
        <ele>69.335382</ele>
        <time>2023-01-22T12:58:28.000Z</time>
      </trkpt>
      <trkpt lat="41.458075" lon="2.002368">
        <ele>69.167307</ele>
        <time>2023-01-22T12:58:29.000Z</time>
      </trkpt>
      <trkpt lat="41.458312" lon="2.002549">
        <ele>69.742288</ele>
        <time>2023-01-22T12:58:32.000Z</time>
      </trkpt>
      <trkpt lat="41.458676" lon="2.002872">
        <ele>70.662726</ele>
        <time>2023-01-22T12:58:37.000Z</time>
      </trkpt>
      <trkpt lat="41.458880" lon="2.003040">
        <ele>71.167487</ele>
        <time>2023-01-22T12:58:40.000Z</time>
      </trkpt>
      <trkpt lat="41.459193" lon="2.003297">
        <ele>71.941314</ele>
        <time>2023-01-22T12:58:45.000Z</time>
      </trkpt>
      <trkpt lat="41.459245" lon="2.003347">
        <ele>72.076270</ele>
        <time>2023-01-22T12:58:46.000Z</time>
      </trkpt>
      <trkpt lat="41.459377" lon="2.003501">
        <ele>72.445462</ele>
        <time>2023-01-22T12:58:49.000Z</time>
      </trkpt>
      <trkpt lat="41.459449" lon="2.003606">
        <ele>72.670040</ele>
        <time>2023-01-22T12:58:51.000Z</time>
      </trkpt>
      <trkpt lat="41.459517" lon="2.003722">
        <ele>72.902432</ele>
        <time>2023-01-22T12:58:53.000Z</time>
      </trkpt>
      <trkpt lat="41.459595" lon="2.003920">
        <ele>73.871362</ele>
        <time>2023-01-22T12:58:56.000Z</time>
      </trkpt>
      <trkpt lat="41.459649" lon="2.004110">
        <ele>74.764354</ele>
        <time>2023-01-22T12:58:59.000Z</time>
      </trkpt>
      <trkpt lat="41.459683" lon="2.004299">
        <ele>75.618518</ele>
        <time>2023-01-22T12:59:02.000Z</time>
      </trkpt>
      <trkpt lat="41.459694" lon="2.004362">
        <ele>75.902790</ele>
        <time>2023-01-22T12:59:03.000Z</time>
      </trkpt>
      <trkpt lat="41.459723" lon="2.004488">
        <ele>76.482027</ele>
        <time>2023-01-22T12:59:05.000Z</time>
      </trkpt>
      <trkpt lat="41.459767" lon="2.004728">
        <ele>77.567819</ele>
        <time>2023-01-22T12:59:09.000Z</time>
      </trkpt>
      <trkpt lat="41.459790" lon="2.004844">
        <ele>78.095126</ele>
        <time>2023-01-22T12:59:11.000Z</time>
      </trkpt>
      <trkpt lat="41.459826" lon="2.005080">
        <ele>79.153504</ele>
        <time>2023-01-22T12:59:15.000Z</time>
      </trkpt>
      <trkpt lat="41.459894" lon="2.005409">
        <ele>80.653286</ele>
        <time>2023-01-22T12:59:21.000Z</time>
      </trkpt>
      <trkpt lat="41.459943" lon="2.005696">
        <ele>81.946833</ele>
        <time>2023-01-22T12:59:26.000Z</time>
      </trkpt>
      <trkpt lat="41.459988" lon="2.005916">
        <ele>82.948994</ele>
        <time>2023-01-22T12:59:30.000Z</time>
      </trkpt>
      <trkpt lat="41.459998" lon="2.005970">
        <ele>83.193437</ele>
        <time>2023-01-22T12:59:31.000Z</time>
      </trkpt>
      <trkpt lat="41.460049" lon="2.006196">
        <ele>83.922581</ele>
        <time>2023-01-22T12:59:35.000Z</time>
      </trkpt>
      <trkpt lat="41.460085" lon="2.006353">
        <ele>84.356629</ele>
        <time>2023-01-22T12:59:38.000Z</time>
      </trkpt>
      <trkpt lat="41.460095" lon="2.006408">
        <ele>84.506248</ele>
        <time>2023-01-22T12:59:39.000Z</time>
      </trkpt>
      <trkpt lat="41.460167" lon="2.006803">
        <ele>85.580937</ele>
        <time>2023-01-22T12:59:46.000Z</time>
      </trkpt>
      <trkpt lat="41.460178" lon="2.006858">
        <ele>85.731427</ele>
        <time>2023-01-22T12:59:47.000Z</time>
      </trkpt>
      <trkpt lat="41.460270" lon="2.007292">
        <ele>86.923789</ele>
        <time>2023-01-22T12:59:54.000Z</time>
      </trkpt>
      <trkpt lat="41.460282" lon="2.007358">
        <ele>87.103332</ele>
        <time>2023-01-22T12:59:55.000Z</time>
      </trkpt>
      <trkpt lat="41.460349" lon="2.007678">
        <ele>87.981695</ele>
        <time>2023-01-22T13:00:00.000Z</time>
      </trkpt>
      <trkpt lat="41.460387" lon="2.007868">
        <ele>88.501568</ele>
        <time>2023-01-22T13:00:03.000Z</time>
      </trkpt>
      <trkpt lat="41.460452" lon="2.008184">
        <ele>89.367856</ele>
        <time>2023-01-22T13:00:08.000Z</time>
      </trkpt>
      <trkpt lat="41.460527" lon="2.008580">
        <ele>89.903572</ele>
        <time>2023-01-22T13:00:14.000Z</time>
      </trkpt>
      <trkpt lat="41.460562" lon="2.008780">
        <ele>89.988738</ele>
        <time>2023-01-22T13:00:17.000Z</time>
      </trkpt>
      <trkpt lat="41.460623" lon="2.009071">
        <ele>90.114040</ele>
        <time>2023-01-22T13:00:21.000Z</time>
      </trkpt>
      <trkpt lat="41.460732" lon="2.009569">
        <ele>90.329175</ele>
        <time>2023-01-22T13:00:27.000Z</time>
      </trkpt>
      <trkpt lat="41.460875" lon="2.010278">
        <ele>90.633641</ele>
        <time>2023-01-22T13:00:35.000Z</time>
      </trkpt>
      <trkpt lat="41.461026" lon="2.010802">
        <ele>90.789531</ele>
        <time>2023-01-22T13:00:41.000Z</time>
      </trkpt>
      <trkpt lat="41.461145" lon="2.011057">
        <ele>90.774926</ele>
        <time>2023-01-22T13:00:44.000Z</time>
      </trkpt>
      <trkpt lat="41.461174" lon="2.011151">
        <ele>90.769984</ele>
        <time>2023-01-22T13:00:45.000Z</time>
      </trkpt>
      <trkpt lat="41.461197" lon="2.011246">
        <ele>90.765130</ele>
        <time>2023-01-22T13:00:46.000Z</time>
      </trkpt>
      <trkpt lat="41.461366" lon="2.011789">
        <ele>90.736545</ele>
        <time>2023-01-22T13:00:52.000Z</time>
      </trkpt>
      <trkpt lat="41.461577" lon="2.012493">
        <ele>90.699682</ele>
        <time>2023-01-22T13:01:00.000Z</time>
      </trkpt>
      <trkpt lat="41.461601" lon="2.012577">
        <ele>90.695312</ele>
        <time>2023-01-22T13:01:01.000Z</time>
      </trkpt>
      <trkpt lat="41.461787" lon="2.013243">
        <ele>91.080509</ele>
        <time>2023-01-22T13:01:09.000Z</time>
      </trkpt>
      <trkpt lat="41.461928" lon="2.013843">
        <ele>91.686533</ele>
        <time>2023-01-22T13:01:16.000Z</time>
      </trkpt>
      <trkpt lat="41.461966" lon="2.014016">
        <ele>91.860279</ele>
        <time>2023-01-22T13:01:18.000Z</time>
      </trkpt>
      <trkpt lat="41.462152" lon="2.014707">
        <ele>92.567896</ele>
        <time>2023-01-22T13:01:26.000Z</time>
      </trkpt>
      <trkpt lat="41.462183" lon="2.014792">
        <ele>92.659002</ele>
        <time>2023-01-22T13:01:27.000Z</time>
      </trkpt>
      <trkpt lat="41.462218" lon="2.014878">
        <ele>92.753319</ele>
        <time>2023-01-22T13:01:28.000Z</time>
      </trkpt>
      <trkpt lat="41.462478" lon="2.015378">
        <ele>92.669614</ele>
        <time>2023-01-22T13:01:34.000Z</time>
      </trkpt>
      <trkpt lat="41.462887" lon="2.015877">
        <ele>92.000855</ele>
        <time>2023-01-22T13:01:41.000Z</time>
      </trkpt>
      <trkpt lat="41.463012" lon="2.016015">
        <ele>91.805079</ele>
        <time>2023-01-22T13:01:43.000Z</time>
      </trkpt>
      <trkpt lat="41.463445" lon="2.016497">
        <ele>91.124620</ele>
        <time>2023-01-22T13:01:50.000Z</time>
      </trkpt>
      <trkpt lat="41.463569" lon="2.016635">
        <ele>90.929773</ele>
        <time>2023-01-22T13:01:52.000Z</time>
      </trkpt>
      <trkpt lat="41.463692" lon="2.016769">
        <ele>90.824715</ele>
        <time>2023-01-22T13:01:54.000Z</time>
      </trkpt>
      <trkpt lat="41.463994" lon="2.017113">
        <ele>90.831259</ele>
        <time>2023-01-22T13:01:59.000Z</time>
      </trkpt>
      <trkpt lat="41.464100" lon="2.017269">
        <ele>90.833860</ele>
        <time>2023-01-22T13:02:01.000Z</time>
      </trkpt>
      <trkpt lat="41.464144" lon="2.017350">
        <ele>90.835096</ele>
        <time>2023-01-22T13:02:02.000Z</time>
      </trkpt>
      <trkpt lat="41.464190" lon="2.017424">
        <ele>90.836283</ele>
        <time>2023-01-22T13:02:03.000Z</time>
      </trkpt>
      <trkpt lat="41.464307" lon="2.017547">
        <ele>90.838738</ele>
        <time>2023-01-22T13:02:05.000Z</time>
      </trkpt>
      <trkpt lat="41.464373" lon="2.017598">
        <ele>90.839995</ele>
        <time>2023-01-22T13:02:06.000Z</time>
      </trkpt>
      <trkpt lat="41.464675" lon="2.017899">
        <ele>90.846208</ele>
        <time>2023-01-22T13:02:11.000Z</time>
      </trkpt>
      <trkpt lat="41.465124" lon="2.018418">
        <ele>91.202782</ele>
        <time>2023-01-22T13:02:19.000Z</time>
      </trkpt>
      <trkpt lat="41.465288" lon="2.018610">
        <ele>91.650981</ele>
        <time>2023-01-22T13:02:22.000Z</time>
      </trkpt>
      <trkpt lat="41.465499" lon="2.018855">
        <ele>92.225577</ele>
        <time>2023-01-22T13:02:26.000Z</time>
      </trkpt>
      <trkpt lat="41.465872" lon="2.019270">
        <ele>93.223256</ele>
        <time>2023-01-22T13:02:33.000Z</time>
      </trkpt>
      <trkpt lat="41.465923" lon="2.019325">
        <ele>93.357966</ele>
        <time>2023-01-22T13:02:34.000Z</time>
      </trkpt>
      <trkpt lat="41.466170" lon="2.019607">
        <ele>94.025766</ele>
        <time>2023-01-22T13:02:39.000Z</time>
      </trkpt>
      <trkpt lat="41.466326" lon="2.019783">
        <ele>94.445434</ele>
        <time>2023-01-22T13:02:42.000Z</time>
      </trkpt>
      <trkpt lat="41.466581" lon="2.020072">
        <ele>94.822936</ele>
        <time>2023-01-22T13:02:47.000Z</time>
      </trkpt>
      <trkpt lat="41.466732" lon="2.020252">
        <ele>95.018395</ele>
        <time>2023-01-22T13:02:50.000Z</time>
      </trkpt>
      <trkpt lat="41.466840" lon="2.020376">
        <ele>95.155932</ele>
        <time>2023-01-22T13:02:52.000Z</time>
      </trkpt>
      <trkpt lat="41.467097" lon="2.020702">
        <ele>95.498229</ele>
        <time>2023-01-22T13:02:57.000Z</time>
      </trkpt>
      <trkpt lat="41.467187" lon="2.020853">
        <ele>95.637801</ele>
        <time>2023-01-22T13:02:59.000Z</time>
      </trkpt>
      <trkpt lat="41.467414" lon="2.021362">
        <ele>96.066282</ele>
        <time>2023-01-22T13:03:05.000Z</time>
      </trkpt>
      <trkpt lat="41.467550" lon="2.021931">
        <ele>96.408437</ele>
        <time>2023-01-22T13:03:11.000Z</time>
      </trkpt>
      <trkpt lat="41.467632" lon="2.022722">
        <ele>96.743060</ele>
        <time>2023-01-22T13:03:19.000Z</time>
      </trkpt>
      <trkpt lat="41.467598" lon="2.023327">
        <ele>96.997295</ele>
        <time>2023-01-22T13:03:25.000Z</time>
      </trkpt>
      <trkpt lat="41.467452" lon="2.023902">
        <ele>97.251705</ele>
        <time>2023-01-22T13:03:31.000Z</time>
      </trkpt>
      <trkpt lat="41.467344" lon="2.024271">
        <ele>97.468502</ele>
        <time>2023-01-22T13:03:35.000Z</time>
      </trkpt>
      <trkpt lat="41.467240" lon="2.024647">
        <ele>97.703529</ele>
        <time>2023-01-22T13:03:39.000Z</time>
      </trkpt>
      <trkpt lat="41.467033" lon="2.025312">
        <ele>98.125794</ele>
        <time>2023-01-22T13:03:46.000Z</time>
      </trkpt>
      <trkpt lat="41.467004" lon="2.025408">
        <ele>98.186491</ele>
        <time>2023-01-22T13:03:47.000Z</time>
      </trkpt>
      <trkpt lat="41.466888" lon="2.025790">
        <ele>98.428191</ele>
        <time>2023-01-22T13:03:51.000Z</time>
      </trkpt>
      <trkpt lat="41.466744" lon="2.026271">
        <ele>98.808000</ele>
        <time>2023-01-22T13:03:56.000Z</time>
      </trkpt>
      <trkpt lat="41.466536" lon="2.027002">
        <ele>100.296925</ele>
        <time>2023-01-22T13:04:04.000Z</time>
      </trkpt>
      <trkpt lat="41.466511" lon="2.027086">
        <ele>100.469030</ele>
        <time>2023-01-22T13:04:05.000Z</time>
      </trkpt>
      <trkpt lat="41.466467" lon="2.027233">
        <ele>100.770449</ele>
        <time>2023-01-22T13:04:07.000Z</time>
      </trkpt>
      <trkpt lat="41.466377" lon="2.027564">
        <ele>101.440943</ele>
        <time>2023-01-22T13:04:11.000Z</time>
      </trkpt>
      <trkpt lat="41.466354" lon="2.027642">
        <ele>101.600555</ele>
        <time>2023-01-22T13:04:12.000Z</time>
      </trkpt>
      <trkpt lat="41.466267" lon="2.027945">
        <ele>102.218428</ele>
        <time>2023-01-22T13:04:16.000Z</time>
      </trkpt>
      <trkpt lat="41.466211" lon="2.028177">
        <ele>102.682553</ele>
        <time>2023-01-22T13:04:19.000Z</time>
      </trkpt>
      <trkpt lat="41.466196" lon="2.028256">
        <ele>102.837738</ele>
        <time>2023-01-22T13:04:20.000Z</time>
      </trkpt>
      <trkpt lat="41.466169" lon="2.028497">
        <ele>103.286275</ele>
        <time>2023-01-22T13:04:23.000Z</time>
      </trkpt>
      <trkpt lat="41.466150" lon="2.028820">
        <ele>103.614670</ele>
        <time>2023-01-22T13:04:27.000Z</time>
      </trkpt>
      <trkpt lat="41.466184" lon="2.029328">
        <ele>104.131621</ele>
        <time>2023-01-22T13:04:33.000Z</time>
      </trkpt>
      <trkpt lat="41.466245" lon="2.029586">
        <ele>104.405833</ele>
        <time>2023-01-22T13:04:36.000Z</time>
      </trkpt>
      <trkpt lat="41.466304" lon="2.029729">
        <ele>104.571294</ele>
        <time>2023-01-22T13:04:38.000Z</time>
      </trkpt>
      <trkpt lat="41.466352" lon="2.029820">
        <ele>104.684089</ele>
        <time>2023-01-22T13:04:39.000Z</time>
      </trkpt>
      <trkpt lat="41.466552" lon="2.030090">
        <ele>105.068897</ele>
        <time>2023-01-22T13:04:43.000Z</time>
      </trkpt>
      <trkpt lat="41.466897" lon="2.030410">
        <ele>105.637199</ele>
        <time>2023-01-22T13:04:49.000Z</time>
      </trkpt>
      <trkpt lat="41.466957" lon="2.030499">
        <ele>105.687537</ele>
        <time>2023-01-22T13:04:51.000Z</time>
      </trkpt>
      <trkpt lat="41.466970" lon="2.030550">
        <ele>105.674108</ele>
        <time>2023-01-22T13:04:52.000Z</time>
      </trkpt>
      <trkpt lat="41.466948" lon="2.030743">
        <ele>105.625442</ele>
        <time>2023-01-22T13:04:56.000Z</time>
      </trkpt>
      <trkpt lat="41.466995" lon="2.030958">
        <ele>105.569610</ele>
        <time>2023-01-22T13:05:00.000Z</time>
      </trkpt>
      <trkpt lat="41.467025" lon="2.031005">
        <ele>105.554219</ele>
        <time>2023-01-22T13:05:01.000Z</time>
      </trkpt>
      <trkpt lat="41.467061" lon="2.031045">
        <ele>105.538635</ele>
        <time>2023-01-22T13:05:02.000Z</time>
      </trkpt>
      <trkpt lat="41.467154" lon="2.031102">
        <ele>105.504589</ele>
        <time>2023-01-22T13:05:04.000Z</time>
      </trkpt>
      <trkpt lat="41.467258" lon="2.031121">
        <ele>105.469668</ele>
        <time>2023-01-22T13:05:06.000Z</time>
      </trkpt>
      <trkpt lat="41.467361" lon="2.031106">
        <ele>105.435198</ele>
        <time>2023-01-22T13:05:08.000Z</time>
      </trkpt>
      <trkpt lat="41.467456" lon="2.031092">
        <ele>105.403402</ele>
        <time>2023-01-22T13:05:10.000Z</time>
      </trkpt>
      <trkpt lat="41.467547" lon="2.031113">
        <ele>105.372679</ele>
        <time>2023-01-22T13:05:12.000Z</time>
      </trkpt>
      <trkpt lat="41.467962" lon="2.031197">
        <ele>105.233038</ele>
        <time>2023-01-22T13:05:19.000Z</time>
      </trkpt>
      <trkpt lat="41.468163" lon="2.031246">
        <ele>105.165063</ele>
        <time>2023-01-22T13:05:22.000Z</time>
      </trkpt>
      <trkpt lat="41.468231" lon="2.031281">
        <ele>105.140816</ele>
        <time>2023-01-22T13:05:23.000Z</time>
      </trkpt>
      <trkpt lat="41.468300" lon="2.031325">
        <ele>105.115375</ele>
        <time>2023-01-22T13:05:24.000Z</time>
      </trkpt>
      <trkpt lat="41.468423" lon="2.031440">
        <ele>105.225039</ele>
        <time>2023-01-22T13:05:26.000Z</time>
      </trkpt>
      <trkpt lat="41.468481" lon="2.031508">
        <ele>105.307905</ele>
        <time>2023-01-22T13:05:27.000Z</time>
      </trkpt>
      <trkpt lat="41.468580" lon="2.031666">
        <ele>105.473554</ele>
        <time>2023-01-22T13:05:29.000Z</time>
      </trkpt>
      <trkpt lat="41.468642" lon="2.031840">
        <ele>105.628515</ele>
        <time>2023-01-22T13:05:31.000Z</time>
      </trkpt>
      <trkpt lat="41.468668" lon="2.032019">
        <ele>105.775160</ele>
        <time>2023-01-22T13:05:33.000Z</time>
      </trkpt>
      <trkpt lat="41.468670" lon="2.032205">
        <ele>105.924771</ele>
        <time>2023-01-22T13:05:35.000Z</time>
      </trkpt>
      <trkpt lat="41.468650" lon="2.032389">
        <ele>106.074307</ele>
        <time>2023-01-22T13:05:37.000Z</time>
      </trkpt>
      <trkpt lat="41.468587" lon="2.032660">
        <ele>106.302515</ele>
        <time>2023-01-22T13:05:40.000Z</time>
      </trkpt>
      <trkpt lat="41.468501" lon="2.033002">
        <ele>106.592653</ele>
        <time>2023-01-22T13:05:44.000Z</time>
      </trkpt>
      <trkpt lat="41.468466" lon="2.033171">
        <ele>106.733672</ele>
        <time>2023-01-22T13:05:46.000Z</time>
      </trkpt>
      <trkpt lat="41.468450" lon="2.033255">
        <ele>106.803380</ele>
        <time>2023-01-22T13:05:47.000Z</time>
      </trkpt>
      <trkpt lat="41.468420" lon="2.033407">
        <ele>106.929800</ele>
        <time>2023-01-22T13:05:49.000Z</time>
      </trkpt>
      <trkpt lat="41.468400" lon="2.033458">
        <ele>106.976096</ele>
        <time>2023-01-22T13:05:50.000Z</time>
      </trkpt>
      <trkpt lat="41.468358" lon="2.033556">
        <ele>107.248001</ele>
        <time>2023-01-22T13:05:52.000Z</time>
      </trkpt>
      <trkpt lat="41.468289" lon="2.033773">
        <ele>108.473343</ele>
        <time>2023-01-22T13:05:55.000Z</time>
      </trkpt>
      <trkpt lat="41.468274" lon="2.034080">
        <ele>110.072546</ele>
        <time>2023-01-22T13:05:58.000Z</time>
      </trkpt>
      <trkpt lat="41.468263" lon="2.034167">
        <ele>110.531173</ele>
        <time>2023-01-22T13:05:59.000Z</time>
      </trkpt>
      <trkpt lat="41.468266" lon="2.034310">
        <ele>111.274792</ele>
        <time>2023-01-22T13:06:01.000Z</time>
      </trkpt>
      <trkpt lat="41.468263" lon="2.034447">
        <ele>111.987235</ele>
        <time>2023-01-22T13:06:03.000Z</time>
      </trkpt>
      <trkpt lat="41.468287" lon="2.034579">
        <ele>112.693293</ele>
        <time>2023-01-22T13:06:05.000Z</time>
      </trkpt>
      <trkpt lat="41.468310" lon="2.034639">
        <ele>113.043620</ele>
        <time>2023-01-22T13:06:06.000Z</time>
      </trkpt>
      <trkpt lat="41.468351" lon="2.034747">
        <ele>113.672951</ele>
        <time>2023-01-22T13:06:08.000Z</time>
      </trkpt>
      <trkpt lat="41.468372" lon="2.034865">
        <ele>114.303387</ele>
        <time>2023-01-22T13:06:10.000Z</time>
      </trkpt>
      <trkpt lat="41.468414" lon="2.034973">
        <ele>114.935883</ele>
        <time>2023-01-22T13:06:12.000Z</time>
      </trkpt>
      <trkpt lat="41.468435" lon="2.035023">
        <ele>115.233830</ele>
        <time>2023-01-22T13:06:13.000Z</time>
      </trkpt>
      <trkpt lat="41.468468" lon="2.035077">
        <ele>115.596040</ele>
        <time>2023-01-22T13:06:14.000Z</time>
      </trkpt>
      <trkpt lat="41.468501" lon="2.035153">
        <ele>116.052628</ele>
        <time>2023-01-22T13:06:16.000Z</time>
      </trkpt>
      <trkpt lat="41.468536" lon="2.035223">
        <ele>116.490062</ele>
        <time>2023-01-22T13:06:18.000Z</time>
      </trkpt>
      <trkpt lat="41.468554" lon="2.035253">
        <ele>116.689836</ele>
        <time>2023-01-22T13:06:19.000Z</time>
      </trkpt>
      <trkpt lat="41.468625" lon="2.035400">
        <ele>117.598934</ele>
        <time>2023-01-22T13:06:23.000Z</time>
      </trkpt>
      <trkpt lat="41.468643" lon="2.035442">
        <ele>117.850440</ele>
        <time>2023-01-22T13:06:24.000Z</time>
      </trkpt>
      <trkpt lat="41.468699" lon="2.035630">
        <ele>118.902058</ele>
        <time>2023-01-22T13:06:28.000Z</time>
      </trkpt>
      <trkpt lat="41.468723" lon="2.035723">
        <ele>119.413344</ele>
        <time>2023-01-22T13:06:30.000Z</time>
      </trkpt>
      <trkpt lat="41.468778" lon="2.036101">
        <ele>120.010646</ele>
        <time>2023-01-22T13:06:38.000Z</time>
      </trkpt>
      <trkpt lat="41.468792" lon="2.036179">
        <ele>120.120052</ele>
        <time>2023-01-22T13:06:40.000Z</time>
      </trkpt>
      <trkpt lat="41.468787" lon="2.036431">
        <ele>120.463916</ele>
        <time>2023-01-22T13:06:46.000Z</time>
      </trkpt>
      <trkpt lat="41.468778" lon="2.036558">
        <ele>120.637925</ele>
        <time>2023-01-22T13:06:50.000Z</time>
      </trkpt>
      <trkpt lat="41.468809" lon="2.036669">
        <ele>120.799510</ele>
        <time>2023-01-22T13:06:55.000Z</time>
      </trkpt>
      <trkpt lat="41.468809" lon="2.036682">
        <ele>120.817243</ele>
        <time>2023-01-22T13:06:56.000Z</time>
      </trkpt>
      <trkpt lat="41.468810" lon="2.036687">
        <ele>120.824302</ele>
        <time>2023-01-22T13:07:02.000Z</time>
      </trkpt>
      <trkpt lat="41.468810" lon="2.036687">
        <ele>120.824302</ele>
        <time>2023-01-22T13:08:56.000Z</time>
      </trkpt>
      <trkpt lat="41.468814" lon="2.036696">
        <ele>120.838576</ele>
        <time>2023-01-22T13:09:22.000Z</time>
      </trkpt>
      <trkpt lat="41.468804" lon="2.036695">
        <ele>120.856831</ele>
        <time>2023-01-22T13:09:40.000Z</time>
      </trkpt>
      <trkpt lat="41.468804" lon="2.036695">
        <ele>120.856831</ele>
        <time>2023-01-22T13:10:10.000Z</time>
      </trkpt>
      <trkpt lat="41.468804" lon="2.036695">
        <ele>120.856831</ele>
        <time>2023-01-22T13:10:44.000Z</time>
      </trkpt>
      <trkpt lat="41.468804" lon="2.036695">
        <ele>120.856831</ele>
        <time>2023-01-22T13:12:16.000Z</time>
      </trkpt>
      <trkpt lat="41.468804" lon="2.036695">
        <ele>120.856831</ele>
        <time>2023-01-22T13:12:46.000Z</time>
      </trkpt>
      <trkpt lat="41.468831" lon="2.036697">
        <ele>120.906057</ele>
        <time>2023-01-22T13:12:55.000Z</time>
      </trkpt>
      <trkpt lat="41.468846" lon="2.036706">
        <ele>120.935996</ele>
        <time>2023-01-22T13:12:56.000Z</time>
      </trkpt>
      <trkpt lat="41.468858" lon="2.036727">
        <ele>120.972020</ele>
        <time>2023-01-22T13:12:57.000Z</time>
      </trkpt>
      <trkpt lat="41.468871" lon="2.036818">
        <ele>121.098386</ele>
        <time>2023-01-22T13:13:00.000Z</time>
      </trkpt>
      <trkpt lat="41.468832" lon="2.037047">
        <ele>121.418721</ele>
        <time>2023-01-22T13:13:05.000Z</time>
      </trkpt>
      <trkpt lat="41.468798" lon="2.037151">
        <ele>121.573498</ele>
        <time>2023-01-22T13:13:07.000Z</time>
      </trkpt>
      <trkpt lat="41.468746" lon="2.037263">
        <ele>121.753222</ele>
        <time>2023-01-22T13:13:09.000Z</time>
      </trkpt>
      <trkpt lat="41.468629" lon="2.037540">
        <ele>122.186963</ele>
        <time>2023-01-22T13:13:13.000Z</time>
      </trkpt>
      <trkpt lat="41.468452" lon="2.037996">
        <ele>122.761414</ele>
        <time>2023-01-22T13:13:21.000Z</time>
      </trkpt>
      <trkpt lat="41.468273" lon="2.038443">
        <ele>122.599824</ele>
        <time>2023-01-22T13:13:29.000Z</time>
      </trkpt>
      <trkpt lat="41.468211" lon="2.038605">
        <ele>122.541827</ele>
        <time>2023-01-22T13:13:32.000Z</time>
      </trkpt>
      <trkpt lat="41.468143" lon="2.038771">
        <ele>122.481509</ele>
        <time>2023-01-22T13:13:35.000Z</time>
      </trkpt>
      <trkpt lat="41.468128" lon="2.038815">
        <ele>122.466097</ele>
        <time>2023-01-22T13:13:36.000Z</time>
      </trkpt>
      <trkpt lat="41.468045" lon="2.039059">
        <ele>122.380662</ele>
        <time>2023-01-22T13:13:40.000Z</time>
      </trkpt>
      <trkpt lat="41.467958" lon="2.039287">
        <ele>122.299087</ele>
        <time>2023-01-22T13:13:44.000Z</time>
      </trkpt>
      <trkpt lat="41.467906" lon="2.039406">
        <ele>122.255166</ele>
        <time>2023-01-22T13:13:46.000Z</time>
      </trkpt>
      <trkpt lat="41.467888" lon="2.039459">
        <ele>122.236613</ele>
        <time>2023-01-22T13:13:47.000Z</time>
      </trkpt>
      <trkpt lat="41.467835" lon="2.039646">
        <ele>122.172870</ele>
        <time>2023-01-22T13:13:50.000Z</time>
      </trkpt>
      <trkpt lat="41.467823" lon="2.039810">
        <ele>122.120333</ele>
        <time>2023-01-22T13:13:52.000Z</time>
      </trkpt>
      <trkpt lat="41.467839" lon="2.039996">
        <ele>122.060642</ele>
        <time>2023-01-22T13:13:54.000Z</time>
      </trkpt>
      <trkpt lat="41.467899" lon="2.040480">
        <ele>121.861598</ele>
        <time>2023-01-22T13:13:59.000Z</time>
      </trkpt>
      <trkpt lat="41.467903" lon="2.040555">
        <ele>121.828797</ele>
        <time>2023-01-22T13:14:00.000Z</time>
      </trkpt>
      <trkpt lat="41.467904" lon="2.040648">
        <ele>121.788223</ele>
        <time>2023-01-22T13:14:01.000Z</time>
      </trkpt>
      <trkpt lat="41.467910" lon="2.040847">
        <ele>121.701340</ele>
        <time>2023-01-22T13:14:03.000Z</time>
      </trkpt>
      <trkpt lat="41.467924" lon="2.040916">
        <ele>121.670156</ele>
        <time>2023-01-22T13:14:04.000Z</time>
      </trkpt>
      <trkpt lat="41.467952" lon="2.041015">
        <ele>121.623994</ele>
        <time>2023-01-22T13:14:05.000Z</time>
      </trkpt>
      <trkpt lat="41.468015" lon="2.041262">
        <ele>121.510171</ele>
        <time>2023-01-22T13:14:08.000Z</time>
      </trkpt>
      <trkpt lat="41.468026" lon="2.041349">
        <ele>121.471681</ele>
        <time>2023-01-22T13:14:09.000Z</time>
      </trkpt>
      <trkpt lat="41.468123" lon="2.041992">
        <ele>121.185550</ele>
        <time>2023-01-22T13:14:17.000Z</time>
      </trkpt>
      <trkpt lat="41.468163" lon="2.042308">
        <ele>121.045745</ele>
        <time>2023-01-22T13:14:22.000Z</time>
      </trkpt>
      <trkpt lat="41.468182" lon="2.042449">
        <ele>120.983248</ele>
        <time>2023-01-22T13:14:24.000Z</time>
      </trkpt>
      <trkpt lat="41.468234" lon="2.042830">
        <ele>121.391111</ele>
        <time>2023-01-22T13:14:30.000Z</time>
      </trkpt>
      <trkpt lat="41.468240" lon="2.042892">
        <ele>121.463048</ele>
        <time>2023-01-22T13:14:31.000Z</time>
      </trkpt>
      <trkpt lat="41.468277" lon="2.043278">
        <ele>121.910845</ele>
        <time>2023-01-22T13:14:38.000Z</time>
      </trkpt>
      <trkpt lat="41.468274" lon="2.043346">
        <ele>121.989230</ele>
        <time>2023-01-22T13:14:42.000Z</time>
      </trkpt>
      <trkpt lat="41.468274" lon="2.043346">
        <ele>121.989230</ele>
        <time>2023-01-22T13:14:43.000Z</time>
      </trkpt>
      <trkpt lat="41.468274" lon="2.043346">
        <ele>121.989230</ele>
        <time>2023-01-22T13:14:44.000Z</time>
      </trkpt>
      <trkpt lat="41.468283" lon="2.043387">
        <ele>122.038392</ele>
        <time>2023-01-22T13:14:50.000Z</time>
      </trkpt>
      <trkpt lat="41.468349" lon="2.043599">
        <ele>122.302562</ele>
        <time>2023-01-22T13:14:57.000Z</time>
      </trkpt>
      <trkpt lat="41.468444" lon="2.043855">
        <ele>122.631291</ele>
        <time>2023-01-22T13:15:03.000Z</time>
      </trkpt>
      <trkpt lat="41.468552" lon="2.044186">
        <ele>123.046721</ele>
        <time>2023-01-22T13:15:09.000Z</time>
      </trkpt>
      <trkpt lat="41.468596" lon="2.044311">
        <ele>123.205641</ele>
        <time>2023-01-22T13:15:11.000Z</time>
      </trkpt>
      <trkpt lat="41.468655" lon="2.044496">
        <ele>123.437002</ele>
        <time>2023-01-22T13:15:14.000Z</time>
      </trkpt>
      <trkpt lat="41.468700" lon="2.044624">
        <ele>123.599699</ele>
        <time>2023-01-22T13:15:16.000Z</time>
      </trkpt>
      <trkpt lat="41.468819" lon="2.044960">
        <ele>124.128636</ele>
        <time>2023-01-22T13:15:21.000Z</time>
      </trkpt>
      <trkpt lat="41.468976" lon="2.045415">
        <ele>124.904758</ele>
        <time>2023-01-22T13:15:28.000Z</time>
      </trkpt>
      <trkpt lat="41.469092" lon="2.045773">
        <ele>125.509074</ele>
        <time>2023-01-22T13:15:34.000Z</time>
      </trkpt>
      <trkpt lat="41.469112" lon="2.045835">
        <ele>125.613658</ele>
        <time>2023-01-22T13:15:35.000Z</time>
      </trkpt>
      <trkpt lat="41.469172" lon="2.046068">
        <ele>125.995386</ele>
        <time>2023-01-22T13:15:40.000Z</time>
      </trkpt>
      <trkpt lat="41.469163" lon="2.046244">
        <ele>126.268709</ele>
        <time>2023-01-22T13:15:44.000Z</time>
      </trkpt>
      <trkpt lat="41.469150" lon="2.046288">
        <ele>126.341990</ele>
        <time>2023-01-22T13:15:45.000Z</time>
      </trkpt>
      <trkpt lat="41.469141" lon="2.046453">
        <ele>126.598313</ele>
        <time>2023-01-22T13:15:49.000Z</time>
      </trkpt>
      <trkpt lat="41.469201" lon="2.046526">
        <ele>126.766195</ele>
        <time>2023-01-22T13:15:51.000Z</time>
      </trkpt>
      <trkpt lat="41.469238" lon="2.046545">
        <ele>126.848169</ele>
        <time>2023-01-22T13:15:52.000Z</time>
      </trkpt>
      <trkpt lat="41.469306" lon="2.046597">
        <ele>127.010221</ele>
        <time>2023-01-22T13:15:54.000Z</time>
      </trkpt>
      <trkpt lat="41.469353" lon="2.046696">
        <ele>127.191804</ele>
        <time>2023-01-22T13:15:56.000Z</time>
      </trkpt>
      <trkpt lat="41.469426" lon="2.046873">
        <ele>127.556212</ele>
        <time>2023-01-22T13:15:59.000Z</time>
      </trkpt>
      <trkpt lat="41.469499" lon="2.047049">
        <ele>128.183509</ele>
        <time>2023-01-22T13:16:02.000Z</time>
      </trkpt>
      <trkpt lat="41.469558" lon="2.047199">
        <ele>128.711785</ele>
        <time>2023-01-22T13:16:05.000Z</time>
      </trkpt>
      <trkpt lat="41.469676" lon="2.047481">
        <ele>129.718975</ele>
        <time>2023-01-22T13:16:11.000Z</time>
      </trkpt>
      <trkpt lat="41.469713" lon="2.047569">
        <ele>130.033636</ele>
        <time>2023-01-22T13:16:13.000Z</time>
      </trkpt>
      <trkpt lat="41.469756" lon="2.047687">
        <ele>130.442803</ele>
        <time>2023-01-22T13:16:16.000Z</time>
      </trkpt>
      <trkpt lat="41.469813" lon="2.047842">
        <ele>130.981212</ele>
        <time>2023-01-22T13:16:20.000Z</time>
      </trkpt>
      <trkpt lat="41.469888" lon="2.048034">
        <ele>131.656400</ele>
        <time>2023-01-22T13:16:25.000Z</time>
      </trkpt>
      <trkpt lat="41.469959" lon="2.048219">
        <ele>132.304552</ele>
        <time>2023-01-22T13:16:30.000Z</time>
      </trkpt>
      <trkpt lat="41.470011" lon="2.048342">
        <ele>132.744940</ele>
        <time>2023-01-22T13:16:33.000Z</time>
      </trkpt>
      <trkpt lat="41.470051" lon="2.048455">
        <ele>133.134649</ele>
        <time>2023-01-22T13:16:36.000Z</time>
      </trkpt>
      <trkpt lat="41.470116" lon="2.048625">
        <ele>133.729787</ele>
        <time>2023-01-22T13:16:41.000Z</time>
      </trkpt>
      <trkpt lat="41.470138" lon="2.048710">
        <ele>134.010209</ele>
        <time>2023-01-22T13:16:43.000Z</time>
      </trkpt>
      <trkpt lat="41.470139" lon="2.048920">
        <ele>134.665063</ele>
        <time>2023-01-22T13:16:48.000Z</time>
      </trkpt>
      <trkpt lat="41.470141" lon="2.049058">
        <ele>135.086917</ele>
        <time>2023-01-22T13:16:51.000Z</time>
      </trkpt>
      <trkpt lat="41.470167" lon="2.049138">
        <ele>135.343943</ele>
        <time>2023-01-22T13:16:53.000Z</time>
      </trkpt>
      <trkpt lat="41.470300" lon="2.049478">
        <ele>136.474440</ele>
        <time>2023-01-22T13:17:00.000Z</time>
      </trkpt>
      <trkpt lat="41.470338" lon="2.049577">
        <ele>136.802301</ele>
        <time>2023-01-22T13:17:02.000Z</time>
      </trkpt>
      <trkpt lat="41.470374" lon="2.049682">
        <ele>137.142648</ele>
        <time>2023-01-22T13:17:04.000Z</time>
      </trkpt>
      <trkpt lat="41.470421" lon="2.049838">
        <ele>137.638235</ele>
        <time>2023-01-22T13:17:07.000Z</time>
      </trkpt>
      <trkpt lat="41.470437" lon="2.049886">
        <ele>137.793083</ele>
        <time>2023-01-22T13:17:08.000Z</time>
      </trkpt>
      <trkpt lat="41.470538" lon="2.050160">
        <ele>138.693131</ele>
        <time>2023-01-22T13:17:14.000Z</time>
      </trkpt>
      <trkpt lat="41.470569" lon="2.050240">
        <ele>138.958596</ele>
        <time>2023-01-22T13:17:16.000Z</time>
      </trkpt>
      <trkpt lat="41.470671" lon="2.050502">
        <ele>139.828852</ele>
        <time>2023-01-22T13:17:22.000Z</time>
      </trkpt>
      <trkpt lat="41.470702" lon="2.050587">
        <ele>140.107489</ele>
        <time>2023-01-22T13:17:24.000Z</time>
      </trkpt>
      <trkpt lat="41.470804" lon="2.050841">
        <ele>140.956890</ele>
        <time>2023-01-22T13:17:30.000Z</time>
      </trkpt>
      <trkpt lat="41.470832" lon="2.050920">
        <ele>141.214476</ele>
        <time>2023-01-22T13:17:32.000Z</time>
      </trkpt>
      <trkpt lat="41.470881" lon="2.051079">
        <ele>141.721215</ele>
        <time>2023-01-22T13:17:36.000Z</time>
      </trkpt>
      <trkpt lat="41.470943" lon="2.051225">
        <ele>142.150389</ele>
        <time>2023-01-22T13:17:40.000Z</time>
      </trkpt>
      <trkpt lat="41.470969" lon="2.051296">
        <ele>142.307540</ele>
        <time>2023-01-22T13:17:42.000Z</time>
      </trkpt>
      <trkpt lat="41.471064" lon="2.051566">
        <ele>142.900717</ele>
        <time>2023-01-22T13:17:49.000Z</time>
      </trkpt>
      <trkpt lat="41.471079" lon="2.051604">
        <ele>142.986129</ele>
        <time>2023-01-22T13:17:50.000Z</time>
      </trkpt>
      <trkpt lat="41.471198" lon="2.051906">
        <ele>143.664670</ele>
        <time>2023-01-22T13:17:57.000Z</time>
      </trkpt>
      <trkpt lat="41.471322" lon="2.052242">
        <ele>144.409490</ele>
        <time>2023-01-22T13:18:05.000Z</time>
      </trkpt>
      <trkpt lat="41.471335" lon="2.052280">
        <ele>144.492560</ele>
        <time>2023-01-22T13:18:06.000Z</time>
      </trkpt>
      <trkpt lat="41.471427" lon="2.052562">
        <ele>145.104196</ele>
        <time>2023-01-22T13:18:13.000Z</time>
      </trkpt>
      <trkpt lat="41.471457" lon="2.052627">
        <ele>145.256009</ele>
        <time>2023-01-22T13:18:15.000Z</time>
      </trkpt>
      <trkpt lat="41.471534" lon="2.052799">
        <ele>145.654447</ele>
        <time>2023-01-22T13:18:20.000Z</time>
      </trkpt>
      <trkpt lat="41.471559" lon="2.053061">
        <ele>146.179667</ele>
        <time>2023-01-22T13:18:26.000Z</time>
      </trkpt>
      <trkpt lat="41.471540" lon="2.053113">
        <ele>146.294713</ele>
        <time>2023-01-22T13:18:27.000Z</time>
      </trkpt>
      <trkpt lat="41.471447" lon="2.053260">
        <ele>146.677302</ele>
        <time>2023-01-22T13:18:30.000Z</time>
      </trkpt>
      <trkpt lat="41.471236" lon="2.053587">
        <ele>146.219291</ele>
        <time>2023-01-22T13:18:35.000Z</time>
      </trkpt>
      <trkpt lat="41.471145" lon="2.053748">
        <ele>145.913962</ele>
        <time>2023-01-22T13:18:37.000Z</time>
      </trkpt>
      <trkpt lat="41.471099" lon="2.053833">
        <ele>145.755216</ele>
        <time>2023-01-22T13:18:38.000Z</time>
      </trkpt>
      <trkpt lat="41.470954" lon="2.054109">
        <ele>145.244870</ele>
        <time>2023-01-22T13:18:41.000Z</time>
      </trkpt>
      <trkpt lat="41.470906" lon="2.054208">
        <ele>145.066340</ele>
        <time>2023-01-22T13:18:42.000Z</time>
      </trkpt>
      <trkpt lat="41.470677" lon="2.054742">
        <ele>144.134809</ele>
        <time>2023-01-22T13:18:47.000Z</time>
      </trkpt>
      <trkpt lat="41.470635" lon="2.054857">
        <ele>143.941116</ele>
        <time>2023-01-22T13:18:48.000Z</time>
      </trkpt>
      <trkpt lat="41.470561" lon="2.055081">
        <ele>143.570477</ele>
        <time>2023-01-22T13:18:50.000Z</time>
      </trkpt>
      <trkpt lat="41.470381" lon="2.055752">
        <ele>143.221253</ele>
        <time>2023-01-22T13:18:56.000Z</time>
      </trkpt>
      <trkpt lat="41.470217" lon="2.056512">
        <ele>143.343014</ele>
        <time>2023-01-22T13:19:03.000Z</time>
      </trkpt>
      <trkpt lat="41.470176" lon="2.056713">
        <ele>143.375085</ele>
        <time>2023-01-22T13:19:05.000Z</time>
      </trkpt>
      <trkpt lat="41.470008" lon="2.057499">
        <ele>143.500920</ele>
        <time>2023-01-22T13:19:13.000Z</time>
      </trkpt>
      <trkpt lat="41.469888" lon="2.058067">
        <ele>143.701440</ele>
        <time>2023-01-22T13:19:19.000Z</time>
      </trkpt>
      <trkpt lat="41.469829" lon="2.058343">
        <ele>143.816545</ele>
        <time>2023-01-22T13:19:22.000Z</time>
      </trkpt>
      <trkpt lat="41.469667" lon="2.059085">
        <ele>144.126496</ele>
        <time>2023-01-22T13:19:30.000Z</time>
      </trkpt>
      <trkpt lat="41.469645" lon="2.059179">
        <ele>144.165991</ele>
        <time>2023-01-22T13:19:31.000Z</time>
      </trkpt>
      <trkpt lat="41.469489" lon="2.059929">
        <ele>144.478150</ele>
        <time>2023-01-22T13:19:39.000Z</time>
      </trkpt>
      <trkpt lat="41.469387" lon="2.060358">
        <ele>144.068578</ele>
        <time>2023-01-22T13:19:44.000Z</time>
      </trkpt>
      <trkpt lat="41.469284" lon="2.060447">
        <ele>143.909636</ele>
        <time>2023-01-22T13:19:46.000Z</time>
      </trkpt>
      <trkpt lat="41.469218" lon="2.060474">
        <ele>143.820218</ele>
        <time>2023-01-22T13:19:47.000Z</time>
      </trkpt>
      <trkpt lat="41.469025" lon="2.060534">
        <ele>143.563527</ele>
        <time>2023-01-22T13:19:51.000Z</time>
      </trkpt>
      <trkpt lat="41.468914" lon="2.060544">
        <ele>143.419419</ele>
        <time>2023-01-22T13:19:53.000Z</time>
      </trkpt>
      <trkpt lat="41.468862" lon="2.060573">
        <ele>143.346418</ele>
        <time>2023-01-22T13:19:54.000Z</time>
      </trkpt>
      <trkpt lat="41.468819" lon="2.060618">
        <ele>143.275636</ele>
        <time>2023-01-22T13:19:55.000Z</time>
      </trkpt>
      <trkpt lat="41.468801" lon="2.060745">
        <ele>143.150183</ele>
        <time>2023-01-22T13:19:57.000Z</time>
      </trkpt>
      <trkpt lat="41.468874" lon="2.060968">
        <ele>142.913984</ele>
        <time>2023-01-22T13:20:00.000Z</time>
      </trkpt>
      <trkpt lat="41.468901" lon="2.061126">
        <ele>142.756691</ele>
        <time>2023-01-22T13:20:02.000Z</time>
      </trkpt>
      <trkpt lat="41.468988" lon="2.061867">
        <ele>142.339810</ele>
        <time>2023-01-22T13:20:10.000Z</time>
      </trkpt>
      <trkpt lat="41.469000" lon="2.062216">
        <ele>142.827484</ele>
        <time>2023-01-22T13:20:14.000Z</time>
      </trkpt>
      <trkpt lat="41.468970" lon="2.062390">
        <ele>143.076713</ele>
        <time>2023-01-22T13:20:16.000Z</time>
      </trkpt>
      <trkpt lat="41.468818" lon="2.062974">
        <ele>143.939684</ele>
        <time>2023-01-22T13:20:23.000Z</time>
      </trkpt>
      <trkpt lat="41.468742" lon="2.063376">
        <ele>144.518413</ele>
        <time>2023-01-22T13:20:28.000Z</time>
      </trkpt>
      <trkpt lat="41.468727" lon="2.063454">
        <ele>144.630820</ele>
        <time>2023-01-22T13:20:29.000Z</time>
      </trkpt>
      <trkpt lat="41.468712" lon="2.063531">
        <ele>144.741876</ele>
        <time>2023-01-22T13:20:30.000Z</time>
      </trkpt>
      <trkpt lat="41.468657" lon="2.063910">
        <ele>145.280746</ele>
        <time>2023-01-22T13:20:35.000Z</time>
      </trkpt>
      <trkpt lat="41.468643" lon="2.064084">
        <ele>145.522581</ele>
        <time>2023-01-22T13:20:37.000Z</time>
      </trkpt>
      <trkpt lat="41.468620" lon="2.064329">
        <ele>145.820641</ele>
        <time>2023-01-22T13:20:40.000Z</time>
      </trkpt>
      <trkpt lat="41.468611" lon="2.064738">
        <ele>146.314572</ele>
        <time>2023-01-22T13:20:45.000Z</time>
      </trkpt>
      <trkpt lat="41.468607" lon="2.064966">
        <ele>146.589874</ele>
        <time>2023-01-22T13:20:48.000Z</time>
      </trkpt>
      <trkpt lat="41.468598" lon="2.065419">
        <ele>147.136898</ele>
        <time>2023-01-22T13:20:54.000Z</time>
      </trkpt>
      <trkpt lat="41.468586" lon="2.065782">
        <ele>147.575514</ele>
        <time>2023-01-22T13:20:59.000Z</time>
      </trkpt>
      <trkpt lat="41.468561" lon="2.066060">
        <ele>147.913506</ele>
        <time>2023-01-22T13:21:03.000Z</time>
      </trkpt>
      <trkpt lat="41.468559" lon="2.066196">
        <ele>148.077708</ele>
        <time>2023-01-22T13:21:05.000Z</time>
      </trkpt>
      <trkpt lat="41.468565" lon="2.066570">
        <ele>148.530343</ele>
        <time>2023-01-22T13:21:10.000Z</time>
      </trkpt>
      <trkpt lat="41.468567" lon="2.066789">
        <ele>148.796978</ele>
        <time>2023-01-22T13:21:13.000Z</time>
      </trkpt>
      <trkpt lat="41.468559" lon="2.067369">
        <ele>149.503201</ele>
        <time>2023-01-22T13:21:21.000Z</time>
      </trkpt>
      <trkpt lat="41.468561" lon="2.067874">
        <ele>150.118006</ele>
        <time>2023-01-22T13:21:28.000Z</time>
      </trkpt>
      <trkpt lat="41.468557" lon="2.068105">
        <ele>150.399305</ele>
        <time>2023-01-22T13:21:31.000Z</time>
      </trkpt>
      <trkpt lat="41.468560" lon="2.068258">
        <ele>150.585634</ele>
        <time>2023-01-22T13:21:33.000Z</time>
      </trkpt>
      <trkpt lat="41.468567" lon="2.068411">
        <ele>150.772246</ele>
        <time>2023-01-22T13:21:35.000Z</time>
      </trkpt>
      <trkpt lat="41.468589" lon="2.068940">
        <ele>151.335484</ele>
        <time>2023-01-22T13:21:42.000Z</time>
      </trkpt>
      <trkpt lat="41.468594" lon="2.069159">
        <ele>151.361170</ele>
        <time>2023-01-22T13:21:45.000Z</time>
      </trkpt>
      <trkpt lat="41.468599" lon="2.069549">
        <ele>151.406898</ele>
        <time>2023-01-22T13:21:50.000Z</time>
      </trkpt>
      <trkpt lat="41.468632" lon="2.070006">
        <ele>151.460721</ele>
        <time>2023-01-22T13:21:55.000Z</time>
      </trkpt>
      <trkpt lat="41.468666" lon="2.070470">
        <ele>151.515377</ele>
        <time>2023-01-22T13:22:00.000Z</time>
      </trkpt>
      <trkpt lat="41.468718" lon="2.070980">
        <ele>151.575716</ele>
        <time>2023-01-22T13:22:06.000Z</time>
      </trkpt>
      <trkpt lat="41.468733" lon="2.071152">
        <ele>151.596016</ele>
        <time>2023-01-22T13:22:08.000Z</time>
      </trkpt>
      <trkpt lat="41.468750" lon="2.071333">
        <ele>151.546166</ele>
        <time>2023-01-22T13:22:10.000Z</time>
      </trkpt>
      <trkpt lat="41.468801" lon="2.071722">
        <ele>151.235077</ele>
        <time>2023-01-22T13:22:14.000Z</time>
      </trkpt>
      <trkpt lat="41.468863" lon="2.072217">
        <ele>150.839733</ele>
        <time>2023-01-22T13:22:19.000Z</time>
      </trkpt>
      <trkpt lat="41.468889" lon="2.072406">
        <ele>150.688361</ele>
        <time>2023-01-22T13:22:21.000Z</time>
      </trkpt>
      <trkpt lat="41.468966" lon="2.072976">
        <ele>150.232107</ele>
        <time>2023-01-22T13:22:27.000Z</time>
      </trkpt>
      <trkpt lat="41.469016" lon="2.073533">
        <ele>149.790196</ele>
        <time>2023-01-22T13:22:33.000Z</time>
      </trkpt>
      <trkpt lat="41.469047" lon="2.073717">
        <ele>149.626164</ele>
        <time>2023-01-22T13:22:35.000Z</time>
      </trkpt>
      <trkpt lat="41.469075" lon="2.073909">
        <ele>149.440572</ele>
        <time>2023-01-22T13:22:37.000Z</time>
      </trkpt>
      <trkpt lat="41.469084" lon="2.073993">
        <ele>149.360060</ele>
        <time>2023-01-22T13:22:38.000Z</time>
      </trkpt>
      <trkpt lat="41.469091" lon="2.074082">
        <ele>149.275151</ele>
        <time>2023-01-22T13:22:39.000Z</time>
      </trkpt>
      <trkpt lat="41.469123" lon="2.074350">
        <ele>149.017659</ele>
        <time>2023-01-22T13:22:42.000Z</time>
      </trkpt>
      <trkpt lat="41.469190" lon="2.074887">
        <ele>148.501128</ele>
        <time>2023-01-22T13:22:48.000Z</time>
      </trkpt>
      <trkpt lat="41.469222" lon="2.075189">
        <ele>148.211734</ele>
        <time>2023-01-22T13:22:51.000Z</time>
      </trkpt>
      <trkpt lat="41.469252" lon="2.075557">
        <ele>147.860508</ele>
        <time>2023-01-22T13:22:55.000Z</time>
      </trkpt>
      <trkpt lat="41.469305" lon="2.076017">
        <ele>147.415131</ele>
        <time>2023-01-22T13:23:00.000Z</time>
      </trkpt>
      <trkpt lat="41.469329" lon="2.076306">
        <ele>147.089016</ele>
        <time>2023-01-22T13:23:03.000Z</time>
      </trkpt>
      <trkpt lat="41.469335" lon="2.076488">
        <ele>146.884695</ele>
        <time>2023-01-22T13:23:05.000Z</time>
      </trkpt>
      <trkpt lat="41.469346" lon="2.076671">
        <ele>146.678791</ele>
        <time>2023-01-22T13:23:07.000Z</time>
      </trkpt>
      <trkpt lat="41.469349" lon="2.076741">
        <ele>146.600153</ele>
        <time>2023-01-22T13:23:08.000Z</time>
      </trkpt>
      <trkpt lat="41.469357" lon="2.076854">
        <ele>146.472853</ele>
        <time>2023-01-22T13:23:09.000Z</time>
      </trkpt>
      <trkpt lat="41.469411" lon="2.077158">
        <ele>146.122450</ele>
        <time>2023-01-22T13:23:12.000Z</time>
      </trkpt>
      <trkpt lat="41.469446" lon="2.077258">
        <ele>145.998663</ele>
        <time>2023-01-22T13:23:13.000Z</time>
      </trkpt>
      <trkpt lat="41.469497" lon="2.077435">
        <ele>145.785976</ele>
        <time>2023-01-22T13:23:15.000Z</time>
      </trkpt>
      <trkpt lat="41.469516" lon="2.077501">
        <ele>145.706678</ele>
        <time>2023-01-22T13:23:16.000Z</time>
      </trkpt>
      <trkpt lat="41.469632" lon="2.077935">
        <ele>145.189884</ele>
        <time>2023-01-22T13:23:22.000Z</time>
      </trkpt>
      <trkpt lat="41.469676" lon="2.078119">
        <ele>144.973264</ele>
        <time>2023-01-22T13:23:25.000Z</time>
      </trkpt>
      <trkpt lat="41.469677" lon="2.078160">
        <ele>144.927256</ele>
        <time>2023-01-22T13:23:26.000Z</time>
      </trkpt>
      <trkpt lat="41.469677" lon="2.078183">
        <ele>144.901461</ele>
        <time>2023-01-22T13:23:29.000Z</time>
      </trkpt>
      <trkpt lat="41.469684" lon="2.078195">
        <ele>144.884404</ele>
        <time>2023-01-22T13:23:51.000Z</time>
      </trkpt>
      <trkpt lat="41.469696" lon="2.078259">
        <ele>144.810412</ele>
        <time>2023-01-22T13:24:16.000Z</time>
      </trkpt>
      <trkpt lat="41.469759" lon="2.078336">
        <ele>144.814029</ele>
        <time>2023-01-22T13:24:19.000Z</time>
      </trkpt>
      <trkpt lat="41.469787" lon="2.078339">
        <ele>144.857019</ele>
        <time>2023-01-22T13:24:20.000Z</time>
      </trkpt>
      <trkpt lat="41.469961" lon="2.078397">
        <ele>145.131493</ele>
        <time>2023-01-22T13:24:26.000Z</time>
      </trkpt>
      <trkpt lat="41.470098" lon="2.078491">
        <ele>145.367247</ele>
        <time>2023-01-22T13:24:30.000Z</time>
      </trkpt>
      <trkpt lat="41.470129" lon="2.078509">
        <ele>145.418986</ele>
        <time>2023-01-22T13:24:31.000Z</time>
      </trkpt>
      <trkpt lat="41.470431" lon="2.078667">
        <ele>145.915419</ele>
        <time>2023-01-22T13:24:37.000Z</time>
      </trkpt>
      <trkpt lat="41.470481" lon="2.078695">
        <ele>145.998403</ele>
        <time>2023-01-22T13:24:38.000Z</time>
      </trkpt>
      <trkpt lat="41.470617" lon="2.078723">
        <ele>146.209003</ele>
        <time>2023-01-22T13:24:41.000Z</time>
      </trkpt>
      <trkpt lat="41.470727" lon="2.078722">
        <ele>146.377353</ele>
        <time>2023-01-22T13:24:43.000Z</time>
      </trkpt>
      <trkpt lat="41.470942" lon="2.078814">
        <ele>146.722893</ele>
        <time>2023-01-22T13:24:47.000Z</time>
      </trkpt>
      <trkpt lat="41.470997" lon="2.078842">
        <ele>146.812982</ele>
        <time>2023-01-22T13:24:48.000Z</time>
      </trkpt>
      <trkpt lat="41.471280" lon="2.079007">
        <ele>147.285617</ele>
        <time>2023-01-22T13:24:53.000Z</time>
      </trkpt>
      <trkpt lat="41.471336" lon="2.079021">
        <ele>147.372812</ele>
        <time>2023-01-22T13:24:54.000Z</time>
      </trkpt>
      <trkpt lat="41.471408" lon="2.079042">
        <ele>147.485603</ele>
        <time>2023-01-22T13:24:55.000Z</time>
      </trkpt>
      <trkpt lat="41.471661" lon="2.079131">
        <ele>147.802248</ele>
        <time>2023-01-22T13:24:59.000Z</time>
      </trkpt>
      <trkpt lat="41.471857" lon="2.079281">
        <ele>148.072940</ele>
        <time>2023-01-22T13:25:05.000Z</time>
      </trkpt>
      <trkpt lat="41.471981" lon="2.079400">
        <ele>148.255922</ele>
        <time>2023-01-22T13:25:09.000Z</time>
      </trkpt>
      <trkpt lat="41.472112" lon="2.079469">
        <ele>148.424651</ele>
        <time>2023-01-22T13:25:14.000Z</time>
      </trkpt>
      <trkpt lat="41.472129" lon="2.079455">
        <ele>148.448584</ele>
        <time>2023-01-22T13:25:16.000Z</time>
      </trkpt>
      <trkpt lat="41.472166" lon="2.079470">
        <ele>148.494913</ele>
        <time>2023-01-22T13:25:18.000Z</time>
      </trkpt>
      <trkpt lat="41.472205" lon="2.079505">
        <ele>148.551219</ele>
        <time>2023-01-22T13:25:23.000Z</time>
      </trkpt>
      <trkpt lat="41.472205" lon="2.079509">
        <ele>148.554810</ele>
        <time>2023-01-22T13:25:26.000Z</time>
      </trkpt>
      <trkpt lat="41.472205" lon="2.079509">
        <ele>148.554810</ele>
        <time>2023-01-22T13:25:29.000Z</time>
      </trkpt>
      <trkpt lat="41.472226" lon="2.079517">
        <ele>148.580975</ele>
        <time>2023-01-22T13:25:39.000Z</time>
      </trkpt>
      <trkpt lat="41.472258" lon="2.079542">
        <ele>148.625399</ele>
        <time>2023-01-22T13:25:42.000Z</time>
      </trkpt>
      <trkpt lat="41.472290" lon="2.079559">
        <ele>148.666663</ele>
        <time>2023-01-22T13:25:44.000Z</time>
      </trkpt>
      <trkpt lat="41.472311" lon="2.079564">
        <ele>148.692220</ele>
        <time>2023-01-22T13:25:45.000Z</time>
      </trkpt>
      <trkpt lat="41.472404" lon="2.079619">
        <ele>148.814091</ele>
        <time>2023-01-22T13:25:48.000Z</time>
      </trkpt>
      <trkpt lat="41.472416" lon="2.079659">
        <ele>148.852770</ele>
        <time>2023-01-22T13:25:49.000Z</time>
      </trkpt>
      <trkpt lat="41.472419" lon="2.079702">
        <ele>148.891537</ele>
        <time>2023-01-22T13:25:50.000Z</time>
      </trkpt>
      <trkpt lat="41.472409" lon="2.079746">
        <ele>148.932813</ele>
        <time>2023-01-22T13:25:51.000Z</time>
      </trkpt>
      <trkpt lat="41.472396" lon="2.079792">
        <ele>148.976946</ele>
        <time>2023-01-22T13:25:52.000Z</time>
      </trkpt>
      <trkpt lat="41.472314" lon="2.079918">
        <ele>149.126764</ele>
        <time>2023-01-22T13:25:55.000Z</time>
      </trkpt>
      <trkpt lat="41.472286" lon="2.079974">
        <ele>149.187200</ele>
        <time>2023-01-22T13:25:56.000Z</time>
      </trkpt>
      <trkpt lat="41.472264" lon="2.080040">
        <ele>149.252046</ele>
        <time>2023-01-22T13:25:57.000Z</time>
      </trkpt>
      <trkpt lat="41.472224" lon="2.080281">
        <ele>149.473634</ele>
        <time>2023-01-22T13:26:00.000Z</time>
      </trkpt>
      <trkpt lat="41.472157" lon="2.080547">
        <ele>149.347147</ele>
        <time>2023-01-22T13:26:03.000Z</time>
      </trkpt>
      <trkpt lat="41.472139" lon="2.080748">
        <ele>148.552029</ele>
        <time>2023-01-22T13:26:05.000Z</time>
      </trkpt>
      <trkpt lat="41.472129" lon="2.080862">
        <ele>148.101195</ele>
        <time>2023-01-22T13:26:06.000Z</time>
      </trkpt>
      <trkpt lat="41.472023" lon="2.081248">
        <ele>146.486421</ele>
        <time>2023-01-22T13:26:10.000Z</time>
      </trkpt>
      <trkpt lat="41.471967" lon="2.081536">
        <ele>145.317725</ele>
        <time>2023-01-22T13:26:13.000Z</time>
      </trkpt>
      <trkpt lat="41.471927" lon="2.081762">
        <ele>144.405598</ele>
        <time>2023-01-22T13:26:16.000Z</time>
      </trkpt>
      <trkpt lat="41.471910" lon="2.081812">
        <ele>144.189930</ele>
        <time>2023-01-22T13:26:17.000Z</time>
      </trkpt>
      <trkpt lat="41.471879" lon="2.081888">
        <ele>143.850045</ele>
        <time>2023-01-22T13:26:19.000Z</time>
      </trkpt>
      <trkpt lat="41.471874" lon="2.081928">
        <ele>143.690759</ele>
        <time>2023-01-22T13:26:20.000Z</time>
      </trkpt>
      <trkpt lat="41.471835" lon="2.082079">
        <ele>143.063403</ele>
        <time>2023-01-22T13:26:24.000Z</time>
      </trkpt>
      <trkpt lat="41.471794" lon="2.082172">
        <ele>142.639571</ele>
        <time>2023-01-22T13:26:27.000Z</time>
      </trkpt>
      <trkpt lat="41.471736" lon="2.082220">
        <ele>142.281812</ele>
        <time>2023-01-22T13:26:29.000Z</time>
      </trkpt>
      <trkpt lat="41.471563" lon="2.082231">
        <ele>141.373885</ele>
        <time>2023-01-22T13:26:32.000Z</time>
      </trkpt>
      <trkpt lat="41.471513" lon="2.082242">
        <ele>141.108238</ele>
        <time>2023-01-22T13:26:33.000Z</time>
      </trkpt>
      <trkpt lat="41.471335" lon="2.082259">
        <ele>140.197432</ele>
        <time>2023-01-22T13:26:36.000Z</time>
      </trkpt>
      <trkpt lat="41.471221" lon="2.082274">
        <ele>139.873609</ele>
        <time>2023-01-22T13:26:38.000Z</time>
      </trkpt>
      <trkpt lat="41.471172" lon="2.082282">
        <ele>139.734061</ele>
        <time>2023-01-22T13:26:39.000Z</time>
      </trkpt>
      <trkpt lat="41.471050" lon="2.082307">
        <ele>139.385145</ele>
        <time>2023-01-22T13:26:41.000Z</time>
      </trkpt>
      <trkpt lat="41.470790" lon="2.082377">
        <ele>138.635360</ele>
        <time>2023-01-22T13:26:45.000Z</time>
      </trkpt>
      <trkpt lat="41.470664" lon="2.082410">
        <ele>138.272384</ele>
        <time>2023-01-22T13:26:47.000Z</time>
      </trkpt>
      <trkpt lat="41.470505" lon="2.082437">
        <ele>137.819292</ele>
        <time>2023-01-22T13:26:50.000Z</time>
      </trkpt>
      <trkpt lat="41.470470" lon="2.082455">
        <ele>137.713260</ele>
        <time>2023-01-22T13:26:51.000Z</time>
      </trkpt>
      <trkpt lat="41.470462" lon="2.082485">
        <ele>137.645812</ele>
        <time>2023-01-22T13:26:52.000Z</time>
      </trkpt>
      <trkpt lat="41.470486" lon="2.082626">
        <ele>137.339544</ele>
        <time>2023-01-22T13:26:56.000Z</time>
      </trkpt>
      <trkpt lat="41.470508" lon="2.082738">
        <ele>137.094296</ele>
        <time>2023-01-22T13:26:58.000Z</time>
      </trkpt>
      <trkpt lat="41.470516" lon="2.082803">
        <ele>136.954772</ele>
        <time>2023-01-22T13:26:59.000Z</time>
      </trkpt>
      <trkpt lat="41.470531" lon="2.082873">
        <ele>136.800558</ele>
        <time>2023-01-22T13:27:00.000Z</time>
      </trkpt>
      <trkpt lat="41.470583" lon="2.083003">
        <ele>136.488420</ele>
        <time>2023-01-22T13:27:02.000Z</time>
      </trkpt>
      <trkpt lat="41.470608" lon="2.083084">
        <ele>136.302865</ele>
        <time>2023-01-22T13:27:03.000Z</time>
      </trkpt>
      <trkpt lat="41.470603" lon="2.083156">
        <ele>136.149705</ele>
        <time>2023-01-22T13:27:04.000Z</time>
      </trkpt>
      <trkpt lat="41.470619" lon="2.083299">
        <ele>135.843453</ele>
        <time>2023-01-22T13:27:06.000Z</time>
      </trkpt>
      <trkpt lat="41.470650" lon="2.083457">
        <ele>135.497504</ele>
        <time>2023-01-22T13:27:08.000Z</time>
      </trkpt>
      <trkpt lat="41.470669" lon="2.083529">
        <ele>135.335816</ele>
        <time>2023-01-22T13:27:09.000Z</time>
      </trkpt>
      <trkpt lat="41.470702" lon="2.083636">
        <ele>135.115777</ele>
        <time>2023-01-22T13:27:11.000Z</time>
      </trkpt>
      <trkpt lat="41.470695" lon="2.083681">
        <ele>135.066131</ele>
        <time>2023-01-22T13:27:12.000Z</time>
      </trkpt>
      <trkpt lat="41.470682" lon="2.083775">
        <ele>134.962876</ele>
        <time>2023-01-22T13:27:14.000Z</time>
      </trkpt>
      <trkpt lat="41.470721" lon="2.083947">
        <ele>134.768760</ele>
        <time>2023-01-22T13:27:17.000Z</time>
      </trkpt>
      <trkpt lat="41.470752" lon="2.084002">
        <ele>134.694416</ele>
        <time>2023-01-22T13:27:18.000Z</time>
      </trkpt>
      <trkpt lat="41.470784" lon="2.084058">
        <ele>134.618341</ele>
        <time>2023-01-22T13:27:19.000Z</time>
      </trkpt>
      <trkpt lat="41.470828" lon="2.084174">
        <ele>134.477896</ele>
        <time>2023-01-22T13:27:21.000Z</time>
      </trkpt>
      <trkpt lat="41.470849" lon="2.084297">
        <ele>134.341625</ele>
        <time>2023-01-22T13:27:23.000Z</time>
      </trkpt>
      <trkpt lat="41.470869" lon="2.084362">
        <ele>134.265722</ele>
        <time>2023-01-22T13:27:24.000Z</time>
      </trkpt>
      <trkpt lat="41.470958" lon="2.084567">
        <ele>134.009795</ele>
        <time>2023-01-22T13:27:27.000Z</time>
      </trkpt>
      <trkpt lat="41.471070" lon="2.084807">
        <ele>133.704376</ele>
        <time>2023-01-22T13:27:31.000Z</time>
      </trkpt>
      <trkpt lat="41.471145" lon="2.084973">
        <ele>133.494987</ele>
        <time>2023-01-22T13:27:34.000Z</time>
      </trkpt>
      <trkpt lat="41.471313" lon="2.085340">
        <ele>133.030425</ele>
        <time>2023-01-22T13:27:41.000Z</time>
      </trkpt>
      <trkpt lat="41.471334" lon="2.085391">
        <ele>132.967564</ele>
        <time>2023-01-22T13:27:42.000Z</time>
      </trkpt>
      <trkpt lat="41.471344" lon="2.085495">
        <ele>132.854302</ele>
        <time>2023-01-22T13:27:44.000Z</time>
      </trkpt>
      <trkpt lat="41.471340" lon="2.085546">
        <ele>132.798911</ele>
        <time>2023-01-22T13:27:45.000Z</time>
      </trkpt>
      <trkpt lat="41.471408" lon="2.085800">
        <ele>132.518723</ele>
        <time>2023-01-22T13:27:50.000Z</time>
      </trkpt>
      <trkpt lat="41.471496" lon="2.085982">
        <ele>132.348018</ele>
        <time>2023-01-22T13:27:53.000Z</time>
      </trkpt>
      <trkpt lat="41.471535" lon="2.086046">
        <ele>132.283005</ele>
        <time>2023-01-22T13:27:54.000Z</time>
      </trkpt>
      <trkpt lat="41.471736" lon="2.086493">
        <ele>131.872159</ele>
        <time>2023-01-22T13:28:00.000Z</time>
      </trkpt>
      <trkpt lat="41.471788" lon="2.086725">
        <ele>131.681317</ele>
        <time>2023-01-22T13:28:03.000Z</time>
      </trkpt>
      <trkpt lat="41.471844" lon="2.086973">
        <ele>131.477187</ele>
        <time>2023-01-22T13:28:06.000Z</time>
      </trkpt>
      <trkpt lat="41.471895" lon="2.087642">
        <ele>130.947233</ele>
        <time>2023-01-22T13:28:13.000Z</time>
      </trkpt>
      <trkpt lat="41.471887" lon="2.087833">
        <ele>130.796472</ele>
        <time>2023-01-22T13:28:15.000Z</time>
      </trkpt>
      <trkpt lat="41.471838" lon="2.088307">
        <ele>130.314920</ele>
        <time>2023-01-22T13:28:20.000Z</time>
      </trkpt>
      <trkpt lat="41.471817" lon="2.088499">
        <ele>130.094795</ele>
        <time>2023-01-22T13:28:22.000Z</time>
      </trkpt>
      <trkpt lat="41.471716" lon="2.089203">
        <ele>129.281626</ele>
        <time>2023-01-22T13:28:29.000Z</time>
      </trkpt>
      <trkpt lat="41.471700" lon="2.089300">
        <ele>129.168948</ele>
        <time>2023-01-22T13:28:30.000Z</time>
      </trkpt>
      <trkpt lat="41.471688" lon="2.089396">
        <ele>129.058535</ele>
        <time>2023-01-22T13:28:31.000Z</time>
      </trkpt>
      <trkpt lat="41.471694" lon="2.089708">
        <ele>128.704466</ele>
        <time>2023-01-22T13:28:34.000Z</time>
      </trkpt>
      <trkpt lat="41.471720" lon="2.090187">
        <ele>128.159634</ele>
        <time>2023-01-22T13:28:39.000Z</time>
      </trkpt>
      <trkpt lat="41.471744" lon="2.090577">
        <ele>127.884984</ele>
        <time>2023-01-22T13:28:43.000Z</time>
      </trkpt>
      <trkpt lat="41.471799" lon="2.091312">
        <ele>127.697455</ele>
        <time>2023-01-22T13:28:50.000Z</time>
      </trkpt>
      <trkpt lat="41.471820" lon="2.091522">
        <ele>127.643668</ele>
        <time>2023-01-22T13:28:52.000Z</time>
      </trkpt>
      <trkpt lat="41.471872" lon="2.092280">
        <ele>127.450423</ele>
        <time>2023-01-22T13:29:00.000Z</time>
      </trkpt>
      <trkpt lat="41.471873" lon="2.092355">
        <ele>127.431379</ele>
        <time>2023-01-22T13:29:01.000Z</time>
      </trkpt>
      <trkpt lat="41.471878" lon="2.092423">
        <ele>127.414033</ele>
        <time>2023-01-22T13:29:02.000Z</time>
      </trkpt>
      <trkpt lat="41.471917" lon="2.092518">
        <ele>127.386531</ele>
        <time>2023-01-22T13:29:04.000Z</time>
      </trkpt>
      <trkpt lat="41.472005" lon="2.092545">
        <ele>127.355937</ele>
        <time>2023-01-22T13:29:06.000Z</time>
      </trkpt>
      <trkpt lat="41.472056" lon="2.092544">
        <ele>127.338654</ele>
        <time>2023-01-22T13:29:07.000Z</time>
      </trkpt>
      <trkpt lat="41.472169" lon="2.092550">
        <ele>127.405221</ele>
        <time>2023-01-22T13:29:09.000Z</time>
      </trkpt>
      <trkpt lat="41.472346" lon="2.092623">
        <ele>127.616547</ele>
        <time>2023-01-22T13:29:12.000Z</time>
      </trkpt>
      <trkpt lat="41.472780" lon="2.092832">
        <ele>128.142857</ele>
        <time>2023-01-22T13:29:19.000Z</time>
      </trkpt>
      <trkpt lat="41.473298" lon="2.093076">
        <ele>128.769467</ele>
        <time>2023-01-22T13:29:28.000Z</time>
      </trkpt>
      <trkpt lat="41.473711" lon="2.093266">
        <ele>129.267783</ele>
        <time>2023-01-22T13:29:36.000Z</time>
      </trkpt>
      <trkpt lat="41.473808" lon="2.093324">
        <ele>129.368903</ele>
        <time>2023-01-22T13:29:38.000Z</time>
      </trkpt>
      <trkpt lat="41.473878" lon="2.093415">
        <ele>129.307028</ele>
        <time>2023-01-22T13:29:40.000Z</time>
      </trkpt>
      <trkpt lat="41.473893" lon="2.093528">
        <ele>129.252584</ele>
        <time>2023-01-22T13:29:42.000Z</time>
      </trkpt>
      <trkpt lat="41.473891" lon="2.093589">
        <ele>129.223617</ele>
        <time>2023-01-22T13:29:43.000Z</time>
      </trkpt>
      <trkpt lat="41.473894" lon="2.093704">
        <ele>129.169025</ele>
        <time>2023-01-22T13:29:45.000Z</time>
      </trkpt>
      <trkpt lat="41.473938" lon="2.093833">
        <ele>129.101782</ele>
        <time>2023-01-22T13:29:47.000Z</time>
      </trkpt>
      <trkpt lat="41.474021" lon="2.093901">
        <ele>129.040115</ele>
        <time>2023-01-22T13:29:49.000Z</time>
      </trkpt>
      <trkpt lat="41.474070" lon="2.093915">
        <ele>129.008386</ele>
        <time>2023-01-22T13:29:50.000Z</time>
      </trkpt>
      <trkpt lat="41.474120" lon="2.093920">
        <ele>128.976638</ele>
        <time>2023-01-22T13:29:51.000Z</time>
      </trkpt>
      <trkpt lat="41.474267" lon="2.093902">
        <ele>128.883168</ele>
        <time>2023-01-22T13:29:54.000Z</time>
      </trkpt>
      <trkpt lat="41.474367" lon="2.093936">
        <ele>128.817827</ele>
        <time>2023-01-22T13:29:56.000Z</time>
      </trkpt>
      <trkpt lat="41.474416" lon="2.093980">
        <ele>128.780432</ele>
        <time>2023-01-22T13:29:57.000Z</time>
      </trkpt>
      <trkpt lat="41.474459" lon="2.094037">
        <ele>128.742058</ele>
        <time>2023-01-22T13:29:58.000Z</time>
      </trkpt>
      <trkpt lat="41.474541" lon="2.094159">
        <ele>128.664303</ele>
        <time>2023-01-22T13:30:00.000Z</time>
      </trkpt>
      <trkpt lat="41.474589" lon="2.094224">
        <ele>128.621006</ele>
        <time>2023-01-22T13:30:01.000Z</time>
      </trkpt>
      <trkpt lat="41.474790" lon="2.094509">
        <ele>128.435320</ele>
        <time>2023-01-22T13:30:05.000Z</time>
      </trkpt>
      <trkpt lat="41.474952" lon="2.094742">
        <ele>128.284520</ele>
        <time>2023-01-22T13:30:08.000Z</time>
      </trkpt>
      <trkpt lat="41.475119" lon="2.094981">
        <ele>128.089063</ele>
        <time>2023-01-22T13:30:11.000Z</time>
      </trkpt>
      <trkpt lat="41.475245" lon="2.095129">
        <ele>127.942912</ele>
        <time>2023-01-22T13:30:13.000Z</time>
      </trkpt>
      <trkpt lat="41.475310" lon="2.095192">
        <ele>127.872964</ele>
        <time>2023-01-22T13:30:14.000Z</time>
      </trkpt>
      <trkpt lat="41.475381" lon="2.095249">
        <ele>127.800818</ele>
        <time>2023-01-22T13:30:15.000Z</time>
      </trkpt>
      <trkpt lat="41.475525" lon="2.095351">
        <ele>127.658867</ele>
        <time>2023-01-22T13:30:17.000Z</time>
      </trkpt>
      <trkpt lat="41.475598" lon="2.095402">
        <ele>127.587121</ele>
        <time>2023-01-22T13:30:18.000Z</time>
      </trkpt>
      <trkpt lat="41.476064" lon="2.095707">
        <ele>127.135190</ele>
        <time>2023-01-22T13:30:25.000Z</time>
      </trkpt>
      <trkpt lat="41.476463" lon="2.095977">
        <ele>126.745660</ele>
        <time>2023-01-22T13:30:32.000Z</time>
      </trkpt>
      <trkpt lat="41.476609" lon="2.096077">
        <ele>126.782791</ele>
        <time>2023-01-22T13:30:35.000Z</time>
      </trkpt>
      <trkpt lat="41.476696" lon="2.096137">
        <ele>126.922363</ele>
        <time>2023-01-22T13:30:37.000Z</time>
      </trkpt>
      <trkpt lat="41.476752" lon="2.096178">
        <ele>127.013396</ele>
        <time>2023-01-22T13:30:38.000Z</time>
      </trkpt>
      <trkpt lat="41.476837" lon="2.096252">
        <ele>127.158035</ele>
        <time>2023-01-22T13:30:40.000Z</time>
      </trkpt>
      <trkpt lat="41.476863" lon="2.096304">
        <ele>127.224792</ele>
        <time>2023-01-22T13:30:41.000Z</time>
      </trkpt>
      <trkpt lat="41.476882" lon="2.096362">
        <ele>127.292387</ele>
        <time>2023-01-22T13:30:42.000Z</time>
      </trkpt>
      <trkpt lat="41.476931" lon="2.096566">
        <ele>127.521145</ele>
        <time>2023-01-22T13:30:45.000Z</time>
      </trkpt>
      <trkpt lat="41.476996" lon="2.096685">
        <ele>127.678402</ele>
        <time>2023-01-22T13:30:47.000Z</time>
      </trkpt>
      <trkpt lat="41.477047" lon="2.096730">
        <ele>127.765537</ele>
        <time>2023-01-22T13:30:48.000Z</time>
      </trkpt>
      <trkpt lat="41.477104" lon="2.096766">
        <ele>127.855412</ele>
        <time>2023-01-22T13:30:49.000Z</time>
      </trkpt>
      <trkpt lat="41.477226" lon="2.096781">
        <ele>128.030029</ele>
        <time>2023-01-22T13:30:51.000Z</time>
      </trkpt>
      <trkpt lat="41.477346" lon="2.096760">
        <ele>128.202523</ele>
        <time>2023-01-22T13:30:53.000Z</time>
      </trkpt>
      <trkpt lat="41.477454" lon="2.096788">
        <ele>128.359326</ele>
        <time>2023-01-22T13:30:55.000Z</time>
      </trkpt>
      <trkpt lat="41.477642" lon="2.097018">
        <ele>128.722801</ele>
        <time>2023-01-22T13:30:59.000Z</time>
      </trkpt>
      <trkpt lat="41.477868" lon="2.097393">
        <ele>129.233213</ele>
        <time>2023-01-22T13:31:04.000Z</time>
      </trkpt>
      <trkpt lat="41.478148" lon="2.098008">
        <ele>128.752340</ele>
        <time>2023-01-22T13:31:11.000Z</time>
      </trkpt>
      <trkpt lat="41.478432" lon="2.098659">
        <ele>128.248970</ele>
        <time>2023-01-22T13:31:18.000Z</time>
      </trkpt>
      <trkpt lat="41.478521" lon="2.098854">
        <ele>128.096397</ele>
        <time>2023-01-22T13:31:20.000Z</time>
      </trkpt>
      <trkpt lat="41.478795" lon="2.099468">
        <ele>127.613447</ele>
        <time>2023-01-22T13:31:26.000Z</time>
      </trkpt>
      <trkpt lat="41.478843" lon="2.099572">
        <ele>127.493514</ele>
        <time>2023-01-22T13:31:27.000Z</time>
      </trkpt>
      <trkpt lat="41.479032" lon="2.099985">
        <ele>127.018351</ele>
        <time>2023-01-22T13:31:31.000Z</time>
      </trkpt>
      <trkpt lat="41.479274" lon="2.100486">
        <ele>126.433075</ele>
        <time>2023-01-22T13:31:36.000Z</time>
      </trkpt>
      <trkpt lat="41.479549" lon="2.100952">
        <ele>125.850648</ele>
        <time>2023-01-22T13:31:41.000Z</time>
      </trkpt>
      <trkpt lat="41.479668" lon="2.101129">
        <ele>125.617148</ele>
        <time>2023-01-22T13:31:43.000Z</time>
      </trkpt>
      <trkpt lat="41.480067" lon="2.101627">
        <ele>124.952206</ele>
        <time>2023-01-22T13:31:49.000Z</time>
      </trkpt>
      <trkpt lat="41.480138" lon="2.101702">
        <ele>124.849797</ele>
        <time>2023-01-22T13:31:50.000Z</time>
      </trkpt>
      <trkpt lat="41.480405" lon="2.101979">
        <ele>124.467322</ele>
        <time>2023-01-22T13:31:54.000Z</time>
      </trkpt>
      <trkpt lat="41.480451" lon="2.102056">
        <ele>124.383872</ele>
        <time>2023-01-22T13:31:55.000Z</time>
      </trkpt>
      <trkpt lat="41.480482" lon="2.102148">
        <ele>124.298394</ele>
        <time>2023-01-22T13:31:56.000Z</time>
      </trkpt>
      <trkpt lat="41.480502" lon="2.102346">
        <ele>124.129101</ele>
        <time>2023-01-22T13:31:58.000Z</time>
      </trkpt>
      <trkpt lat="41.480566" lon="2.102535">
        <ele>123.953353</ele>
        <time>2023-01-22T13:32:00.000Z</time>
      </trkpt>
      <trkpt lat="41.480625" lon="2.102609">
        <ele>123.861785</ele>
        <time>2023-01-22T13:32:01.000Z</time>
      </trkpt>
      <trkpt lat="41.480692" lon="2.102664">
        <ele>123.772822</ele>
        <time>2023-01-22T13:32:02.000Z</time>
      </trkpt>
      <trkpt lat="41.480848" lon="2.102706">
        <ele>123.592827</ele>
        <time>2023-01-22T13:32:04.000Z</time>
      </trkpt>
      <trkpt lat="41.481008" lon="2.102708">
        <ele>123.411854</ele>
        <time>2023-01-22T13:32:06.000Z</time>
      </trkpt>
      <trkpt lat="41.481155" lon="2.102773">
        <ele>123.239332</ele>
        <time>2023-01-22T13:32:08.000Z</time>
      </trkpt>
      <trkpt lat="41.481486" lon="2.103112">
        <ele>123.331561</ele>
        <time>2023-01-22T13:32:13.000Z</time>
      </trkpt>
      <trkpt lat="41.481835" lon="2.103551">
        <ele>123.437571</ele>
        <time>2023-01-22T13:32:18.000Z</time>
      </trkpt>
      <trkpt lat="41.482116" lon="2.104097">
        <ele>123.547277</ele>
        <time>2023-01-22T13:32:23.000Z</time>
      </trkpt>
      <trkpt lat="41.482293" lon="2.104686">
        <ele>123.702057</ele>
        <time>2023-01-22T13:32:28.000Z</time>
      </trkpt>
      <trkpt lat="41.482396" lon="2.105220">
        <ele>124.079407</ele>
        <time>2023-01-22T13:32:33.000Z</time>
      </trkpt>
      <trkpt lat="41.482415" lon="2.105321">
        <ele>124.150670</ele>
        <time>2023-01-22T13:32:34.000Z</time>
      </trkpt>
      <trkpt lat="41.482491" lon="2.105714">
        <ele>124.428427</ele>
        <time>2023-01-22T13:32:38.000Z</time>
      </trkpt>
      <trkpt lat="41.482547" lon="2.106019">
        <ele>124.643324</ele>
        <time>2023-01-22T13:32:41.000Z</time>
      </trkpt>
      <trkpt lat="41.482693" lon="2.106696">
        <ele>125.125427</ele>
        <time>2023-01-22T13:32:47.000Z</time>
      </trkpt>
      <trkpt lat="41.482751" lon="2.106936">
        <ele>125.232794</ele>
        <time>2023-01-22T13:32:49.000Z</time>
      </trkpt>
      <trkpt lat="41.482835" lon="2.107300">
        <ele>124.574193</ele>
        <time>2023-01-22T13:32:52.000Z</time>
      </trkpt>
      <trkpt lat="41.482900" lon="2.107551">
        <ele>124.114973</ele>
        <time>2023-01-22T13:32:54.000Z</time>
      </trkpt>
      <trkpt lat="41.482968" lon="2.107801">
        <ele>123.655072</ele>
        <time>2023-01-22T13:32:56.000Z</time>
      </trkpt>
      <trkpt lat="41.483118" lon="2.108289">
        <ele>122.742976</ele>
        <time>2023-01-22T13:33:00.000Z</time>
      </trkpt>
      <trkpt lat="41.483157" lon="2.108410">
        <ele>122.515205</ele>
        <time>2023-01-22T13:33:01.000Z</time>
      </trkpt>
      <trkpt lat="41.483391" lon="2.109091">
        <ele>121.219695</ele>
        <time>2023-01-22T13:33:07.000Z</time>
      </trkpt>
      <trkpt lat="41.483473" lon="2.109311">
        <ele>120.952168</ele>
        <time>2023-01-22T13:33:09.000Z</time>
      </trkpt>
      <trkpt lat="41.483512" lon="2.109418">
        <ele>120.843600</ele>
        <time>2023-01-22T13:33:10.000Z</time>
      </trkpt>
      <trkpt lat="41.483794" lon="2.110163">
        <ele>120.082028</ele>
        <time>2023-01-22T13:33:17.000Z</time>
      </trkpt>
      <trkpt lat="41.484054" lon="2.110827">
        <ele>119.398439</ele>
        <time>2023-01-22T13:33:23.000Z</time>
      </trkpt>
      <trkpt lat="41.484188" lon="2.111172">
        <ele>119.043875</ele>
        <time>2023-01-22T13:33:26.000Z</time>
      </trkpt>
      <trkpt lat="41.484328" lon="2.111524">
        <ele>118.515547</ele>
        <time>2023-01-22T13:33:29.000Z</time>
      </trkpt>
      <trkpt lat="41.484555" lon="2.112111">
        <ele>117.526728</ele>
        <time>2023-01-22T13:33:34.000Z</time>
      </trkpt>
      <trkpt lat="41.484599" lon="2.112227">
        <ele>117.332104</ele>
        <time>2023-01-22T13:33:35.000Z</time>
      </trkpt>
      <trkpt lat="41.484736" lon="2.112572">
        <ele>116.747623</ele>
        <time>2023-01-22T13:33:38.000Z</time>
      </trkpt>
      <trkpt lat="41.485004" lon="2.113259">
        <ele>115.588216</ele>
        <time>2023-01-22T13:33:44.000Z</time>
      </trkpt>
      <trkpt lat="41.485045" lon="2.113373">
        <ele>115.398929</ele>
        <time>2023-01-22T13:33:45.000Z</time>
      </trkpt>
      <trkpt lat="41.485087" lon="2.113486">
        <ele>115.369864</ele>
        <time>2023-01-22T13:33:46.000Z</time>
      </trkpt>
      <trkpt lat="41.485241" lon="2.114065">
        <ele>115.551732</ele>
        <time>2023-01-22T13:33:51.000Z</time>
      </trkpt>
      <trkpt lat="41.485248" lon="2.114181">
        <ele>115.586179</ele>
        <time>2023-01-22T13:33:52.000Z</time>
      </trkpt>
      <trkpt lat="41.485204" lon="2.114387">
        <ele>115.649586</ele>
        <time>2023-01-22T13:33:54.000Z</time>
      </trkpt>
      <trkpt lat="41.485122" lon="2.114574">
        <ele>115.713724</ele>
        <time>2023-01-22T13:33:56.000Z</time>
      </trkpt>
      <trkpt lat="41.485111" lon="2.114790">
        <ele>115.777809</ele>
        <time>2023-01-22T13:33:58.000Z</time>
      </trkpt>
      <trkpt lat="41.485179" lon="2.114990">
        <ele>115.842822</ele>
        <time>2023-01-22T13:34:00.000Z</time>
      </trkpt>
      <trkpt lat="41.485221" lon="2.115081">
        <ele>115.874460</ele>
        <time>2023-01-22T13:34:01.000Z</time>
      </trkpt>
      <trkpt lat="41.485255" lon="2.115179">
        <ele>115.906428</ele>
        <time>2023-01-22T13:34:02.000Z</time>
      </trkpt>
      <trkpt lat="41.485283" lon="2.115397">
        <ele>115.971898</ele>
        <time>2023-01-22T13:34:04.000Z</time>
      </trkpt>
      <trkpt lat="41.485356" lon="2.116070">
        <ele>117.108051</ele>
        <time>2023-01-22T13:34:10.000Z</time>
      </trkpt>
      <trkpt lat="41.485424" lon="2.116404">
        <ele>118.015375</ele>
        <time>2023-01-22T13:34:13.000Z</time>
      </trkpt>
      <trkpt lat="41.485504" lon="2.116729">
        <ele>118.912162</ele>
        <time>2023-01-22T13:34:16.000Z</time>
      </trkpt>
      <trkpt lat="41.485601" lon="2.117141">
        <ele>120.044282</ele>
        <time>2023-01-22T13:34:20.000Z</time>
      </trkpt>
      <trkpt lat="41.485652" lon="2.117326">
        <ele>120.561045</ele>
        <time>2023-01-22T13:34:22.000Z</time>
      </trkpt>
      <trkpt lat="41.485700" lon="2.117514">
        <ele>121.081714</ele>
        <time>2023-01-22T13:34:24.000Z</time>
      </trkpt>
      <trkpt lat="41.485745" lon="2.117697">
        <ele>121.586621</ele>
        <time>2023-01-22T13:34:26.000Z</time>
      </trkpt>
      <trkpt lat="41.485861" lon="2.118139">
        <ele>122.119422</ele>
        <time>2023-01-22T13:34:31.000Z</time>
      </trkpt>
      <trkpt lat="41.485880" lon="2.118229">
        <ele>121.999057</ele>
        <time>2023-01-22T13:34:32.000Z</time>
      </trkpt>
      <trkpt lat="41.486040" lon="2.118896">
        <ele>121.097520</ele>
        <time>2023-01-22T13:34:39.000Z</time>
      </trkpt>
      <trkpt lat="41.486126" lon="2.119339">
        <ele>120.508436</ele>
        <time>2023-01-22T13:34:43.000Z</time>
      </trkpt>
      <trkpt lat="41.486151" lon="2.119581">
        <ele>120.193976</ele>
        <time>2023-01-22T13:34:45.000Z</time>
      </trkpt>
      <trkpt lat="41.486181" lon="2.119966">
        <ele>119.695715</ele>
        <time>2023-01-22T13:34:48.000Z</time>
      </trkpt>
      <trkpt lat="41.486190" lon="2.120243">
        <ele>119.338814</ele>
        <time>2023-01-22T13:34:50.000Z</time>
      </trkpt>
      <trkpt lat="41.486190" lon="2.120387">
        <ele>119.045596</ele>
        <time>2023-01-22T13:34:51.000Z</time>
      </trkpt>
      <trkpt lat="41.486189" lon="2.120529">
        <ele>118.673479</ele>
        <time>2023-01-22T13:34:52.000Z</time>
      </trkpt>
      <trkpt lat="41.486175" lon="2.120815">
        <ele>117.922440</ele>
        <time>2023-01-22T13:34:54.000Z</time>
      </trkpt>
      <trkpt lat="41.486150" lon="2.121091">
        <ele>117.193935</ele>
        <time>2023-01-22T13:34:56.000Z</time>
      </trkpt>
      <trkpt lat="41.486134" lon="2.121216">
        <ele>116.861634</ele>
        <time>2023-01-22T13:34:57.000Z</time>
      </trkpt>
      <trkpt lat="41.486117" lon="2.121327">
        <ele>116.564750</ele>
        <time>2023-01-22T13:34:58.000Z</time>
      </trkpt>
      <trkpt lat="41.486099" lon="2.121417">
        <ele>116.320652</ele>
        <time>2023-01-22T13:34:59.000Z</time>
      </trkpt>
      <trkpt lat="41.486071" lon="2.121489">
        <ele>116.108073</ele>
        <time>2023-01-22T13:35:00.000Z</time>
      </trkpt>
      <trkpt lat="41.486029" lon="2.121550">
        <ele>115.890966</ele>
        <time>2023-01-22T13:35:01.000Z</time>
      </trkpt>
      <trkpt lat="41.485911" lon="2.121639">
        <ele>115.416869</ele>
        <time>2023-01-22T13:35:03.000Z</time>
      </trkpt>
      <trkpt lat="41.485814" lon="2.121768">
        <ele>114.937914</ele>
        <time>2023-01-22T13:35:05.000Z</time>
      </trkpt>
      <trkpt lat="41.485784" lon="2.121851">
        <ele>114.696424</ele>
        <time>2023-01-22T13:35:06.000Z</time>
      </trkpt>
      <trkpt lat="41.485773" lon="2.121925">
        <ele>114.498731</ele>
        <time>2023-01-22T13:35:07.000Z</time>
      </trkpt>
      <trkpt lat="41.485792" lon="2.122120">
        <ele>113.983441</ele>
        <time>2023-01-22T13:35:09.000Z</time>
      </trkpt>
      <trkpt lat="41.485869" lon="2.122350">
        <ele>113.323292</ele>
        <time>2023-01-22T13:35:12.000Z</time>
      </trkpt>
      <trkpt lat="41.485881" lon="2.122427">
        <ele>113.117198</ele>
        <time>2023-01-22T13:35:13.000Z</time>
      </trkpt>
      <trkpt lat="41.485883" lon="2.122507">
        <ele>112.956726</ele>
        <time>2023-01-22T13:35:14.000Z</time>
      </trkpt>
      <trkpt lat="41.485863" lon="2.122659">
        <ele>112.893287</ele>
        <time>2023-01-22T13:35:16.000Z</time>
      </trkpt>
      <trkpt lat="41.485843" lon="2.122731">
        <ele>112.861721</ele>
        <time>2023-01-22T13:35:17.000Z</time>
      </trkpt>
      <trkpt lat="41.485677" lon="2.123331">
        <ele>112.598798</ele>
        <time>2023-01-22T13:35:25.000Z</time>
      </trkpt>
      <trkpt lat="41.485538" lon="2.123837">
        <ele>112.377253</ele>
        <time>2023-01-22T13:35:31.000Z</time>
      </trkpt>
      <trkpt lat="41.485370" lon="2.124532">
        <ele>112.077055</ele>
        <time>2023-01-22T13:35:38.000Z</time>
      </trkpt>
      <trkpt lat="41.485351" lon="2.124637">
        <ele>112.032652</ele>
        <time>2023-01-22T13:35:39.000Z</time>
      </trkpt>
      <trkpt lat="41.485277" lon="2.125075">
        <ele>111.411501</ele>
        <time>2023-01-22T13:35:43.000Z</time>
      </trkpt>
      <trkpt lat="41.485243" lon="2.125301">
        <ele>111.000561</ele>
        <time>2023-01-22T13:35:45.000Z</time>
      </trkpt>
      <trkpt lat="41.485218" lon="2.125531">
        <ele>110.586241</ele>
        <time>2023-01-22T13:35:47.000Z</time>
      </trkpt>
      <trkpt lat="41.485200" lon="2.126089">
        <ele>109.590560</ele>
        <time>2023-01-22T13:35:52.000Z</time>
      </trkpt>
      <trkpt lat="41.485236" lon="2.126903">
        <ele>108.136896</ele>
        <time>2023-01-22T13:35:59.000Z</time>
      </trkpt>
      <trkpt lat="41.485267" lon="2.127134">
        <ele>107.718532</ele>
        <time>2023-01-22T13:36:01.000Z</time>
      </trkpt>
      <trkpt lat="41.485309" lon="2.127563">
        <ele>106.998147</ele>
        <time>2023-01-22T13:36:05.000Z</time>
      </trkpt>
      <trkpt lat="41.485291" lon="2.127652">
        <ele>106.844938</ele>
        <time>2023-01-22T13:36:06.000Z</time>
      </trkpt>
      <trkpt lat="41.485256" lon="2.127727">
        <ele>106.698085</ele>
        <time>2023-01-22T13:36:07.000Z</time>
      </trkpt>
      <trkpt lat="41.485153" lon="2.127852">
        <ele>106.389261</ele>
        <time>2023-01-22T13:36:09.000Z</time>
      </trkpt>
      <trkpt lat="41.485068" lon="2.128021">
        <ele>106.050960</ele>
        <time>2023-01-22T13:36:11.000Z</time>
      </trkpt>
      <trkpt lat="41.485051" lon="2.128120">
        <ele>105.882160</ele>
        <time>2023-01-22T13:36:12.000Z</time>
      </trkpt>
      <trkpt lat="41.485056" lon="2.128204">
        <ele>105.742116</ele>
        <time>2023-01-22T13:36:13.000Z</time>
      </trkpt>
      <trkpt lat="41.485138" lon="2.128408">
        <ele>105.357356</ele>
        <time>2023-01-22T13:36:15.000Z</time>
      </trkpt>
      <trkpt lat="41.485271" lon="2.128517">
        <ele>105.011123</ele>
        <time>2023-01-22T13:36:17.000Z</time>
      </trkpt>
      <trkpt lat="41.485343" lon="2.128558">
        <ele>104.837464</ele>
        <time>2023-01-22T13:36:18.000Z</time>
      </trkpt>
      <trkpt lat="41.485408" lon="2.128608">
        <ele>104.671032</ele>
        <time>2023-01-22T13:36:19.000Z</time>
      </trkpt>
      <trkpt lat="41.485493" lon="2.128765">
        <ele>104.349098</ele>
        <time>2023-01-22T13:36:21.000Z</time>
      </trkpt>
      <trkpt lat="41.485519" lon="2.129052">
        <ele>103.868647</ele>
        <time>2023-01-22T13:36:24.000Z</time>
      </trkpt>
      <trkpt lat="41.485527" lon="2.129152">
        <ele>103.707748</ele>
        <time>2023-01-22T13:36:25.000Z</time>
      </trkpt>
      <trkpt lat="41.485561" lon="2.129942">
        <ele>103.597847</ele>
        <time>2023-01-22T13:36:33.000Z</time>
      </trkpt>
      <trkpt lat="41.485563" lon="2.130039">
        <ele>103.584370</ele>
        <time>2023-01-22T13:36:34.000Z</time>
      </trkpt>
      <trkpt lat="41.485536" lon="2.130535">
        <ele>103.515301</ele>
        <time>2023-01-22T13:36:39.000Z</time>
      </trkpt>
      <trkpt lat="41.485516" lon="2.131192">
        <ele>103.423978</ele>
        <time>2023-01-22T13:36:46.000Z</time>
      </trkpt>
      <trkpt lat="41.485557" lon="2.131983">
        <ele>103.746957</ele>
        <time>2023-01-22T13:36:55.000Z</time>
      </trkpt>
      <trkpt lat="41.485569" lon="2.132243">
        <ele>103.967666</ele>
        <time>2023-01-22T13:36:58.000Z</time>
      </trkpt>
      <trkpt lat="41.485555" lon="2.132410">
        <ele>104.110044</ele>
        <time>2023-01-22T13:37:00.000Z</time>
      </trkpt>
      <trkpt lat="41.485560" lon="2.132482">
        <ele>104.171310</ele>
        <time>2023-01-22T13:37:01.000Z</time>
      </trkpt>
      <trkpt lat="41.485592" lon="2.132593">
        <ele>104.272081</ele>
        <time>2023-01-22T13:37:03.000Z</time>
      </trkpt>
      <trkpt lat="41.485631" lon="2.132603">
        <ele>104.316997</ele>
        <time>2023-01-22T13:37:05.000Z</time>
      </trkpt>
      <trkpt lat="41.485728" lon="2.132489">
        <ele>104.463167</ele>
        <time>2023-01-22T13:37:08.000Z</time>
      </trkpt>
      <trkpt lat="41.485772" lon="2.132475">
        <ele>104.514326</ele>
        <time>2023-01-22T13:37:09.000Z</time>
      </trkpt>
      <trkpt lat="41.486046" lon="2.132403">
        <ele>104.830173</ele>
        <time>2023-01-22T13:37:14.000Z</time>
      </trkpt>
      <trkpt lat="41.486283" lon="2.132361">
        <ele>105.100577</ele>
        <time>2023-01-22T13:37:18.000Z</time>
      </trkpt>
      <trkpt lat="41.486395" lon="2.132342">
        <ele>105.228270</ele>
        <time>2023-01-22T13:37:20.000Z</time>
      </trkpt>
      <trkpt lat="41.486559" lon="2.132315">
        <ele>105.409157</ele>
        <time>2023-01-22T13:37:23.000Z</time>
      </trkpt>
      <trkpt lat="41.486615" lon="2.132311">
        <ele>105.409157</ele>
        <time>2023-01-22T13:37:24.000Z</time>
      </trkpt>
      <trkpt lat="41.486717" lon="2.132294">
        <ele>105.409157</ele>
        <time>2023-01-22T13:37:26.000Z</time>
      </trkpt>
      <trkpt lat="41.486766" lon="2.132287">
        <ele>105.409157</ele>
        <time>2023-01-22T13:37:27.000Z</time>
      </trkpt>
      <trkpt lat="41.486999" lon="2.132251">
        <ele>105.409157</ele>
        <time>2023-01-22T13:37:32.000Z</time>
      </trkpt>
      <trkpt lat="41.487047" lon="2.132247">
        <ele>105.409157</ele>
        <time>2023-01-22T13:37:33.000Z</time>
      </trkpt>
      <trkpt lat="41.487219" lon="2.132233">
        <ele>105.409157</ele>
        <time>2023-01-22T13:37:36.000Z</time>
      </trkpt>
      <trkpt lat="41.487408" lon="2.132208">
        <ele>105.409157</ele>
        <time>2023-01-22T13:37:39.000Z</time>
      </trkpt>
      <trkpt lat="41.487708" lon="2.132166">
        <ele>105.409157</ele>
        <time>2023-01-22T13:37:44.000Z</time>
      </trkpt>
      <trkpt lat="41.487824" lon="2.132154">
        <ele>105.409157</ele>
        <time>2023-01-22T13:37:46.000Z</time>
      </trkpt>
      <trkpt lat="41.488091" lon="2.132124">
        <ele>105.409157</ele>
        <time>2023-01-22T13:37:51.000Z</time>
      </trkpt>
      <trkpt lat="41.488209" lon="2.132115">
        <ele>105.409157</ele>
        <time>2023-01-22T13:37:53.000Z</time>
      </trkpt>
      <trkpt lat="41.488266" lon="2.132109">
        <ele>105.409157</ele>
        <time>2023-01-22T13:37:54.000Z</time>
      </trkpt>
      <trkpt lat="41.488445" lon="2.132085">
        <ele>105.409157</ele>
        <time>2023-01-22T13:37:57.000Z</time>
      </trkpt>
      <trkpt lat="41.488730" lon="2.132048">
        <ele>105.409157</ele>
        <time>2023-01-22T13:38:02.000Z</time>
      </trkpt>
      <trkpt lat="41.488823" lon="2.132033">
        <ele>105.409157</ele>
        <time>2023-01-22T13:38:04.000Z</time>
      </trkpt>
      <trkpt lat="41.488958" lon="2.132039">
        <ele>105.409157</ele>
        <time>2023-01-22T13:38:08.000Z</time>
      </trkpt>
      <trkpt lat="41.488994" lon="2.132038">
        <ele>105.409157</ele>
        <time>2023-01-22T13:38:11.000Z</time>
      </trkpt>
      <trkpt lat="41.488994" lon="2.132038">
        <ele>105.409157</ele>
        <time>2023-01-22T13:38:12.000Z</time>
      </trkpt>
      <trkpt lat="41.488994" lon="2.132038">
        <ele>105.409157</ele>
        <time>2023-01-22T13:38:14.000Z</time>
      </trkpt>
    </trkseg>
  </trk>
</gpx>
